<?xml version="1.0" encoding="UTF-8"?>
<gpx version="1.1" creator="https://www.youtrack.es" xsi:schemaLocation="http://www.topografix.com/GPX/1/1 http://www.topografix.com/GPX/1/1/gpx.xsd http://www.garmin.com/xmlschemas/GpxExtensions/v3 http://www.garmin.com/xmlschemas/GpxExtensionsv3.xsd http://www.garmin.com/xmlschemas/TrackPointExtension/v1 http://www.garmin.com/xmlschemas/TrackPointExtensionv1.xsd" xmlns:gpxtpx="http://www.garmin.com/xmlschemas/TrackPointExtension/v1" xmlns:gpxx="http://www.garmin.com/xmlschemas/GpxExtensions/v3" xmlns:xsi="http://www.w3.org/2001/XMLSchema-instance">
  <metadata>
    <link href="https://www.youtrack.es">
      <text>YouTrack.es</text>
    </link>
    <time>2026-05-10T16:58:33Z</time>
  </metadata>
  <trk>
    <src>https://www.youtrack.es</src>
    <link href="https://www.youtrack.es/ruta/16692-albaida-bocairent">
      <text>YouTrack.es</text>
    </link>
    <trkseg>
      <trkpt lat="38.836272" lon="-0.518026">
        <ele>352.296</ele>
        <time>2020-10-18T08:21:27Z</time>
      </trkpt>
      <trkpt lat="38.836496" lon="-0.517781">
        <ele>352.631</ele>
        <time>2020-10-18T08:21:28Z</time>
      </trkpt>
      <trkpt lat="38.836430" lon="-0.517746">
        <ele>353.224</ele>
        <time>2020-10-18T08:21:33Z</time>
      </trkpt>
      <trkpt lat="38.836332" lon="-0.517751">
        <ele>353.408</ele>
        <time>2020-10-18T08:21:35Z</time>
      </trkpt>
      <trkpt lat="38.836331" lon="-0.517639">
        <ele>353.444</ele>
        <time>2020-10-18T08:21:37Z</time>
      </trkpt>
      <trkpt lat="38.836240" lon="-0.517638">
        <ele>353.657</ele>
        <time>2020-10-18T08:21:39Z</time>
      </trkpt>
      <trkpt lat="38.836254" lon="-0.517627">
        <ele>353.656</ele>
        <time>2020-10-18T08:21:40Z</time>
      </trkpt>
      <trkpt lat="38.836162" lon="-0.517524">
        <ele>354.228</ele>
        <time>2020-10-18T08:21:44Z</time>
      </trkpt>
      <trkpt lat="38.836165" lon="-0.517478">
        <ele>354.299</ele>
        <time>2020-10-18T08:21:45Z</time>
      </trkpt>
      <trkpt lat="38.836147" lon="-0.517458">
        <ele>354.442</ele>
        <time>2020-10-18T08:21:46Z</time>
      </trkpt>
      <trkpt lat="38.835965" lon="-0.517429">
        <ele>355.060</ele>
        <time>2020-10-18T08:21:51Z</time>
      </trkpt>
      <trkpt lat="38.835862" lon="-0.517334">
        <ele>355.481</ele>
        <time>2020-10-18T08:21:56Z</time>
      </trkpt>
      <trkpt lat="38.835834" lon="-0.517330">
        <ele>355.647</ele>
        <time>2020-10-18T08:21:57Z</time>
      </trkpt>
      <trkpt lat="38.835793" lon="-0.517291">
        <ele>355.829</ele>
        <time>2020-10-18T08:21:59Z</time>
      </trkpt>
      <trkpt lat="38.835781" lon="-0.517258">
        <ele>356.221</ele>
        <time>2020-10-18T08:22:01Z</time>
      </trkpt>
      <trkpt lat="38.835739" lon="-0.517181">
        <ele>356.608</ele>
        <time>2020-10-18T08:22:03Z</time>
      </trkpt>
      <trkpt lat="38.835698" lon="-0.517052">
        <ele>357.439</ele>
        <time>2020-10-18T08:22:08Z</time>
      </trkpt>
      <trkpt lat="38.835688" lon="-0.517028">
        <ele>357.432</ele>
        <time>2020-10-18T08:22:09Z</time>
      </trkpt>
      <trkpt lat="38.835678" lon="-0.517001">
        <ele>357.681</ele>
        <time>2020-10-18T08:22:10Z</time>
      </trkpt>
      <trkpt lat="38.835671" lon="-0.516933">
        <ele>357.853</ele>
        <time>2020-10-18T08:22:12Z</time>
      </trkpt>
      <trkpt lat="38.835664" lon="-0.516736">
        <ele>358.494</ele>
        <time>2020-10-18T08:22:18Z</time>
      </trkpt>
      <trkpt lat="38.835663" lon="-0.516654">
        <ele>358.697</ele>
        <time>2020-10-18T08:22:20Z</time>
      </trkpt>
      <trkpt lat="38.835656" lon="-0.516606">
        <ele>358.835</ele>
        <time>2020-10-18T08:22:22Z</time>
      </trkpt>
      <trkpt lat="38.835651" lon="-0.516584">
        <ele>359.026</ele>
        <time>2020-10-18T08:22:23Z</time>
      </trkpt>
      <trkpt lat="38.835643" lon="-0.516554">
        <ele>359.232</ele>
        <time>2020-10-18T08:22:25Z</time>
      </trkpt>
      <trkpt lat="38.835639" lon="-0.516535">
        <ele>359.292</ele>
        <time>2020-10-18T08:22:26Z</time>
      </trkpt>
      <trkpt lat="38.835630" lon="-0.516324">
        <ele>359.611</ele>
        <time>2020-10-18T08:22:30Z</time>
      </trkpt>
      <trkpt lat="38.835626" lon="-0.516286">
        <ele>359.808</ele>
        <time>2020-10-18T08:22:31Z</time>
      </trkpt>
      <trkpt lat="38.835613" lon="-0.516229">
        <ele>360.258</ele>
        <time>2020-10-18T08:22:33Z</time>
      </trkpt>
      <trkpt lat="38.835569" lon="-0.516183">
        <ele>360.651</ele>
        <time>2020-10-18T08:22:36Z</time>
      </trkpt>
      <trkpt lat="38.835556" lon="-0.516152">
        <ele>360.880</ele>
        <time>2020-10-18T08:22:37Z</time>
      </trkpt>
      <trkpt lat="38.835538" lon="-0.516021">
        <ele>361.072</ele>
        <time>2020-10-18T08:22:41Z</time>
      </trkpt>
      <trkpt lat="38.835506" lon="-0.515868">
        <ele>361.893</ele>
        <time>2020-10-18T08:22:46Z</time>
      </trkpt>
      <trkpt lat="38.835490" lon="-0.515775">
        <ele>362.276</ele>
        <time>2020-10-18T08:22:49Z</time>
      </trkpt>
      <trkpt lat="38.835482" lon="-0.515695">
        <ele>362.814</ele>
        <time>2020-10-18T08:22:52Z</time>
      </trkpt>
      <trkpt lat="38.835467" lon="-0.515677">
        <ele>363.285</ele>
        <time>2020-10-18T08:22:53Z</time>
      </trkpt>
      <trkpt lat="38.835380" lon="-0.515606">
        <ele>363.417</ele>
        <time>2020-10-18T08:22:57Z</time>
      </trkpt>
      <trkpt lat="38.835306" lon="-0.515498">
        <ele>363.887</ele>
        <time>2020-10-18T08:23:02Z</time>
      </trkpt>
      <trkpt lat="38.835278" lon="-0.515487">
        <ele>364.015</ele>
        <time>2020-10-18T08:23:03Z</time>
      </trkpt>
      <trkpt lat="38.835261" lon="-0.515463">
        <ele>364.008</ele>
        <time>2020-10-18T08:23:04Z</time>
      </trkpt>
      <trkpt lat="38.835197" lon="-0.515421">
        <ele>364.236</ele>
        <time>2020-10-18T08:23:07Z</time>
      </trkpt>
      <trkpt lat="38.835119" lon="-0.515335">
        <ele>364.869</ele>
        <time>2020-10-18T08:23:12Z</time>
      </trkpt>
      <trkpt lat="38.835050" lon="-0.515320">
        <ele>364.878</ele>
        <time>2020-10-18T08:23:14Z</time>
      </trkpt>
      <trkpt lat="38.835013" lon="-0.515312">
        <ele>365.030</ele>
        <time>2020-10-18T08:23:15Z</time>
      </trkpt>
      <trkpt lat="38.834864" lon="-0.515221">
        <ele>365.841</ele>
        <time>2020-10-18T08:23:22Z</time>
      </trkpt>
      <trkpt lat="38.834827" lon="-0.515175">
        <ele>366.254</ele>
        <time>2020-10-18T08:23:24Z</time>
      </trkpt>
      <trkpt lat="38.834715" lon="-0.515109">
        <ele>366.662</ele>
        <time>2020-10-18T08:23:28Z</time>
      </trkpt>
      <trkpt lat="38.834687" lon="-0.515060">
        <ele>367.053</ele>
        <time>2020-10-18T08:23:30Z</time>
      </trkpt>
      <trkpt lat="38.834679" lon="-0.515035">
        <ele>367.252</ele>
        <time>2020-10-18T08:23:31Z</time>
      </trkpt>
      <trkpt lat="38.834657" lon="-0.515014">
        <ele>367.253</ele>
        <time>2020-10-18T08:23:32Z</time>
      </trkpt>
      <trkpt lat="38.834482" lon="-0.514917">
        <ele>368.208</ele>
        <time>2020-10-18T08:23:39Z</time>
      </trkpt>
      <trkpt lat="38.834465" lon="-0.514906">
        <ele>368.408</ele>
        <time>2020-10-18T08:23:40Z</time>
      </trkpt>
      <trkpt lat="38.834328" lon="-0.514798">
        <ele>369.220</ele>
        <time>2020-10-18T08:23:46Z</time>
      </trkpt>
      <trkpt lat="38.834305" lon="-0.514780">
        <ele>369.423</ele>
        <time>2020-10-18T08:23:47Z</time>
      </trkpt>
      <trkpt lat="38.834206" lon="-0.514754">
        <ele>370.232</ele>
        <time>2020-10-18T08:23:51Z</time>
      </trkpt>
      <trkpt lat="38.834186" lon="-0.514754">
        <ele>370.294</ele>
        <time>2020-10-18T08:23:52Z</time>
      </trkpt>
      <trkpt lat="38.833913" lon="-0.514767">
        <ele>371.275</ele>
        <time>2020-10-18T08:24:00Z</time>
      </trkpt>
      <trkpt lat="38.833801" lon="-0.514771">
        <ele>371.818</ele>
        <time>2020-10-18T08:24:05Z</time>
      </trkpt>
      <trkpt lat="38.833725" lon="-0.514788">
        <ele>372.456</ele>
        <time>2020-10-18T08:24:08Z</time>
      </trkpt>
      <trkpt lat="38.833614" lon="-0.514787">
        <ele>373.637</ele>
        <time>2020-10-18T08:24:13Z</time>
      </trkpt>
      <trkpt lat="38.833511" lon="-0.514802">
        <ele>374.687</ele>
        <time>2020-10-18T08:24:18Z</time>
      </trkpt>
      <trkpt lat="38.833488" lon="-0.514795">
        <ele>374.842</ele>
        <time>2020-10-18T08:24:19Z</time>
      </trkpt>
      <trkpt lat="38.833405" lon="-0.514813">
        <ele>375.826</ele>
        <time>2020-10-18T08:24:23Z</time>
      </trkpt>
      <trkpt lat="38.833345" lon="-0.514868">
        <ele>376.208</ele>
        <time>2020-10-18T08:24:26Z</time>
      </trkpt>
      <trkpt lat="38.833305" lon="-0.514878">
        <ele>376.863</ele>
        <time>2020-10-18T08:24:29Z</time>
      </trkpt>
      <trkpt lat="38.833254" lon="-0.514932">
        <ele>377.816</ele>
        <time>2020-10-18T08:24:32Z</time>
      </trkpt>
      <trkpt lat="38.833239" lon="-0.514946">
        <ele>377.855</ele>
        <time>2020-10-18T08:24:33Z</time>
      </trkpt>
      <trkpt lat="38.833187" lon="-0.515009">
        <ele>379.087</ele>
        <time>2020-10-18T08:24:38Z</time>
      </trkpt>
      <trkpt lat="38.833176" lon="-0.515021">
        <ele>379.468</ele>
        <time>2020-10-18T08:24:39Z</time>
      </trkpt>
      <trkpt lat="38.833136" lon="-0.515069">
        <ele>380.281</ele>
        <time>2020-10-18T08:24:42Z</time>
      </trkpt>
      <trkpt lat="38.833091" lon="-0.515091">
        <ele>381.279</ele>
        <time>2020-10-18T08:24:46Z</time>
      </trkpt>
      <trkpt lat="38.833005" lon="-0.515134">
        <ele>363.450</ele>
        <time>2020-10-18T08:24:51Z</time>
      </trkpt>
      <trkpt lat="38.832944" lon="-0.515166">
        <ele>364.086</ele>
        <time>2020-10-18T08:24:54Z</time>
      </trkpt>
      <trkpt lat="38.832804" lon="-0.515162">
        <ele>364.660</ele>
        <time>2020-10-18T08:25:01Z</time>
      </trkpt>
      <trkpt lat="38.832783" lon="-0.515151">
        <ele>364.626</ele>
        <time>2020-10-18T08:25:02Z</time>
      </trkpt>
      <trkpt lat="38.832673" lon="-0.515049">
        <ele>364.808</ele>
        <time>2020-10-18T08:25:08Z</time>
      </trkpt>
      <trkpt lat="38.832561" lon="-0.514835">
        <ele>365.233</ele>
        <time>2020-10-18T08:25:16Z</time>
      </trkpt>
      <trkpt lat="38.832509" lon="-0.514751">
        <ele>365.696</ele>
        <time>2020-10-18T08:25:19Z</time>
      </trkpt>
      <trkpt lat="38.832392" lon="-0.514607">
        <ele>366.215</ele>
        <time>2020-10-18T08:25:25Z</time>
      </trkpt>
      <trkpt lat="38.832241" lon="-0.514463">
        <ele>366.697</ele>
        <time>2020-10-18T08:25:32Z</time>
      </trkpt>
      <trkpt lat="38.832201" lon="-0.514431">
        <ele>367.278</ele>
        <time>2020-10-18T08:25:34Z</time>
      </trkpt>
      <trkpt lat="38.832155" lon="-0.514394">
        <ele>367.821</ele>
        <time>2020-10-18T08:25:36Z</time>
      </trkpt>
      <trkpt lat="38.832091" lon="-0.514349">
        <ele>369.029</ele>
        <time>2020-10-18T08:25:39Z</time>
      </trkpt>
      <trkpt lat="38.832049" lon="-0.514332">
        <ele>369.690</ele>
        <time>2020-10-18T08:25:41Z</time>
      </trkpt>
      <trkpt lat="38.832011" lon="-0.514314">
        <ele>370.014</ele>
        <time>2020-10-18T08:25:43Z</time>
      </trkpt>
      <trkpt lat="38.831994" lon="-0.514288">
        <ele>370.254</ele>
        <time>2020-10-18T08:25:45Z</time>
      </trkpt>
      <trkpt lat="38.831992" lon="-0.514262">
        <ele>370.409</ele>
        <time>2020-10-18T08:25:46Z</time>
      </trkpt>
      <trkpt lat="38.831975" lon="-0.514146">
        <ele>370.608</ele>
        <time>2020-10-18T08:25:50Z</time>
      </trkpt>
      <trkpt lat="38.831980" lon="-0.514117">
        <ele>370.696</ele>
        <time>2020-10-18T08:25:51Z</time>
      </trkpt>
      <trkpt lat="38.831982" lon="-0.514090">
        <ele>370.819</ele>
        <time>2020-10-18T08:25:52Z</time>
      </trkpt>
      <trkpt lat="38.831976" lon="-0.514003">
        <ele>370.868</ele>
        <time>2020-10-18T08:25:55Z</time>
      </trkpt>
      <trkpt lat="38.831961" lon="-0.513939">
        <ele>371.050</ele>
        <time>2020-10-18T08:25:57Z</time>
      </trkpt>
      <trkpt lat="38.831915" lon="-0.513735">
        <ele>371.451</ele>
        <time>2020-10-18T08:26:03Z</time>
      </trkpt>
      <trkpt lat="38.831896" lon="-0.513557">
        <ele>371.844</ele>
        <time>2020-10-18T08:26:08Z</time>
      </trkpt>
      <trkpt lat="38.831879" lon="-0.513544">
        <ele>371.832</ele>
        <time>2020-10-18T08:26:09Z</time>
      </trkpt>
      <trkpt lat="38.831721" lon="-0.513518">
        <ele>372.033</ele>
        <time>2020-10-18T08:26:14Z</time>
      </trkpt>
      <trkpt lat="38.831693" lon="-0.513510">
        <ele>372.016</ele>
        <time>2020-10-18T08:26:15Z</time>
      </trkpt>
      <trkpt lat="38.831504" lon="-0.513460">
        <ele>372.876</ele>
        <time>2020-10-18T08:26:21Z</time>
      </trkpt>
      <trkpt lat="38.831475" lon="-0.513454">
        <ele>373.013</ele>
        <time>2020-10-18T08:26:22Z</time>
      </trkpt>
      <trkpt lat="38.831424" lon="-0.513440">
        <ele>373.408</ele>
        <time>2020-10-18T08:26:24Z</time>
      </trkpt>
      <trkpt lat="38.831305" lon="-0.513443">
        <ele>374.026</ele>
        <time>2020-10-18T08:26:28Z</time>
      </trkpt>
      <trkpt lat="38.831206" lon="-0.513434">
        <ele>375.299</ele>
        <time>2020-10-18T08:26:32Z</time>
      </trkpt>
      <trkpt lat="38.831184" lon="-0.513427">
        <ele>375.648</ele>
        <time>2020-10-18T08:26:33Z</time>
      </trkpt>
      <trkpt lat="38.831140" lon="-0.513402">
        <ele>376.650</ele>
        <time>2020-10-18T08:26:35Z</time>
      </trkpt>
      <trkpt lat="38.831045" lon="-0.513342">
        <ele>377.631</ele>
        <time>2020-10-18T08:26:39Z</time>
      </trkpt>
      <trkpt lat="38.830970" lon="-0.513309">
        <ele>378.024</ele>
        <time>2020-10-18T08:26:42Z</time>
      </trkpt>
      <trkpt lat="38.830948" lon="-0.513285">
        <ele>378.262</ele>
        <time>2020-10-18T08:26:43Z</time>
      </trkpt>
      <trkpt lat="38.830913" lon="-0.513191">
        <ele>378.823</ele>
        <time>2020-10-18T08:26:46Z</time>
      </trkpt>
      <trkpt lat="38.830822" lon="-0.513014">
        <ele>379.831</ele>
        <time>2020-10-18T08:26:52Z</time>
      </trkpt>
      <trkpt lat="38.830751" lon="-0.512911">
        <ele>380.061</ele>
        <time>2020-10-18T08:26:56Z</time>
      </trkpt>
      <trkpt lat="38.830577" lon="-0.512623">
        <ele>380.207</ele>
        <time>2020-10-18T08:27:05Z</time>
      </trkpt>
      <trkpt lat="38.830524" lon="-0.512559">
        <ele>380.208</ele>
        <time>2020-10-18T08:27:07Z</time>
      </trkpt>
      <trkpt lat="38.830387" lon="-0.512466">
        <ele>380.048</ele>
        <time>2020-10-18T08:27:11Z</time>
      </trkpt>
      <trkpt lat="38.830029" lon="-0.512243">
        <ele>380.851</ele>
        <time>2020-10-18T08:27:22Z</time>
      </trkpt>
      <trkpt lat="38.830001" lon="-0.512219">
        <ele>380.850</ele>
        <time>2020-10-18T08:27:23Z</time>
      </trkpt>
      <trkpt lat="38.829837" lon="-0.512090">
        <ele>381.822</ele>
        <time>2020-10-18T08:27:29Z</time>
      </trkpt>
      <trkpt lat="38.829807" lon="-0.512070">
        <ele>381.883</ele>
        <time>2020-10-18T08:27:30Z</time>
      </trkpt>
      <trkpt lat="38.829750" lon="-0.512033">
        <ele>382.036</ele>
        <time>2020-10-18T08:27:32Z</time>
      </trkpt>
      <trkpt lat="38.829615" lon="-0.511939">
        <ele>383.064</ele>
        <time>2020-10-18T08:27:37Z</time>
      </trkpt>
      <trkpt lat="38.829460" lon="-0.511834">
        <ele>384.235</ele>
        <time>2020-10-18T08:27:43Z</time>
      </trkpt>
      <trkpt lat="38.829327" lon="-0.511770">
        <ele>385.457</ele>
        <time>2020-10-18T08:27:48Z</time>
      </trkpt>
      <trkpt lat="38.829212" lon="-0.511723">
        <ele>386.200</ele>
        <time>2020-10-18T08:27:52Z</time>
      </trkpt>
      <trkpt lat="38.829155" lon="-0.511704">
        <ele>386.620</ele>
        <time>2020-10-18T08:27:54Z</time>
      </trkpt>
      <trkpt lat="38.829021" lon="-0.511680">
        <ele>387.608</ele>
        <time>2020-10-18T08:27:59Z</time>
      </trkpt>
      <trkpt lat="38.828939" lon="-0.511661">
        <ele>388.440</ele>
        <time>2020-10-18T08:28:02Z</time>
      </trkpt>
      <trkpt lat="38.828885" lon="-0.511653">
        <ele>388.893</ele>
        <time>2020-10-18T08:28:04Z</time>
      </trkpt>
      <trkpt lat="38.828735" lon="-0.511641">
        <ele>389.812</ele>
        <time>2020-10-18T08:28:10Z</time>
      </trkpt>
      <trkpt lat="38.828666" lon="-0.511631">
        <ele>390.444</ele>
        <time>2020-10-18T08:28:13Z</time>
      </trkpt>
      <trkpt lat="38.828587" lon="-0.511618">
        <ele>390.855</ele>
        <time>2020-10-18T08:28:16Z</time>
      </trkpt>
      <trkpt lat="38.828445" lon="-0.511580">
        <ele>391.898</ele>
        <time>2020-10-18T08:28:22Z</time>
      </trkpt>
      <trkpt lat="38.828396" lon="-0.511559">
        <ele>391.866</ele>
        <time>2020-10-18T08:28:24Z</time>
      </trkpt>
      <trkpt lat="38.828209" lon="-0.511433">
        <ele>393.227</ele>
        <time>2020-10-18T08:28:32Z</time>
      </trkpt>
      <trkpt lat="38.828035" lon="-0.511280">
        <ele>394.255</ele>
        <time>2020-10-18T08:28:40Z</time>
      </trkpt>
      <trkpt lat="38.828011" lon="-0.511258">
        <ele>394.407</ele>
        <time>2020-10-18T08:28:41Z</time>
      </trkpt>
      <trkpt lat="38.827941" lon="-0.511196">
        <ele>394.617</ele>
        <time>2020-10-18T08:28:44Z</time>
      </trkpt>
      <trkpt lat="38.827848" lon="-0.511120">
        <ele>395.008</ele>
        <time>2020-10-18T08:28:48Z</time>
      </trkpt>
      <trkpt lat="38.827776" lon="-0.511069">
        <ele>395.230</ele>
        <time>2020-10-18T08:28:51Z</time>
      </trkpt>
      <trkpt lat="38.827746" lon="-0.511049">
        <ele>395.433</ele>
        <time>2020-10-18T08:28:52Z</time>
      </trkpt>
      <trkpt lat="38.827628" lon="-0.510980">
        <ele>396.212</ele>
        <time>2020-10-18T08:28:57Z</time>
      </trkpt>
      <trkpt lat="38.827559" lon="-0.510919">
        <ele>396.664</ele>
        <time>2020-10-18T08:29:00Z</time>
      </trkpt>
      <trkpt lat="38.827381" lon="-0.510782">
        <ele>397.055</ele>
        <time>2020-10-18T08:29:07Z</time>
      </trkpt>
      <trkpt lat="38.827351" lon="-0.510772">
        <ele>397.058</ele>
        <time>2020-10-18T08:29:08Z</time>
      </trkpt>
      <trkpt lat="38.827058" lon="-0.510756">
        <ele>396.446</ele>
        <time>2020-10-18T08:29:16Z</time>
      </trkpt>
      <trkpt lat="38.826843" lon="-0.510620">
        <ele>396.067</ele>
        <time>2020-10-18T08:29:22Z</time>
      </trkpt>
      <trkpt lat="38.826742" lon="-0.510459">
        <ele>395.618</ele>
        <time>2020-10-18T08:29:26Z</time>
      </trkpt>
      <trkpt lat="38.826708" lon="-0.510366">
        <ele>395.498</ele>
        <time>2020-10-18T08:29:28Z</time>
      </trkpt>
      <trkpt lat="38.826682" lon="-0.510120">
        <ele>395.617</ele>
        <time>2020-10-18T08:29:33Z</time>
      </trkpt>
      <trkpt lat="38.826689" lon="-0.510068">
        <ele>395.608</ele>
        <time>2020-10-18T08:29:34Z</time>
      </trkpt>
      <trkpt lat="38.826732" lon="-0.509879">
        <ele>395.686</ele>
        <time>2020-10-18T08:29:38Z</time>
      </trkpt>
      <trkpt lat="38.826784" lon="-0.509765">
        <ele>395.819</ele>
        <time>2020-10-18T08:29:41Z</time>
      </trkpt>
      <trkpt lat="38.826821" lon="-0.509670">
        <ele>396.088</ele>
        <time>2020-10-18T08:29:43Z</time>
      </trkpt>
      <trkpt lat="38.826846" lon="-0.509477">
        <ele>396.240</ele>
        <time>2020-10-18T08:29:47Z</time>
      </trkpt>
      <trkpt lat="38.826763" lon="-0.509260">
        <ele>397.291</ele>
        <time>2020-10-18T08:29:53Z</time>
      </trkpt>
      <trkpt lat="38.826742" lon="-0.509231">
        <ele>397.424</ele>
        <time>2020-10-18T08:29:54Z</time>
      </trkpt>
      <trkpt lat="38.826606" lon="-0.509109">
        <ele>398.222</ele>
        <time>2020-10-18T08:29:59Z</time>
      </trkpt>
      <trkpt lat="38.826575" lon="-0.509089">
        <ele>398.433</ele>
        <time>2020-10-18T08:30:00Z</time>
      </trkpt>
      <trkpt lat="38.826394" lon="-0.508951">
        <ele>399.695</ele>
        <time>2020-10-18T08:30:07Z</time>
      </trkpt>
      <trkpt lat="38.826364" lon="-0.508927">
        <ele>399.649</ele>
        <time>2020-10-18T08:30:08Z</time>
      </trkpt>
      <trkpt lat="38.826218" lon="-0.508796">
        <ele>400.623</ele>
        <time>2020-10-18T08:30:15Z</time>
      </trkpt>
      <trkpt lat="38.826174" lon="-0.508758">
        <ele>401.008</ele>
        <time>2020-10-18T08:30:17Z</time>
      </trkpt>
      <trkpt lat="38.826114" lon="-0.508694">
        <ele>401.664</ele>
        <time>2020-10-18T08:30:20Z</time>
      </trkpt>
      <trkpt lat="38.825992" lon="-0.508581">
        <ele>402.827</ele>
        <time>2020-10-18T08:30:26Z</time>
      </trkpt>
      <trkpt lat="38.825968" lon="-0.508566">
        <ele>403.086</ele>
        <time>2020-10-18T08:30:27Z</time>
      </trkpt>
      <trkpt lat="38.825860" lon="-0.508519">
        <ele>404.078</ele>
        <time>2020-10-18T08:30:32Z</time>
      </trkpt>
      <trkpt lat="38.825820" lon="-0.508517">
        <ele>404.499</ele>
        <time>2020-10-18T08:30:34Z</time>
      </trkpt>
      <trkpt lat="38.825752" lon="-0.508511">
        <ele>405.232</ele>
        <time>2020-10-18T08:30:37Z</time>
      </trkpt>
      <trkpt lat="38.825687" lon="-0.508517">
        <ele>405.860</ele>
        <time>2020-10-18T08:30:40Z</time>
      </trkpt>
      <trkpt lat="38.825648" lon="-0.508529">
        <ele>406.271</ele>
        <time>2020-10-18T08:30:42Z</time>
      </trkpt>
      <trkpt lat="38.825543" lon="-0.508560">
        <ele>407.451</ele>
        <time>2020-10-18T08:30:47Z</time>
      </trkpt>
      <trkpt lat="38.825524" lon="-0.508570">
        <ele>407.601</ele>
        <time>2020-10-18T08:30:48Z</time>
      </trkpt>
      <trkpt lat="38.825454" lon="-0.508646">
        <ele>408.611</ele>
        <time>2020-10-18T08:30:53Z</time>
      </trkpt>
      <trkpt lat="38.825420" lon="-0.508680">
        <ele>409.008</ele>
        <time>2020-10-18T08:30:55Z</time>
      </trkpt>
      <trkpt lat="38.825368" lon="-0.508735">
        <ele>409.860</ele>
        <time>2020-10-18T08:30:58Z</time>
      </trkpt>
      <trkpt lat="38.825287" lon="-0.508848">
        <ele>410.883</ele>
        <time>2020-10-18T08:31:03Z</time>
      </trkpt>
      <trkpt lat="38.825203" lon="-0.508954">
        <ele>412.062</ele>
        <time>2020-10-18T08:31:08Z</time>
      </trkpt>
      <trkpt lat="38.825148" lon="-0.509014">
        <ele>412.634</ele>
        <time>2020-10-18T08:31:11Z</time>
      </trkpt>
      <trkpt lat="38.825077" lon="-0.509089">
        <ele>413.095</ele>
        <time>2020-10-18T08:31:15Z</time>
      </trkpt>
      <trkpt lat="38.825005" lon="-0.509172">
        <ele>413.668</ele>
        <time>2020-10-18T08:31:19Z</time>
      </trkpt>
      <trkpt lat="38.824951" lon="-0.509222">
        <ele>414.096</ele>
        <time>2020-10-18T08:31:22Z</time>
      </trkpt>
      <trkpt lat="38.824895" lon="-0.509265">
        <ele>414.427</ele>
        <time>2020-10-18T08:31:25Z</time>
      </trkpt>
      <trkpt lat="38.824852" lon="-0.509290">
        <ele>414.683</ele>
        <time>2020-10-18T08:31:27Z</time>
      </trkpt>
      <trkpt lat="38.824742" lon="-0.509347">
        <ele>415.225</ele>
        <time>2020-10-18T08:31:32Z</time>
      </trkpt>
      <trkpt lat="38.824618" lon="-0.509392">
        <ele>415.417</ele>
        <time>2020-10-18T08:31:37Z</time>
      </trkpt>
      <trkpt lat="38.824345" lon="-0.509439">
        <ele>416.208</ele>
        <time>2020-10-18T08:31:48Z</time>
      </trkpt>
      <trkpt lat="38.824319" lon="-0.509440">
        <ele>416.273</ele>
        <time>2020-10-18T08:31:49Z</time>
      </trkpt>
      <trkpt lat="38.824092" lon="-0.509444">
        <ele>416.616</ele>
        <time>2020-10-18T08:31:58Z</time>
      </trkpt>
      <trkpt lat="38.823955" lon="-0.509443">
        <ele>417.285</ele>
        <time>2020-10-18T08:32:03Z</time>
      </trkpt>
      <trkpt lat="38.823908" lon="-0.509445">
        <ele>417.677</ele>
        <time>2020-10-18T08:32:05Z</time>
      </trkpt>
      <trkpt lat="38.823799" lon="-0.509433">
        <ele>418.298</ele>
        <time>2020-10-18T08:32:11Z</time>
      </trkpt>
      <trkpt lat="38.823664" lon="-0.509432">
        <ele>418.641</ele>
        <time>2020-10-18T08:32:19Z</time>
      </trkpt>
      <trkpt lat="38.823513" lon="-0.509412">
        <ele>419.269</ele>
        <time>2020-10-18T08:32:26Z</time>
      </trkpt>
      <trkpt lat="38.823497" lon="-0.509410">
        <ele>419.480</ele>
        <time>2020-10-18T08:32:27Z</time>
      </trkpt>
      <trkpt lat="38.823360" lon="-0.509377">
        <ele>420.078</ele>
        <time>2020-10-18T08:32:33Z</time>
      </trkpt>
      <trkpt lat="38.823303" lon="-0.509366">
        <ele>420.433</ele>
        <time>2020-10-18T08:32:35Z</time>
      </trkpt>
      <trkpt lat="38.823211" lon="-0.509335">
        <ele>420.826</ele>
        <time>2020-10-18T08:32:39Z</time>
      </trkpt>
      <trkpt lat="38.823063" lon="-0.509298">
        <ele>421.608</ele>
        <time>2020-10-18T08:32:45Z</time>
      </trkpt>
      <trkpt lat="38.822944" lon="-0.509268">
        <ele>422.452</ele>
        <time>2020-10-18T08:32:50Z</time>
      </trkpt>
      <trkpt lat="38.822900" lon="-0.509266">
        <ele>422.645</ele>
        <time>2020-10-18T08:32:52Z</time>
      </trkpt>
      <trkpt lat="38.822817" lon="-0.509238">
        <ele>423.644</ele>
        <time>2020-10-18T08:32:56Z</time>
      </trkpt>
      <trkpt lat="38.822697" lon="-0.509240">
        <ele>424.226</ele>
        <time>2020-10-18T08:33:01Z</time>
      </trkpt>
      <trkpt lat="38.822610" lon="-0.509255">
        <ele>424.897</ele>
        <time>2020-10-18T08:33:05Z</time>
      </trkpt>
      <trkpt lat="38.822434" lon="-0.509284">
        <ele>425.820</ele>
        <time>2020-10-18T08:33:12Z</time>
      </trkpt>
      <trkpt lat="38.822264" lon="-0.509347">
        <ele>427.088</ele>
        <time>2020-10-18T08:33:19Z</time>
      </trkpt>
      <trkpt lat="38.822228" lon="-0.509371">
        <ele>427.219</ele>
        <time>2020-10-18T08:33:21Z</time>
      </trkpt>
      <trkpt lat="38.822105" lon="-0.509468">
        <ele>428.093</ele>
        <time>2020-10-18T08:33:27Z</time>
      </trkpt>
      <trkpt lat="38.822063" lon="-0.509507">
        <ele>428.265</ele>
        <time>2020-10-18T08:33:29Z</time>
      </trkpt>
      <trkpt lat="38.821993" lon="-0.509559">
        <ele>428.821</ele>
        <time>2020-10-18T08:33:32Z</time>
      </trkpt>
      <trkpt lat="38.821951" lon="-0.509590">
        <ele>429.008</ele>
        <time>2020-10-18T08:33:34Z</time>
      </trkpt>
      <trkpt lat="38.821907" lon="-0.509616">
        <ele>429.254</ele>
        <time>2020-10-18T08:33:36Z</time>
      </trkpt>
      <trkpt lat="38.821835" lon="-0.509654">
        <ele>429.657</ele>
        <time>2020-10-18T08:33:39Z</time>
      </trkpt>
      <trkpt lat="38.821707" lon="-0.509707">
        <ele>430.216</ele>
        <time>2020-10-18T08:33:44Z</time>
      </trkpt>
      <trkpt lat="38.821558" lon="-0.509762">
        <ele>430.648</ele>
        <time>2020-10-18T08:33:50Z</time>
      </trkpt>
      <trkpt lat="38.821401" lon="-0.509783">
        <ele>431.279</ele>
        <time>2020-10-18T08:33:56Z</time>
      </trkpt>
      <trkpt lat="38.821295" lon="-0.509796">
        <ele>431.462</ele>
        <time>2020-10-18T08:34:00Z</time>
      </trkpt>
      <trkpt lat="38.821094" lon="-0.509805">
        <ele>431.850</ele>
        <time>2020-10-18T08:34:08Z</time>
      </trkpt>
      <trkpt lat="38.821045" lon="-0.509802">
        <ele>432.231</ele>
        <time>2020-10-18T08:34:10Z</time>
      </trkpt>
      <trkpt lat="38.821021" lon="-0.509800">
        <ele>432.294</ele>
        <time>2020-10-18T08:34:11Z</time>
      </trkpt>
      <trkpt lat="38.820867" lon="-0.509789">
        <ele>432.657</ele>
        <time>2020-10-18T08:34:17Z</time>
      </trkpt>
      <trkpt lat="38.820758" lon="-0.509785">
        <ele>433.022</ele>
        <time>2020-10-18T08:34:21Z</time>
      </trkpt>
      <trkpt lat="38.820673" lon="-0.509781">
        <ele>433.408</ele>
        <time>2020-10-18T08:34:24Z</time>
      </trkpt>
      <trkpt lat="38.820476" lon="-0.509756">
        <ele>434.294</ele>
        <time>2020-10-18T08:34:32Z</time>
      </trkpt>
      <trkpt lat="38.820448" lon="-0.509754">
        <ele>434.487</ele>
        <time>2020-10-18T08:34:33Z</time>
      </trkpt>
      <trkpt lat="38.820321" lon="-0.509715">
        <ele>435.626</ele>
        <time>2020-10-18T08:34:39Z</time>
      </trkpt>
      <trkpt lat="38.820277" lon="-0.509697">
        <ele>435.828</ele>
        <time>2020-10-18T08:34:41Z</time>
      </trkpt>
      <trkpt lat="38.820129" lon="-0.509589">
        <ele>436.859</ele>
        <time>2020-10-18T08:34:49Z</time>
      </trkpt>
      <trkpt lat="38.820086" lon="-0.509552">
        <ele>437.642</ele>
        <time>2020-10-18T08:34:52Z</time>
      </trkpt>
      <trkpt lat="38.820057" lon="-0.509519">
        <ele>437.840</ele>
        <time>2020-10-18T08:34:54Z</time>
      </trkpt>
      <trkpt lat="38.819950" lon="-0.509363">
        <ele>438.841</ele>
        <time>2020-10-18T08:35:02Z</time>
      </trkpt>
      <trkpt lat="38.819937" lon="-0.509341">
        <ele>439.211</ele>
        <time>2020-10-18T08:35:03Z</time>
      </trkpt>
      <trkpt lat="38.819847" lon="-0.509177">
        <ele>439.821</ele>
        <time>2020-10-18T08:35:10Z</time>
      </trkpt>
      <trkpt lat="38.819836" lon="-0.509152">
        <ele>439.803</ele>
        <time>2020-10-18T08:35:11Z</time>
      </trkpt>
      <trkpt lat="38.819826" lon="-0.509127">
        <ele>440.208</ele>
        <time>2020-10-18T08:35:12Z</time>
      </trkpt>
      <trkpt lat="38.819752" lon="-0.508920">
        <ele>441.056</ele>
        <time>2020-10-18T08:35:20Z</time>
      </trkpt>
      <trkpt lat="38.819739" lon="-0.508892">
        <ele>441.239</ele>
        <time>2020-10-18T08:35:21Z</time>
      </trkpt>
      <trkpt lat="38.819642" lon="-0.508683">
        <ele>442.038</ele>
        <time>2020-10-18T08:35:29Z</time>
      </trkpt>
      <trkpt lat="38.819618" lon="-0.508632">
        <ele>442.430</ele>
        <time>2020-10-18T08:35:31Z</time>
      </trkpt>
      <trkpt lat="38.819563" lon="-0.508473">
        <ele>443.461</ele>
        <time>2020-10-18T08:35:37Z</time>
      </trkpt>
      <trkpt lat="38.819545" lon="-0.508422">
        <ele>443.644</ele>
        <time>2020-10-18T08:35:39Z</time>
      </trkpt>
      <trkpt lat="38.819482" lon="-0.508255">
        <ele>444.032</ele>
        <time>2020-10-18T08:35:45Z</time>
      </trkpt>
      <trkpt lat="38.819412" lon="-0.508093">
        <ele>444.223</ele>
        <time>2020-10-18T08:35:51Z</time>
      </trkpt>
      <trkpt lat="38.819334" lon="-0.507942">
        <ele>444.457</ele>
        <time>2020-10-18T08:35:57Z</time>
      </trkpt>
      <trkpt lat="38.819321" lon="-0.507918">
        <ele>444.600</ele>
        <time>2020-10-18T08:35:58Z</time>
      </trkpt>
      <trkpt lat="38.819223" lon="-0.507740">
        <ele>445.620</ele>
        <time>2020-10-18T08:36:05Z</time>
      </trkpt>
      <trkpt lat="38.819144" lon="-0.507628">
        <ele>446.208</ele>
        <time>2020-10-18T08:36:10Z</time>
      </trkpt>
      <trkpt lat="38.819093" lon="-0.507553">
        <ele>446.690</ele>
        <time>2020-10-18T08:36:13Z</time>
      </trkpt>
      <trkpt lat="38.818985" lon="-0.507430">
        <ele>447.653</ele>
        <time>2020-10-18T08:36:19Z</time>
      </trkpt>
      <trkpt lat="38.818965" lon="-0.507410">
        <ele>447.822</ele>
        <time>2020-10-18T08:36:20Z</time>
      </trkpt>
      <trkpt lat="38.818848" lon="-0.507294">
        <ele>448.664</ele>
        <time>2020-10-18T08:36:26Z</time>
      </trkpt>
      <trkpt lat="38.818760" lon="-0.507234">
        <ele>448.865</ele>
        <time>2020-10-18T08:36:30Z</time>
      </trkpt>
      <trkpt lat="38.818580" lon="-0.507101">
        <ele>449.658</ele>
        <time>2020-10-18T08:36:39Z</time>
      </trkpt>
      <trkpt lat="38.818419" lon="-0.506997">
        <ele>450.826</ele>
        <time>2020-10-18T08:36:47Z</time>
      </trkpt>
      <trkpt lat="38.818383" lon="-0.506976">
        <ele>451.077</ele>
        <time>2020-10-18T08:36:49Z</time>
      </trkpt>
      <trkpt lat="38.818268" lon="-0.506899">
        <ele>451.836</ele>
        <time>2020-10-18T08:36:54Z</time>
      </trkpt>
      <trkpt lat="38.818247" lon="-0.506897">
        <ele>451.817</ele>
        <time>2020-10-18T08:36:55Z</time>
      </trkpt>
      <trkpt lat="38.818225" lon="-0.506892">
        <ele>452.018</ele>
        <time>2020-10-18T08:36:56Z</time>
      </trkpt>
      <trkpt lat="38.818168" lon="-0.506880">
        <ele>452.008</ele>
        <time>2020-10-18T08:36:58Z</time>
      </trkpt>
      <trkpt lat="38.818100" lon="-0.506884">
        <ele>452.248</ele>
        <time>2020-10-18T08:37:00Z</time>
      </trkpt>
      <trkpt lat="38.817873" lon="-0.506940">
        <ele>452.871</ele>
        <time>2020-10-18T08:37:08Z</time>
      </trkpt>
      <trkpt lat="38.817847" lon="-0.506939">
        <ele>453.060</ele>
        <time>2020-10-18T08:37:09Z</time>
      </trkpt>
      <trkpt lat="38.817584" lon="-0.506971">
        <ele>453.692</ele>
        <time>2020-10-18T08:37:19Z</time>
      </trkpt>
      <trkpt lat="38.817558" lon="-0.506975">
        <ele>453.613</ele>
        <time>2020-10-18T08:37:20Z</time>
      </trkpt>
      <trkpt lat="38.817435" lon="-0.507000">
        <ele>454.076</ele>
        <time>2020-10-18T08:37:25Z</time>
      </trkpt>
      <trkpt lat="38.817315" lon="-0.507021">
        <ele>454.464</ele>
        <time>2020-10-18T08:37:30Z</time>
      </trkpt>
      <trkpt lat="38.817190" lon="-0.507043">
        <ele>455.065</ele>
        <time>2020-10-18T08:37:35Z</time>
      </trkpt>
      <trkpt lat="38.817063" lon="-0.507066">
        <ele>455.439</ele>
        <time>2020-10-18T08:37:40Z</time>
      </trkpt>
      <trkpt lat="38.816837" lon="-0.507103">
        <ele>456.001</ele>
        <time>2020-10-18T08:37:49Z</time>
      </trkpt>
      <trkpt lat="38.816761" lon="-0.507099">
        <ele>456.421</ele>
        <time>2020-10-18T08:37:52Z</time>
      </trkpt>
      <trkpt lat="38.816610" lon="-0.507089">
        <ele>457.008</ele>
        <time>2020-10-18T08:37:58Z</time>
      </trkpt>
      <trkpt lat="38.816509" lon="-0.507081">
        <ele>457.688</ele>
        <time>2020-10-18T08:38:02Z</time>
      </trkpt>
      <trkpt lat="38.816376" lon="-0.507057">
        <ele>458.051</ele>
        <time>2020-10-18T08:38:07Z</time>
      </trkpt>
      <trkpt lat="38.816348" lon="-0.507052">
        <ele>458.250</ele>
        <time>2020-10-18T08:38:08Z</time>
      </trkpt>
      <trkpt lat="38.816200" lon="-0.507005">
        <ele>458.612</ele>
        <time>2020-10-18T08:38:14Z</time>
      </trkpt>
      <trkpt lat="38.816072" lon="-0.506946">
        <ele>459.243</ele>
        <time>2020-10-18T08:38:19Z</time>
      </trkpt>
      <trkpt lat="38.815997" lon="-0.506908">
        <ele>459.216</ele>
        <time>2020-10-18T08:38:22Z</time>
      </trkpt>
      <trkpt lat="38.815975" lon="-0.506893">
        <ele>459.484</ele>
        <time>2020-10-18T08:38:23Z</time>
      </trkpt>
      <trkpt lat="38.815713" lon="-0.506715">
        <ele>460.235</ele>
        <time>2020-10-18T08:38:35Z</time>
      </trkpt>
      <trkpt lat="38.815671" lon="-0.506682">
        <ele>460.479</ele>
        <time>2020-10-18T08:38:37Z</time>
      </trkpt>
      <trkpt lat="38.815516" lon="-0.506532">
        <ele>461.205</ele>
        <time>2020-10-18T08:38:45Z</time>
      </trkpt>
      <trkpt lat="38.815434" lon="-0.506444">
        <ele>461.425</ele>
        <time>2020-10-18T08:38:49Z</time>
      </trkpt>
      <trkpt lat="38.815325" lon="-0.506329">
        <ele>462.008</ele>
        <time>2020-10-18T08:38:55Z</time>
      </trkpt>
      <trkpt lat="38.815207" lon="-0.506213">
        <ele>462.472</ele>
        <time>2020-10-18T08:39:01Z</time>
      </trkpt>
      <trkpt lat="38.815168" lon="-0.506175">
        <ele>462.635</ele>
        <time>2020-10-18T08:39:03Z</time>
      </trkpt>
      <trkpt lat="38.815081" lon="-0.506099">
        <ele>463.274</ele>
        <time>2020-10-18T08:39:08Z</time>
      </trkpt>
      <trkpt lat="38.815025" lon="-0.506042">
        <ele>463.696</ele>
        <time>2020-10-18T08:39:11Z</time>
      </trkpt>
      <trkpt lat="38.815000" lon="-0.506017">
        <ele>463.637</ele>
        <time>2020-10-18T08:39:12Z</time>
      </trkpt>
      <trkpt lat="38.814833" lon="-0.505846">
        <ele>464.680</ele>
        <time>2020-10-18T08:39:21Z</time>
      </trkpt>
      <trkpt lat="38.814799" lon="-0.505815">
        <ele>465.048</ele>
        <time>2020-10-18T08:39:23Z</time>
      </trkpt>
      <trkpt lat="38.814718" lon="-0.505746">
        <ele>465.869</ele>
        <time>2020-10-18T08:39:27Z</time>
      </trkpt>
      <trkpt lat="38.814570" lon="-0.505582">
        <ele>466.686</ele>
        <time>2020-10-18T08:39:35Z</time>
      </trkpt>
      <trkpt lat="38.814536" lon="-0.505536">
        <ele>467.060</ele>
        <time>2020-10-18T08:39:37Z</time>
      </trkpt>
      <trkpt lat="38.814406" lon="-0.505329">
        <ele>468.026</ele>
        <time>2020-10-18T08:39:45Z</time>
      </trkpt>
      <trkpt lat="38.814348" lon="-0.505219">
        <ele>468.408</ele>
        <time>2020-10-18T08:39:49Z</time>
      </trkpt>
      <trkpt lat="38.814285" lon="-0.505077">
        <ele>469.073</ele>
        <time>2020-10-18T08:39:54Z</time>
      </trkpt>
      <trkpt lat="38.814246" lon="-0.504961">
        <ele>469.826</ele>
        <time>2020-10-18T08:39:58Z</time>
      </trkpt>
      <trkpt lat="38.814219" lon="-0.504891">
        <ele>470.075</ele>
        <time>2020-10-18T08:40:00Z</time>
      </trkpt>
      <trkpt lat="38.814160" lon="-0.504662">
        <ele>470.867</ele>
        <time>2020-10-18T08:40:07Z</time>
      </trkpt>
      <trkpt lat="38.814134" lon="-0.504398">
        <ele>470.638</ele>
        <time>2020-10-18T08:40:14Z</time>
      </trkpt>
      <trkpt lat="38.814130" lon="-0.503980">
        <ele>470.491</ele>
        <time>2020-10-18T08:40:24Z</time>
      </trkpt>
      <trkpt lat="38.814067" lon="-0.503676">
        <ele>470.219</ele>
        <time>2020-10-18T08:40:32Z</time>
      </trkpt>
      <trkpt lat="38.814036" lon="-0.503605">
        <ele>470.280</ele>
        <time>2020-10-18T08:40:34Z</time>
      </trkpt>
      <trkpt lat="38.813991" lon="-0.503588">
        <ele>470.267</ele>
        <time>2020-10-18T08:40:36Z</time>
      </trkpt>
      <trkpt lat="38.813924" lon="-0.503610">
        <ele>470.681</ele>
        <time>2020-10-18T08:40:39Z</time>
      </trkpt>
      <trkpt lat="38.813904" lon="-0.503634">
        <ele>470.819</ele>
        <time>2020-10-18T08:40:40Z</time>
      </trkpt>
      <trkpt lat="38.813873" lon="-0.503688">
        <ele>471.008</ele>
        <time>2020-10-18T08:40:42Z</time>
      </trkpt>
      <trkpt lat="38.813839" lon="-0.503855">
        <ele>472.081</ele>
        <time>2020-10-18T08:40:47Z</time>
      </trkpt>
      <trkpt lat="38.813837" lon="-0.503898">
        <ele>472.224</ele>
        <time>2020-10-18T08:40:48Z</time>
      </trkpt>
      <trkpt lat="38.813841" lon="-0.504126">
        <ele>473.053</ele>
        <time>2020-10-18T08:40:55Z</time>
      </trkpt>
      <trkpt lat="38.813843" lon="-0.504150">
        <ele>473.275</ele>
        <time>2020-10-18T08:40:56Z</time>
      </trkpt>
      <trkpt lat="38.813856" lon="-0.504432">
        <ele>474.296</ele>
        <time>2020-10-18T08:41:05Z</time>
      </trkpt>
      <trkpt lat="38.813856" lon="-0.504463">
        <ele>474.449</ele>
        <time>2020-10-18T08:41:06Z</time>
      </trkpt>
      <trkpt lat="38.813867" lon="-0.504718">
        <ele>475.267</ele>
        <time>2020-10-18T08:41:14Z</time>
      </trkpt>
      <trkpt lat="38.813868" lon="-0.504769">
        <ele>475.428</ele>
        <time>2020-10-18T08:41:16Z</time>
      </trkpt>
      <trkpt lat="38.813867" lon="-0.504919">
        <ele>476.047</ele>
        <time>2020-10-18T08:41:21Z</time>
      </trkpt>
      <trkpt lat="38.813857" lon="-0.505045">
        <ele>476.429</ele>
        <time>2020-10-18T08:41:25Z</time>
      </trkpt>
      <trkpt lat="38.813852" lon="-0.505242">
        <ele>477.021</ele>
        <time>2020-10-18T08:41:31Z</time>
      </trkpt>
      <trkpt lat="38.813850" lon="-0.505302">
        <ele>477.408</ele>
        <time>2020-10-18T08:41:33Z</time>
      </trkpt>
      <trkpt lat="38.813829" lon="-0.505475">
        <ele>478.489</ele>
        <time>2020-10-18T08:41:39Z</time>
      </trkpt>
      <trkpt lat="38.813827" lon="-0.505501">
        <ele>478.642</ele>
        <time>2020-10-18T08:41:40Z</time>
      </trkpt>
      <trkpt lat="38.813770" lon="-0.505618">
        <ele>479.611</ele>
        <time>2020-10-18T08:41:45Z</time>
      </trkpt>
      <trkpt lat="38.813759" lon="-0.505643">
        <ele>479.883</ele>
        <time>2020-10-18T08:41:46Z</time>
      </trkpt>
      <trkpt lat="38.813738" lon="-0.505797">
        <ele>480.284</ele>
        <time>2020-10-18T08:41:51Z</time>
      </trkpt>
      <trkpt lat="38.813738" lon="-0.505855">
        <ele>480.427</ele>
        <time>2020-10-18T08:41:53Z</time>
      </trkpt>
      <trkpt lat="38.813757" lon="-0.505947">
        <ele>480.475</ele>
        <time>2020-10-18T08:41:56Z</time>
      </trkpt>
      <trkpt lat="38.813790" lon="-0.506038">
        <ele>480.666</ele>
        <time>2020-10-18T08:41:59Z</time>
      </trkpt>
      <trkpt lat="38.813822" lon="-0.506172">
        <ele>480.823</ele>
        <time>2020-10-18T08:42:03Z</time>
      </trkpt>
      <trkpt lat="38.813839" lon="-0.506309">
        <ele>481.283</ele>
        <time>2020-10-18T08:42:07Z</time>
      </trkpt>
      <trkpt lat="38.813842" lon="-0.506342">
        <ele>481.411</ele>
        <time>2020-10-18T08:42:08Z</time>
      </trkpt>
      <trkpt lat="38.813863" lon="-0.506475">
        <ele>481.608</ele>
        <time>2020-10-18T08:42:12Z</time>
      </trkpt>
      <trkpt lat="38.813902" lon="-0.506664">
        <ele>481.627</ele>
        <time>2020-10-18T08:42:17Z</time>
      </trkpt>
      <trkpt lat="38.813932" lon="-0.506824">
        <ele>481.690</ele>
        <time>2020-10-18T08:42:21Z</time>
      </trkpt>
      <trkpt lat="38.813954" lon="-0.506941">
        <ele>481.859</ele>
        <time>2020-10-18T08:42:24Z</time>
      </trkpt>
      <trkpt lat="38.813967" lon="-0.507062">
        <ele>481.881</ele>
        <time>2020-10-18T08:42:27Z</time>
      </trkpt>
      <trkpt lat="38.813971" lon="-0.507101">
        <ele>482.022</ele>
        <time>2020-10-18T08:42:28Z</time>
      </trkpt>
      <trkpt lat="38.813981" lon="-0.507277">
        <ele>482.275</ele>
        <time>2020-10-18T08:42:33Z</time>
      </trkpt>
      <trkpt lat="38.814045" lon="-0.507486">
        <ele>482.643</ele>
        <time>2020-10-18T08:42:39Z</time>
      </trkpt>
      <trkpt lat="38.814118" lon="-0.507683">
        <ele>482.884</ele>
        <time>2020-10-18T08:42:45Z</time>
      </trkpt>
      <trkpt lat="38.814131" lon="-0.507783">
        <ele>483.069</ele>
        <time>2020-10-18T08:42:48Z</time>
      </trkpt>
      <trkpt lat="38.814163" lon="-0.508047">
        <ele>483.404</ele>
        <time>2020-10-18T08:42:56Z</time>
      </trkpt>
      <trkpt lat="38.814205" lon="-0.508362">
        <ele>484.024</ele>
        <time>2020-10-18T08:43:04Z</time>
      </trkpt>
      <trkpt lat="38.814210" lon="-0.508403">
        <ele>484.008</ele>
        <time>2020-10-18T08:43:05Z</time>
      </trkpt>
      <trkpt lat="38.814267" lon="-0.508679">
        <ele>485.021</ele>
        <time>2020-10-18T08:43:12Z</time>
      </trkpt>
      <trkpt lat="38.814275" lon="-0.508719">
        <ele>485.014</ele>
        <time>2020-10-18T08:43:13Z</time>
      </trkpt>
      <trkpt lat="38.814346" lon="-0.508996">
        <ele>486.043</ele>
        <time>2020-10-18T08:43:20Z</time>
      </trkpt>
      <trkpt lat="38.814356" lon="-0.509033">
        <ele>486.065</ele>
        <time>2020-10-18T08:43:21Z</time>
      </trkpt>
      <trkpt lat="38.814424" lon="-0.509280">
        <ele>487.016</ele>
        <time>2020-10-18T08:43:28Z</time>
      </trkpt>
      <trkpt lat="38.814442" lon="-0.509419">
        <ele>487.649</ele>
        <time>2020-10-18T08:43:32Z</time>
      </trkpt>
      <trkpt lat="38.814457" lon="-0.509564">
        <ele>488.257</ele>
        <time>2020-10-18T08:43:36Z</time>
      </trkpt>
      <trkpt lat="38.814471" lon="-0.509746">
        <ele>488.888</ele>
        <time>2020-10-18T08:43:41Z</time>
      </trkpt>
      <trkpt lat="38.814472" lon="-0.509851">
        <ele>489.239</ele>
        <time>2020-10-18T08:43:44Z</time>
      </trkpt>
      <trkpt lat="38.814488" lon="-0.510024">
        <ele>490.001</ele>
        <time>2020-10-18T08:43:49Z</time>
      </trkpt>
      <trkpt lat="38.814496" lon="-0.510119">
        <ele>490.421</ele>
        <time>2020-10-18T08:43:52Z</time>
      </trkpt>
      <trkpt lat="38.814492" lon="-0.510302">
        <ele>491.408</ele>
        <time>2020-10-18T08:43:58Z</time>
      </trkpt>
      <trkpt lat="38.814492" lon="-0.510330">
        <ele>491.628</ele>
        <time>2020-10-18T08:43:59Z</time>
      </trkpt>
      <trkpt lat="38.814491" lon="-0.510490">
        <ele>492.621</ele>
        <time>2020-10-18T08:44:05Z</time>
      </trkpt>
      <trkpt lat="38.814489" lon="-0.510522">
        <ele>492.830</ele>
        <time>2020-10-18T08:44:06Z</time>
      </trkpt>
      <trkpt lat="38.814489" lon="-0.510614">
        <ele>493.272</ele>
        <time>2020-10-18T08:44:09Z</time>
      </trkpt>
      <trkpt lat="38.814483" lon="-0.510706">
        <ele>493.843</ele>
        <time>2020-10-18T08:44:12Z</time>
      </trkpt>
      <trkpt lat="38.814476" lon="-0.510737">
        <ele>493.886</ele>
        <time>2020-10-18T08:44:13Z</time>
      </trkpt>
      <trkpt lat="38.814447" lon="-0.510886">
        <ele>494.654</ele>
        <time>2020-10-18T08:44:18Z</time>
      </trkpt>
      <trkpt lat="38.814436" lon="-0.510943">
        <ele>494.885</ele>
        <time>2020-10-18T08:44:20Z</time>
      </trkpt>
      <trkpt lat="38.814399" lon="-0.511156">
        <ele>495.685</ele>
        <time>2020-10-18T08:44:27Z</time>
      </trkpt>
      <trkpt lat="38.814399" lon="-0.511220">
        <ele>495.889</ele>
        <time>2020-10-18T08:44:29Z</time>
      </trkpt>
      <trkpt lat="38.814390" lon="-0.511350">
        <ele>496.017</ele>
        <time>2020-10-18T08:44:33Z</time>
      </trkpt>
      <trkpt lat="38.814386" lon="-0.511449">
        <ele>496.608</ele>
        <time>2020-10-18T08:44:36Z</time>
      </trkpt>
      <trkpt lat="38.814394" lon="-0.511519">
        <ele>496.853</ele>
        <time>2020-10-18T08:44:38Z</time>
      </trkpt>
      <trkpt lat="38.814408" lon="-0.511575">
        <ele>497.236</ele>
        <time>2020-10-18T08:44:40Z</time>
      </trkpt>
      <trkpt lat="38.814430" lon="-0.511686">
        <ele>498.255</ele>
        <time>2020-10-18T08:44:44Z</time>
      </trkpt>
      <trkpt lat="38.814458" lon="-0.511799">
        <ele>499.077</ele>
        <time>2020-10-18T08:44:48Z</time>
      </trkpt>
      <trkpt lat="38.814464" lon="-0.511829">
        <ele>499.298</ele>
        <time>2020-10-18T08:44:49Z</time>
      </trkpt>
      <trkpt lat="38.814516" lon="-0.512077">
        <ele>499.831</ele>
        <time>2020-10-18T08:44:57Z</time>
      </trkpt>
      <trkpt lat="38.814530" lon="-0.512207">
        <ele>500.429</ele>
        <time>2020-10-18T08:45:01Z</time>
      </trkpt>
      <trkpt lat="38.814555" lon="-0.512331">
        <ele>500.830</ele>
        <time>2020-10-18T08:45:05Z</time>
      </trkpt>
      <trkpt lat="38.814545" lon="-0.512556">
        <ele>501.691</ele>
        <time>2020-10-18T08:45:12Z</time>
      </trkpt>
      <trkpt lat="38.814544" lon="-0.512586">
        <ele>501.681</ele>
        <time>2020-10-18T08:45:13Z</time>
      </trkpt>
      <trkpt lat="38.814508" lon="-0.512796">
        <ele>502.619</ele>
        <time>2020-10-18T08:45:20Z</time>
      </trkpt>
      <trkpt lat="38.814505" lon="-0.512825">
        <ele>502.608</ele>
        <time>2020-10-18T08:45:21Z</time>
      </trkpt>
      <trkpt lat="38.814490" lon="-0.512915">
        <ele>503.014</ele>
        <time>2020-10-18T08:45:24Z</time>
      </trkpt>
      <trkpt lat="38.814466" lon="-0.512999">
        <ele>503.097</ele>
        <time>2020-10-18T08:45:27Z</time>
      </trkpt>
      <trkpt lat="38.814433" lon="-0.513082">
        <ele>503.466</ele>
        <time>2020-10-18T08:45:30Z</time>
      </trkpt>
      <trkpt lat="38.814422" lon="-0.513108">
        <ele>503.638</ele>
        <time>2020-10-18T08:45:31Z</time>
      </trkpt>
      <trkpt lat="38.814390" lon="-0.513198">
        <ele>504.039</ele>
        <time>2020-10-18T08:45:34Z</time>
      </trkpt>
      <trkpt lat="38.814371" lon="-0.513261">
        <ele>504.282</ele>
        <time>2020-10-18T08:45:36Z</time>
      </trkpt>
      <trkpt lat="38.814348" lon="-0.513353">
        <ele>504.430</ele>
        <time>2020-10-18T08:45:39Z</time>
      </trkpt>
      <trkpt lat="38.814332" lon="-0.513416">
        <ele>504.641</ele>
        <time>2020-10-18T08:45:41Z</time>
      </trkpt>
      <trkpt lat="38.814316" lon="-0.513602">
        <ele>505.451</ele>
        <time>2020-10-18T08:45:47Z</time>
      </trkpt>
      <trkpt lat="38.814300" lon="-0.513756">
        <ele>505.801</ele>
        <time>2020-10-18T08:45:52Z</time>
      </trkpt>
      <trkpt lat="38.814280" lon="-0.513879">
        <ele>506.011</ele>
        <time>2020-10-18T08:45:56Z</time>
      </trkpt>
      <trkpt lat="38.814225" lon="-0.514099">
        <ele>506.408</ele>
        <time>2020-10-18T08:46:03Z</time>
      </trkpt>
      <trkpt lat="38.814173" lon="-0.514238">
        <ele>506.640</ele>
        <time>2020-10-18T08:46:08Z</time>
      </trkpt>
      <trkpt lat="38.814160" lon="-0.514264">
        <ele>506.843</ele>
        <time>2020-10-18T08:46:09Z</time>
      </trkpt>
      <trkpt lat="38.814125" lon="-0.514320">
        <ele>506.862</ele>
        <time>2020-10-18T08:46:11Z</time>
      </trkpt>
      <trkpt lat="38.814070" lon="-0.514381">
        <ele>507.034</ele>
        <time>2020-10-18T08:46:14Z</time>
      </trkpt>
      <trkpt lat="38.813998" lon="-0.514430">
        <ele>507.255</ele>
        <time>2020-10-18T08:46:17Z</time>
      </trkpt>
      <trkpt lat="38.813908" lon="-0.514501">
        <ele>507.818</ele>
        <time>2020-10-18T08:46:21Z</time>
      </trkpt>
      <trkpt lat="38.813870" lon="-0.514586">
        <ele>508.456</ele>
        <time>2020-10-18T08:46:24Z</time>
      </trkpt>
      <trkpt lat="38.813870" lon="-0.514618">
        <ele>508.477</ele>
        <time>2020-10-18T08:46:25Z</time>
      </trkpt>
      <trkpt lat="38.813890" lon="-0.514668">
        <ele>509.016</ele>
        <time>2020-10-18T08:46:27Z</time>
      </trkpt>
      <trkpt lat="38.813904" lon="-0.514683">
        <ele>509.476</ele>
        <time>2020-10-18T08:46:28Z</time>
      </trkpt>
      <trkpt lat="38.813964" lon="-0.514727">
        <ele>510.213</ele>
        <time>2020-10-18T08:46:31Z</time>
      </trkpt>
      <trkpt lat="38.814036" lon="-0.514776">
        <ele>511.208</ele>
        <time>2020-10-18T08:46:35Z</time>
      </trkpt>
      <trkpt lat="38.814049" lon="-0.514789">
        <ele>511.296</ele>
        <time>2020-10-18T08:46:36Z</time>
      </trkpt>
      <trkpt lat="38.814126" lon="-0.514916">
        <ele>512.489</ele>
        <time>2020-10-18T08:46:42Z</time>
      </trkpt>
      <trkpt lat="38.814133" lon="-0.514939">
        <ele>512.668</ele>
        <time>2020-10-18T08:46:43Z</time>
      </trkpt>
      <trkpt lat="38.814141" lon="-0.515073">
        <ele>513.480</ele>
        <time>2020-10-18T08:46:48Z</time>
      </trkpt>
      <trkpt lat="38.814119" lon="-0.515188">
        <ele>514.011</ele>
        <time>2020-10-18T08:46:52Z</time>
      </trkpt>
      <trkpt lat="38.814086" lon="-0.515269">
        <ele>514.694</ele>
        <time>2020-10-18T08:46:55Z</time>
      </trkpt>
      <trkpt lat="38.814038" lon="-0.515384">
        <ele>515.422</ele>
        <time>2020-10-18T08:47:00Z</time>
      </trkpt>
      <trkpt lat="38.814032" lon="-0.515402">
        <ele>515.683</ele>
        <time>2020-10-18T08:47:01Z</time>
      </trkpt>
      <trkpt lat="38.813982" lon="-0.515520">
        <ele>516.439</ele>
        <time>2020-10-18T08:47:06Z</time>
      </trkpt>
      <trkpt lat="38.813973" lon="-0.515544">
        <ele>516.801</ele>
        <time>2020-10-18T08:47:07Z</time>
      </trkpt>
      <trkpt lat="38.813954" lon="-0.515709">
        <ele>517.821</ele>
        <time>2020-10-18T08:47:13Z</time>
      </trkpt>
      <trkpt lat="38.813991" lon="-0.515800">
        <ele>518.408</ele>
        <time>2020-10-18T08:47:17Z</time>
      </trkpt>
      <trkpt lat="38.814036" lon="-0.515821">
        <ele>518.678</ele>
        <time>2020-10-18T08:47:19Z</time>
      </trkpt>
      <trkpt lat="38.814072" lon="-0.515840">
        <ele>519.091</ele>
        <time>2020-10-18T08:47:21Z</time>
      </trkpt>
      <trkpt lat="38.814172" lon="-0.515879">
        <ele>520.030</ele>
        <time>2020-10-18T08:47:26Z</time>
      </trkpt>
      <trkpt lat="38.814194" lon="-0.515887">
        <ele>520.212</ele>
        <time>2020-10-18T08:47:27Z</time>
      </trkpt>
      <trkpt lat="38.814363" lon="-0.515979">
        <ele>521.083</ele>
        <time>2020-10-18T08:47:35Z</time>
      </trkpt>
      <trkpt lat="38.814382" lon="-0.515997">
        <ele>521.036</ele>
        <time>2020-10-18T08:47:36Z</time>
      </trkpt>
      <trkpt lat="38.814498" lon="-0.516175">
        <ele>522.094</ele>
        <time>2020-10-18T08:47:44Z</time>
      </trkpt>
      <trkpt lat="38.814509" lon="-0.516203">
        <ele>522.235</ele>
        <time>2020-10-18T08:47:45Z</time>
      </trkpt>
      <trkpt lat="38.814562" lon="-0.516397">
        <ele>523.073</ele>
        <time>2020-10-18T08:47:52Z</time>
      </trkpt>
      <trkpt lat="38.814568" lon="-0.516429">
        <ele>523.085</ele>
        <time>2020-10-18T08:47:53Z</time>
      </trkpt>
      <trkpt lat="38.814613" lon="-0.516706">
        <ele>524.213</ele>
        <time>2020-10-18T08:48:02Z</time>
      </trkpt>
      <trkpt lat="38.814731" lon="-0.517016">
        <ele>524.808</ele>
        <time>2020-10-18T08:48:13Z</time>
      </trkpt>
      <trkpt lat="38.814804" lon="-0.517172">
        <ele>525.252</ele>
        <time>2020-10-18T08:48:18Z</time>
      </trkpt>
      <trkpt lat="38.814851" lon="-0.517320">
        <ele>525.225</ele>
        <time>2020-10-18T08:48:22Z</time>
      </trkpt>
      <trkpt lat="38.814950" lon="-0.517698">
        <ele>525.844</ele>
        <time>2020-10-18T08:48:31Z</time>
      </trkpt>
      <trkpt lat="38.815008" lon="-0.518063">
        <ele>524.026</ele>
        <time>2020-10-18T08:48:37Z</time>
      </trkpt>
      <trkpt lat="38.815037" lon="-0.518243">
        <ele>522.677</ele>
        <time>2020-10-18T08:48:39Z</time>
      </trkpt>
      <trkpt lat="38.815088" lon="-0.518430">
        <ele>521.830</ele>
        <time>2020-10-18T08:48:41Z</time>
      </trkpt>
      <trkpt lat="38.815160" lon="-0.518682">
        <ele>521.458</ele>
        <time>2020-10-18T08:48:44Z</time>
      </trkpt>
      <trkpt lat="38.815175" lon="-0.518759">
        <ele>521.419</ele>
        <time>2020-10-18T08:48:45Z</time>
      </trkpt>
      <trkpt lat="38.815183" lon="-0.518835">
        <ele>521.232</ele>
        <time>2020-10-18T08:48:46Z</time>
      </trkpt>
      <trkpt lat="38.815207" lon="-0.519138">
        <ele>521.292</ele>
        <time>2020-10-18T08:48:50Z</time>
      </trkpt>
      <trkpt lat="38.815220" lon="-0.519264">
        <ele>521.011</ele>
        <time>2020-10-18T08:48:52Z</time>
      </trkpt>
      <trkpt lat="38.815218" lon="-0.519482">
        <ele>520.608</ele>
        <time>2020-10-18T08:48:55Z</time>
      </trkpt>
      <trkpt lat="38.815205" lon="-0.519552">
        <ele>520.458</ele>
        <time>2020-10-18T08:48:56Z</time>
      </trkpt>
      <trkpt lat="38.815184" lon="-0.519623">
        <ele>520.451</ele>
        <time>2020-10-18T08:48:57Z</time>
      </trkpt>
      <trkpt lat="38.815057" lon="-0.520116">
        <ele>519.830</ele>
        <time>2020-10-18T08:49:04Z</time>
      </trkpt>
      <trkpt lat="38.815047" lon="-0.520205">
        <ele>519.492</ele>
        <time>2020-10-18T08:49:05Z</time>
      </trkpt>
      <trkpt lat="38.815057" lon="-0.520386">
        <ele>518.643</ele>
        <time>2020-10-18T08:49:07Z</time>
      </trkpt>
      <trkpt lat="38.815083" lon="-0.520464">
        <ele>518.456</ele>
        <time>2020-10-18T08:49:08Z</time>
      </trkpt>
      <trkpt lat="38.815120" lon="-0.520521">
        <ele>518.214</ele>
        <time>2020-10-18T08:49:09Z</time>
      </trkpt>
      <trkpt lat="38.815160" lon="-0.520563">
        <ele>518.215</ele>
        <time>2020-10-18T08:49:10Z</time>
      </trkpt>
      <trkpt lat="38.815232" lon="-0.520634">
        <ele>518.858</ele>
        <time>2020-10-18T08:49:12Z</time>
      </trkpt>
      <trkpt lat="38.815291" lon="-0.520706">
        <ele>519.852</ele>
        <time>2020-10-18T08:49:14Z</time>
      </trkpt>
      <trkpt lat="38.815369" lon="-0.520809">
        <ele>521.017</ele>
        <time>2020-10-18T08:49:17Z</time>
      </trkpt>
      <trkpt lat="38.815467" lon="-0.520955">
        <ele>521.408</ele>
        <time>2020-10-18T08:49:21Z</time>
      </trkpt>
      <trkpt lat="38.815622" lon="-0.521261">
        <ele>521.050</ele>
        <time>2020-10-18T08:49:27Z</time>
      </trkpt>
      <trkpt lat="38.815705" lon="-0.521612">
        <ele>520.063</ele>
        <time>2020-10-18T08:49:32Z</time>
      </trkpt>
      <trkpt lat="38.815719" lon="-0.521684">
        <ele>519.832</ele>
        <time>2020-10-18T08:49:33Z</time>
      </trkpt>
      <trkpt lat="38.815748" lon="-0.521833">
        <ele>519.674</ele>
        <time>2020-10-18T08:49:35Z</time>
      </trkpt>
      <trkpt lat="38.815803" lon="-0.522143">
        <ele>518.625</ele>
        <time>2020-10-18T08:49:39Z</time>
      </trkpt>
      <trkpt lat="38.815815" lon="-0.522304">
        <ele>518.448</ele>
        <time>2020-10-18T08:49:41Z</time>
      </trkpt>
      <trkpt lat="38.815820" lon="-0.522550">
        <ele>518.266</ele>
        <time>2020-10-18T08:49:44Z</time>
      </trkpt>
      <trkpt lat="38.815806" lon="-0.522803">
        <ele>518.247</ele>
        <time>2020-10-18T08:49:47Z</time>
      </trkpt>
      <trkpt lat="38.815796" lon="-0.522885">
        <ele>518.437</ele>
        <time>2020-10-18T08:49:48Z</time>
      </trkpt>
      <trkpt lat="38.815733" lon="-0.523259">
        <ele>518.249</ele>
        <time>2020-10-18T08:49:53Z</time>
      </trkpt>
      <trkpt lat="38.815719" lon="-0.523334">
        <ele>518.013</ele>
        <time>2020-10-18T08:49:54Z</time>
      </trkpt>
      <trkpt lat="38.815676" lon="-0.523468">
        <ele>517.808</ele>
        <time>2020-10-18T08:49:56Z</time>
      </trkpt>
      <trkpt lat="38.815637" lon="-0.523516">
        <ele>517.678</ele>
        <time>2020-10-18T08:49:57Z</time>
      </trkpt>
      <trkpt lat="38.815595" lon="-0.523545">
        <ele>517.611</ele>
        <time>2020-10-18T08:49:58Z</time>
      </trkpt>
      <trkpt lat="38.815472" lon="-0.523593">
        <ele>517.840</ele>
        <time>2020-10-18T08:50:01Z</time>
      </trkpt>
      <trkpt lat="38.815354" lon="-0.523624">
        <ele>518.842</ele>
        <time>2020-10-18T08:50:04Z</time>
      </trkpt>
      <trkpt lat="38.815242" lon="-0.523646">
        <ele>519.643</ele>
        <time>2020-10-18T08:50:07Z</time>
      </trkpt>
      <trkpt lat="38.815206" lon="-0.523660">
        <ele>519.886</ele>
        <time>2020-10-18T08:50:08Z</time>
      </trkpt>
      <trkpt lat="38.814983" lon="-0.523735">
        <ele>521.044</ele>
        <time>2020-10-18T08:50:14Z</time>
      </trkpt>
      <trkpt lat="38.814906" lon="-0.523754">
        <ele>521.485</ele>
        <time>2020-10-18T08:50:16Z</time>
      </trkpt>
      <trkpt lat="38.814733" lon="-0.523843">
        <ele>522.014</ele>
        <time>2020-10-18T08:50:21Z</time>
      </trkpt>
      <trkpt lat="38.814663" lon="-0.523875">
        <ele>522.254</ele>
        <time>2020-10-18T08:50:23Z</time>
      </trkpt>
      <trkpt lat="38.814519" lon="-0.524009">
        <ele>522.409</ele>
        <time>2020-10-18T08:50:28Z</time>
      </trkpt>
      <trkpt lat="38.814508" lon="-0.524186">
        <ele>522.208</ele>
        <time>2020-10-18T08:50:32Z</time>
      </trkpt>
      <trkpt lat="38.814599" lon="-0.524298">
        <ele>522.286</ele>
        <time>2020-10-18T08:50:35Z</time>
      </trkpt>
      <trkpt lat="38.814809" lon="-0.524391">
        <ele>523.219</ele>
        <time>2020-10-18T08:50:41Z</time>
      </trkpt>
      <trkpt lat="38.814839" lon="-0.524401">
        <ele>523.498</ele>
        <time>2020-10-18T08:50:42Z</time>
      </trkpt>
      <trkpt lat="38.815057" lon="-0.524443">
        <ele>524.230</ele>
        <time>2020-10-18T08:50:49Z</time>
      </trkpt>
      <trkpt lat="38.815280" lon="-0.524542">
        <ele>525.071</ele>
        <time>2020-10-18T08:50:57Z</time>
      </trkpt>
      <trkpt lat="38.815330" lon="-0.524586">
        <ele>525.214</ele>
        <time>2020-10-18T08:50:59Z</time>
      </trkpt>
      <trkpt lat="38.815398" lon="-0.524671">
        <ele>525.662</ele>
        <time>2020-10-18T08:51:02Z</time>
      </trkpt>
      <trkpt lat="38.815418" lon="-0.524703">
        <ele>525.653</ele>
        <time>2020-10-18T08:51:03Z</time>
      </trkpt>
      <trkpt lat="38.815470" lon="-0.524803">
        <ele>525.886</ele>
        <time>2020-10-18T08:51:06Z</time>
      </trkpt>
      <trkpt lat="38.815492" lon="-0.524915">
        <ele>526.460</ele>
        <time>2020-10-18T08:51:09Z</time>
      </trkpt>
      <trkpt lat="38.815500" lon="-0.525017">
        <ele>526.826</ele>
        <time>2020-10-18T08:51:12Z</time>
      </trkpt>
      <trkpt lat="38.815488" lon="-0.525124">
        <ele>527.408</ele>
        <time>2020-10-18T08:51:15Z</time>
      </trkpt>
      <trkpt lat="38.815478" lon="-0.525216">
        <ele>527.843</ele>
        <time>2020-10-18T08:51:18Z</time>
      </trkpt>
      <trkpt lat="38.815455" lon="-0.525315">
        <ele>528.636</ele>
        <time>2020-10-18T08:51:22Z</time>
      </trkpt>
      <trkpt lat="38.815404" lon="-0.525398">
        <ele>529.675</ele>
        <time>2020-10-18T08:51:26Z</time>
      </trkpt>
      <trkpt lat="38.815368" lon="-0.525421">
        <ele>530.247</ele>
        <time>2020-10-18T08:51:28Z</time>
      </trkpt>
      <trkpt lat="38.815313" lon="-0.525469">
        <ele>530.838</ele>
        <time>2020-10-18T08:51:31Z</time>
      </trkpt>
      <trkpt lat="38.815204" lon="-0.525574">
        <ele>531.891</ele>
        <time>2020-10-18T08:51:37Z</time>
      </trkpt>
      <trkpt lat="38.815185" lon="-0.525590">
        <ele>532.079</ele>
        <time>2020-10-18T08:51:38Z</time>
      </trkpt>
      <trkpt lat="38.815085" lon="-0.525650">
        <ele>533.050</ele>
        <time>2020-10-18T08:51:43Z</time>
      </trkpt>
      <trkpt lat="38.815004" lon="-0.525682">
        <ele>533.668</ele>
        <time>2020-10-18T08:51:47Z</time>
      </trkpt>
      <trkpt lat="38.814949" lon="-0.525709">
        <ele>534.242</ele>
        <time>2020-10-18T08:51:50Z</time>
      </trkpt>
      <trkpt lat="38.814875" lon="-0.525742">
        <ele>535.226</ele>
        <time>2020-10-18T08:51:54Z</time>
      </trkpt>
      <trkpt lat="38.814838" lon="-0.525776">
        <ele>535.608</ele>
        <time>2020-10-18T08:51:56Z</time>
      </trkpt>
      <trkpt lat="38.814783" lon="-0.525843">
        <ele>536.421</ele>
        <time>2020-10-18T08:52:00Z</time>
      </trkpt>
      <trkpt lat="38.814722" lon="-0.525911">
        <ele>537.224</ele>
        <time>2020-10-18T08:52:04Z</time>
      </trkpt>
      <trkpt lat="38.814693" lon="-0.525951">
        <ele>537.693</ele>
        <time>2020-10-18T08:52:06Z</time>
      </trkpt>
      <trkpt lat="38.814658" lon="-0.526003">
        <ele>538.065</ele>
        <time>2020-10-18T08:52:09Z</time>
      </trkpt>
      <trkpt lat="38.814631" lon="-0.526048">
        <ele>538.876</ele>
        <time>2020-10-18T08:52:12Z</time>
      </trkpt>
      <trkpt lat="38.814621" lon="-0.526066">
        <ele>538.819</ele>
        <time>2020-10-18T08:52:13Z</time>
      </trkpt>
      <trkpt lat="38.814596" lon="-0.526131">
        <ele>539.497</ele>
        <time>2020-10-18T08:52:16Z</time>
      </trkpt>
      <trkpt lat="38.814573" lon="-0.526191">
        <ele>539.888</ele>
        <time>2020-10-18T08:52:19Z</time>
      </trkpt>
      <trkpt lat="38.814541" lon="-0.526265">
        <ele>540.619</ele>
        <time>2020-10-18T08:52:22Z</time>
      </trkpt>
      <trkpt lat="38.814532" lon="-0.526306">
        <ele>541.009</ele>
        <time>2020-10-18T08:52:24Z</time>
      </trkpt>
      <trkpt lat="38.814484" lon="-0.526399">
        <ele>541.819</ele>
        <time>2020-10-18T08:52:29Z</time>
      </trkpt>
      <trkpt lat="38.814479" lon="-0.526423">
        <ele>542.208</ele>
        <time>2020-10-18T08:52:30Z</time>
      </trkpt>
      <trkpt lat="38.814446" lon="-0.526522">
        <ele>543.096</ele>
        <time>2020-10-18T08:52:35Z</time>
      </trkpt>
      <trkpt lat="38.814435" lon="-0.526561">
        <ele>543.269</ele>
        <time>2020-10-18T08:52:37Z</time>
      </trkpt>
      <trkpt lat="38.814420" lon="-0.526621">
        <ele>543.838</ele>
        <time>2020-10-18T08:52:40Z</time>
      </trkpt>
      <trkpt lat="38.814406" lon="-0.526657">
        <ele>544.210</ele>
        <time>2020-10-18T08:52:42Z</time>
      </trkpt>
      <trkpt lat="38.814367" lon="-0.526749">
        <ele>545.251</ele>
        <time>2020-10-18T08:52:47Z</time>
      </trkpt>
      <trkpt lat="38.814359" lon="-0.526768">
        <ele>545.484</ele>
        <time>2020-10-18T08:52:48Z</time>
      </trkpt>
      <trkpt lat="38.814310" lon="-0.526899">
        <ele>546.682</ele>
        <time>2020-10-18T08:52:55Z</time>
      </trkpt>
      <trkpt lat="38.814302" lon="-0.526917">
        <ele>546.883</ele>
        <time>2020-10-18T08:52:56Z</time>
      </trkpt>
      <trkpt lat="38.814279" lon="-0.526994">
        <ele>547.626</ele>
        <time>2020-10-18T08:53:00Z</time>
      </trkpt>
      <trkpt lat="38.814257" lon="-0.527078">
        <ele>548.847</ele>
        <time>2020-10-18T08:53:05Z</time>
      </trkpt>
      <trkpt lat="38.814249" lon="-0.527096">
        <ele>549.011</ele>
        <time>2020-10-18T08:53:06Z</time>
      </trkpt>
      <trkpt lat="38.814231" lon="-0.527152">
        <ele>549.808</ele>
        <time>2020-10-18T08:53:09Z</time>
      </trkpt>
      <trkpt lat="38.814220" lon="-0.527211">
        <ele>550.297</ele>
        <time>2020-10-18T08:53:12Z</time>
      </trkpt>
      <trkpt lat="38.814211" lon="-0.527251">
        <ele>551.030</ele>
        <time>2020-10-18T08:53:15Z</time>
      </trkpt>
      <trkpt lat="38.814210" lon="-0.527264">
        <ele>551.299</ele>
        <time>2020-10-18T08:53:16Z</time>
      </trkpt>
      <trkpt lat="38.814200" lon="-0.527290">
        <ele>551.641</ele>
        <time>2020-10-18T08:53:18Z</time>
      </trkpt>
      <trkpt lat="38.814192" lon="-0.527325">
        <ele>552.242</ele>
        <time>2020-10-18T08:53:20Z</time>
      </trkpt>
      <trkpt lat="38.814184" lon="-0.527401">
        <ele>553.275</ele>
        <time>2020-10-18T08:53:25Z</time>
      </trkpt>
      <trkpt lat="38.814182" lon="-0.527417">
        <ele>553.453</ele>
        <time>2020-10-18T08:53:26Z</time>
      </trkpt>
      <trkpt lat="38.814149" lon="-0.527514">
        <ele>554.414</ele>
        <time>2020-10-18T08:53:31Z</time>
      </trkpt>
      <trkpt lat="38.814129" lon="-0.527586">
        <ele>555.089</ele>
        <time>2020-10-18T08:53:35Z</time>
      </trkpt>
      <trkpt lat="38.814138" lon="-0.527662">
        <ele>555.006</ele>
        <time>2020-10-18T08:53:40Z</time>
      </trkpt>
      <trkpt lat="38.814147" lon="-0.527679">
        <ele>555.026</ele>
        <time>2020-10-18T08:53:41Z</time>
      </trkpt>
      <trkpt lat="38.814265" lon="-0.527753">
        <ele>555.408</ele>
        <time>2020-10-18T08:53:48Z</time>
      </trkpt>
      <trkpt lat="38.814407" lon="-0.527802">
        <ele>555.453</ele>
        <time>2020-10-18T08:53:55Z</time>
      </trkpt>
      <trkpt lat="38.814572" lon="-0.527848">
        <ele>555.496</ele>
        <time>2020-10-18T08:54:01Z</time>
      </trkpt>
      <trkpt lat="38.814764" lon="-0.527943">
        <ele>555.835</ele>
        <time>2020-10-18T08:54:10Z</time>
      </trkpt>
      <trkpt lat="38.814975" lon="-0.528118">
        <ele>556.267</ele>
        <time>2020-10-18T08:54:19Z</time>
      </trkpt>
      <trkpt lat="38.815017" lon="-0.528154">
        <ele>556.498</ele>
        <time>2020-10-18T08:54:21Z</time>
      </trkpt>
      <trkpt lat="38.815057" lon="-0.528188">
        <ele>556.421</ele>
        <time>2020-10-18T08:54:23Z</time>
      </trkpt>
      <trkpt lat="38.815176" lon="-0.528289">
        <ele>557.289</ele>
        <time>2020-10-18T08:54:29Z</time>
      </trkpt>
      <trkpt lat="38.815231" lon="-0.528336">
        <ele>557.620</ele>
        <time>2020-10-18T08:54:32Z</time>
      </trkpt>
      <trkpt lat="38.815321" lon="-0.528440">
        <ele>558.052</ele>
        <time>2020-10-18T08:54:37Z</time>
      </trkpt>
      <trkpt lat="38.815355" lon="-0.528493">
        <ele>558.253</ele>
        <time>2020-10-18T08:54:39Z</time>
      </trkpt>
      <trkpt lat="38.815410" lon="-0.528600">
        <ele>558.608</ele>
        <time>2020-10-18T08:54:43Z</time>
      </trkpt>
      <trkpt lat="38.815478" lon="-0.528770">
        <ele>559.408</ele>
        <time>2020-10-18T08:54:49Z</time>
      </trkpt>
      <trkpt lat="38.815506" lon="-0.528863">
        <ele>559.660</ele>
        <time>2020-10-18T08:54:52Z</time>
      </trkpt>
      <trkpt lat="38.815538" lon="-0.529010">
        <ele>560.223</ele>
        <time>2020-10-18T08:54:57Z</time>
      </trkpt>
      <trkpt lat="38.815556" lon="-0.529138">
        <ele>560.862</ele>
        <time>2020-10-18T08:55:01Z</time>
      </trkpt>
      <trkpt lat="38.815558" lon="-0.529235">
        <ele>561.084</ele>
        <time>2020-10-18T08:55:04Z</time>
      </trkpt>
      <trkpt lat="38.815571" lon="-0.529456">
        <ele>561.695</ele>
        <time>2020-10-18T08:55:11Z</time>
      </trkpt>
      <trkpt lat="38.815574" lon="-0.529486">
        <ele>561.898</ele>
        <time>2020-10-18T08:55:12Z</time>
      </trkpt>
      <trkpt lat="38.815594" lon="-0.529762">
        <ele>562.866</ele>
        <time>2020-10-18T08:55:21Z</time>
      </trkpt>
      <trkpt lat="38.815593" lon="-0.529794">
        <ele>562.827</ele>
        <time>2020-10-18T08:55:22Z</time>
      </trkpt>
      <trkpt lat="38.815611" lon="-0.529963">
        <ele>563.433</ele>
        <time>2020-10-18T08:55:28Z</time>
      </trkpt>
      <trkpt lat="38.815620" lon="-0.530137">
        <ele>564.023</ele>
        <time>2020-10-18T08:55:34Z</time>
      </trkpt>
      <trkpt lat="38.815633" lon="-0.530223">
        <ele>564.215</ele>
        <time>2020-10-18T08:55:37Z</time>
      </trkpt>
      <trkpt lat="38.815673" lon="-0.530443">
        <ele>565.008</ele>
        <time>2020-10-18T08:55:45Z</time>
      </trkpt>
      <trkpt lat="38.815677" lon="-0.530468">
        <ele>565.218</ele>
        <time>2020-10-18T08:55:46Z</time>
      </trkpt>
      <trkpt lat="38.815693" lon="-0.530598">
        <ele>566.041</ele>
        <time>2020-10-18T08:55:51Z</time>
      </trkpt>
      <trkpt lat="38.815688" lon="-0.530697">
        <ele>567.090</ele>
        <time>2020-10-18T08:55:55Z</time>
      </trkpt>
      <trkpt lat="38.815674" lon="-0.530784">
        <ele>568.222</ele>
        <time>2020-10-18T08:55:59Z</time>
      </trkpt>
      <trkpt lat="38.815630" lon="-0.530855">
        <ele>569.293</ele>
        <time>2020-10-18T08:56:03Z</time>
      </trkpt>
      <trkpt lat="38.815569" lon="-0.530906">
        <ele>570.426</ele>
        <time>2020-10-18T08:56:07Z</time>
      </trkpt>
      <trkpt lat="38.815523" lon="-0.530942">
        <ele>570.894</ele>
        <time>2020-10-18T08:56:10Z</time>
      </trkpt>
      <trkpt lat="38.815483" lon="-0.530973">
        <ele>571.615</ele>
        <time>2020-10-18T08:56:13Z</time>
      </trkpt>
      <trkpt lat="38.815450" lon="-0.530982">
        <ele>572.222</ele>
        <time>2020-10-18T08:56:15Z</time>
      </trkpt>
      <trkpt lat="38.815413" lon="-0.530994">
        <ele>572.862</ele>
        <time>2020-10-18T08:56:17Z</time>
      </trkpt>
      <trkpt lat="38.815300" lon="-0.530990">
        <ele>574.008</ele>
        <time>2020-10-18T08:56:23Z</time>
      </trkpt>
      <trkpt lat="38.815233" lon="-0.530966">
        <ele>575.008</ele>
        <time>2020-10-18T08:56:27Z</time>
      </trkpt>
      <trkpt lat="38.815150" lon="-0.530922">
        <ele>576.257</ele>
        <time>2020-10-18T08:56:32Z</time>
      </trkpt>
      <trkpt lat="38.815023" lon="-0.530870">
        <ele>577.290</ele>
        <time>2020-10-18T08:56:39Z</time>
      </trkpt>
      <trkpt lat="38.814986" lon="-0.530856">
        <ele>577.489</ele>
        <time>2020-10-18T08:56:41Z</time>
      </trkpt>
      <trkpt lat="38.814880" lon="-0.530893">
        <ele>578.051</ele>
        <time>2020-10-18T08:56:47Z</time>
      </trkpt>
      <trkpt lat="38.814854" lon="-0.530936">
        <ele>578.492</ele>
        <time>2020-10-18T08:56:49Z</time>
      </trkpt>
      <trkpt lat="38.814828" lon="-0.531027">
        <ele>579.225</ele>
        <time>2020-10-18T08:56:53Z</time>
      </trkpt>
      <trkpt lat="38.814820" lon="-0.531074">
        <ele>579.413</ele>
        <time>2020-10-18T08:56:55Z</time>
      </trkpt>
      <trkpt lat="38.814814" lon="-0.531212">
        <ele>580.454</ele>
        <time>2020-10-18T08:57:01Z</time>
      </trkpt>
      <trkpt lat="38.814812" lon="-0.531234">
        <ele>580.661</ele>
        <time>2020-10-18T08:57:02Z</time>
      </trkpt>
      <trkpt lat="38.814800" lon="-0.531333">
        <ele>581.621</ele>
        <time>2020-10-18T08:57:07Z</time>
      </trkpt>
      <trkpt lat="38.814786" lon="-0.531404">
        <ele>582.413</ele>
        <time>2020-10-18T08:57:10Z</time>
      </trkpt>
      <trkpt lat="38.814778" lon="-0.531426">
        <ele>582.608</ele>
        <time>2020-10-18T08:57:11Z</time>
      </trkpt>
      <trkpt lat="38.814756" lon="-0.531503">
        <ele>583.081</ele>
        <time>2020-10-18T08:57:15Z</time>
      </trkpt>
      <trkpt lat="38.814738" lon="-0.531540">
        <ele>583.474</ele>
        <time>2020-10-18T08:57:17Z</time>
      </trkpt>
      <trkpt lat="38.814721" lon="-0.531579">
        <ele>583.633</ele>
        <time>2020-10-18T08:57:19Z</time>
      </trkpt>
      <trkpt lat="38.814661" lon="-0.531678">
        <ele>584.455</ele>
        <time>2020-10-18T08:57:25Z</time>
      </trkpt>
      <trkpt lat="38.814636" lon="-0.531696">
        <ele>584.816</ele>
        <time>2020-10-18T08:57:27Z</time>
      </trkpt>
      <trkpt lat="38.814584" lon="-0.531747">
        <ele>585.479</ele>
        <time>2020-10-18T08:57:31Z</time>
      </trkpt>
      <trkpt lat="38.814548" lon="-0.531790">
        <ele>586.087</ele>
        <time>2020-10-18T08:57:34Z</time>
      </trkpt>
      <trkpt lat="38.814497" lon="-0.531864">
        <ele>586.828</ele>
        <time>2020-10-18T08:57:39Z</time>
      </trkpt>
      <trkpt lat="38.814486" lon="-0.531878">
        <ele>587.042</ele>
        <time>2020-10-18T08:57:40Z</time>
      </trkpt>
      <trkpt lat="38.814431" lon="-0.531994">
        <ele>588.022</ele>
        <time>2020-10-18T08:57:46Z</time>
      </trkpt>
      <trkpt lat="38.814422" lon="-0.532009">
        <ele>588.214</ele>
        <time>2020-10-18T08:57:47Z</time>
      </trkpt>
      <trkpt lat="38.814375" lon="-0.532086">
        <ele>589.208</ele>
        <time>2020-10-18T08:57:52Z</time>
      </trkpt>
      <trkpt lat="38.814362" lon="-0.532102">
        <ele>589.659</ele>
        <time>2020-10-18T08:57:53Z</time>
      </trkpt>
      <trkpt lat="38.814339" lon="-0.532137">
        <ele>589.862</ele>
        <time>2020-10-18T08:57:55Z</time>
      </trkpt>
      <trkpt lat="38.814299" lon="-0.532186">
        <ele>590.211</ele>
        <time>2020-10-18T08:57:58Z</time>
      </trkpt>
      <trkpt lat="38.814239" lon="-0.532233">
        <ele>590.833</ele>
        <time>2020-10-18T08:58:02Z</time>
      </trkpt>
      <trkpt lat="38.814196" lon="-0.532267">
        <ele>591.294</ele>
        <time>2020-10-18T08:58:05Z</time>
      </trkpt>
      <trkpt lat="38.814165" lon="-0.532287">
        <ele>591.617</ele>
        <time>2020-10-18T08:58:07Z</time>
      </trkpt>
      <trkpt lat="38.814059" lon="-0.532361">
        <ele>592.445</ele>
        <time>2020-10-18T08:58:14Z</time>
      </trkpt>
      <trkpt lat="38.814046" lon="-0.532368">
        <ele>592.646</ele>
        <time>2020-10-18T08:58:15Z</time>
      </trkpt>
      <trkpt lat="38.813960" lon="-0.532419">
        <ele>593.665</ele>
        <time>2020-10-18T08:58:21Z</time>
      </trkpt>
      <trkpt lat="38.813930" lon="-0.532440">
        <ele>594.268</ele>
        <time>2020-10-18T08:58:23Z</time>
      </trkpt>
      <trkpt lat="38.813903" lon="-0.532488">
        <ele>594.614</ele>
        <time>2020-10-18T08:58:26Z</time>
      </trkpt>
      <trkpt lat="38.813890" lon="-0.532568">
        <ele>594.808</ele>
        <time>2020-10-18T08:58:30Z</time>
      </trkpt>
      <trkpt lat="38.813943" lon="-0.532699">
        <ele>595.631</ele>
        <time>2020-10-18T08:58:37Z</time>
      </trkpt>
      <trkpt lat="38.813962" lon="-0.532732">
        <ele>595.824</ele>
        <time>2020-10-18T08:58:39Z</time>
      </trkpt>
      <trkpt lat="38.814057" lon="-0.532861">
        <ele>596.213</ele>
        <time>2020-10-18T08:58:46Z</time>
      </trkpt>
      <trkpt lat="38.814141" lon="-0.532990">
        <ele>596.865</ele>
        <time>2020-10-18T08:58:52Z</time>
      </trkpt>
      <trkpt lat="38.814184" lon="-0.533084">
        <ele>597.656</ele>
        <time>2020-10-18T08:58:56Z</time>
      </trkpt>
      <trkpt lat="38.814196" lon="-0.533136">
        <ele>597.889</ele>
        <time>2020-10-18T08:58:58Z</time>
      </trkpt>
      <trkpt lat="38.814206" lon="-0.533213">
        <ele>598.287</ele>
        <time>2020-10-18T08:59:01Z</time>
      </trkpt>
      <trkpt lat="38.814197" lon="-0.533289">
        <ele>598.688</ele>
        <time>2020-10-18T08:59:04Z</time>
      </trkpt>
      <trkpt lat="38.814173" lon="-0.533364">
        <ele>598.868</ele>
        <time>2020-10-18T08:59:07Z</time>
      </trkpt>
      <trkpt lat="38.814162" lon="-0.533388">
        <ele>599.042</ele>
        <time>2020-10-18T08:59:08Z</time>
      </trkpt>
      <trkpt lat="38.814057" lon="-0.533515">
        <ele>600.026</ele>
        <time>2020-10-18T08:59:15Z</time>
      </trkpt>
      <trkpt lat="38.813951" lon="-0.533596">
        <ele>601.008</ele>
        <time>2020-10-18T08:59:21Z</time>
      </trkpt>
      <trkpt lat="38.813912" lon="-0.533617">
        <ele>601.431</ele>
        <time>2020-10-18T08:59:23Z</time>
      </trkpt>
      <trkpt lat="38.813838" lon="-0.533657">
        <ele>602.284</ele>
        <time>2020-10-18T08:59:27Z</time>
      </trkpt>
      <trkpt lat="38.813715" lon="-0.533708">
        <ele>603.293</ele>
        <time>2020-10-18T08:59:33Z</time>
      </trkpt>
      <trkpt lat="38.813529" lon="-0.533758">
        <ele>604.225</ele>
        <time>2020-10-18T08:59:42Z</time>
      </trkpt>
      <trkpt lat="38.813509" lon="-0.533764">
        <ele>604.466</ele>
        <time>2020-10-18T08:59:43Z</time>
      </trkpt>
      <trkpt lat="38.813393" lon="-0.533800">
        <ele>605.259</ele>
        <time>2020-10-18T08:59:49Z</time>
      </trkpt>
      <trkpt lat="38.813358" lon="-0.533817">
        <ele>605.427</ele>
        <time>2020-10-18T08:59:51Z</time>
      </trkpt>
      <trkpt lat="38.813348" lon="-0.533834">
        <ele>605.678</ele>
        <time>2020-10-18T08:59:52Z</time>
      </trkpt>
      <trkpt lat="38.813323" lon="-0.533945">
        <ele>605.877</ele>
        <time>2020-10-18T08:59:56Z</time>
      </trkpt>
      <trkpt lat="38.813314" lon="-0.534039">
        <ele>606.861</ele>
        <time>2020-10-18T09:00:00Z</time>
      </trkpt>
      <trkpt lat="38.813320" lon="-0.534068">
        <ele>607.027</ele>
        <time>2020-10-18T09:00:01Z</time>
      </trkpt>
      <trkpt lat="38.813326" lon="-0.534093">
        <ele>607.408</ele>
        <time>2020-10-18T09:00:02Z</time>
      </trkpt>
      <trkpt lat="38.813341" lon="-0.534173">
        <ele>607.852</ele>
        <time>2020-10-18T09:00:05Z</time>
      </trkpt>
      <trkpt lat="38.813352" lon="-0.534225">
        <ele>608.075</ele>
        <time>2020-10-18T09:00:07Z</time>
      </trkpt>
      <trkpt lat="38.813358" lon="-0.534255">
        <ele>608.284</ele>
        <time>2020-10-18T09:00:08Z</time>
      </trkpt>
      <trkpt lat="38.813373" lon="-0.534361">
        <ele>609.066</ele>
        <time>2020-10-18T09:00:12Z</time>
      </trkpt>
      <trkpt lat="38.813378" lon="-0.534435">
        <ele>609.687</ele>
        <time>2020-10-18T09:00:15Z</time>
      </trkpt>
      <trkpt lat="38.813390" lon="-0.534478">
        <ele>610.060</ele>
        <time>2020-10-18T09:00:17Z</time>
      </trkpt>
      <trkpt lat="38.813407" lon="-0.534565">
        <ele>611.058</ele>
        <time>2020-10-18T09:00:21Z</time>
      </trkpt>
      <trkpt lat="38.813436" lon="-0.534667">
        <ele>612.289</ele>
        <time>2020-10-18T09:00:26Z</time>
      </trkpt>
      <trkpt lat="38.813465" lon="-0.534757">
        <ele>613.063</ele>
        <time>2020-10-18T09:00:30Z</time>
      </trkpt>
      <trkpt lat="38.813483" lon="-0.534810">
        <ele>613.244</ele>
        <time>2020-10-18T09:00:32Z</time>
      </trkpt>
      <trkpt lat="38.813523" lon="-0.534959">
        <ele>614.018</ele>
        <time>2020-10-18T09:00:38Z</time>
      </trkpt>
      <trkpt lat="38.813565" lon="-0.535101">
        <ele>614.408</ele>
        <time>2020-10-18T09:00:43Z</time>
      </trkpt>
      <trkpt lat="38.813550" lon="-0.535319">
        <ele>614.651</ele>
        <time>2020-10-18T09:00:50Z</time>
      </trkpt>
      <trkpt lat="38.813486" lon="-0.535505">
        <ele>614.884</ele>
        <time>2020-10-18T09:00:56Z</time>
      </trkpt>
      <trkpt lat="38.813405" lon="-0.535710">
        <ele>615.213</ele>
        <time>2020-10-18T09:01:03Z</time>
      </trkpt>
      <trkpt lat="38.813393" lon="-0.535740">
        <ele>615.455</ele>
        <time>2020-10-18T09:01:04Z</time>
      </trkpt>
      <trkpt lat="38.813357" lon="-0.535833">
        <ele>615.696</ele>
        <time>2020-10-18T09:01:07Z</time>
      </trkpt>
      <trkpt lat="38.813321" lon="-0.535922">
        <ele>615.839</ele>
        <time>2020-10-18T09:01:10Z</time>
      </trkpt>
      <trkpt lat="38.813210" lon="-0.536194">
        <ele>616.267</ele>
        <time>2020-10-18T09:01:19Z</time>
      </trkpt>
      <trkpt lat="38.813174" lon="-0.536248">
        <ele>616.438</ele>
        <time>2020-10-18T09:01:21Z</time>
      </trkpt>
      <trkpt lat="38.813054" lon="-0.536396">
        <ele>616.477</ele>
        <time>2020-10-18T09:01:27Z</time>
      </trkpt>
      <trkpt lat="38.812849" lon="-0.536636">
        <ele>616.861</ele>
        <time>2020-10-18T09:01:36Z</time>
      </trkpt>
      <trkpt lat="38.812773" lon="-0.536846">
        <ele>616.827</ele>
        <time>2020-10-18T09:01:41Z</time>
      </trkpt>
      <trkpt lat="38.812764" lon="-0.537127">
        <ele>617.408</ele>
        <time>2020-10-18T09:01:47Z</time>
      </trkpt>
      <trkpt lat="38.812762" lon="-0.537298">
        <ele>617.622</ele>
        <time>2020-10-18T09:01:51Z</time>
      </trkpt>
      <trkpt lat="38.812734" lon="-0.537605">
        <ele>618.455</ele>
        <time>2020-10-18T09:01:58Z</time>
      </trkpt>
      <trkpt lat="38.812717" lon="-0.537731">
        <ele>618.884</ele>
        <time>2020-10-18T09:02:01Z</time>
      </trkpt>
      <trkpt lat="38.812663" lon="-0.537906">
        <ele>619.676</ele>
        <time>2020-10-18T09:02:06Z</time>
      </trkpt>
      <trkpt lat="38.812631" lon="-0.537962">
        <ele>619.637</ele>
        <time>2020-10-18T09:02:08Z</time>
      </trkpt>
      <trkpt lat="38.812519" lon="-0.538150">
        <ele>620.470</ele>
        <time>2020-10-18T09:02:15Z</time>
      </trkpt>
      <trkpt lat="38.812502" lon="-0.538172">
        <ele>620.628</ele>
        <time>2020-10-18T09:02:16Z</time>
      </trkpt>
      <trkpt lat="38.812488" lon="-0.538194">
        <ele>620.869</ele>
        <time>2020-10-18T09:02:20Z</time>
      </trkpt>
      <trkpt lat="38.812475" lon="-0.538219">
        <ele>620.879</ele>
        <time>2020-10-18T09:02:29Z</time>
      </trkpt>
      <trkpt lat="38.812466" lon="-0.538236">
        <ele>621.005</ele>
        <time>2020-10-18T09:02:30Z</time>
      </trkpt>
      <trkpt lat="38.812377" lon="-0.538378">
        <ele>621.625</ele>
        <time>2020-10-18T09:02:36Z</time>
      </trkpt>
      <trkpt lat="38.812244" lon="-0.538575">
        <ele>622.608</ele>
        <time>2020-10-18T09:02:43Z</time>
      </trkpt>
      <trkpt lat="38.812104" lon="-0.538783">
        <ele>623.882</ele>
        <time>2020-10-18T09:02:51Z</time>
      </trkpt>
      <trkpt lat="38.812083" lon="-0.538831">
        <ele>624.075</ele>
        <time>2020-10-18T09:02:53Z</time>
      </trkpt>
      <trkpt lat="38.811990" lon="-0.538983">
        <ele>624.824</ele>
        <time>2020-10-18T09:02:59Z</time>
      </trkpt>
      <trkpt lat="38.811936" lon="-0.539054">
        <ele>625.276</ele>
        <time>2020-10-18T09:03:02Z</time>
      </trkpt>
      <trkpt lat="38.811838" lon="-0.539197">
        <ele>626.057</ele>
        <time>2020-10-18T09:03:08Z</time>
      </trkpt>
      <trkpt lat="38.811788" lon="-0.539274">
        <ele>626.440</ele>
        <time>2020-10-18T09:03:11Z</time>
      </trkpt>
      <trkpt lat="38.811696" lon="-0.539417">
        <ele>627.028</ele>
        <time>2020-10-18T09:03:17Z</time>
      </trkpt>
      <trkpt lat="38.811646" lon="-0.539486">
        <ele>627.489</ele>
        <time>2020-10-18T09:03:20Z</time>
      </trkpt>
      <trkpt lat="38.811553" lon="-0.539638">
        <ele>628.285</ele>
        <time>2020-10-18T09:03:26Z</time>
      </trkpt>
      <trkpt lat="38.811539" lon="-0.539663">
        <ele>628.289</ele>
        <time>2020-10-18T09:03:27Z</time>
      </trkpt>
      <trkpt lat="38.811407" lon="-0.539875">
        <ele>629.217</ele>
        <time>2020-10-18T09:03:35Z</time>
      </trkpt>
      <trkpt lat="38.811388" lon="-0.539902">
        <ele>629.208</ele>
        <time>2020-10-18T09:03:36Z</time>
      </trkpt>
      <trkpt lat="38.811356" lon="-0.539951">
        <ele>629.613</ele>
        <time>2020-10-18T09:03:38Z</time>
      </trkpt>
      <trkpt lat="38.811323" lon="-0.539996">
        <ele>629.866</ele>
        <time>2020-10-18T09:03:40Z</time>
      </trkpt>
      <trkpt lat="38.811287" lon="-0.540041">
        <ele>630.035</ele>
        <time>2020-10-18T09:03:42Z</time>
      </trkpt>
      <trkpt lat="38.811249" lon="-0.540086">
        <ele>630.257</ele>
        <time>2020-10-18T09:03:44Z</time>
      </trkpt>
      <trkpt lat="38.811192" lon="-0.540152">
        <ele>630.438</ele>
        <time>2020-10-18T09:03:47Z</time>
      </trkpt>
      <trkpt lat="38.811087" lon="-0.540262">
        <ele>630.881</ele>
        <time>2020-10-18T09:03:52Z</time>
      </trkpt>
      <trkpt lat="38.811027" lon="-0.540319">
        <ele>631.429</ele>
        <time>2020-10-18T09:03:55Z</time>
      </trkpt>
      <trkpt lat="38.810957" lon="-0.540356">
        <ele>631.640</ele>
        <time>2020-10-18T09:03:58Z</time>
      </trkpt>
      <trkpt lat="38.810828" lon="-0.540286">
        <ele>631.219</ele>
        <time>2020-10-18T09:04:03Z</time>
      </trkpt>
      <trkpt lat="38.810712" lon="-0.540138">
        <ele>630.609</ele>
        <time>2020-10-18T09:04:07Z</time>
      </trkpt>
      <trkpt lat="38.810626" lon="-0.540098">
        <ele>630.219</ele>
        <time>2020-10-18T09:04:09Z</time>
      </trkpt>
      <trkpt lat="38.810580" lon="-0.540104">
        <ele>630.008</ele>
        <time>2020-10-18T09:04:10Z</time>
      </trkpt>
      <trkpt lat="38.810543" lon="-0.540128">
        <ele>629.896</ele>
        <time>2020-10-18T09:04:11Z</time>
      </trkpt>
      <trkpt lat="38.810498" lon="-0.540204">
        <ele>629.899</ele>
        <time>2020-10-18T09:04:13Z</time>
      </trkpt>
      <trkpt lat="38.810436" lon="-0.540400">
        <ele>630.628</ele>
        <time>2020-10-18T09:04:18Z</time>
      </trkpt>
      <trkpt lat="38.810399" lon="-0.540579">
        <ele>631.240</ele>
        <time>2020-10-18T09:04:23Z</time>
      </trkpt>
      <trkpt lat="38.810371" lon="-0.540689">
        <ele>631.471</ele>
        <time>2020-10-18T09:04:26Z</time>
      </trkpt>
      <trkpt lat="38.810314" lon="-0.540905">
        <ele>632.054</ele>
        <time>2020-10-18T09:04:32Z</time>
      </trkpt>
      <trkpt lat="38.810291" lon="-0.540984">
        <ele>632.272</ele>
        <time>2020-10-18T09:04:34Z</time>
      </trkpt>
      <trkpt lat="38.810273" lon="-0.541042">
        <ele>632.473</ele>
        <time>2020-10-18T09:04:36Z</time>
      </trkpt>
      <trkpt lat="38.810231" lon="-0.541141">
        <ele>632.446</ele>
        <time>2020-10-18T09:04:39Z</time>
      </trkpt>
      <trkpt lat="38.810142" lon="-0.541320">
        <ele>632.888</ele>
        <time>2020-10-18T09:04:45Z</time>
      </trkpt>
      <trkpt lat="38.809983" lon="-0.541395">
        <ele>632.416</ele>
        <time>2020-10-18T09:04:50Z</time>
      </trkpt>
      <trkpt lat="38.809722" lon="-0.541433">
        <ele>631.808</ele>
        <time>2020-10-18T09:04:57Z</time>
      </trkpt>
      <trkpt lat="38.809674" lon="-0.541467">
        <ele>631.659</ele>
        <time>2020-10-18T09:04:58Z</time>
      </trkpt>
      <trkpt lat="38.809621" lon="-0.541546">
        <ele>631.492</ele>
        <time>2020-10-18T09:05:00Z</time>
      </trkpt>
      <trkpt lat="38.809606" lon="-0.541630">
        <ele>631.691</ele>
        <time>2020-10-18T09:05:02Z</time>
      </trkpt>
      <trkpt lat="38.809593" lon="-0.541752">
        <ele>632.053</ele>
        <time>2020-10-18T09:05:05Z</time>
      </trkpt>
      <trkpt lat="38.809610" lon="-0.541984">
        <ele>633.414</ele>
        <time>2020-10-18T09:05:11Z</time>
      </trkpt>
      <trkpt lat="38.809621" lon="-0.542063">
        <ele>633.677</ele>
        <time>2020-10-18T09:05:13Z</time>
      </trkpt>
      <trkpt lat="38.809630" lon="-0.542206">
        <ele>634.495</ele>
        <time>2020-10-18T09:05:17Z</time>
      </trkpt>
      <trkpt lat="38.809614" lon="-0.542345">
        <ele>635.076</ele>
        <time>2020-10-18T09:05:21Z</time>
      </trkpt>
      <trkpt lat="38.809587" lon="-0.542454">
        <ele>635.276</ele>
        <time>2020-10-18T09:05:24Z</time>
      </trkpt>
      <trkpt lat="38.809528" lon="-0.542624">
        <ele>635.690</ele>
        <time>2020-10-18T09:05:29Z</time>
      </trkpt>
      <trkpt lat="38.809471" lon="-0.542748">
        <ele>636.019</ele>
        <time>2020-10-18T09:05:33Z</time>
      </trkpt>
      <trkpt lat="38.809395" lon="-0.542878">
        <ele>636.208</ele>
        <time>2020-10-18T09:05:37Z</time>
      </trkpt>
      <trkpt lat="38.809287" lon="-0.543168">
        <ele>636.222</ele>
        <time>2020-10-18T09:05:45Z</time>
      </trkpt>
      <trkpt lat="38.809206" lon="-0.543346">
        <ele>636.635</ele>
        <time>2020-10-18T09:05:50Z</time>
      </trkpt>
      <trkpt lat="38.809156" lon="-0.543460">
        <ele>636.614</ele>
        <time>2020-10-18T09:05:53Z</time>
      </trkpt>
      <trkpt lat="38.808999" lon="-0.543841">
        <ele>636.296</ele>
        <time>2020-10-18T09:06:03Z</time>
      </trkpt>
      <trkpt lat="38.808928" lon="-0.543987">
        <ele>635.647</ele>
        <time>2020-10-18T09:06:06Z</time>
      </trkpt>
      <trkpt lat="38.808890" lon="-0.544038">
        <ele>635.230</ele>
        <time>2020-10-18T09:06:07Z</time>
      </trkpt>
      <trkpt lat="38.808844" lon="-0.544086">
        <ele>634.848</ele>
        <time>2020-10-18T09:06:08Z</time>
      </trkpt>
      <trkpt lat="38.808741" lon="-0.544159">
        <ele>634.289</ele>
        <time>2020-10-18T09:06:10Z</time>
      </trkpt>
      <trkpt lat="38.808611" lon="-0.544198">
        <ele>633.432</ele>
        <time>2020-10-18T09:06:12Z</time>
      </trkpt>
      <trkpt lat="38.808541" lon="-0.544205">
        <ele>633.092</ele>
        <time>2020-10-18T09:06:13Z</time>
      </trkpt>
      <trkpt lat="38.808470" lon="-0.544208">
        <ele>632.611</ele>
        <time>2020-10-18T09:06:14Z</time>
      </trkpt>
      <trkpt lat="38.808261" lon="-0.544197">
        <ele>631.808</ele>
        <time>2020-10-18T09:06:17Z</time>
      </trkpt>
      <trkpt lat="38.808127" lon="-0.544235">
        <ele>631.298</ele>
        <time>2020-10-18T09:06:19Z</time>
      </trkpt>
      <trkpt lat="38.808069" lon="-0.544274">
        <ele>631.061</ele>
        <time>2020-10-18T09:06:20Z</time>
      </trkpt>
      <trkpt lat="38.808013" lon="-0.544325">
        <ele>630.850</ele>
        <time>2020-10-18T09:06:21Z</time>
      </trkpt>
      <trkpt lat="38.807960" lon="-0.544382">
        <ele>630.652</ele>
        <time>2020-10-18T09:06:22Z</time>
      </trkpt>
      <trkpt lat="38.807845" lon="-0.544492">
        <ele>630.013</ele>
        <time>2020-10-18T09:06:24Z</time>
      </trkpt>
      <trkpt lat="38.807765" lon="-0.544547">
        <ele>629.696</ele>
        <time>2020-10-18T09:06:25Z</time>
      </trkpt>
      <trkpt lat="38.807709" lon="-0.544573">
        <ele>629.414</ele>
        <time>2020-10-18T09:06:26Z</time>
      </trkpt>
      <trkpt lat="38.807437" lon="-0.544705">
        <ele>628.485</ele>
        <time>2020-10-18T09:06:30Z</time>
      </trkpt>
      <trkpt lat="38.807371" lon="-0.544747">
        <ele>628.089</ele>
        <time>2020-10-18T09:06:31Z</time>
      </trkpt>
      <trkpt lat="38.807312" lon="-0.544800">
        <ele>627.806</ele>
        <time>2020-10-18T09:06:32Z</time>
      </trkpt>
      <trkpt lat="38.807262" lon="-0.544858">
        <ele>627.626</ele>
        <time>2020-10-18T09:06:33Z</time>
      </trkpt>
      <trkpt lat="38.807142" lon="-0.545018">
        <ele>627.608</ele>
        <time>2020-10-18T09:06:36Z</time>
      </trkpt>
      <trkpt lat="38.807111" lon="-0.545065">
        <ele>627.653</ele>
        <time>2020-10-18T09:06:37Z</time>
      </trkpt>
      <trkpt lat="38.807082" lon="-0.545160">
        <ele>627.816</ele>
        <time>2020-10-18T09:06:39Z</time>
      </trkpt>
      <trkpt lat="38.807084" lon="-0.545211">
        <ele>628.045</ele>
        <time>2020-10-18T09:06:40Z</time>
      </trkpt>
      <trkpt lat="38.807139" lon="-0.545366">
        <ele>628.827</ele>
        <time>2020-10-18T09:06:44Z</time>
      </trkpt>
      <trkpt lat="38.807197" lon="-0.545452">
        <ele>629.498</ele>
        <time>2020-10-18T09:06:47Z</time>
      </trkpt>
      <trkpt lat="38.807239" lon="-0.545557">
        <ele>630.251</ele>
        <time>2020-10-18T09:06:50Z</time>
      </trkpt>
      <trkpt lat="38.807261" lon="-0.545618">
        <ele>630.629</ele>
        <time>2020-10-18T09:06:52Z</time>
      </trkpt>
      <trkpt lat="38.807283" lon="-0.545774">
        <ele>631.420</ele>
        <time>2020-10-18T09:06:57Z</time>
      </trkpt>
      <trkpt lat="38.807285" lon="-0.545835">
        <ele>631.857</ele>
        <time>2020-10-18T09:06:59Z</time>
      </trkpt>
      <trkpt lat="38.807287" lon="-0.545939">
        <ele>632.400</ele>
        <time>2020-10-18T09:07:02Z</time>
      </trkpt>
      <trkpt lat="38.807290" lon="-0.546040">
        <ele>632.620</ele>
        <time>2020-10-18T09:07:05Z</time>
      </trkpt>
      <trkpt lat="38.807304" lon="-0.546115">
        <ele>632.808</ele>
        <time>2020-10-18T09:07:07Z</time>
      </trkpt>
      <trkpt lat="38.807309" lon="-0.546140">
        <ele>632.890</ele>
        <time>2020-10-18T09:07:08Z</time>
      </trkpt>
      <trkpt lat="38.807334" lon="-0.546284">
        <ele>633.463</ele>
        <time>2020-10-18T09:07:13Z</time>
      </trkpt>
      <trkpt lat="38.807341" lon="-0.546312">
        <ele>633.692</ele>
        <time>2020-10-18T09:07:14Z</time>
      </trkpt>
      <trkpt lat="38.807354" lon="-0.546371">
        <ele>633.864</ele>
        <time>2020-10-18T09:07:16Z</time>
      </trkpt>
      <trkpt lat="38.807380" lon="-0.546548">
        <ele>634.285</ele>
        <time>2020-10-18T09:07:22Z</time>
      </trkpt>
      <trkpt lat="38.807398" lon="-0.546665">
        <ele>634.848</ele>
        <time>2020-10-18T09:07:26Z</time>
      </trkpt>
      <trkpt lat="38.807405" lon="-0.546714">
        <ele>635.036</ele>
        <time>2020-10-18T09:07:28Z</time>
      </trkpt>
      <trkpt lat="38.807406" lon="-0.546766">
        <ele>635.447</ele>
        <time>2020-10-18T09:07:30Z</time>
      </trkpt>
      <trkpt lat="38.807402" lon="-0.546824">
        <ele>635.446</ele>
        <time>2020-10-18T09:07:32Z</time>
      </trkpt>
      <trkpt lat="38.807397" lon="-0.546874">
        <ele>635.488</ele>
        <time>2020-10-18T09:07:34Z</time>
      </trkpt>
      <trkpt lat="38.807370" lon="-0.546932">
        <ele>635.616</ele>
        <time>2020-10-18T09:07:37Z</time>
      </trkpt>
      <trkpt lat="38.807332" lon="-0.546956">
        <ele>635.808</ele>
        <time>2020-10-18T09:07:39Z</time>
      </trkpt>
      <trkpt lat="38.807300" lon="-0.546972">
        <ele>635.839</ele>
        <time>2020-10-18T09:07:41Z</time>
      </trkpt>
      <trkpt lat="38.807284" lon="-0.546971">
        <ele>636.072</ele>
        <time>2020-10-18T09:07:42Z</time>
      </trkpt>
      <trkpt lat="38.807249" lon="-0.546968">
        <ele>636.671</ele>
        <time>2020-10-18T09:07:44Z</time>
      </trkpt>
      <trkpt lat="38.807210" lon="-0.546967">
        <ele>637.453</ele>
        <time>2020-10-18T09:07:46Z</time>
      </trkpt>
      <trkpt lat="38.807137" lon="-0.546962">
        <ele>638.614</ele>
        <time>2020-10-18T09:07:50Z</time>
      </trkpt>
      <trkpt lat="38.807107" lon="-0.546958">
        <ele>639.277</ele>
        <time>2020-10-18T09:07:52Z</time>
      </trkpt>
      <trkpt lat="38.807072" lon="-0.546949">
        <ele>639.875</ele>
        <time>2020-10-18T09:07:54Z</time>
      </trkpt>
      <trkpt lat="38.807005" lon="-0.546937">
        <ele>640.836</ele>
        <time>2020-10-18T09:07:58Z</time>
      </trkpt>
      <trkpt lat="38.806966" lon="-0.546937">
        <ele>641.479</ele>
        <time>2020-10-18T09:08:00Z</time>
      </trkpt>
      <trkpt lat="38.806911" lon="-0.546935">
        <ele>642.005</ele>
        <time>2020-10-18T09:08:03Z</time>
      </trkpt>
      <trkpt lat="38.806881" lon="-0.546932">
        <ele>642.625</ele>
        <time>2020-10-18T09:08:05Z</time>
      </trkpt>
      <trkpt lat="38.806846" lon="-0.546915">
        <ele>643.208</ele>
        <time>2020-10-18T09:08:07Z</time>
      </trkpt>
      <trkpt lat="38.806809" lon="-0.546913">
        <ele>644.012</ele>
        <time>2020-10-18T09:08:10Z</time>
      </trkpt>
      <trkpt lat="38.806795" lon="-0.546915">
        <ele>644.225</ele>
        <time>2020-10-18T09:08:11Z</time>
      </trkpt>
      <trkpt lat="38.806720" lon="-0.546865">
        <ele>645.434</ele>
        <time>2020-10-18T09:08:16Z</time>
      </trkpt>
      <trkpt lat="38.806696" lon="-0.546843">
        <ele>645.876</ele>
        <time>2020-10-18T09:08:18Z</time>
      </trkpt>
      <trkpt lat="38.806651" lon="-0.546825">
        <ele>646.447</ele>
        <time>2020-10-18T09:08:21Z</time>
      </trkpt>
      <trkpt lat="38.806580" lon="-0.546790">
        <ele>647.020</ele>
        <time>2020-10-18T09:08:25Z</time>
      </trkpt>
      <trkpt lat="38.806542" lon="-0.546789">
        <ele>647.438</ele>
        <time>2020-10-18T09:08:27Z</time>
      </trkpt>
      <trkpt lat="38.806454" lon="-0.546835">
        <ele>648.059</ele>
        <time>2020-10-18T09:08:32Z</time>
      </trkpt>
      <trkpt lat="38.806408" lon="-0.546896">
        <ele>648.612</ele>
        <time>2020-10-18T09:08:36Z</time>
      </trkpt>
      <trkpt lat="38.806384" lon="-0.546952">
        <ele>649.232</ele>
        <time>2020-10-18T09:08:39Z</time>
      </trkpt>
      <trkpt lat="38.806353" lon="-0.547017">
        <ele>649.605</ele>
        <time>2020-10-18T09:08:42Z</time>
      </trkpt>
      <trkpt lat="38.806286" lon="-0.547169">
        <ele>650.608</ele>
        <time>2020-10-18T09:08:49Z</time>
      </trkpt>
      <trkpt lat="38.806282" lon="-0.547188">
        <ele>650.856</ele>
        <time>2020-10-18T09:08:50Z</time>
      </trkpt>
      <trkpt lat="38.806263" lon="-0.547230">
        <ele>651.039</ele>
        <time>2020-10-18T09:08:52Z</time>
      </trkpt>
      <trkpt lat="38.806238" lon="-0.547289">
        <ele>651.468</ele>
        <time>2020-10-18T09:08:55Z</time>
      </trkpt>
      <trkpt lat="38.806226" lon="-0.547335">
        <ele>651.670</ele>
        <time>2020-10-18T09:08:57Z</time>
      </trkpt>
      <trkpt lat="38.806197" lon="-0.547388">
        <ele>651.861</ele>
        <time>2020-10-18T09:08:59Z</time>
      </trkpt>
      <trkpt lat="38.806141" lon="-0.547473">
        <ele>652.214</ele>
        <time>2020-10-18T09:09:03Z</time>
      </trkpt>
      <trkpt lat="38.806101" lon="-0.547545">
        <ele>652.652</ele>
        <time>2020-10-18T09:09:06Z</time>
      </trkpt>
      <trkpt lat="38.806087" lon="-0.547572">
        <ele>652.813</ele>
        <time>2020-10-18T09:09:07Z</time>
      </trkpt>
      <trkpt lat="38.805954" lon="-0.547768">
        <ele>653.848</ele>
        <time>2020-10-18T09:09:16Z</time>
      </trkpt>
      <trkpt lat="38.805895" lon="-0.547850">
        <ele>654.261</ele>
        <time>2020-10-18T09:09:20Z</time>
      </trkpt>
      <trkpt lat="38.805841" lon="-0.547882">
        <ele>654.617</ele>
        <time>2020-10-18T09:09:23Z</time>
      </trkpt>
      <trkpt lat="38.805799" lon="-0.547885">
        <ele>655.008</ele>
        <time>2020-10-18T09:09:25Z</time>
      </trkpt>
      <trkpt lat="38.805735" lon="-0.547845">
        <ele>655.829</ele>
        <time>2020-10-18T09:09:29Z</time>
      </trkpt>
      <trkpt lat="38.805704" lon="-0.547808">
        <ele>656.262</ele>
        <time>2020-10-18T09:09:31Z</time>
      </trkpt>
      <trkpt lat="38.805667" lon="-0.547704">
        <ele>657.241</ele>
        <time>2020-10-18T09:09:36Z</time>
      </trkpt>
      <trkpt lat="38.805661" lon="-0.547677">
        <ele>657.263</ele>
        <time>2020-10-18T09:09:37Z</time>
      </trkpt>
      <trkpt lat="38.805646" lon="-0.547413">
        <ele>657.824</ele>
        <time>2020-10-18T09:09:46Z</time>
      </trkpt>
      <trkpt lat="38.805652" lon="-0.547323">
        <ele>658.037</ele>
        <time>2020-10-18T09:09:49Z</time>
      </trkpt>
      <trkpt lat="38.805662" lon="-0.547194">
        <ele>658.225</ele>
        <time>2020-10-18T09:09:53Z</time>
      </trkpt>
      <trkpt lat="38.805664" lon="-0.547163">
        <ele>658.476</ele>
        <time>2020-10-18T09:09:54Z</time>
      </trkpt>
      <trkpt lat="38.805688" lon="-0.546829">
        <ele>658.863</ele>
        <time>2020-10-18T09:10:04Z</time>
      </trkpt>
      <trkpt lat="38.805691" lon="-0.546793">
        <ele>659.044</ele>
        <time>2020-10-18T09:10:05Z</time>
      </trkpt>
      <trkpt lat="38.805709" lon="-0.546684">
        <ele>659.218</ele>
        <time>2020-10-18T09:10:08Z</time>
      </trkpt>
      <trkpt lat="38.805719" lon="-0.546615">
        <ele>659.408</ele>
        <time>2020-10-18T09:10:10Z</time>
      </trkpt>
      <trkpt lat="38.805729" lon="-0.546553">
        <ele>659.861</ele>
        <time>2020-10-18T09:10:12Z</time>
      </trkpt>
      <trkpt lat="38.805746" lon="-0.546461">
        <ele>660.024</ele>
        <time>2020-10-18T09:10:15Z</time>
      </trkpt>
      <trkpt lat="38.805781" lon="-0.546124">
        <ele>660.273</ele>
        <time>2020-10-18T09:10:24Z</time>
      </trkpt>
      <trkpt lat="38.805771" lon="-0.546003">
        <ele>660.065</ele>
        <time>2020-10-18T09:10:27Z</time>
      </trkpt>
      <trkpt lat="38.805772" lon="-0.545901">
        <ele>660.026</ele>
        <time>2020-10-18T09:10:29Z</time>
      </trkpt>
      <trkpt lat="38.805768" lon="-0.545802">
        <ele>660.029</ele>
        <time>2020-10-18T09:10:31Z</time>
      </trkpt>
      <trkpt lat="38.805753" lon="-0.545421">
        <ele>659.827</ele>
        <time>2020-10-18T09:10:39Z</time>
      </trkpt>
      <trkpt lat="38.805753" lon="-0.545238">
        <ele>659.878</ele>
        <time>2020-10-18T09:10:43Z</time>
      </trkpt>
      <trkpt lat="38.805757" lon="-0.545057">
        <ele>659.879</ele>
        <time>2020-10-18T09:10:47Z</time>
      </trkpt>
      <trkpt lat="38.805799" lon="-0.544803">
        <ele>660.405</ele>
        <time>2020-10-18T09:10:53Z</time>
      </trkpt>
      <trkpt lat="38.805807" lon="-0.544769">
        <ele>660.625</ele>
        <time>2020-10-18T09:10:54Z</time>
      </trkpt>
      <trkpt lat="38.805817" lon="-0.544678">
        <ele>660.808</ele>
        <time>2020-10-18T09:10:56Z</time>
      </trkpt>
      <trkpt lat="38.805876" lon="-0.544392">
        <ele>661.222</ele>
        <time>2020-10-18T09:11:03Z</time>
      </trkpt>
      <trkpt lat="38.805902" lon="-0.544210">
        <ele>661.215</ele>
        <time>2020-10-18T09:11:08Z</time>
      </trkpt>
      <trkpt lat="38.805917" lon="-0.544129">
        <ele>661.434</ele>
        <time>2020-10-18T09:11:10Z</time>
      </trkpt>
      <trkpt lat="38.805925" lon="-0.544088">
        <ele>661.646</ele>
        <time>2020-10-18T09:11:11Z</time>
      </trkpt>
      <trkpt lat="38.806022" lon="-0.543728">
        <ele>662.237</ele>
        <time>2020-10-18T09:11:21Z</time>
      </trkpt>
      <trkpt lat="38.806114" lon="-0.543523">
        <ele>662.610</ele>
        <time>2020-10-18T09:11:27Z</time>
      </trkpt>
      <trkpt lat="38.806190" lon="-0.543380">
        <ele>662.678</ele>
        <time>2020-10-18T09:11:31Z</time>
      </trkpt>
      <trkpt lat="38.806339" lon="-0.543073">
        <ele>662.899</ele>
        <time>2020-10-18T09:11:39Z</time>
      </trkpt>
      <trkpt lat="38.806471" lon="-0.542853">
        <ele>663.032</ele>
        <time>2020-10-18T09:11:46Z</time>
      </trkpt>
      <trkpt lat="38.806570" lon="-0.542651">
        <ele>663.092</ele>
        <time>2020-10-18T09:11:52Z</time>
      </trkpt>
      <trkpt lat="38.806634" lon="-0.542507">
        <ele>663.011</ele>
        <time>2020-10-18T09:11:56Z</time>
      </trkpt>
      <trkpt lat="38.806656" lon="-0.542464">
        <ele>663.008</ele>
        <time>2020-10-18T09:11:57Z</time>
      </trkpt>
      <trkpt lat="38.806822" lon="-0.542161">
        <ele>663.498</ele>
        <time>2020-10-18T09:12:05Z</time>
      </trkpt>
      <trkpt lat="38.806860" lon="-0.542082">
        <ele>663.631</ele>
        <time>2020-10-18T09:12:07Z</time>
      </trkpt>
      <trkpt lat="38.806966" lon="-0.541870">
        <ele>664.480</ele>
        <time>2020-10-18T09:12:13Z</time>
      </trkpt>
      <trkpt lat="38.806993" lon="-0.541805">
        <ele>664.692</ele>
        <time>2020-10-18T09:12:15Z</time>
      </trkpt>
      <trkpt lat="38.807067" lon="-0.541647">
        <ele>665.683</ele>
        <time>2020-10-18T09:12:20Z</time>
      </trkpt>
      <trkpt lat="38.807098" lon="-0.541590">
        <ele>665.836</ele>
        <time>2020-10-18T09:12:22Z</time>
      </trkpt>
      <trkpt lat="38.807161" lon="-0.541434">
        <ele>667.024</ele>
        <time>2020-10-18T09:12:27Z</time>
      </trkpt>
      <trkpt lat="38.807208" lon="-0.541329">
        <ele>667.645</ele>
        <time>2020-10-18T09:12:30Z</time>
      </trkpt>
      <trkpt lat="38.807235" lon="-0.541264">
        <ele>668.221</ele>
        <time>2020-10-18T09:12:32Z</time>
      </trkpt>
      <trkpt lat="38.807298" lon="-0.541149">
        <ele>669.241</ele>
        <time>2020-10-18T09:12:36Z</time>
      </trkpt>
      <trkpt lat="38.807331" lon="-0.541086">
        <ele>669.805</ele>
        <time>2020-10-18T09:12:38Z</time>
      </trkpt>
      <trkpt lat="38.807370" lon="-0.541000">
        <ele>670.408</ele>
        <time>2020-10-18T09:12:41Z</time>
      </trkpt>
      <trkpt lat="38.807391" lon="-0.540922">
        <ele>670.857</ele>
        <time>2020-10-18T09:12:44Z</time>
      </trkpt>
      <trkpt lat="38.807445" lon="-0.540793">
        <ele>670.850</ele>
        <time>2020-10-18T09:12:48Z</time>
      </trkpt>
      <trkpt lat="38.807500" lon="-0.540679">
        <ele>670.839</ele>
        <time>2020-10-18T09:12:51Z</time>
      </trkpt>
      <trkpt lat="38.807618" lon="-0.540380">
        <ele>670.621</ele>
        <time>2020-10-18T09:12:58Z</time>
      </trkpt>
      <trkpt lat="38.807742" lon="-0.540060">
        <ele>670.842</ele>
        <time>2020-10-18T09:13:06Z</time>
      </trkpt>
      <trkpt lat="38.807807" lon="-0.539835">
        <ele>670.855</ele>
        <time>2020-10-18T09:13:12Z</time>
      </trkpt>
      <trkpt lat="38.807915" lon="-0.539548">
        <ele>671.483</ele>
        <time>2020-10-18T09:13:19Z</time>
      </trkpt>
      <trkpt lat="38.808014" lon="-0.539286">
        <ele>672.014</ele>
        <time>2020-10-18T09:13:25Z</time>
      </trkpt>
      <trkpt lat="38.808055" lon="-0.539097">
        <ele>672.694</ele>
        <time>2020-10-18T09:13:30Z</time>
      </trkpt>
      <trkpt lat="38.808069" lon="-0.539010">
        <ele>672.657</ele>
        <time>2020-10-18T09:13:32Z</time>
      </trkpt>
      <trkpt lat="38.808174" lon="-0.538715">
        <ele>673.022</ele>
        <time>2020-10-18T09:13:39Z</time>
      </trkpt>
      <trkpt lat="38.808244" lon="-0.538554">
        <ele>673.608</ele>
        <time>2020-10-18T09:13:43Z</time>
      </trkpt>
      <trkpt lat="38.808278" lon="-0.538440">
        <ele>674.294</ele>
        <time>2020-10-18T09:13:46Z</time>
      </trkpt>
      <trkpt lat="38.808304" lon="-0.538325">
        <ele>674.837</ele>
        <time>2020-10-18T09:13:49Z</time>
      </trkpt>
      <trkpt lat="38.808334" lon="-0.538260">
        <ele>675.066</ele>
        <time>2020-10-18T09:13:51Z</time>
      </trkpt>
      <trkpt lat="38.808379" lon="-0.538088">
        <ele>676.058</ele>
        <time>2020-10-18T09:13:56Z</time>
      </trkpt>
      <trkpt lat="38.808403" lon="-0.537977">
        <ele>676.629</ele>
        <time>2020-10-18T09:13:59Z</time>
      </trkpt>
      <trkpt lat="38.808426" lon="-0.537911">
        <ele>677.232</ele>
        <time>2020-10-18T09:14:01Z</time>
      </trkpt>
      <trkpt lat="38.808479" lon="-0.537760">
        <ele>678.480</ele>
        <time>2020-10-18T09:14:06Z</time>
      </trkpt>
      <trkpt lat="38.808567" lon="-0.537614">
        <ele>679.631</ele>
        <time>2020-10-18T09:14:12Z</time>
      </trkpt>
      <trkpt lat="38.808585" lon="-0.537598">
        <ele>680.015</ele>
        <time>2020-10-18T09:14:13Z</time>
      </trkpt>
      <trkpt lat="38.808682" lon="-0.537545">
        <ele>680.865</ele>
        <time>2020-10-18T09:14:17Z</time>
      </trkpt>
      <trkpt lat="38.808767" lon="-0.537528">
        <ele>681.611</ele>
        <time>2020-10-18T09:14:20Z</time>
      </trkpt>
      <trkpt lat="38.808792" lon="-0.537521">
        <ele>681.808</ele>
        <time>2020-10-18T09:14:21Z</time>
      </trkpt>
      <trkpt lat="38.808890" lon="-0.537496">
        <ele>683.036</ele>
        <time>2020-10-18T09:14:25Z</time>
      </trkpt>
      <trkpt lat="38.809013" lon="-0.537447">
        <ele>683.829</ele>
        <time>2020-10-18T09:14:30Z</time>
      </trkpt>
      <trkpt lat="38.809062" lon="-0.537426">
        <ele>684.228</ele>
        <time>2020-10-18T09:14:32Z</time>
      </trkpt>
      <trkpt lat="38.809233" lon="-0.537329">
        <ele>685.090</ele>
        <time>2020-10-18T09:14:39Z</time>
      </trkpt>
      <trkpt lat="38.809288" lon="-0.537271">
        <ele>685.421</ele>
        <time>2020-10-18T09:14:42Z</time>
      </trkpt>
      <trkpt lat="38.809373" lon="-0.537157">
        <ele>685.884</ele>
        <time>2020-10-18T09:14:47Z</time>
      </trkpt>
      <trkpt lat="38.809468" lon="-0.536901">
        <ele>686.032</ele>
        <time>2020-10-18T09:14:55Z</time>
      </trkpt>
      <trkpt lat="38.809521" lon="-0.536667">
        <ele>686.463</ele>
        <time>2020-10-18T09:15:01Z</time>
      </trkpt>
      <trkpt lat="38.809550" lon="-0.536557">
        <ele>686.493</ele>
        <time>2020-10-18T09:15:04Z</time>
      </trkpt>
      <trkpt lat="38.809576" lon="-0.536363">
        <ele>686.665</ele>
        <time>2020-10-18T09:15:09Z</time>
      </trkpt>
      <trkpt lat="38.809599" lon="-0.536228">
        <ele>686.421</ele>
        <time>2020-10-18T09:15:12Z</time>
      </trkpt>
      <trkpt lat="38.809607" lon="-0.536183">
        <ele>686.408</ele>
        <time>2020-10-18T09:15:13Z</time>
      </trkpt>
      <trkpt lat="38.809652" lon="-0.535986">
        <ele>686.424</ele>
        <time>2020-10-18T09:15:18Z</time>
      </trkpt>
      <trkpt lat="38.809696" lon="-0.535912">
        <ele>686.217</ele>
        <time>2020-10-18T09:15:20Z</time>
      </trkpt>
      <trkpt lat="38.809931" lon="-0.535679">
        <ele>686.046</ele>
        <time>2020-10-18T09:15:27Z</time>
      </trkpt>
      <trkpt lat="38.810155" lon="-0.535446">
        <ele>686.678</ele>
        <time>2020-10-18T09:15:35Z</time>
      </trkpt>
      <trkpt lat="38.810213" lon="-0.535352">
        <ele>687.499</ele>
        <time>2020-10-18T09:15:38Z</time>
      </trkpt>
      <trkpt lat="38.810248" lon="-0.535244">
        <ele>688.052</ele>
        <time>2020-10-18T09:15:41Z</time>
      </trkpt>
      <trkpt lat="38.810349" lon="-0.534779">
        <ele>688.270</ele>
        <time>2020-10-18T09:15:52Z</time>
      </trkpt>
      <trkpt lat="38.810398" lon="-0.534564">
        <ele>688.051</ele>
        <time>2020-10-18T09:15:57Z</time>
      </trkpt>
      <trkpt lat="38.810412" lon="-0.534476">
        <ele>688.049</ele>
        <time>2020-10-18T09:15:59Z</time>
      </trkpt>
      <trkpt lat="38.810416" lon="-0.534427">
        <ele>688.002</ele>
        <time>2020-10-18T09:16:00Z</time>
      </trkpt>
      <trkpt lat="38.810419" lon="-0.534324">
        <ele>687.822</ele>
        <time>2020-10-18T09:16:02Z</time>
      </trkpt>
      <trkpt lat="38.810420" lon="-0.534269">
        <ele>687.808</ele>
        <time>2020-10-18T09:16:03Z</time>
      </trkpt>
      <trkpt lat="38.810414" lon="-0.534085">
        <ele>687.219</ele>
        <time>2020-10-18T09:16:06Z</time>
      </trkpt>
      <trkpt lat="38.810388" lon="-0.533781">
        <ele>687.042</ele>
        <time>2020-10-18T09:16:12Z</time>
      </trkpt>
      <trkpt lat="38.810385" lon="-0.533404">
        <ele>687.491</ele>
        <time>2020-10-18T09:16:20Z</time>
      </trkpt>
      <trkpt lat="38.810400" lon="-0.533205">
        <ele>687.863</ele>
        <time>2020-10-18T09:16:24Z</time>
      </trkpt>
      <trkpt lat="38.810420" lon="-0.533014">
        <ele>688.654</ele>
        <time>2020-10-18T09:16:28Z</time>
      </trkpt>
      <trkpt lat="38.810447" lon="-0.532638">
        <ele>689.617</ele>
        <time>2020-10-18T09:16:36Z</time>
      </trkpt>
      <trkpt lat="38.810436" lon="-0.532373">
        <ele>690.465</ele>
        <time>2020-10-18T09:16:42Z</time>
      </trkpt>
      <trkpt lat="38.810435" lon="-0.532183">
        <ele>690.866</ele>
        <time>2020-10-18T09:16:46Z</time>
      </trkpt>
      <trkpt lat="38.810425" lon="-0.531935">
        <ele>690.885</ele>
        <time>2020-10-18T09:16:51Z</time>
      </trkpt>
      <trkpt lat="38.810413" lon="-0.531792">
        <ele>690.889</ele>
        <time>2020-10-18T09:16:54Z</time>
      </trkpt>
      <trkpt lat="38.810407" lon="-0.531420">
        <ele>691.017</ele>
        <time>2020-10-18T09:17:02Z</time>
      </trkpt>
      <trkpt lat="38.810395" lon="-0.531051">
        <ele>690.608</ele>
        <time>2020-10-18T09:17:09Z</time>
      </trkpt>
      <trkpt lat="38.810396" lon="-0.530917">
        <ele>689.843</ele>
        <time>2020-10-18T09:17:11Z</time>
      </trkpt>
      <trkpt lat="38.810397" lon="-0.530849">
        <ele>689.446</ele>
        <time>2020-10-18T09:17:12Z</time>
      </trkpt>
      <trkpt lat="38.810400" lon="-0.530710">
        <ele>688.885</ele>
        <time>2020-10-18T09:17:14Z</time>
      </trkpt>
      <trkpt lat="38.810414" lon="-0.530133">
        <ele>688.627</ele>
        <time>2020-10-18T09:17:22Z</time>
      </trkpt>
      <trkpt lat="38.810417" lon="-0.530055">
        <ele>688.248</ele>
        <time>2020-10-18T09:17:23Z</time>
      </trkpt>
      <trkpt lat="38.810436" lon="-0.529727">
        <ele>687.261</ele>
        <time>2020-10-18T09:17:27Z</time>
      </trkpt>
      <trkpt lat="38.810440" lon="-0.529644">
        <ele>687.059</ele>
        <time>2020-10-18T09:17:28Z</time>
      </trkpt>
      <trkpt lat="38.810441" lon="-0.529564">
        <ele>686.690</ele>
        <time>2020-10-18T09:17:29Z</time>
      </trkpt>
      <trkpt lat="38.810418" lon="-0.529422">
        <ele>685.871</ele>
        <time>2020-10-18T09:17:31Z</time>
      </trkpt>
      <trkpt lat="38.810387" lon="-0.529359">
        <ele>685.841</ele>
        <time>2020-10-18T09:17:32Z</time>
      </trkpt>
      <trkpt lat="38.810347" lon="-0.529313">
        <ele>685.615</ele>
        <time>2020-10-18T09:17:33Z</time>
      </trkpt>
      <trkpt lat="38.810247" lon="-0.529262">
        <ele>685.008</ele>
        <time>2020-10-18T09:17:35Z</time>
      </trkpt>
      <trkpt lat="38.810196" lon="-0.529248">
        <ele>684.862</ele>
        <time>2020-10-18T09:17:36Z</time>
      </trkpt>
      <trkpt lat="38.809862" lon="-0.529112">
        <ele>683.615</ele>
        <time>2020-10-18T09:17:42Z</time>
      </trkpt>
      <trkpt lat="38.809800" lon="-0.529078">
        <ele>683.474</ele>
        <time>2020-10-18T09:17:43Z</time>
      </trkpt>
      <trkpt lat="38.809604" lon="-0.528972">
        <ele>682.646</ele>
        <time>2020-10-18T09:17:46Z</time>
      </trkpt>
      <trkpt lat="38.809439" lon="-0.528879">
        <ele>682.037</ele>
        <time>2020-10-18T09:17:49Z</time>
      </trkpt>
      <trkpt lat="38.809326" lon="-0.528837">
        <ele>681.610</ele>
        <time>2020-10-18T09:17:51Z</time>
      </trkpt>
      <trkpt lat="38.809119" lon="-0.528767">
        <ele>681.038</ele>
        <time>2020-10-18T09:17:55Z</time>
      </trkpt>
      <trkpt lat="38.808975" lon="-0.528746">
        <ele>681.099</ele>
        <time>2020-10-18T09:17:58Z</time>
      </trkpt>
      <trkpt lat="38.808892" lon="-0.528760">
        <ele>681.273</ele>
        <time>2020-10-18T09:18:00Z</time>
      </trkpt>
      <trkpt lat="38.808725" lon="-0.528731">
        <ele>682.485</ele>
        <time>2020-10-18T09:18:05Z</time>
      </trkpt>
      <trkpt lat="38.808691" lon="-0.528714">
        <ele>682.613</ele>
        <time>2020-10-18T09:18:06Z</time>
      </trkpt>
      <trkpt lat="38.808594" lon="-0.528629">
        <ele>683.608</ele>
        <time>2020-10-18T09:18:10Z</time>
      </trkpt>
      <trkpt lat="38.808578" lon="-0.528604">
        <ele>683.812</ele>
        <time>2020-10-18T09:18:11Z</time>
      </trkpt>
      <trkpt lat="38.808525" lon="-0.528530">
        <ele>683.825</ele>
        <time>2020-10-18T09:18:14Z</time>
      </trkpt>
      <trkpt lat="38.808451" lon="-0.528523">
        <ele>683.614</ele>
        <time>2020-10-18T09:18:16Z</time>
      </trkpt>
      <trkpt lat="38.808359" lon="-0.528525">
        <ele>683.096</ele>
        <time>2020-10-18T09:18:18Z</time>
      </trkpt>
      <trkpt lat="38.808311" lon="-0.528520">
        <ele>682.627</ele>
        <time>2020-10-18T09:18:19Z</time>
      </trkpt>
      <trkpt lat="38.808252" lon="-0.528508">
        <ele>682.480</ele>
        <time>2020-10-18T09:18:20Z</time>
      </trkpt>
      <trkpt lat="38.808214" lon="-0.528498">
        <ele>682.218</ele>
        <time>2020-10-18T09:18:21Z</time>
      </trkpt>
      <trkpt lat="38.808042" lon="-0.528450">
        <ele>681.629</ele>
        <time>2020-10-18T09:18:24Z</time>
      </trkpt>
      <trkpt lat="38.807904" lon="-0.528392">
        <ele>680.687</ele>
        <time>2020-10-18T09:18:26Z</time>
      </trkpt>
      <trkpt lat="38.807827" lon="-0.528352">
        <ele>679.642</ele>
        <time>2020-10-18T09:18:27Z</time>
      </trkpt>
      <trkpt lat="38.807660" lon="-0.528255">
        <ele>678.026</ele>
        <time>2020-10-18T09:18:29Z</time>
      </trkpt>
      <trkpt lat="38.807579" lon="-0.528191">
        <ele>677.008</ele>
        <time>2020-10-18T09:18:30Z</time>
      </trkpt>
      <trkpt lat="38.807506" lon="-0.528111">
        <ele>676.033</ele>
        <time>2020-10-18T09:18:31Z</time>
      </trkpt>
      <trkpt lat="38.807445" lon="-0.528015">
        <ele>675.016</ele>
        <time>2020-10-18T09:18:32Z</time>
      </trkpt>
      <trkpt lat="38.807390" lon="-0.527906">
        <ele>674.095</ele>
        <time>2020-10-18T09:18:33Z</time>
      </trkpt>
      <trkpt lat="38.807303" lon="-0.527690">
        <ele>672.037</ele>
        <time>2020-10-18T09:18:35Z</time>
      </trkpt>
      <trkpt lat="38.807262" lon="-0.527591">
        <ele>671.058</ele>
        <time>2020-10-18T09:18:36Z</time>
      </trkpt>
      <trkpt lat="38.807213" lon="-0.527500">
        <ele>670.051</ele>
        <time>2020-10-18T09:18:37Z</time>
      </trkpt>
      <trkpt lat="38.807149" lon="-0.527411">
        <ele>668.849</ele>
        <time>2020-10-18T09:18:38Z</time>
      </trkpt>
      <trkpt lat="38.807083" lon="-0.527318">
        <ele>667.650</ele>
        <time>2020-10-18T09:18:39Z</time>
      </trkpt>
      <trkpt lat="38.807020" lon="-0.527231">
        <ele>666.068</ele>
        <time>2020-10-18T09:18:40Z</time>
      </trkpt>
      <trkpt lat="38.806957" lon="-0.527144">
        <ele>664.842</ele>
        <time>2020-10-18T09:18:41Z</time>
      </trkpt>
      <trkpt lat="38.806894" lon="-0.527061">
        <ele>663.426</ele>
        <time>2020-10-18T09:18:42Z</time>
      </trkpt>
      <trkpt lat="38.806824" lon="-0.526977">
        <ele>662.408</ele>
        <time>2020-10-18T09:18:43Z</time>
      </trkpt>
      <trkpt lat="38.806743" lon="-0.526903">
        <ele>661.231</ele>
        <time>2020-10-18T09:18:44Z</time>
      </trkpt>
      <trkpt lat="38.806573" lon="-0.526775">
        <ele>659.454</ele>
        <time>2020-10-18T09:18:46Z</time>
      </trkpt>
      <trkpt lat="38.806412" lon="-0.526704">
        <ele>657.643</ele>
        <time>2020-10-18T09:18:48Z</time>
      </trkpt>
      <trkpt lat="38.806242" lon="-0.526656">
        <ele>656.435</ele>
        <time>2020-10-18T09:18:50Z</time>
      </trkpt>
      <trkpt lat="38.806045" lon="-0.526625">
        <ele>655.256</ele>
        <time>2020-10-18T09:18:52Z</time>
      </trkpt>
      <trkpt lat="38.805940" lon="-0.526626">
        <ele>654.259</ele>
        <time>2020-10-18T09:18:53Z</time>
      </trkpt>
      <trkpt lat="38.805831" lon="-0.526639">
        <ele>653.057</ele>
        <time>2020-10-18T09:18:54Z</time>
      </trkpt>
      <trkpt lat="38.805721" lon="-0.526661">
        <ele>651.828</ele>
        <time>2020-10-18T09:18:55Z</time>
      </trkpt>
      <trkpt lat="38.805612" lon="-0.526695">
        <ele>650.625</ele>
        <time>2020-10-18T09:18:56Z</time>
      </trkpt>
      <trkpt lat="38.805506" lon="-0.526737">
        <ele>649.226</ele>
        <time>2020-10-18T09:18:57Z</time>
      </trkpt>
      <trkpt lat="38.805411" lon="-0.526770">
        <ele>647.808</ele>
        <time>2020-10-18T09:18:58Z</time>
      </trkpt>
      <trkpt lat="38.805326" lon="-0.526784">
        <ele>646.608</ele>
        <time>2020-10-18T09:18:59Z</time>
      </trkpt>
      <trkpt lat="38.805248" lon="-0.526781">
        <ele>645.697</ele>
        <time>2020-10-18T09:19:00Z</time>
      </trkpt>
      <trkpt lat="38.805174" lon="-0.526768">
        <ele>644.850</ele>
        <time>2020-10-18T09:19:01Z</time>
      </trkpt>
      <trkpt lat="38.805022" lon="-0.526718">
        <ele>643.479</ele>
        <time>2020-10-18T09:19:03Z</time>
      </trkpt>
      <trkpt lat="38.804935" lon="-0.526684">
        <ele>642.471</ele>
        <time>2020-10-18T09:19:04Z</time>
      </trkpt>
      <trkpt lat="38.804844" lon="-0.526646">
        <ele>641.622</ele>
        <time>2020-10-18T09:19:05Z</time>
      </trkpt>
      <trkpt lat="38.804658" lon="-0.526554">
        <ele>639.885</ele>
        <time>2020-10-18T09:19:07Z</time>
      </trkpt>
      <trkpt lat="38.804573" lon="-0.526482">
        <ele>638.623</ele>
        <time>2020-10-18T09:19:08Z</time>
      </trkpt>
      <trkpt lat="38.804493" lon="-0.526382">
        <ele>637.244</ele>
        <time>2020-10-18T09:19:09Z</time>
      </trkpt>
      <trkpt lat="38.804425" lon="-0.526262">
        <ele>635.866</ele>
        <time>2020-10-18T09:19:10Z</time>
      </trkpt>
      <trkpt lat="38.804361" lon="-0.526130">
        <ele>635.029</ele>
        <time>2020-10-18T09:19:11Z</time>
      </trkpt>
      <trkpt lat="38.804296" lon="-0.525997">
        <ele>634.221</ele>
        <time>2020-10-18T09:19:12Z</time>
      </trkpt>
      <trkpt lat="38.804223" lon="-0.525881">
        <ele>633.808</ele>
        <time>2020-10-18T09:19:13Z</time>
      </trkpt>
      <trkpt lat="38.804135" lon="-0.525793">
        <ele>633.251</ele>
        <time>2020-10-18T09:19:14Z</time>
      </trkpt>
      <trkpt lat="38.804037" lon="-0.525742">
        <ele>632.854</ele>
        <time>2020-10-18T09:19:15Z</time>
      </trkpt>
      <trkpt lat="38.803932" lon="-0.525732">
        <ele>632.463</ele>
        <time>2020-10-18T09:19:16Z</time>
      </trkpt>
      <trkpt lat="38.803830" lon="-0.525743">
        <ele>632.085</ele>
        <time>2020-10-18T09:19:17Z</time>
      </trkpt>
      <trkpt lat="38.803734" lon="-0.525765">
        <ele>631.816</ele>
        <time>2020-10-18T09:19:18Z</time>
      </trkpt>
      <trkpt lat="38.803556" lon="-0.525792">
        <ele>631.259</ele>
        <time>2020-10-18T09:19:20Z</time>
      </trkpt>
      <trkpt lat="38.803406" lon="-0.525724">
        <ele>630.657</ele>
        <time>2020-10-18T09:19:22Z</time>
      </trkpt>
      <trkpt lat="38.803312" lon="-0.525562">
        <ele>630.478</ele>
        <time>2020-10-18T09:19:24Z</time>
      </trkpt>
      <trkpt lat="38.803282" lon="-0.525468">
        <ele>630.475</ele>
        <time>2020-10-18T09:19:25Z</time>
      </trkpt>
      <trkpt lat="38.803214" lon="-0.525289">
        <ele>630.028</ele>
        <time>2020-10-18T09:19:27Z</time>
      </trkpt>
      <trkpt lat="38.803118" lon="-0.525133">
        <ele>629.420</ele>
        <time>2020-10-18T09:19:29Z</time>
      </trkpt>
      <trkpt lat="38.802981" lon="-0.525026">
        <ele>629.008</ele>
        <time>2020-10-18T09:19:31Z</time>
      </trkpt>
      <trkpt lat="38.802901" lon="-0.524994">
        <ele>628.662</ele>
        <time>2020-10-18T09:19:32Z</time>
      </trkpt>
      <trkpt lat="38.802818" lon="-0.524970">
        <ele>628.015</ele>
        <time>2020-10-18T09:19:33Z</time>
      </trkpt>
      <trkpt lat="38.802637" lon="-0.524931">
        <ele>626.624</ele>
        <time>2020-10-18T09:19:35Z</time>
      </trkpt>
      <trkpt lat="38.802456" lon="-0.524888">
        <ele>625.456</ele>
        <time>2020-10-18T09:19:37Z</time>
      </trkpt>
      <trkpt lat="38.802267" lon="-0.524850">
        <ele>624.277</ele>
        <time>2020-10-18T09:19:39Z</time>
      </trkpt>
      <trkpt lat="38.802061" lon="-0.524840">
        <ele>622.860</ele>
        <time>2020-10-18T09:19:41Z</time>
      </trkpt>
      <trkpt lat="38.801744" lon="-0.524810">
        <ele>621.688</ele>
        <time>2020-10-18T09:19:44Z</time>
      </trkpt>
      <trkpt lat="38.801523" lon="-0.524789">
        <ele>619.689</ele>
        <time>2020-10-18T09:19:46Z</time>
      </trkpt>
      <trkpt lat="38.801415" lon="-0.524774">
        <ele>618.082</ele>
        <time>2020-10-18T09:19:47Z</time>
      </trkpt>
      <trkpt lat="38.801310" lon="-0.524758">
        <ele>616.843</ele>
        <time>2020-10-18T09:19:48Z</time>
      </trkpt>
      <trkpt lat="38.801099" lon="-0.524707">
        <ele>615.417</ele>
        <time>2020-10-18T09:19:50Z</time>
      </trkpt>
      <trkpt lat="38.800893" lon="-0.524641">
        <ele>614.808</ele>
        <time>2020-10-18T09:19:52Z</time>
      </trkpt>
      <trkpt lat="38.800790" lon="-0.524607">
        <ele>614.473</ele>
        <time>2020-10-18T09:19:53Z</time>
      </trkpt>
      <trkpt lat="38.800578" lon="-0.524550">
        <ele>613.046</ele>
        <time>2020-10-18T09:19:55Z</time>
      </trkpt>
      <trkpt lat="38.800361" lon="-0.524498">
        <ele>611.695</ele>
        <time>2020-10-18T09:19:57Z</time>
      </trkpt>
      <trkpt lat="38.800140" lon="-0.524445">
        <ele>610.047</ele>
        <time>2020-10-18T09:19:59Z</time>
      </trkpt>
      <trkpt lat="38.799917" lon="-0.524389">
        <ele>608.688</ele>
        <time>2020-10-18T09:20:01Z</time>
      </trkpt>
      <trkpt lat="38.799691" lon="-0.524319">
        <ele>607.491</ele>
        <time>2020-10-18T09:20:03Z</time>
      </trkpt>
      <trkpt lat="38.799478" lon="-0.524254">
        <ele>606.049</ele>
        <time>2020-10-18T09:20:05Z</time>
      </trkpt>
      <trkpt lat="38.799376" lon="-0.524229">
        <ele>605.670</ele>
        <time>2020-10-18T09:20:06Z</time>
      </trkpt>
      <trkpt lat="38.799178" lon="-0.524200">
        <ele>604.654</ele>
        <time>2020-10-18T09:20:08Z</time>
      </trkpt>
      <trkpt lat="38.798887" lon="-0.524169">
        <ele>603.656</ele>
        <time>2020-10-18T09:20:11Z</time>
      </trkpt>
      <trkpt lat="38.798797" lon="-0.524150">
        <ele>603.211</ele>
        <time>2020-10-18T09:20:12Z</time>
      </trkpt>
      <trkpt lat="38.798514" lon="-0.524088">
        <ele>602.408</ele>
        <time>2020-10-18T09:20:15Z</time>
      </trkpt>
      <trkpt lat="38.798413" lon="-0.524084">
        <ele>602.070</ele>
        <time>2020-10-18T09:20:16Z</time>
      </trkpt>
      <trkpt lat="38.798311" lon="-0.524086">
        <ele>601.263</ele>
        <time>2020-10-18T09:20:17Z</time>
      </trkpt>
      <trkpt lat="38.798100" lon="-0.524083">
        <ele>599.692</ele>
        <time>2020-10-18T09:20:19Z</time>
      </trkpt>
      <trkpt lat="38.797882" lon="-0.524064">
        <ele>598.284</ele>
        <time>2020-10-18T09:20:21Z</time>
      </trkpt>
      <trkpt lat="38.797664" lon="-0.524063">
        <ele>597.675</ele>
        <time>2020-10-18T09:20:23Z</time>
      </trkpt>
      <trkpt lat="38.797479" lon="-0.524113">
        <ele>597.278</ele>
        <time>2020-10-18T09:20:25Z</time>
      </trkpt>
      <trkpt lat="38.797402" lon="-0.524156">
        <ele>597.216</ele>
        <time>2020-10-18T09:20:26Z</time>
      </trkpt>
      <trkpt lat="38.797338" lon="-0.524216">
        <ele>597.017</ele>
        <time>2020-10-18T09:20:27Z</time>
      </trkpt>
      <trkpt lat="38.797280" lon="-0.524277">
        <ele>596.677</ele>
        <time>2020-10-18T09:20:28Z</time>
      </trkpt>
      <trkpt lat="38.797223" lon="-0.524321">
        <ele>596.261</ele>
        <time>2020-10-18T09:20:29Z</time>
      </trkpt>
      <trkpt lat="38.797163" lon="-0.524343">
        <ele>595.827</ele>
        <time>2020-10-18T09:20:30Z</time>
      </trkpt>
      <trkpt lat="38.797109" lon="-0.524354">
        <ele>595.608</ele>
        <time>2020-10-18T09:20:31Z</time>
      </trkpt>
      <trkpt lat="38.797021" lon="-0.524353">
        <ele>595.612</ele>
        <time>2020-10-18T09:20:33Z</time>
      </trkpt>
      <trkpt lat="38.796888" lon="-0.524349">
        <ele>595.425</ele>
        <time>2020-10-18T09:20:36Z</time>
      </trkpt>
      <trkpt lat="38.796838" lon="-0.524405">
        <ele>595.464</ele>
        <time>2020-10-18T09:20:38Z</time>
      </trkpt>
      <trkpt lat="38.796873" lon="-0.524559">
        <ele>594.876</ele>
        <time>2020-10-18T09:20:41Z</time>
      </trkpt>
      <trkpt lat="38.796882" lon="-0.524613">
        <ele>594.467</ele>
        <time>2020-10-18T09:20:42Z</time>
      </trkpt>
      <trkpt lat="38.796910" lon="-0.524955">
        <ele>593.650</ele>
        <time>2020-10-18T09:20:48Z</time>
      </trkpt>
      <trkpt lat="38.796916" lon="-0.525011">
        <ele>593.478</ele>
        <time>2020-10-18T09:20:49Z</time>
      </trkpt>
      <trkpt lat="38.796918" lon="-0.525071">
        <ele>593.259</ele>
        <time>2020-10-18T09:20:50Z</time>
      </trkpt>
      <trkpt lat="38.796932" lon="-0.525501">
        <ele>593.062</ele>
        <time>2020-10-18T09:20:58Z</time>
      </trkpt>
      <trkpt lat="38.796947" lon="-0.525976">
        <ele>593.083</ele>
        <time>2020-10-18T09:21:06Z</time>
      </trkpt>
      <trkpt lat="38.796960" lon="-0.526154">
        <ele>592.611</ele>
        <time>2020-10-18T09:21:09Z</time>
      </trkpt>
      <trkpt lat="38.796974" lon="-0.526501">
        <ele>592.008</ele>
        <time>2020-10-18T09:21:15Z</time>
      </trkpt>
      <trkpt lat="38.796993" lon="-0.526957">
        <ele>591.651</ele>
        <time>2020-10-18T09:21:22Z</time>
      </trkpt>
      <trkpt lat="38.796997" lon="-0.527087">
        <ele>591.674</ele>
        <time>2020-10-18T09:21:24Z</time>
      </trkpt>
      <trkpt lat="38.797019" lon="-0.527519">
        <ele>591.273</ele>
        <time>2020-10-18T09:21:31Z</time>
      </trkpt>
      <trkpt lat="38.797036" lon="-0.527820">
        <ele>590.415</ele>
        <time>2020-10-18T09:21:35Z</time>
      </trkpt>
      <trkpt lat="38.797030" lon="-0.527964">
        <ele>589.686</ele>
        <time>2020-10-18T09:21:37Z</time>
      </trkpt>
      <trkpt lat="38.797026" lon="-0.528048">
        <ele>589.459</ele>
        <time>2020-10-18T09:21:38Z</time>
      </trkpt>
      <trkpt lat="38.796974" lon="-0.528461">
        <ele>588.897</ele>
        <time>2020-10-18T09:21:43Z</time>
      </trkpt>
      <trkpt lat="38.796940" lon="-0.528615">
        <ele>588.678</ele>
        <time>2020-10-18T09:21:45Z</time>
      </trkpt>
      <trkpt lat="38.796900" lon="-0.528770">
        <ele>588.247</ele>
        <time>2020-10-18T09:21:47Z</time>
      </trkpt>
      <trkpt lat="38.796882" lon="-0.528849">
        <ele>588.029</ele>
        <time>2020-10-18T09:21:48Z</time>
      </trkpt>
      <trkpt lat="38.796860" lon="-0.528926">
        <ele>587.621</ele>
        <time>2020-10-18T09:21:49Z</time>
      </trkpt>
      <trkpt lat="38.796809" lon="-0.529075">
        <ele>587.208</ele>
        <time>2020-10-18T09:21:51Z</time>
      </trkpt>
      <trkpt lat="38.796748" lon="-0.529287">
        <ele>586.699</ele>
        <time>2020-10-18T09:21:54Z</time>
      </trkpt>
      <trkpt lat="38.796679" lon="-0.529544">
        <ele>586.272</ele>
        <time>2020-10-18T09:21:58Z</time>
      </trkpt>
      <trkpt lat="38.796651" lon="-0.529687">
        <ele>586.041</ele>
        <time>2020-10-18T09:22:00Z</time>
      </trkpt>
      <trkpt lat="38.796539" lon="-0.530222">
        <ele>585.813</ele>
        <time>2020-10-18T09:22:07Z</time>
      </trkpt>
      <trkpt lat="38.796472" lon="-0.530600">
        <ele>585.044</ele>
        <time>2020-10-18T09:22:12Z</time>
      </trkpt>
      <trkpt lat="38.796437" lon="-0.530820">
        <ele>584.687</ele>
        <time>2020-10-18T09:22:15Z</time>
      </trkpt>
      <trkpt lat="38.796425" lon="-0.530954">
        <ele>583.675</ele>
        <time>2020-10-18T09:22:17Z</time>
      </trkpt>
      <trkpt lat="38.796417" lon="-0.531016">
        <ele>583.266</ele>
        <time>2020-10-18T09:22:18Z</time>
      </trkpt>
      <trkpt lat="38.796382" lon="-0.531138">
        <ele>582.644</ele>
        <time>2020-10-18T09:22:20Z</time>
      </trkpt>
      <trkpt lat="38.796368" lon="-0.531195">
        <ele>582.205</ele>
        <time>2020-10-18T09:22:21Z</time>
      </trkpt>
      <trkpt lat="38.796332" lon="-0.531320">
        <ele>581.615</ele>
        <time>2020-10-18T09:22:24Z</time>
      </trkpt>
      <trkpt lat="38.796267" lon="-0.531510">
        <ele>581.008</ele>
        <time>2020-10-18T09:22:28Z</time>
      </trkpt>
      <trkpt lat="38.796242" lon="-0.531620">
        <ele>581.029</ele>
        <time>2020-10-18T09:22:30Z</time>
      </trkpt>
      <trkpt lat="38.796207" lon="-0.531775">
        <ele>581.072</ele>
        <time>2020-10-18T09:22:33Z</time>
      </trkpt>
      <trkpt lat="38.796205" lon="-0.531890">
        <ele>580.851</ele>
        <time>2020-10-18T09:22:36Z</time>
      </trkpt>
      <trkpt lat="38.796204" lon="-0.531900">
        <ele>580.663</ele>
        <time>2020-10-18T09:22:40Z</time>
      </trkpt>
      <trkpt lat="38.796204" lon="-0.531900">
        <ele>580.614</ele>
        <time>2020-10-18T09:22:41Z</time>
      </trkpt>
      <trkpt lat="38.796196" lon="-0.531925">
        <ele>580.657</ele>
        <time>2020-10-18T09:22:47Z</time>
      </trkpt>
      <trkpt lat="38.796184" lon="-0.531984">
        <ele>580.625</ele>
        <time>2020-10-18T09:22:49Z</time>
      </trkpt>
      <trkpt lat="38.796163" lon="-0.532190">
        <ele>580.226</ele>
        <time>2020-10-18T09:22:54Z</time>
      </trkpt>
      <trkpt lat="38.796170" lon="-0.532450">
        <ele>579.669</ele>
        <time>2020-10-18T09:23:01Z</time>
      </trkpt>
      <trkpt lat="38.796167" lon="-0.532485">
        <ele>579.404</ele>
        <time>2020-10-18T09:23:02Z</time>
      </trkpt>
      <trkpt lat="38.796149" lon="-0.532723">
        <ele>579.224</ele>
        <time>2020-10-18T09:23:09Z</time>
      </trkpt>
      <trkpt lat="38.796108" lon="-0.532913">
        <ele>578.408</ele>
        <time>2020-10-18T09:23:14Z</time>
      </trkpt>
      <trkpt lat="38.796081" lon="-0.533034">
        <ele>578.441</ele>
        <time>2020-10-18T09:23:17Z</time>
      </trkpt>
      <trkpt lat="38.796055" lon="-0.533259">
        <ele>578.834</ele>
        <time>2020-10-18T09:23:23Z</time>
      </trkpt>
      <trkpt lat="38.796058" lon="-0.533332">
        <ele>578.883</ele>
        <time>2020-10-18T09:23:25Z</time>
      </trkpt>
      <trkpt lat="38.796061" lon="-0.533561">
        <ele>578.055</ele>
        <time>2020-10-18T09:23:31Z</time>
      </trkpt>
      <trkpt lat="38.796044" lon="-0.533761">
        <ele>577.826</ele>
        <time>2020-10-18T09:23:36Z</time>
      </trkpt>
      <trkpt lat="38.796028" lon="-0.533881">
        <ele>577.429</ele>
        <time>2020-10-18T09:23:39Z</time>
      </trkpt>
      <trkpt lat="38.796010" lon="-0.533964">
        <ele>577.057</ele>
        <time>2020-10-18T09:23:41Z</time>
      </trkpt>
      <trkpt lat="38.795938" lon="-0.534182">
        <ele>577.058</ele>
        <time>2020-10-18T09:23:47Z</time>
      </trkpt>
      <trkpt lat="38.795919" lon="-0.534228">
        <ele>577.012</ele>
        <time>2020-10-18T09:23:49Z</time>
      </trkpt>
      <trkpt lat="38.795919" lon="-0.534266">
        <ele>577.632</ele>
        <time>2020-10-18T09:23:54Z</time>
      </trkpt>
      <trkpt lat="38.795919" lon="-0.534266">
        <ele>577.605</ele>
        <time>2020-10-18T09:23:56Z</time>
      </trkpt>
      <trkpt lat="38.795925" lon="-0.534271">
        <ele>576.008</ele>
        <time>2020-10-18T09:33:18Z</time>
      </trkpt>
      <trkpt lat="38.795925" lon="-0.534271">
        <ele>576.066</ele>
        <time>2020-10-18T09:33:19Z</time>
      </trkpt>
      <trkpt lat="38.795927" lon="-0.534276">
        <ele>574.859</ele>
        <time>2020-10-18T09:33:24Z</time>
      </trkpt>
      <trkpt lat="38.795945" lon="-0.534294">
        <ele>574.628</ele>
        <time>2020-10-18T09:33:25Z</time>
      </trkpt>
      <trkpt lat="38.795973" lon="-0.534426">
        <ele>574.260</ele>
        <time>2020-10-18T09:33:29Z</time>
      </trkpt>
      <trkpt lat="38.795928" lon="-0.534703">
        <ele>574.011</ele>
        <time>2020-10-18T09:33:34Z</time>
      </trkpt>
      <trkpt lat="38.795891" lon="-0.534905">
        <ele>573.694</ele>
        <time>2020-10-18T09:33:37Z</time>
      </trkpt>
      <trkpt lat="38.795830" lon="-0.535208">
        <ele>573.222</ele>
        <time>2020-10-18T09:33:41Z</time>
      </trkpt>
      <trkpt lat="38.795757" lon="-0.535527">
        <ele>572.613</ele>
        <time>2020-10-18T09:33:45Z</time>
      </trkpt>
      <trkpt lat="38.795708" lon="-0.535776">
        <ele>572.059</ele>
        <time>2020-10-18T09:33:48Z</time>
      </trkpt>
      <trkpt lat="38.795692" lon="-0.535860">
        <ele>571.603</ele>
        <time>2020-10-18T09:33:49Z</time>
      </trkpt>
      <trkpt lat="38.795598" lon="-0.536275">
        <ele>569.623</ele>
        <time>2020-10-18T09:33:54Z</time>
      </trkpt>
      <trkpt lat="38.795507" lon="-0.536757">
        <ele>569.208</ele>
        <time>2020-10-18T09:34:00Z</time>
      </trkpt>
      <trkpt lat="38.795381" lon="-0.537372">
        <ele>568.640</ele>
        <time>2020-10-18T09:34:07Z</time>
      </trkpt>
      <trkpt lat="38.795244" lon="-0.538035">
        <ele>567.683</ele>
        <time>2020-10-18T09:34:14Z</time>
      </trkpt>
      <trkpt lat="38.795225" lon="-0.538131">
        <ele>567.482</ele>
        <time>2020-10-18T09:34:15Z</time>
      </trkpt>
      <trkpt lat="38.795123" lon="-0.538605">
        <ele>566.474</ele>
        <time>2020-10-18T09:34:20Z</time>
      </trkpt>
      <trkpt lat="38.795028" lon="-0.539069">
        <ele>565.835</ele>
        <time>2020-10-18T09:34:25Z</time>
      </trkpt>
      <trkpt lat="38.794946" lon="-0.539444">
        <ele>565.418</ele>
        <time>2020-10-18T09:34:29Z</time>
      </trkpt>
      <trkpt lat="38.794828" lon="-0.539987">
        <ele>564.876</ele>
        <time>2020-10-18T09:34:35Z</time>
      </trkpt>
      <trkpt lat="38.794776" lon="-0.540261">
        <ele>564.227</ele>
        <time>2020-10-18T09:34:38Z</time>
      </trkpt>
      <trkpt lat="38.794677" lon="-0.540739">
        <ele>563.257</ele>
        <time>2020-10-18T09:34:43Z</time>
      </trkpt>
      <trkpt lat="38.794657" lon="-0.540834">
        <ele>563.000</ele>
        <time>2020-10-18T09:34:44Z</time>
      </trkpt>
      <trkpt lat="38.794535" lon="-0.541421">
        <ele>562.020</ele>
        <time>2020-10-18T09:34:50Z</time>
      </trkpt>
      <trkpt lat="38.794455" lon="-0.541806">
        <ele>561.008</ele>
        <time>2020-10-18T09:34:54Z</time>
      </trkpt>
      <trkpt lat="38.794432" lon="-0.541900">
        <ele>560.830</ele>
        <time>2020-10-18T09:34:55Z</time>
      </trkpt>
      <trkpt lat="38.794331" lon="-0.542367">
        <ele>560.053</ele>
        <time>2020-10-18T09:35:00Z</time>
      </trkpt>
      <trkpt lat="38.794312" lon="-0.542463">
        <ele>559.892</ele>
        <time>2020-10-18T09:35:01Z</time>
      </trkpt>
      <trkpt lat="38.794205" lon="-0.542930">
        <ele>558.624</ele>
        <time>2020-10-18T09:35:06Z</time>
      </trkpt>
      <trkpt lat="38.794163" lon="-0.543146">
        <ele>558.265</ele>
        <time>2020-10-18T09:35:08Z</time>
      </trkpt>
      <trkpt lat="38.794111" lon="-0.543409">
        <ele>557.658</ele>
        <time>2020-10-18T09:35:11Z</time>
      </trkpt>
      <trkpt lat="38.794053" lon="-0.543700">
        <ele>556.636</ele>
        <time>2020-10-18T09:35:14Z</time>
      </trkpt>
      <trkpt lat="38.793970" lon="-0.544095">
        <ele>555.847</ele>
        <time>2020-10-18T09:35:18Z</time>
      </trkpt>
      <trkpt lat="38.793931" lon="-0.544294">
        <ele>555.648</ele>
        <time>2020-10-18T09:35:20Z</time>
      </trkpt>
      <trkpt lat="38.793785" lon="-0.544975">
        <ele>554.661</ele>
        <time>2020-10-18T09:35:27Z</time>
      </trkpt>
      <trkpt lat="38.793763" lon="-0.545088">
        <ele>554.417</ele>
        <time>2020-10-18T09:35:28Z</time>
      </trkpt>
      <trkpt lat="38.793654" lon="-0.545607">
        <ele>554.208</ele>
        <time>2020-10-18T09:35:34Z</time>
      </trkpt>
      <trkpt lat="38.793624" lon="-0.545775">
        <ele>554.249</ele>
        <time>2020-10-18T09:35:36Z</time>
      </trkpt>
      <trkpt lat="38.793493" lon="-0.546262">
        <ele>554.452</ele>
        <time>2020-10-18T09:35:42Z</time>
      </trkpt>
      <trkpt lat="38.793272" lon="-0.546806">
        <ele>554.481</ele>
        <time>2020-10-18T09:35:50Z</time>
      </trkpt>
      <trkpt lat="38.793022" lon="-0.547211">
        <ele>554.823</ele>
        <time>2020-10-18T09:35:57Z</time>
      </trkpt>
      <trkpt lat="38.792621" lon="-0.547636">
        <ele>554.854</ele>
        <time>2020-10-18T09:36:06Z</time>
      </trkpt>
      <trkpt lat="38.792226" lon="-0.548078">
        <ele>554.897</ele>
        <time>2020-10-18T09:36:15Z</time>
      </trkpt>
      <trkpt lat="38.791902" lon="-0.548429">
        <ele>555.095</ele>
        <time>2020-10-18T09:36:22Z</time>
      </trkpt>
      <trkpt lat="38.791822" lon="-0.548515">
        <ele>555.026</ele>
        <time>2020-10-18T09:36:24Z</time>
      </trkpt>
      <trkpt lat="38.791508" lon="-0.548849">
        <ele>554.859</ele>
        <time>2020-10-18T09:36:31Z</time>
      </trkpt>
      <trkpt lat="38.791183" lon="-0.549219">
        <ele>554.403</ele>
        <time>2020-10-18T09:36:38Z</time>
      </trkpt>
      <trkpt lat="38.790997" lon="-0.549447">
        <ele>553.823</ele>
        <time>2020-10-18T09:36:42Z</time>
      </trkpt>
      <trkpt lat="38.790804" lon="-0.549669">
        <ele>553.408</ele>
        <time>2020-10-18T09:36:46Z</time>
      </trkpt>
      <trkpt lat="38.790647" lon="-0.549859">
        <ele>553.010</ele>
        <time>2020-10-18T09:36:49Z</time>
      </trkpt>
      <trkpt lat="38.790363" lon="-0.550180">
        <ele>552.423</ele>
        <time>2020-10-18T09:36:54Z</time>
      </trkpt>
      <trkpt lat="38.790190" lon="-0.550377">
        <ele>552.042</ele>
        <time>2020-10-18T09:36:57Z</time>
      </trkpt>
      <trkpt lat="38.789997" lon="-0.550585">
        <ele>551.284</ele>
        <time>2020-10-18T09:37:00Z</time>
      </trkpt>
      <trkpt lat="38.789698" lon="-0.550905">
        <ele>550.865</ele>
        <time>2020-10-18T09:37:05Z</time>
      </trkpt>
      <trkpt lat="38.789380" lon="-0.551279">
        <ele>550.288</ele>
        <time>2020-10-18T09:37:11Z</time>
      </trkpt>
      <trkpt lat="38.789112" lon="-0.551589">
        <ele>549.426</ele>
        <time>2020-10-18T09:37:16Z</time>
      </trkpt>
      <trkpt lat="38.788933" lon="-0.551789">
        <ele>549.077</ele>
        <time>2020-10-18T09:37:19Z</time>
      </trkpt>
      <trkpt lat="38.788604" lon="-0.552133">
        <ele>548.246</ele>
        <time>2020-10-18T09:37:25Z</time>
      </trkpt>
      <trkpt lat="38.788341" lon="-0.552329">
        <ele>548.088</ele>
        <time>2020-10-18T09:37:29Z</time>
      </trkpt>
      <trkpt lat="38.788221" lon="-0.552392">
        <ele>547.816</ele>
        <time>2020-10-18T09:37:31Z</time>
      </trkpt>
      <trkpt lat="38.787715" lon="-0.552574">
        <ele>546.808</ele>
        <time>2020-10-18T09:37:38Z</time>
      </trkpt>
      <trkpt lat="38.787587" lon="-0.552616">
        <ele>546.619</ele>
        <time>2020-10-18T09:37:40Z</time>
      </trkpt>
      <trkpt lat="38.787203" lon="-0.552733">
        <ele>545.692</ele>
        <time>2020-10-18T09:37:45Z</time>
      </trkpt>
      <trkpt lat="38.786922" lon="-0.552826">
        <ele>544.871</ele>
        <time>2020-10-18T09:37:49Z</time>
      </trkpt>
      <trkpt lat="38.786830" lon="-0.552854">
        <ele>544.423</ele>
        <time>2020-10-18T09:37:50Z</time>
      </trkpt>
      <trkpt lat="38.786754" lon="-0.552877">
        <ele>544.264</ele>
        <time>2020-10-18T09:37:51Z</time>
      </trkpt>
      <trkpt lat="38.786379" lon="-0.552997">
        <ele>543.437</ele>
        <time>2020-10-18T09:37:56Z</time>
      </trkpt>
      <trkpt lat="38.785960" lon="-0.553126">
        <ele>542.275</ele>
        <time>2020-10-18T09:38:02Z</time>
      </trkpt>
      <trkpt lat="38.785889" lon="-0.553152">
        <ele>542.256</ele>
        <time>2020-10-18T09:38:03Z</time>
      </trkpt>
      <trkpt lat="38.785459" lon="-0.553315">
        <ele>541.239</ele>
        <time>2020-10-18T09:38:09Z</time>
      </trkpt>
      <trkpt lat="38.785262" lon="-0.553376">
        <ele>540.801</ele>
        <time>2020-10-18T09:38:12Z</time>
      </trkpt>
      <trkpt lat="38.784714" lon="-0.553561">
        <ele>540.621</ele>
        <time>2020-10-18T09:38:20Z</time>
      </trkpt>
      <trkpt lat="38.784510" lon="-0.553634">
        <ele>540.608</ele>
        <time>2020-10-18T09:38:23Z</time>
      </trkpt>
      <trkpt lat="38.784077" lon="-0.553777">
        <ele>541.038</ele>
        <time>2020-10-18T09:38:30Z</time>
      </trkpt>
      <trkpt lat="38.784013" lon="-0.553797">
        <ele>541.231</ele>
        <time>2020-10-18T09:38:31Z</time>
      </trkpt>
      <trkpt lat="38.783542" lon="-0.553964">
        <ele>541.820</ele>
        <time>2020-10-18T09:38:39Z</time>
      </trkpt>
      <trkpt lat="38.783376" lon="-0.554017">
        <ele>542.292</ele>
        <time>2020-10-18T09:38:42Z</time>
      </trkpt>
      <trkpt lat="38.783102" lon="-0.554096">
        <ele>542.693</ele>
        <time>2020-10-18T09:38:47Z</time>
      </trkpt>
      <trkpt lat="38.782834" lon="-0.554173">
        <ele>543.266</ele>
        <time>2020-10-18T09:38:52Z</time>
      </trkpt>
      <trkpt lat="38.782679" lon="-0.554220">
        <ele>543.434</ele>
        <time>2020-10-18T09:38:55Z</time>
      </trkpt>
      <trkpt lat="38.782629" lon="-0.554242">
        <ele>543.665</ele>
        <time>2020-10-18T09:38:56Z</time>
      </trkpt>
      <trkpt lat="38.782269" lon="-0.554360">
        <ele>544.459</ele>
        <time>2020-10-18T09:39:03Z</time>
      </trkpt>
      <trkpt lat="38.782156" lon="-0.554394">
        <ele>544.403</ele>
        <time>2020-10-18T09:39:05Z</time>
      </trkpt>
      <trkpt lat="38.782012" lon="-0.554430">
        <ele>544.823</ele>
        <time>2020-10-18T09:39:08Z</time>
      </trkpt>
      <trkpt lat="38.781868" lon="-0.554486">
        <ele>545.208</ele>
        <time>2020-10-18T09:39:11Z</time>
      </trkpt>
      <trkpt lat="38.781820" lon="-0.554506">
        <ele>545.270</ele>
        <time>2020-10-18T09:39:12Z</time>
      </trkpt>
      <trkpt lat="38.781712" lon="-0.554545">
        <ele>545.463</ele>
        <time>2020-10-18T09:39:14Z</time>
      </trkpt>
      <trkpt lat="38.781472" lon="-0.554641">
        <ele>545.892</ele>
        <time>2020-10-18T09:39:19Z</time>
      </trkpt>
      <trkpt lat="38.781182" lon="-0.554734">
        <ele>546.614</ele>
        <time>2020-10-18T09:39:25Z</time>
      </trkpt>
      <trkpt lat="38.781032" lon="-0.554791">
        <ele>547.025</ele>
        <time>2020-10-18T09:39:28Z</time>
      </trkpt>
      <trkpt lat="38.780720" lon="-0.554892">
        <ele>547.818</ele>
        <time>2020-10-18T09:39:35Z</time>
      </trkpt>
      <trkpt lat="38.780570" lon="-0.554938">
        <ele>548.036</ele>
        <time>2020-10-18T09:39:38Z</time>
      </trkpt>
      <trkpt lat="38.780382" lon="-0.554995">
        <ele>548.467</ele>
        <time>2020-10-18T09:39:42Z</time>
      </trkpt>
      <trkpt lat="38.780299" lon="-0.555021">
        <ele>548.618</ele>
        <time>2020-10-18T09:39:44Z</time>
      </trkpt>
      <trkpt lat="38.780209" lon="-0.555054">
        <ele>548.698</ele>
        <time>2020-10-18T09:39:46Z</time>
      </trkpt>
      <trkpt lat="38.780163" lon="-0.555070">
        <ele>548.817</ele>
        <time>2020-10-18T09:39:47Z</time>
      </trkpt>
      <trkpt lat="38.780016" lon="-0.555111">
        <ele>549.408</ele>
        <time>2020-10-18T09:39:50Z</time>
      </trkpt>
      <trkpt lat="38.779836" lon="-0.555154">
        <ele>549.816</ele>
        <time>2020-10-18T09:39:54Z</time>
      </trkpt>
      <trkpt lat="38.779739" lon="-0.555190">
        <ele>549.849</ele>
        <time>2020-10-18T09:39:56Z</time>
      </trkpt>
      <trkpt lat="38.779526" lon="-0.555254">
        <ele>550.438</ele>
        <time>2020-10-18T09:40:01Z</time>
      </trkpt>
      <trkpt lat="38.779396" lon="-0.555292">
        <ele>550.840</ele>
        <time>2020-10-18T09:40:04Z</time>
      </trkpt>
      <trkpt lat="38.779137" lon="-0.555380">
        <ele>551.421</ele>
        <time>2020-10-18T09:40:10Z</time>
      </trkpt>
      <trkpt lat="38.778880" lon="-0.555466">
        <ele>551.854</ele>
        <time>2020-10-18T09:40:16Z</time>
      </trkpt>
      <trkpt lat="38.778677" lon="-0.555526">
        <ele>552.462</ele>
        <time>2020-10-18T09:40:21Z</time>
      </trkpt>
      <trkpt lat="38.778530" lon="-0.555569">
        <ele>553.043</ele>
        <time>2020-10-18T09:40:24Z</time>
      </trkpt>
      <trkpt lat="38.778280" lon="-0.555669">
        <ele>553.492</ele>
        <time>2020-10-18T09:40:30Z</time>
      </trkpt>
      <trkpt lat="38.778067" lon="-0.555766">
        <ele>554.073</ele>
        <time>2020-10-18T09:40:35Z</time>
      </trkpt>
      <trkpt lat="38.777860" lon="-0.555878">
        <ele>554.620</ele>
        <time>2020-10-18T09:40:40Z</time>
      </trkpt>
      <trkpt lat="38.777651" lon="-0.556019">
        <ele>555.008</ele>
        <time>2020-10-18T09:40:45Z</time>
      </trkpt>
      <trkpt lat="38.777523" lon="-0.556121">
        <ele>555.274</ele>
        <time>2020-10-18T09:40:48Z</time>
      </trkpt>
      <trkpt lat="38.777189" lon="-0.556456">
        <ele>555.677</ele>
        <time>2020-10-18T09:40:57Z</time>
      </trkpt>
      <trkpt lat="38.776909" lon="-0.556839">
        <ele>556.086</ele>
        <time>2020-10-18T09:41:06Z</time>
      </trkpt>
      <trkpt lat="38.776875" lon="-0.556883">
        <ele>556.098</ele>
        <time>2020-10-18T09:41:07Z</time>
      </trkpt>
      <trkpt lat="38.776687" lon="-0.557237">
        <ele>555.699</ele>
        <time>2020-10-18T09:41:14Z</time>
      </trkpt>
      <trkpt lat="38.776662" lon="-0.557303">
        <ele>555.642</ele>
        <time>2020-10-18T09:41:15Z</time>
      </trkpt>
      <trkpt lat="38.776515" lon="-0.557749">
        <ele>555.840</ele>
        <time>2020-10-18T09:41:23Z</time>
      </trkpt>
      <trkpt lat="38.776460" lon="-0.557938">
        <ele>555.641</ele>
        <time>2020-10-18T09:41:26Z</time>
      </trkpt>
      <trkpt lat="38.776427" lon="-0.558118">
        <ele>555.442</ele>
        <time>2020-10-18T09:41:29Z</time>
      </trkpt>
      <trkpt lat="38.776321" lon="-0.558705">
        <ele>555.022</ele>
        <time>2020-10-18T09:41:38Z</time>
      </trkpt>
      <trkpt lat="38.776306" lon="-0.558835">
        <ele>555.014</ele>
        <time>2020-10-18T09:41:40Z</time>
      </trkpt>
      <trkpt lat="38.776248" lon="-0.559158">
        <ele>554.808</ele>
        <time>2020-10-18T09:41:45Z</time>
      </trkpt>
      <trkpt lat="38.776222" lon="-0.559350">
        <ele>554.619</ele>
        <time>2020-10-18T09:41:48Z</time>
      </trkpt>
      <trkpt lat="38.776173" lon="-0.559614">
        <ele>554.662</ele>
        <time>2020-10-18T09:41:52Z</time>
      </trkpt>
      <trkpt lat="38.776144" lon="-0.559805">
        <ele>554.621</ele>
        <time>2020-10-18T09:41:55Z</time>
      </trkpt>
      <trkpt lat="38.776132" lon="-0.559919">
        <ele>554.673</ele>
        <time>2020-10-18T09:41:57Z</time>
      </trkpt>
      <trkpt lat="38.776093" lon="-0.560104">
        <ele>554.664</ele>
        <time>2020-10-18T09:42:00Z</time>
      </trkpt>
      <trkpt lat="38.776082" lon="-0.560153">
        <ele>554.827</ele>
        <time>2020-10-18T09:42:01Z</time>
      </trkpt>
      <trkpt lat="38.776038" lon="-0.560408">
        <ele>554.645</ele>
        <time>2020-10-18T09:42:05Z</time>
      </trkpt>
      <trkpt lat="38.776016" lon="-0.560542">
        <ele>554.836</ele>
        <time>2020-10-18T09:42:07Z</time>
      </trkpt>
      <trkpt lat="38.775971" lon="-0.560858">
        <ele>554.816</ele>
        <time>2020-10-18T09:42:12Z</time>
      </trkpt>
      <trkpt lat="38.775939" lon="-0.561063">
        <ele>555.076</ele>
        <time>2020-10-18T09:42:15Z</time>
      </trkpt>
      <trkpt lat="38.775845" lon="-0.561653">
        <ele>555.613</ele>
        <time>2020-10-18T09:42:24Z</time>
      </trkpt>
      <trkpt lat="38.775834" lon="-0.561719">
        <ele>555.808</ele>
        <time>2020-10-18T09:42:25Z</time>
      </trkpt>
      <trkpt lat="38.775807" lon="-0.561969">
        <ele>556.016</ele>
        <time>2020-10-18T09:42:29Z</time>
      </trkpt>
      <trkpt lat="38.775764" lon="-0.562187">
        <ele>556.469</ele>
        <time>2020-10-18T09:42:32Z</time>
      </trkpt>
      <trkpt lat="38.775678" lon="-0.562633">
        <ele>556.668</ele>
        <time>2020-10-18T09:42:38Z</time>
      </trkpt>
      <trkpt lat="38.775620" lon="-0.562964">
        <ele>557.270</ele>
        <time>2020-10-18T09:42:42Z</time>
      </trkpt>
      <trkpt lat="38.775591" lon="-0.563143">
        <ele>557.471</ele>
        <time>2020-10-18T09:42:44Z</time>
      </trkpt>
      <trkpt lat="38.775479" lon="-0.563766">
        <ele>557.634</ele>
        <time>2020-10-18T09:42:51Z</time>
      </trkpt>
      <trkpt lat="38.775385" lon="-0.564292">
        <ele>557.642</ele>
        <time>2020-10-18T09:42:57Z</time>
      </trkpt>
      <trkpt lat="38.775290" lon="-0.564743">
        <ele>557.853</ele>
        <time>2020-10-18T09:43:03Z</time>
      </trkpt>
      <trkpt lat="38.775235" lon="-0.565024">
        <ele>558.228</ele>
        <time>2020-10-18T09:43:07Z</time>
      </trkpt>
      <trkpt lat="38.775214" lon="-0.565233">
        <ele>558.489</ele>
        <time>2020-10-18T09:43:10Z</time>
      </trkpt>
      <trkpt lat="38.775111" lon="-0.565870">
        <ele>558.417</ele>
        <time>2020-10-18T09:43:20Z</time>
      </trkpt>
      <trkpt lat="38.775013" lon="-0.566475">
        <ele>559.008</ele>
        <time>2020-10-18T09:43:30Z</time>
      </trkpt>
      <trkpt lat="38.775006" lon="-0.566535">
        <ele>559.067</ele>
        <time>2020-10-18T09:43:31Z</time>
      </trkpt>
      <trkpt lat="38.774987" lon="-0.566658">
        <ele>559.090</ele>
        <time>2020-10-18T09:43:33Z</time>
      </trkpt>
      <trkpt lat="38.774967" lon="-0.566787">
        <ele>559.019</ele>
        <time>2020-10-18T09:43:35Z</time>
      </trkpt>
      <trkpt lat="38.774946" lon="-0.566919">
        <ele>559.021</ele>
        <time>2020-10-18T09:43:37Z</time>
      </trkpt>
      <trkpt lat="38.774925" lon="-0.567042">
        <ele>559.262</ele>
        <time>2020-10-18T09:43:39Z</time>
      </trkpt>
      <trkpt lat="38.774914" lon="-0.567103">
        <ele>559.235</ele>
        <time>2020-10-18T09:43:40Z</time>
      </trkpt>
      <trkpt lat="38.774879" lon="-0.567293">
        <ele>559.413</ele>
        <time>2020-10-18T09:43:43Z</time>
      </trkpt>
      <trkpt lat="38.774777" lon="-0.567847">
        <ele>559.664</ele>
        <time>2020-10-18T09:43:52Z</time>
      </trkpt>
      <trkpt lat="38.774657" lon="-0.568542">
        <ele>560.496</ele>
        <time>2020-10-18T09:44:03Z</time>
      </trkpt>
      <trkpt lat="38.774648" lon="-0.568600">
        <ele>560.431</ele>
        <time>2020-10-18T09:44:04Z</time>
      </trkpt>
      <trkpt lat="38.774552" lon="-0.569161">
        <ele>561.024</ele>
        <time>2020-10-18T09:44:13Z</time>
      </trkpt>
      <trkpt lat="38.774495" lon="-0.569697">
        <ele>561.008</ele>
        <time>2020-10-18T09:44:21Z</time>
      </trkpt>
      <trkpt lat="38.774462" lon="-0.570171">
        <ele>561.444</ele>
        <time>2020-10-18T09:44:28Z</time>
      </trkpt>
      <trkpt lat="38.774461" lon="-0.570563">
        <ele>561.417</ele>
        <time>2020-10-18T09:44:34Z</time>
      </trkpt>
      <trkpt lat="38.774467" lon="-0.570777">
        <ele>561.416</ele>
        <time>2020-10-18T09:44:37Z</time>
      </trkpt>
      <trkpt lat="38.774479" lon="-0.570978">
        <ele>561.478</ele>
        <time>2020-10-18T09:44:40Z</time>
      </trkpt>
      <trkpt lat="38.774483" lon="-0.571317">
        <ele>561.899</ele>
        <time>2020-10-18T09:44:45Z</time>
      </trkpt>
      <trkpt lat="38.774513" lon="-0.572065">
        <ele>562.022</ele>
        <time>2020-10-18T09:44:57Z</time>
      </trkpt>
      <trkpt lat="38.774518" lon="-0.572259">
        <ele>562.440</ele>
        <time>2020-10-18T09:45:00Z</time>
      </trkpt>
      <trkpt lat="38.774537" lon="-0.572495">
        <ele>563.281</ele>
        <time>2020-10-18T09:45:04Z</time>
      </trkpt>
      <trkpt lat="38.774547" lon="-0.572604">
        <ele>563.617</ele>
        <time>2020-10-18T09:45:06Z</time>
      </trkpt>
      <trkpt lat="38.774557" lon="-0.572714">
        <ele>563.887</ele>
        <time>2020-10-18T09:45:08Z</time>
      </trkpt>
      <trkpt lat="38.774559" lon="-0.572829">
        <ele>564.015</ele>
        <time>2020-10-18T09:45:10Z</time>
      </trkpt>
      <trkpt lat="38.774561" lon="-0.573049">
        <ele>564.808</ele>
        <time>2020-10-18T09:45:14Z</time>
      </trkpt>
      <trkpt lat="38.774575" lon="-0.573316">
        <ele>565.646</ele>
        <time>2020-10-18T09:45:19Z</time>
      </trkpt>
      <trkpt lat="38.774579" lon="-0.573439">
        <ele>565.829</ele>
        <time>2020-10-18T09:45:21Z</time>
      </trkpt>
      <trkpt lat="38.774590" lon="-0.573685">
        <ele>565.878</ele>
        <time>2020-10-18T09:45:25Z</time>
      </trkpt>
      <trkpt lat="38.774597" lon="-0.573851">
        <ele>566.060</ele>
        <time>2020-10-18T09:45:28Z</time>
      </trkpt>
      <trkpt lat="38.774614" lon="-0.574268">
        <ele>566.211</ele>
        <time>2020-10-18T09:45:35Z</time>
      </trkpt>
      <trkpt lat="38.774628" lon="-0.574505">
        <ele>566.234</ele>
        <time>2020-10-18T09:45:39Z</time>
      </trkpt>
      <trkpt lat="38.774667" lon="-0.574734">
        <ele>566.442</ele>
        <time>2020-10-18T09:45:43Z</time>
      </trkpt>
      <trkpt lat="38.774720" lon="-0.575032">
        <ele>566.483</ele>
        <time>2020-10-18T09:45:48Z</time>
      </trkpt>
      <trkpt lat="38.774788" lon="-0.575334">
        <ele>566.854</ele>
        <time>2020-10-18T09:45:53Z</time>
      </trkpt>
      <trkpt lat="38.774802" lon="-0.575392">
        <ele>566.856</ele>
        <time>2020-10-18T09:45:54Z</time>
      </trkpt>
      <trkpt lat="38.774886" lon="-0.575798">
        <ele>567.211</ele>
        <time>2020-10-18T09:46:01Z</time>
      </trkpt>
      <trkpt lat="38.775004" lon="-0.576244">
        <ele>567.808</ele>
        <time>2020-10-18T09:46:09Z</time>
      </trkpt>
      <trkpt lat="38.775060" lon="-0.576512">
        <ele>568.690</ele>
        <time>2020-10-18T09:46:14Z</time>
      </trkpt>
      <trkpt lat="38.775099" lon="-0.576672">
        <ele>568.663</ele>
        <time>2020-10-18T09:46:17Z</time>
      </trkpt>
      <trkpt lat="38.775175" lon="-0.576981">
        <ele>569.052</ele>
        <time>2020-10-18T09:46:23Z</time>
      </trkpt>
      <trkpt lat="38.775211" lon="-0.577139">
        <ele>569.264</ele>
        <time>2020-10-18T09:46:26Z</time>
      </trkpt>
      <trkpt lat="38.775319" lon="-0.577598">
        <ele>570.085</ele>
        <time>2020-10-18T09:46:35Z</time>
      </trkpt>
      <trkpt lat="38.775418" lon="-0.578120">
        <ele>570.838</ele>
        <time>2020-10-18T09:46:45Z</time>
      </trkpt>
      <trkpt lat="38.775435" lon="-0.578227">
        <ele>571.226</ele>
        <time>2020-10-18T09:46:47Z</time>
      </trkpt>
      <trkpt lat="38.775471" lon="-0.578691">
        <ele>571.477</ele>
        <time>2020-10-18T09:46:55Z</time>
      </trkpt>
      <trkpt lat="38.775485" lon="-0.579174">
        <ele>572.277</ele>
        <time>2020-10-18T09:47:03Z</time>
      </trkpt>
      <trkpt lat="38.775481" lon="-0.579234">
        <ele>572.261</ele>
        <time>2020-10-18T09:47:04Z</time>
      </trkpt>
      <trkpt lat="38.775435" lon="-0.579716">
        <ele>572.827</ele>
        <time>2020-10-18T09:47:12Z</time>
      </trkpt>
      <trkpt lat="38.775338" lon="-0.580188">
        <ele>572.808</ele>
        <time>2020-10-18T09:47:20Z</time>
      </trkpt>
      <trkpt lat="38.775213" lon="-0.580599">
        <ele>573.052</ele>
        <time>2020-10-18T09:47:27Z</time>
      </trkpt>
      <trkpt lat="38.775059" lon="-0.581007">
        <ele>573.295</ele>
        <time>2020-10-18T09:47:34Z</time>
      </trkpt>
      <trkpt lat="38.775036" lon="-0.581063">
        <ele>573.234</ele>
        <time>2020-10-18T09:47:35Z</time>
      </trkpt>
      <trkpt lat="38.774988" lon="-0.581170">
        <ele>573.426</ele>
        <time>2020-10-18T09:47:37Z</time>
      </trkpt>
      <trkpt lat="38.774962" lon="-0.581223">
        <ele>573.627</ele>
        <time>2020-10-18T09:47:38Z</time>
      </trkpt>
      <trkpt lat="38.774938" lon="-0.581275">
        <ele>573.860</ele>
        <time>2020-10-18T09:47:39Z</time>
      </trkpt>
      <trkpt lat="38.774913" lon="-0.581329">
        <ele>574.018</ele>
        <time>2020-10-18T09:47:40Z</time>
      </trkpt>
      <trkpt lat="38.774890" lon="-0.581382">
        <ele>574.019</ele>
        <time>2020-10-18T09:47:41Z</time>
      </trkpt>
      <trkpt lat="38.774863" lon="-0.581434">
        <ele>574.256</ele>
        <time>2020-10-18T09:47:42Z</time>
      </trkpt>
      <trkpt lat="38.774836" lon="-0.581488">
        <ele>574.259</ele>
        <time>2020-10-18T09:47:43Z</time>
      </trkpt>
      <trkpt lat="38.774812" lon="-0.581542">
        <ele>574.214</ele>
        <time>2020-10-18T09:47:44Z</time>
      </trkpt>
      <trkpt lat="38.774789" lon="-0.581599">
        <ele>574.208</ele>
        <time>2020-10-18T09:47:45Z</time>
      </trkpt>
      <trkpt lat="38.774736" lon="-0.581707">
        <ele>574.480</ele>
        <time>2020-10-18T09:47:47Z</time>
      </trkpt>
      <trkpt lat="38.774686" lon="-0.581811">
        <ele>574.423</ele>
        <time>2020-10-18T09:47:49Z</time>
      </trkpt>
      <trkpt lat="38.774448" lon="-0.582326">
        <ele>575.492</ele>
        <time>2020-10-18T09:47:59Z</time>
      </trkpt>
      <trkpt lat="38.774357" lon="-0.582531">
        <ele>575.644</ele>
        <time>2020-10-18T09:48:03Z</time>
      </trkpt>
      <trkpt lat="38.774134" lon="-0.582997">
        <ele>576.415</ele>
        <time>2020-10-18T09:48:12Z</time>
      </trkpt>
      <trkpt lat="38.774087" lon="-0.583104">
        <ele>576.658</ele>
        <time>2020-10-18T09:48:14Z</time>
      </trkpt>
      <trkpt lat="38.774033" lon="-0.583210">
        <ele>576.696</ele>
        <time>2020-10-18T09:48:16Z</time>
      </trkpt>
      <trkpt lat="38.773976" lon="-0.583312">
        <ele>576.847</ele>
        <time>2020-10-18T09:48:18Z</time>
      </trkpt>
      <trkpt lat="38.773928" lon="-0.583418">
        <ele>577.039</ele>
        <time>2020-10-18T09:48:20Z</time>
      </trkpt>
      <trkpt lat="38.773905" lon="-0.583471">
        <ele>577.001</ele>
        <time>2020-10-18T09:48:21Z</time>
      </trkpt>
      <trkpt lat="38.773882" lon="-0.583524">
        <ele>577.221</ele>
        <time>2020-10-18T09:48:22Z</time>
      </trkpt>
      <trkpt lat="38.773834" lon="-0.583623">
        <ele>577.408</ele>
        <time>2020-10-18T09:48:24Z</time>
      </trkpt>
      <trkpt lat="38.773731" lon="-0.583869">
        <ele>578.038</ele>
        <time>2020-10-18T09:48:29Z</time>
      </trkpt>
      <trkpt lat="38.773709" lon="-0.583915">
        <ele>578.271</ele>
        <time>2020-10-18T09:48:30Z</time>
      </trkpt>
      <trkpt lat="38.773639" lon="-0.584069">
        <ele>578.220</ele>
        <time>2020-10-18T09:48:33Z</time>
      </trkpt>
      <trkpt lat="38.773588" lon="-0.584169">
        <ele>578.412</ele>
        <time>2020-10-18T09:48:35Z</time>
      </trkpt>
      <trkpt lat="38.773566" lon="-0.584218">
        <ele>578.683</ele>
        <time>2020-10-18T09:48:36Z</time>
      </trkpt>
      <trkpt lat="38.773521" lon="-0.584317">
        <ele>578.686</ele>
        <time>2020-10-18T09:48:38Z</time>
      </trkpt>
      <trkpt lat="38.773476" lon="-0.584417">
        <ele>578.854</ele>
        <time>2020-10-18T09:48:40Z</time>
      </trkpt>
      <trkpt lat="38.773411" lon="-0.584569">
        <ele>578.875</ele>
        <time>2020-10-18T09:48:43Z</time>
      </trkpt>
      <trkpt lat="38.773367" lon="-0.584671">
        <ele>579.029</ele>
        <time>2020-10-18T09:48:45Z</time>
      </trkpt>
      <trkpt lat="38.773323" lon="-0.584771">
        <ele>579.000</ele>
        <time>2020-10-18T09:48:47Z</time>
      </trkpt>
      <trkpt lat="38.773249" lon="-0.584933">
        <ele>579.020</ele>
        <time>2020-10-18T09:48:50Z</time>
      </trkpt>
      <trkpt lat="38.773179" lon="-0.585092">
        <ele>579.408</ele>
        <time>2020-10-18T09:48:53Z</time>
      </trkpt>
      <trkpt lat="38.773133" lon="-0.585197">
        <ele>579.657</ele>
        <time>2020-10-18T09:48:55Z</time>
      </trkpt>
      <trkpt lat="38.773085" lon="-0.585306">
        <ele>579.690</ele>
        <time>2020-10-18T09:48:57Z</time>
      </trkpt>
      <trkpt lat="38.772889" lon="-0.585726">
        <ele>580.629</ele>
        <time>2020-10-18T09:49:05Z</time>
      </trkpt>
      <trkpt lat="38.772839" lon="-0.585836">
        <ele>580.831</ele>
        <time>2020-10-18T09:49:07Z</time>
      </trkpt>
      <trkpt lat="38.772623" lon="-0.586302">
        <ele>580.662</ele>
        <time>2020-10-18T09:49:16Z</time>
      </trkpt>
      <trkpt lat="38.772395" lon="-0.586824">
        <ele>581.445</ele>
        <time>2020-10-18T09:49:26Z</time>
      </trkpt>
      <trkpt lat="38.772279" lon="-0.587099">
        <ele>581.613</ele>
        <time>2020-10-18T09:49:31Z</time>
      </trkpt>
      <trkpt lat="38.772193" lon="-0.587295">
        <ele>582.014</ele>
        <time>2020-10-18T09:49:35Z</time>
      </trkpt>
      <trkpt lat="38.772047" lon="-0.587593">
        <ele>582.634</ele>
        <time>2020-10-18T09:49:41Z</time>
      </trkpt>
      <trkpt lat="38.772007" lon="-0.587679">
        <ele>582.855</ele>
        <time>2020-10-18T09:49:43Z</time>
      </trkpt>
      <trkpt lat="38.771908" lon="-0.587869">
        <ele>583.210</ele>
        <time>2020-10-18T09:49:47Z</time>
      </trkpt>
      <trkpt lat="38.771828" lon="-0.588016">
        <ele>583.408</ele>
        <time>2020-10-18T09:49:50Z</time>
      </trkpt>
      <trkpt lat="38.771750" lon="-0.588173">
        <ele>583.818</ele>
        <time>2020-10-18T09:49:53Z</time>
      </trkpt>
      <trkpt lat="38.771604" lon="-0.588461">
        <ele>584.261</ele>
        <time>2020-10-18T09:49:59Z</time>
      </trkpt>
      <trkpt lat="38.771578" lon="-0.588503">
        <ele>584.230</ele>
        <time>2020-10-18T09:50:00Z</time>
      </trkpt>
      <trkpt lat="38.771344" lon="-0.588955">
        <ele>584.822</ele>
        <time>2020-10-18T09:50:09Z</time>
      </trkpt>
      <trkpt lat="38.771315" lon="-0.589003">
        <ele>584.833</ele>
        <time>2020-10-18T09:50:10Z</time>
      </trkpt>
      <trkpt lat="38.771129" lon="-0.589338">
        <ele>585.426</ele>
        <time>2020-10-18T09:50:17Z</time>
      </trkpt>
      <trkpt lat="38.771099" lon="-0.589386">
        <ele>585.484</ele>
        <time>2020-10-18T09:50:18Z</time>
      </trkpt>
      <trkpt lat="38.771027" lon="-0.589525">
        <ele>585.875</ele>
        <time>2020-10-18T09:50:21Z</time>
      </trkpt>
      <trkpt lat="38.770956" lon="-0.589666">
        <ele>586.031</ele>
        <time>2020-10-18T09:50:24Z</time>
      </trkpt>
      <trkpt lat="38.770753" lon="-0.590063">
        <ele>586.861</ele>
        <time>2020-10-18T09:50:32Z</time>
      </trkpt>
      <trkpt lat="38.770670" lon="-0.590209">
        <ele>587.007</ele>
        <time>2020-10-18T09:50:35Z</time>
      </trkpt>
      <trkpt lat="38.770500" lon="-0.590548">
        <ele>587.608</ele>
        <time>2020-10-18T09:50:42Z</time>
      </trkpt>
      <trkpt lat="38.770431" lon="-0.590692">
        <ele>587.858</ele>
        <time>2020-10-18T09:50:45Z</time>
      </trkpt>
      <trkpt lat="38.770221" lon="-0.591130">
        <ele>588.831</ele>
        <time>2020-10-18T09:50:54Z</time>
      </trkpt>
      <trkpt lat="38.770196" lon="-0.591178">
        <ele>589.040</ele>
        <time>2020-10-18T09:50:55Z</time>
      </trkpt>
      <trkpt lat="38.770011" lon="-0.591596">
        <ele>589.682</ele>
        <time>2020-10-18T09:51:03Z</time>
      </trkpt>
      <trkpt lat="38.769915" lon="-0.591878">
        <ele>589.883</ele>
        <time>2020-10-18T09:51:08Z</time>
      </trkpt>
      <trkpt lat="38.769892" lon="-0.591933">
        <ele>590.036</ele>
        <time>2020-10-18T09:51:09Z</time>
      </trkpt>
      <trkpt lat="38.769869" lon="-0.591987">
        <ele>590.024</ele>
        <time>2020-10-18T09:51:10Z</time>
      </trkpt>
      <trkpt lat="38.769702" lon="-0.592499">
        <ele>590.865</ele>
        <time>2020-10-18T09:51:19Z</time>
      </trkpt>
      <trkpt lat="38.769680" lon="-0.592556">
        <ele>591.054</ele>
        <time>2020-10-18T09:51:20Z</time>
      </trkpt>
      <trkpt lat="38.769536" lon="-0.593019">
        <ele>591.456</ele>
        <time>2020-10-18T09:51:28Z</time>
      </trkpt>
      <trkpt lat="38.769406" lon="-0.593427">
        <ele>592.011</ele>
        <time>2020-10-18T09:51:35Z</time>
      </trkpt>
      <trkpt lat="38.769387" lon="-0.593482">
        <ele>592.008</ele>
        <time>2020-10-18T09:51:36Z</time>
      </trkpt>
      <trkpt lat="38.769251" lon="-0.593877">
        <ele>592.410</ele>
        <time>2020-10-18T09:51:43Z</time>
      </trkpt>
      <trkpt lat="38.769109" lon="-0.594350">
        <ele>593.023</ele>
        <time>2020-10-18T09:51:51Z</time>
      </trkpt>
      <trkpt lat="38.769090" lon="-0.594407">
        <ele>593.042</ele>
        <time>2020-10-18T09:51:52Z</time>
      </trkpt>
      <trkpt lat="38.768909" lon="-0.594937">
        <ele>593.684</ele>
        <time>2020-10-18T09:52:01Z</time>
      </trkpt>
      <trkpt lat="38.768797" lon="-0.595302">
        <ele>594.055</ele>
        <time>2020-10-18T09:52:07Z</time>
      </trkpt>
      <trkpt lat="38.768739" lon="-0.595487">
        <ele>594.238</ele>
        <time>2020-10-18T09:52:10Z</time>
      </trkpt>
      <trkpt lat="38.768518" lon="-0.596184">
        <ele>594.876</ele>
        <time>2020-10-18T09:52:21Z</time>
      </trkpt>
      <trkpt lat="38.768347" lon="-0.596712">
        <ele>595.017</ele>
        <time>2020-10-18T09:52:29Z</time>
      </trkpt>
      <trkpt lat="38.768325" lon="-0.596781">
        <ele>595.259</ele>
        <time>2020-10-18T09:52:30Z</time>
      </trkpt>
      <trkpt lat="38.768137" lon="-0.597423">
        <ele>595.803</ele>
        <time>2020-10-18T09:52:40Z</time>
      </trkpt>
      <trkpt lat="38.768049" lon="-0.597673">
        <ele>596.223</ele>
        <time>2020-10-18T09:52:44Z</time>
      </trkpt>
      <trkpt lat="38.768027" lon="-0.597733">
        <ele>596.208</ele>
        <time>2020-10-18T09:52:45Z</time>
      </trkpt>
      <trkpt lat="38.767984" lon="-0.597853">
        <ele>596.480</ele>
        <time>2020-10-18T09:52:47Z</time>
      </trkpt>
      <trkpt lat="38.767750" lon="-0.598541">
        <ele>596.893</ele>
        <time>2020-10-18T09:52:58Z</time>
      </trkpt>
      <trkpt lat="38.767606" lon="-0.598985">
        <ele>597.452</ele>
        <time>2020-10-18T09:53:05Z</time>
      </trkpt>
      <trkpt lat="38.767537" lon="-0.599148">
        <ele>597.614</ele>
        <time>2020-10-18T09:53:08Z</time>
      </trkpt>
      <trkpt lat="38.767391" lon="-0.599548">
        <ele>597.825</ele>
        <time>2020-10-18T09:53:15Z</time>
      </trkpt>
      <trkpt lat="38.767280" lon="-0.599834">
        <ele>598.048</ele>
        <time>2020-10-18T09:53:20Z</time>
      </trkpt>
      <trkpt lat="38.767092" lon="-0.600250">
        <ele>598.416</ele>
        <time>2020-10-18T09:53:28Z</time>
      </trkpt>
      <trkpt lat="38.766882" lon="-0.600646">
        <ele>599.437</ele>
        <time>2020-10-18T09:53:36Z</time>
      </trkpt>
      <trkpt lat="38.766856" lon="-0.600694">
        <ele>599.434</ele>
        <time>2020-10-18T09:53:37Z</time>
      </trkpt>
      <trkpt lat="38.766633" lon="-0.601116">
        <ele>600.055</ele>
        <time>2020-10-18T09:53:46Z</time>
      </trkpt>
      <trkpt lat="38.766581" lon="-0.601222">
        <ele>600.210</ele>
        <time>2020-10-18T09:53:48Z</time>
      </trkpt>
      <trkpt lat="38.766558" lon="-0.601270">
        <ele>600.208</ele>
        <time>2020-10-18T09:53:49Z</time>
      </trkpt>
      <trkpt lat="38.766437" lon="-0.601456">
        <ele>600.498</ele>
        <time>2020-10-18T09:53:53Z</time>
      </trkpt>
      <trkpt lat="38.766417" lon="-0.601495">
        <ele>600.431</ele>
        <time>2020-10-18T09:53:54Z</time>
      </trkpt>
      <trkpt lat="38.766251" lon="-0.601802">
        <ele>600.820</ele>
        <time>2020-10-18T09:54:00Z</time>
      </trkpt>
      <trkpt lat="38.766222" lon="-0.601871">
        <ele>601.022</ele>
        <time>2020-10-18T09:54:01Z</time>
      </trkpt>
      <trkpt lat="38.766064" lon="-0.602201">
        <ele>601.093</ele>
        <time>2020-10-18T09:54:07Z</time>
      </trkpt>
      <trkpt lat="38.766007" lon="-0.602297">
        <ele>601.046</ele>
        <time>2020-10-18T09:54:09Z</time>
      </trkpt>
      <trkpt lat="38.765857" lon="-0.602572">
        <ele>601.294</ele>
        <time>2020-10-18T09:54:14Z</time>
      </trkpt>
      <trkpt lat="38.765795" lon="-0.602692">
        <ele>601.465</ele>
        <time>2020-10-18T09:54:16Z</time>
      </trkpt>
      <trkpt lat="38.765615" lon="-0.603054">
        <ele>601.687</ele>
        <time>2020-10-18T09:54:23Z</time>
      </trkpt>
      <trkpt lat="38.765332" lon="-0.603592">
        <ele>601.442</ele>
        <time>2020-10-18T09:54:32Z</time>
      </trkpt>
      <trkpt lat="38.765091" lon="-0.604031">
        <ele>601.626</ele>
        <time>2020-10-18T09:54:40Z</time>
      </trkpt>
      <trkpt lat="38.764868" lon="-0.604425">
        <ele>602.608</ele>
        <time>2020-10-18T09:54:48Z</time>
      </trkpt>
      <trkpt lat="38.764842" lon="-0.604477">
        <ele>602.673</ele>
        <time>2020-10-18T09:54:49Z</time>
      </trkpt>
      <trkpt lat="38.764617" lon="-0.604875">
        <ele>603.666</ele>
        <time>2020-10-18T09:54:57Z</time>
      </trkpt>
      <trkpt lat="38.764596" lon="-0.604911">
        <ele>603.865</ele>
        <time>2020-10-18T09:54:58Z</time>
      </trkpt>
      <trkpt lat="38.764473" lon="-0.605144">
        <ele>604.447</ele>
        <time>2020-10-18T09:55:04Z</time>
      </trkpt>
      <trkpt lat="38.764445" lon="-0.605180">
        <ele>604.888</ele>
        <time>2020-10-18T09:55:05Z</time>
      </trkpt>
      <trkpt lat="38.764374" lon="-0.605285">
        <ele>605.271</ele>
        <time>2020-10-18T09:55:08Z</time>
      </trkpt>
      <trkpt lat="38.764212" lon="-0.605594">
        <ele>604.849</ele>
        <time>2020-10-18T09:55:14Z</time>
      </trkpt>
      <trkpt lat="38.764122" lon="-0.605756">
        <ele>604.650</ele>
        <time>2020-10-18T09:55:17Z</time>
      </trkpt>
      <trkpt lat="38.764031" lon="-0.605914">
        <ele>604.467</ele>
        <time>2020-10-18T09:55:20Z</time>
      </trkpt>
      <trkpt lat="38.763940" lon="-0.606082">
        <ele>604.481</ele>
        <time>2020-10-18T09:55:23Z</time>
      </trkpt>
      <trkpt lat="38.763708" lon="-0.606479">
        <ele>605.419</ele>
        <time>2020-10-18T09:55:31Z</time>
      </trkpt>
      <trkpt lat="38.763568" lon="-0.606728">
        <ele>605.808</ele>
        <time>2020-10-18T09:55:36Z</time>
      </trkpt>
      <trkpt lat="38.763398" lon="-0.607045">
        <ele>606.241</ele>
        <time>2020-10-18T09:55:42Z</time>
      </trkpt>
      <trkpt lat="38.763211" lon="-0.607403">
        <ele>607.064</ele>
        <time>2020-10-18T09:55:49Z</time>
      </trkpt>
      <trkpt lat="38.763093" lon="-0.607606">
        <ele>607.643</ele>
        <time>2020-10-18T09:55:53Z</time>
      </trkpt>
      <trkpt lat="38.762991" lon="-0.607810">
        <ele>608.295</ele>
        <time>2020-10-18T09:55:57Z</time>
      </trkpt>
      <trkpt lat="38.762849" lon="-0.608116">
        <ele>609.096</ele>
        <time>2020-10-18T09:56:03Z</time>
      </trkpt>
      <trkpt lat="38.762834" lon="-0.608165">
        <ele>609.239</ele>
        <time>2020-10-18T09:56:04Z</time>
      </trkpt>
      <trkpt lat="38.762816" lon="-0.608226">
        <ele>609.257</ele>
        <time>2020-10-18T09:56:05Z</time>
      </trkpt>
      <trkpt lat="38.762683" lon="-0.608518">
        <ele>610.268</ele>
        <time>2020-10-18T09:56:11Z</time>
      </trkpt>
      <trkpt lat="38.762661" lon="-0.608554">
        <ele>610.435</ele>
        <time>2020-10-18T09:56:12Z</time>
      </trkpt>
      <trkpt lat="38.762441" lon="-0.608978">
        <ele>610.886</ele>
        <time>2020-10-18T09:56:22Z</time>
      </trkpt>
      <trkpt lat="38.762447" lon="-0.609049">
        <ele>610.814</ele>
        <time>2020-10-18T09:56:24Z</time>
      </trkpt>
      <trkpt lat="38.762487" lon="-0.609132">
        <ele>610.808</ele>
        <time>2020-10-18T09:56:26Z</time>
      </trkpt>
      <trkpt lat="38.762633" lon="-0.609350">
        <ele>609.218</ele>
        <time>2020-10-18T09:56:32Z</time>
      </trkpt>
      <trkpt lat="38.762644" lon="-0.609405">
        <ele>608.871</ele>
        <time>2020-10-18T09:56:33Z</time>
      </trkpt>
      <trkpt lat="38.762653" lon="-0.609585">
        <ele>607.880</ele>
        <time>2020-10-18T09:56:36Z</time>
      </trkpt>
      <trkpt lat="38.762655" lon="-0.609710">
        <ele>607.252</ele>
        <time>2020-10-18T09:56:38Z</time>
      </trkpt>
      <trkpt lat="38.762654" lon="-0.609784">
        <ele>606.843</ele>
        <time>2020-10-18T09:56:39Z</time>
      </trkpt>
      <trkpt lat="38.762625" lon="-0.609955">
        <ele>605.896</ele>
        <time>2020-10-18T09:56:42Z</time>
      </trkpt>
      <trkpt lat="38.762599" lon="-0.610013">
        <ele>605.444</ele>
        <time>2020-10-18T09:56:43Z</time>
      </trkpt>
      <trkpt lat="38.762524" lon="-0.610140">
        <ele>604.265</ele>
        <time>2020-10-18T09:56:45Z</time>
      </trkpt>
      <trkpt lat="38.762489" lon="-0.610267">
        <ele>603.212</ele>
        <time>2020-10-18T09:56:47Z</time>
      </trkpt>
      <trkpt lat="38.762547" lon="-0.610409">
        <ele>602.432</ele>
        <time>2020-10-18T09:56:49Z</time>
      </trkpt>
      <trkpt lat="38.762596" lon="-0.610434">
        <ele>601.805</ele>
        <time>2020-10-18T09:56:50Z</time>
      </trkpt>
      <trkpt lat="38.762662" lon="-0.610455">
        <ele>601.608</ele>
        <time>2020-10-18T09:56:51Z</time>
      </trkpt>
      <trkpt lat="38.762737" lon="-0.610477">
        <ele>601.446</ele>
        <time>2020-10-18T09:56:52Z</time>
      </trkpt>
      <trkpt lat="38.762778" lon="-0.610502">
        <ele>601.229</ele>
        <time>2020-10-18T09:56:53Z</time>
      </trkpt>
      <trkpt lat="38.762853" lon="-0.610589">
        <ele>601.058</ele>
        <time>2020-10-18T09:56:55Z</time>
      </trkpt>
      <trkpt lat="38.762944" lon="-0.610807">
        <ele>601.230</ele>
        <time>2020-10-18T09:56:59Z</time>
      </trkpt>
      <trkpt lat="38.762966" lon="-0.610841">
        <ele>601.461</ele>
        <time>2020-10-18T09:57:00Z</time>
      </trkpt>
      <trkpt lat="38.762997" lon="-0.610876">
        <ele>601.624</ele>
        <time>2020-10-18T09:57:01Z</time>
      </trkpt>
      <trkpt lat="38.763080" lon="-0.610926">
        <ele>602.292</ele>
        <time>2020-10-18T09:57:03Z</time>
      </trkpt>
      <trkpt lat="38.763111" lon="-0.610935">
        <ele>602.493</ele>
        <time>2020-10-18T09:57:04Z</time>
      </trkpt>
      <trkpt lat="38.763193" lon="-0.610952">
        <ele>603.251</ele>
        <time>2020-10-18T09:57:06Z</time>
      </trkpt>
      <trkpt lat="38.763381" lon="-0.610963">
        <ele>604.401</ele>
        <time>2020-10-18T09:57:11Z</time>
      </trkpt>
      <trkpt lat="38.763574" lon="-0.610978">
        <ele>605.611</ele>
        <time>2020-10-18T09:57:16Z</time>
      </trkpt>
      <trkpt lat="38.763722" lon="-0.610988">
        <ele>606.608</ele>
        <time>2020-10-18T09:57:20Z</time>
      </trkpt>
      <trkpt lat="38.763759" lon="-0.610993">
        <ele>606.850</ele>
        <time>2020-10-18T09:57:21Z</time>
      </trkpt>
      <trkpt lat="38.763832" lon="-0.610999">
        <ele>607.263</ele>
        <time>2020-10-18T09:57:23Z</time>
      </trkpt>
      <trkpt lat="38.763939" lon="-0.611011">
        <ele>607.812</ele>
        <time>2020-10-18T09:57:26Z</time>
      </trkpt>
      <trkpt lat="38.764030" lon="-0.611012">
        <ele>608.454</ele>
        <time>2020-10-18T09:57:29Z</time>
      </trkpt>
      <trkpt lat="38.764064" lon="-0.611004">
        <ele>608.625</ele>
        <time>2020-10-18T09:57:30Z</time>
      </trkpt>
      <trkpt lat="38.764110" lon="-0.610985">
        <ele>608.868</ele>
        <time>2020-10-18T09:57:32Z</time>
      </trkpt>
      <trkpt lat="38.764207" lon="-0.610934">
        <ele>609.276</ele>
        <time>2020-10-18T09:57:36Z</time>
      </trkpt>
      <trkpt lat="38.764281" lon="-0.610804">
        <ele>609.067</ele>
        <time>2020-10-18T09:57:40Z</time>
      </trkpt>
      <trkpt lat="38.764421" lon="-0.610667">
        <ele>608.268</ele>
        <time>2020-10-18T09:57:45Z</time>
      </trkpt>
      <trkpt lat="38.764596" lon="-0.610565">
        <ele>607.842</ele>
        <time>2020-10-18T09:57:51Z</time>
      </trkpt>
      <trkpt lat="38.764656" lon="-0.610534">
        <ele>607.626</ele>
        <time>2020-10-18T09:57:53Z</time>
      </trkpt>
      <trkpt lat="38.764871" lon="-0.610419">
        <ele>607.408</ele>
        <time>2020-10-18T09:57:59Z</time>
      </trkpt>
      <trkpt lat="38.764943" lon="-0.610380">
        <ele>607.251</ele>
        <time>2020-10-18T09:58:01Z</time>
      </trkpt>
      <trkpt lat="38.765108" lon="-0.610301">
        <ele>607.274</ele>
        <time>2020-10-18T09:58:05Z</time>
      </trkpt>
      <trkpt lat="38.765231" lon="-0.610224">
        <ele>607.053</ele>
        <time>2020-10-18T09:58:08Z</time>
      </trkpt>
      <trkpt lat="38.765270" lon="-0.610191">
        <ele>606.895</ele>
        <time>2020-10-18T09:58:09Z</time>
      </trkpt>
      <trkpt lat="38.765343" lon="-0.610122">
        <ele>606.626</ele>
        <time>2020-10-18T09:58:11Z</time>
      </trkpt>
      <trkpt lat="38.765416" lon="-0.610042">
        <ele>606.639</ele>
        <time>2020-10-18T09:58:13Z</time>
      </trkpt>
      <trkpt lat="38.765456" lon="-0.610002">
        <ele>606.667</ele>
        <time>2020-10-18T09:58:14Z</time>
      </trkpt>
      <trkpt lat="38.765607" lon="-0.609844">
        <ele>606.238</ele>
        <time>2020-10-18T09:58:18Z</time>
      </trkpt>
      <trkpt lat="38.765687" lon="-0.609792">
        <ele>605.864</ele>
        <time>2020-10-18T09:58:20Z</time>
      </trkpt>
      <trkpt lat="38.765730" lon="-0.609779">
        <ele>605.806</ele>
        <time>2020-10-18T09:58:21Z</time>
      </trkpt>
      <trkpt lat="38.765809" lon="-0.609761">
        <ele>605.616</ele>
        <time>2020-10-18T09:58:23Z</time>
      </trkpt>
      <trkpt lat="38.765944" lon="-0.609784">
        <ele>605.408</ele>
        <time>2020-10-18T09:58:26Z</time>
      </trkpt>
      <trkpt lat="38.765988" lon="-0.609807">
        <ele>605.421</ele>
        <time>2020-10-18T09:58:27Z</time>
      </trkpt>
      <trkpt lat="38.766101" lon="-0.609901">
        <ele>605.284</ele>
        <time>2020-10-18T09:58:30Z</time>
      </trkpt>
      <trkpt lat="38.766125" lon="-0.609931">
        <ele>605.473</ele>
        <time>2020-10-18T09:58:31Z</time>
      </trkpt>
      <trkpt lat="38.766232" lon="-0.610086">
        <ele>606.085</ele>
        <time>2020-10-18T09:58:35Z</time>
      </trkpt>
      <trkpt lat="38.766328" lon="-0.610214">
        <ele>606.876</ele>
        <time>2020-10-18T09:58:39Z</time>
      </trkpt>
      <trkpt lat="38.766404" lon="-0.610298">
        <ele>607.479</ele>
        <time>2020-10-18T09:58:42Z</time>
      </trkpt>
      <trkpt lat="38.766467" lon="-0.610382">
        <ele>607.897</ele>
        <time>2020-10-18T09:58:45Z</time>
      </trkpt>
      <trkpt lat="38.766534" lon="-0.610501">
        <ele>608.228</ele>
        <time>2020-10-18T09:58:49Z</time>
      </trkpt>
      <trkpt lat="38.766587" lon="-0.610556">
        <ele>609.011</ele>
        <time>2020-10-18T09:58:52Z</time>
      </trkpt>
      <trkpt lat="38.766619" lon="-0.610596">
        <ele>609.621</ele>
        <time>2020-10-18T09:58:54Z</time>
      </trkpt>
      <trkpt lat="38.766663" lon="-0.610626">
        <ele>610.603</ele>
        <time>2020-10-18T09:58:56Z</time>
      </trkpt>
      <trkpt lat="38.766703" lon="-0.610645">
        <ele>611.608</ele>
        <time>2020-10-18T09:58:58Z</time>
      </trkpt>
      <trkpt lat="38.766739" lon="-0.610654">
        <ele>612.836</ele>
        <time>2020-10-18T09:59:00Z</time>
      </trkpt>
      <trkpt lat="38.766757" lon="-0.610661">
        <ele>613.279</ele>
        <time>2020-10-18T09:59:01Z</time>
      </trkpt>
      <trkpt lat="38.766788" lon="-0.610684">
        <ele>614.048</ele>
        <time>2020-10-18T09:59:03Z</time>
      </trkpt>
      <trkpt lat="38.766856" lon="-0.610733">
        <ele>615.020</ele>
        <time>2020-10-18T09:59:07Z</time>
      </trkpt>
      <trkpt lat="38.766970" lon="-0.610690">
        <ele>615.811</ele>
        <time>2020-10-18T09:59:13Z</time>
      </trkpt>
      <trkpt lat="38.767053" lon="-0.610560">
        <ele>615.884</ele>
        <time>2020-10-18T09:59:17Z</time>
      </trkpt>
      <trkpt lat="38.767078" lon="-0.610519">
        <ele>615.852</ele>
        <time>2020-10-18T09:59:18Z</time>
      </trkpt>
      <trkpt lat="38.767144" lon="-0.610400">
        <ele>614.613</ele>
        <time>2020-10-18T09:59:21Z</time>
      </trkpt>
      <trkpt lat="38.767208" lon="-0.610258">
        <ele>613.823</ele>
        <time>2020-10-18T09:59:23Z</time>
      </trkpt>
      <trkpt lat="38.767266" lon="-0.610095">
        <ele>613.283</ele>
        <time>2020-10-18T09:59:25Z</time>
      </trkpt>
      <trkpt lat="38.767307" lon="-0.609998">
        <ele>612.611</ele>
        <time>2020-10-18T09:59:27Z</time>
      </trkpt>
      <trkpt lat="38.767351" lon="-0.609951">
        <ele>612.208</ele>
        <time>2020-10-18T09:59:29Z</time>
      </trkpt>
      <trkpt lat="38.767396" lon="-0.609932">
        <ele>612.057</ele>
        <time>2020-10-18T09:59:31Z</time>
      </trkpt>
      <trkpt lat="38.767408" lon="-0.609937">
        <ele>612.020</ele>
        <time>2020-10-18T09:59:32Z</time>
      </trkpt>
      <trkpt lat="38.767411" lon="-0.609951">
        <ele>611.829</ele>
        <time>2020-10-18T09:59:33Z</time>
      </trkpt>
      <trkpt lat="38.767411" lon="-0.609982">
        <ele>612.021</ele>
        <time>2020-10-18T09:59:35Z</time>
      </trkpt>
      <trkpt lat="38.767407" lon="-0.609995">
        <ele>612.022</ele>
        <time>2020-10-18T09:59:36Z</time>
      </trkpt>
      <trkpt lat="38.767402" lon="-0.610004">
        <ele>611.825</ele>
        <time>2020-10-18T09:59:37Z</time>
      </trkpt>
      <trkpt lat="38.767369" lon="-0.610065">
        <ele>611.873</ele>
        <time>2020-10-18T09:59:42Z</time>
      </trkpt>
      <trkpt lat="38.767227" lon="-0.610155">
        <ele>612.074</ele>
        <time>2020-10-18T09:59:52Z</time>
      </trkpt>
      <trkpt lat="38.767191" lon="-0.610278">
        <ele>612.493</ele>
        <time>2020-10-18T09:59:57Z</time>
      </trkpt>
      <trkpt lat="38.767180" lon="-0.610296">
        <ele>612.665</ele>
        <time>2020-10-18T09:59:58Z</time>
      </trkpt>
      <trkpt lat="38.767101" lon="-0.610403">
        <ele>613.621</ele>
        <time>2020-10-18T10:00:04Z</time>
      </trkpt>
      <trkpt lat="38.767092" lon="-0.610429">
        <ele>613.808</ele>
        <time>2020-10-18T10:00:05Z</time>
      </trkpt>
      <trkpt lat="38.767067" lon="-0.610503">
        <ele>614.694</ele>
        <time>2020-10-18T10:00:08Z</time>
      </trkpt>
      <trkpt lat="38.767047" lon="-0.610542">
        <ele>615.087</ele>
        <time>2020-10-18T10:00:10Z</time>
      </trkpt>
      <trkpt lat="38.767035" lon="-0.610558">
        <ele>615.046</ele>
        <time>2020-10-18T10:00:11Z</time>
      </trkpt>
      <trkpt lat="38.766992" lon="-0.610602">
        <ele>615.628</ele>
        <time>2020-10-18T10:00:14Z</time>
      </trkpt>
      <trkpt lat="38.766983" lon="-0.610623">
        <ele>615.869</ele>
        <time>2020-10-18T10:00:15Z</time>
      </trkpt>
      <trkpt lat="38.766974" lon="-0.610642">
        <ele>615.822</ele>
        <time>2020-10-18T10:00:16Z</time>
      </trkpt>
      <trkpt lat="38.766952" lon="-0.610774">
        <ele>616.240</ele>
        <time>2020-10-18T10:00:23Z</time>
      </trkpt>
      <trkpt lat="38.766938" lon="-0.610857">
        <ele>616.871</ele>
        <time>2020-10-18T10:00:28Z</time>
      </trkpt>
      <trkpt lat="38.766935" lon="-0.610923">
        <ele>617.082</ele>
        <time>2020-10-18T10:00:31Z</time>
      </trkpt>
      <trkpt lat="38.766960" lon="-0.611035">
        <ele>617.643</ele>
        <time>2020-10-18T10:00:37Z</time>
      </trkpt>
      <trkpt lat="38.766968" lon="-0.611060">
        <ele>617.817</ele>
        <time>2020-10-18T10:00:38Z</time>
      </trkpt>
      <trkpt lat="38.766965" lon="-0.611079">
        <ele>617.808</ele>
        <time>2020-10-18T10:00:39Z</time>
      </trkpt>
      <trkpt lat="38.766954" lon="-0.611129">
        <ele>618.013</ele>
        <time>2020-10-18T10:00:42Z</time>
      </trkpt>
      <trkpt lat="38.766946" lon="-0.611166">
        <ele>618.266</ele>
        <time>2020-10-18T10:00:45Z</time>
      </trkpt>
      <trkpt lat="38.766930" lon="-0.611186">
        <ele>618.475</ele>
        <time>2020-10-18T10:00:47Z</time>
      </trkpt>
      <trkpt lat="38.766920" lon="-0.611233">
        <ele>618.447</ele>
        <time>2020-10-18T10:00:50Z</time>
      </trkpt>
      <trkpt lat="38.766920" lon="-0.611233">
        <ele>618.278</ele>
        <time>2020-10-18T10:00:53Z</time>
      </trkpt>
      <trkpt lat="38.766924" lon="-0.611229">
        <ele>618.251</ele>
        <time>2020-10-18T10:00:57Z</time>
      </trkpt>
      <trkpt lat="38.766924" lon="-0.611229">
        <ele>618.289</ele>
        <time>2020-10-18T10:00:58Z</time>
      </trkpt>
      <trkpt lat="38.767006" lon="-0.611136">
        <ele>636.068</ele>
        <time>2020-10-18T10:59:56Z</time>
      </trkpt>
      <trkpt lat="38.767006" lon="-0.611136">
        <ele>636.242</ele>
        <time>2020-10-18T10:59:57Z</time>
      </trkpt>
      <trkpt lat="38.767011" lon="-0.611118">
        <ele>636.426</ele>
        <time>2020-10-18T11:00:01Z</time>
      </trkpt>
      <trkpt lat="38.767021" lon="-0.611034">
        <ele>636.408</ele>
        <time>2020-10-18T11:00:04Z</time>
      </trkpt>
      <trkpt lat="38.767036" lon="-0.610893">
        <ele>636.021</ele>
        <time>2020-10-18T11:00:08Z</time>
      </trkpt>
      <trkpt lat="38.767000" lon="-0.610727">
        <ele>634.844</ele>
        <time>2020-10-18T11:00:13Z</time>
      </trkpt>
      <trkpt lat="38.766974" lon="-0.610718">
        <ele>634.644</ele>
        <time>2020-10-18T11:00:14Z</time>
      </trkpt>
      <trkpt lat="38.766893" lon="-0.610677">
        <ele>634.296</ele>
        <time>2020-10-18T11:00:18Z</time>
      </trkpt>
      <trkpt lat="38.766894" lon="-0.610683">
        <ele>633.828</ele>
        <time>2020-10-18T11:00:21Z</time>
      </trkpt>
      <trkpt lat="38.766903" lon="-0.610695">
        <ele>633.834</ele>
        <time>2020-10-18T11:00:22Z</time>
      </trkpt>
      <trkpt lat="38.766919" lon="-0.610700">
        <ele>634.092</ele>
        <time>2020-10-18T11:00:24Z</time>
      </trkpt>
      <trkpt lat="38.766932" lon="-0.610694">
        <ele>634.224</ele>
        <time>2020-10-18T11:00:25Z</time>
      </trkpt>
      <trkpt lat="38.766949" lon="-0.610679">
        <ele>634.299</ele>
        <time>2020-10-18T11:00:27Z</time>
      </trkpt>
      <trkpt lat="38.766971" lon="-0.610631">
        <ele>634.207</ele>
        <time>2020-10-18T11:00:30Z</time>
      </trkpt>
      <trkpt lat="38.767027" lon="-0.610568">
        <ele>634.027</ele>
        <time>2020-10-18T11:00:33Z</time>
      </trkpt>
      <trkpt lat="38.767053" lon="-0.610569">
        <ele>633.808</ele>
        <time>2020-10-18T11:00:34Z</time>
      </trkpt>
      <trkpt lat="38.767091" lon="-0.610555">
        <ele>633.644</ele>
        <time>2020-10-18T11:00:35Z</time>
      </trkpt>
      <trkpt lat="38.767167" lon="-0.610476">
        <ele>633.067</ele>
        <time>2020-10-18T11:00:38Z</time>
      </trkpt>
      <trkpt lat="38.767222" lon="-0.610404">
        <ele>632.437</ele>
        <time>2020-10-18T11:00:40Z</time>
      </trkpt>
      <trkpt lat="38.767280" lon="-0.610298">
        <ele>631.419</ele>
        <time>2020-10-18T11:00:43Z</time>
      </trkpt>
      <trkpt lat="38.767283" lon="-0.610254">
        <ele>631.071</ele>
        <time>2020-10-18T11:00:44Z</time>
      </trkpt>
      <trkpt lat="38.767312" lon="-0.610143">
        <ele>630.657</ele>
        <time>2020-10-18T11:00:48Z</time>
      </trkpt>
      <trkpt lat="38.767316" lon="-0.610143">
        <ele>630.625</ele>
        <time>2020-10-18T11:00:49Z</time>
      </trkpt>
      <trkpt lat="38.767343" lon="-0.610057">
        <ele>630.617</ele>
        <time>2020-10-18T11:00:54Z</time>
      </trkpt>
      <trkpt lat="38.767413" lon="-0.609984">
        <ele>630.675</ele>
        <time>2020-10-18T11:01:00Z</time>
      </trkpt>
      <trkpt lat="38.767469" lon="-0.609985">
        <ele>630.828</ele>
        <time>2020-10-18T11:01:05Z</time>
      </trkpt>
      <trkpt lat="38.767486" lon="-0.609961">
        <ele>631.020</ele>
        <time>2020-10-18T11:01:07Z</time>
      </trkpt>
      <trkpt lat="38.767492" lon="-0.609933">
        <ele>631.608</ele>
        <time>2020-10-18T11:01:11Z</time>
      </trkpt>
      <trkpt lat="38.767494" lon="-0.609922">
        <ele>631.892</ele>
        <time>2020-10-18T11:01:12Z</time>
      </trkpt>
      <trkpt lat="38.767498" lon="-0.609893">
        <ele>632.285</ele>
        <time>2020-10-18T11:01:15Z</time>
      </trkpt>
      <trkpt lat="38.767504" lon="-0.609893">
        <ele>632.465</ele>
        <time>2020-10-18T11:01:16Z</time>
      </trkpt>
      <trkpt lat="38.767520" lon="-0.609895">
        <ele>632.657</ele>
        <time>2020-10-18T11:01:19Z</time>
      </trkpt>
      <trkpt lat="38.767528" lon="-0.609900">
        <ele>632.819</ele>
        <time>2020-10-18T11:01:24Z</time>
      </trkpt>
      <trkpt lat="38.767549" lon="-0.609890">
        <ele>632.855</ele>
        <time>2020-10-18T11:01:38Z</time>
      </trkpt>
      <trkpt lat="38.767557" lon="-0.609880">
        <ele>632.813</ele>
        <time>2020-10-18T11:01:41Z</time>
      </trkpt>
      <trkpt lat="38.767591" lon="-0.609860">
        <ele>633.275</ele>
        <time>2020-10-18T11:01:43Z</time>
      </trkpt>
      <trkpt lat="38.767075" lon="-0.605812">
        <ele>589.637</ele>
        <time>2020-10-18T11:04:22Z</time>
      </trkpt>
      <trkpt lat="38.767083" lon="-0.605796">
        <ele>589.849</ele>
        <time>2020-10-18T11:04:23Z</time>
      </trkpt>
      <trkpt lat="38.767141" lon="-0.605736">
        <ele>590.613</ele>
        <time>2020-10-18T11:04:27Z</time>
      </trkpt>
      <trkpt lat="38.767173" lon="-0.605705">
        <ele>591.008</ele>
        <time>2020-10-18T11:04:29Z</time>
      </trkpt>
      <trkpt lat="38.767258" lon="-0.605638">
        <ele>591.898</ele>
        <time>2020-10-18T11:04:33Z</time>
      </trkpt>
      <trkpt lat="38.767302" lon="-0.605602">
        <ele>592.491</ele>
        <time>2020-10-18T11:04:36Z</time>
      </trkpt>
      <trkpt lat="38.767314" lon="-0.605582">
        <ele>592.831</ele>
        <time>2020-10-18T11:04:37Z</time>
      </trkpt>
      <trkpt lat="38.767323" lon="-0.605558">
        <ele>593.013</ele>
        <time>2020-10-18T11:04:38Z</time>
      </trkpt>
      <trkpt lat="38.767337" lon="-0.605417">
        <ele>594.085</ele>
        <time>2020-10-18T11:04:43Z</time>
      </trkpt>
      <trkpt lat="38.767330" lon="-0.605395">
        <ele>594.441</ele>
        <time>2020-10-18T11:04:44Z</time>
      </trkpt>
      <trkpt lat="38.767304" lon="-0.605308">
        <ele>595.259</ele>
        <time>2020-10-18T11:04:48Z</time>
      </trkpt>
      <trkpt lat="38.767268" lon="-0.605249">
        <ele>595.811</ele>
        <time>2020-10-18T11:04:51Z</time>
      </trkpt>
      <trkpt lat="38.767245" lon="-0.605212">
        <ele>596.473</ele>
        <time>2020-10-18T11:04:53Z</time>
      </trkpt>
      <trkpt lat="38.767206" lon="-0.605115">
        <ele>597.085</ele>
        <time>2020-10-18T11:04:58Z</time>
      </trkpt>
      <trkpt lat="38.767183" lon="-0.604926">
        <ele>597.413</ele>
        <time>2020-10-18T11:05:05Z</time>
      </trkpt>
      <trkpt lat="38.767204" lon="-0.604728">
        <ele>598.408</ele>
        <time>2020-10-18T11:05:12Z</time>
      </trkpt>
      <trkpt lat="38.767205" lon="-0.604694">
        <ele>598.422</ele>
        <time>2020-10-18T11:05:13Z</time>
      </trkpt>
      <trkpt lat="38.767216" lon="-0.604433">
        <ele>598.825</ele>
        <time>2020-10-18T11:05:21Z</time>
      </trkpt>
      <trkpt lat="38.767211" lon="-0.604313">
        <ele>599.085</ele>
        <time>2020-10-18T11:05:25Z</time>
      </trkpt>
      <trkpt lat="38.767226" lon="-0.604176">
        <ele>599.437</ele>
        <time>2020-10-18T11:05:29Z</time>
      </trkpt>
      <trkpt lat="38.767237" lon="-0.604146">
        <ele>599.459</ele>
        <time>2020-10-18T11:05:30Z</time>
      </trkpt>
      <trkpt lat="38.767305" lon="-0.604088">
        <ele>599.425</ele>
        <time>2020-10-18T11:05:33Z</time>
      </trkpt>
      <trkpt lat="38.767333" lon="-0.604079">
        <ele>599.643</ele>
        <time>2020-10-18T11:05:34Z</time>
      </trkpt>
      <trkpt lat="38.767440" lon="-0.604115">
        <ele>600.055</ele>
        <time>2020-10-18T11:05:38Z</time>
      </trkpt>
      <trkpt lat="38.767516" lon="-0.604166">
        <ele>600.476</ele>
        <time>2020-10-18T11:05:41Z</time>
      </trkpt>
      <trkpt lat="38.767655" lon="-0.604238">
        <ele>601.490</ele>
        <time>2020-10-18T11:05:47Z</time>
      </trkpt>
      <trkpt lat="38.767678" lon="-0.604252">
        <ele>601.619</ele>
        <time>2020-10-18T11:05:48Z</time>
      </trkpt>
      <trkpt lat="38.767784" lon="-0.604303">
        <ele>602.608</ele>
        <time>2020-10-18T11:05:53Z</time>
      </trkpt>
      <trkpt lat="38.767835" lon="-0.604309">
        <ele>603.272</ele>
        <time>2020-10-18T11:05:55Z</time>
      </trkpt>
      <trkpt lat="38.767901" lon="-0.604326">
        <ele>603.875</ele>
        <time>2020-10-18T11:05:58Z</time>
      </trkpt>
      <trkpt lat="38.767990" lon="-0.604331">
        <ele>605.045</ele>
        <time>2020-10-18T11:06:02Z</time>
      </trkpt>
      <trkpt lat="38.768015" lon="-0.604328">
        <ele>605.447</ele>
        <time>2020-10-18T11:06:03Z</time>
      </trkpt>
      <trkpt lat="38.768107" lon="-0.604308">
        <ele>606.089</ele>
        <time>2020-10-18T11:06:07Z</time>
      </trkpt>
      <trkpt lat="38.768195" lon="-0.604278">
        <ele>607.235</ele>
        <time>2020-10-18T11:06:11Z</time>
      </trkpt>
      <trkpt lat="38.768286" lon="-0.604236">
        <ele>608.273</ele>
        <time>2020-10-18T11:06:15Z</time>
      </trkpt>
      <trkpt lat="38.768360" lon="-0.604170">
        <ele>609.265</ele>
        <time>2020-10-18T11:06:19Z</time>
      </trkpt>
      <trkpt lat="38.768377" lon="-0.604157">
        <ele>609.451</ele>
        <time>2020-10-18T11:06:20Z</time>
      </trkpt>
      <trkpt lat="38.768475" lon="-0.604053">
        <ele>610.001</ele>
        <time>2020-10-18T11:06:25Z</time>
      </trkpt>
      <trkpt lat="38.768506" lon="-0.604001">
        <ele>610.411</ele>
        <time>2020-10-18T11:06:27Z</time>
      </trkpt>
      <trkpt lat="38.768555" lon="-0.603857">
        <ele>611.408</ele>
        <time>2020-10-18T11:06:32Z</time>
      </trkpt>
      <trkpt lat="38.768568" lon="-0.603819">
        <ele>611.630</ele>
        <time>2020-10-18T11:06:33Z</time>
      </trkpt>
      <trkpt lat="38.768654" lon="-0.603520">
        <ele>612.473</ele>
        <time>2020-10-18T11:06:42Z</time>
      </trkpt>
      <trkpt lat="38.768701" lon="-0.603170">
        <ele>612.413</ele>
        <time>2020-10-18T11:06:51Z</time>
      </trkpt>
      <trkpt lat="38.768765" lon="-0.602791">
        <ele>612.415</ele>
        <time>2020-10-18T11:06:59Z</time>
      </trkpt>
      <trkpt lat="38.768743" lon="-0.602479">
        <ele>612.617</ele>
        <time>2020-10-18T11:07:06Z</time>
      </trkpt>
      <trkpt lat="38.768729" lon="-0.602438">
        <ele>612.653</ele>
        <time>2020-10-18T11:07:07Z</time>
      </trkpt>
      <trkpt lat="38.768585" lon="-0.602153">
        <ele>612.881</ele>
        <time>2020-10-18T11:07:15Z</time>
      </trkpt>
      <trkpt lat="38.768339" lon="-0.601907">
        <ele>612.253</ele>
        <time>2020-10-18T11:07:23Z</time>
      </trkpt>
      <trkpt lat="38.768146" lon="-0.601749">
        <ele>611.672</ele>
        <time>2020-10-18T11:07:28Z</time>
      </trkpt>
      <trkpt lat="38.768102" lon="-0.601739">
        <ele>611.413</ele>
        <time>2020-10-18T11:07:29Z</time>
      </trkpt>
      <trkpt lat="38.768064" lon="-0.601737">
        <ele>611.414</ele>
        <time>2020-10-18T11:07:30Z</time>
      </trkpt>
      <trkpt lat="38.767919" lon="-0.601659">
        <ele>611.408</ele>
        <time>2020-10-18T11:07:35Z</time>
      </trkpt>
      <trkpt lat="38.767765" lon="-0.601371">
        <ele>611.692</ele>
        <time>2020-10-18T11:07:42Z</time>
      </trkpt>
      <trkpt lat="38.767661" lon="-0.601200">
        <ele>612.685</ele>
        <time>2020-10-18T11:07:47Z</time>
      </trkpt>
      <trkpt lat="38.767637" lon="-0.601123">
        <ele>613.225</ele>
        <time>2020-10-18T11:07:49Z</time>
      </trkpt>
      <trkpt lat="38.767618" lon="-0.600998">
        <ele>613.697</ele>
        <time>2020-10-18T11:07:52Z</time>
      </trkpt>
      <trkpt lat="38.767621" lon="-0.600777">
        <ele>614.019</ele>
        <time>2020-10-18T11:07:57Z</time>
      </trkpt>
      <trkpt lat="38.767613" lon="-0.600588">
        <ele>613.875</ele>
        <time>2020-10-18T11:08:01Z</time>
      </trkpt>
      <trkpt lat="38.767604" lon="-0.600334">
        <ele>614.063</ele>
        <time>2020-10-18T11:08:06Z</time>
      </trkpt>
      <trkpt lat="38.767591" lon="-0.599888">
        <ele>614.665</ele>
        <time>2020-10-18T11:08:15Z</time>
      </trkpt>
      <trkpt lat="38.767589" lon="-0.599845">
        <ele>614.616</ele>
        <time>2020-10-18T11:08:16Z</time>
      </trkpt>
      <trkpt lat="38.767580" lon="-0.599567">
        <ele>615.876</ele>
        <time>2020-10-18T11:08:22Z</time>
      </trkpt>
      <trkpt lat="38.767583" lon="-0.599466">
        <ele>616.013</ele>
        <time>2020-10-18T11:08:24Z</time>
      </trkpt>
      <trkpt lat="38.767565" lon="-0.599089">
        <ele>616.008</ele>
        <time>2020-10-18T11:08:33Z</time>
      </trkpt>
      <trkpt lat="38.767619" lon="-0.598892">
        <ele>616.286</ele>
        <time>2020-10-18T11:08:38Z</time>
      </trkpt>
      <trkpt lat="38.767703" lon="-0.598669">
        <ele>616.029</ele>
        <time>2020-10-18T11:08:43Z</time>
      </trkpt>
      <trkpt lat="38.767736" lon="-0.598569">
        <ele>615.879</ele>
        <time>2020-10-18T11:08:45Z</time>
      </trkpt>
      <trkpt lat="38.767815" lon="-0.598319">
        <ele>615.651</ele>
        <time>2020-10-18T11:08:50Z</time>
      </trkpt>
      <trkpt lat="38.767922" lon="-0.597983">
        <ele>615.633</ele>
        <time>2020-10-18T11:08:56Z</time>
      </trkpt>
      <trkpt lat="38.768129" lon="-0.597331">
        <ele>615.259</ele>
        <time>2020-10-18T11:09:07Z</time>
      </trkpt>
      <trkpt lat="38.768306" lon="-0.596807">
        <ele>615.077</ele>
        <time>2020-10-18T11:09:15Z</time>
      </trkpt>
      <trkpt lat="38.768328" lon="-0.596745">
        <ele>614.619</ele>
        <time>2020-10-18T11:09:16Z</time>
      </trkpt>
      <trkpt lat="38.768450" lon="-0.596348">
        <ele>613.652</ele>
        <time>2020-10-18T11:09:22Z</time>
      </trkpt>
      <trkpt lat="38.768471" lon="-0.596279">
        <ele>613.453</ele>
        <time>2020-10-18T11:09:23Z</time>
      </trkpt>
      <trkpt lat="38.768646" lon="-0.595733">
        <ele>613.608</ele>
        <time>2020-10-18T11:09:31Z</time>
      </trkpt>
      <trkpt lat="38.768715" lon="-0.595521">
        <ele>613.408</ele>
        <time>2020-10-18T11:09:34Z</time>
      </trkpt>
      <trkpt lat="38.768915" lon="-0.594907">
        <ele>613.020</ele>
        <time>2020-10-18T11:09:43Z</time>
      </trkpt>
      <trkpt lat="38.769054" lon="-0.594494">
        <ele>612.453</ele>
        <time>2020-10-18T11:09:49Z</time>
      </trkpt>
      <trkpt lat="38.769097" lon="-0.594359">
        <ele>612.223</ele>
        <time>2020-10-18T11:09:51Z</time>
      </trkpt>
      <trkpt lat="38.769306" lon="-0.593701">
        <ele>611.855</ele>
        <time>2020-10-18T11:10:01Z</time>
      </trkpt>
      <trkpt lat="38.769351" lon="-0.593564">
        <ele>611.417</ele>
        <time>2020-10-18T11:10:03Z</time>
      </trkpt>
      <trkpt lat="38.769465" lon="-0.593219">
        <ele>611.073</ele>
        <time>2020-10-18T11:10:08Z</time>
      </trkpt>
      <trkpt lat="38.769573" lon="-0.592861">
        <ele>610.631</ele>
        <time>2020-10-18T11:10:13Z</time>
      </trkpt>
      <trkpt lat="38.769646" lon="-0.592648">
        <ele>610.633</ele>
        <time>2020-10-18T11:10:16Z</time>
      </trkpt>
      <trkpt lat="38.769693" lon="-0.592501">
        <ele>610.496</ele>
        <time>2020-10-18T11:10:18Z</time>
      </trkpt>
      <trkpt lat="38.769877" lon="-0.591992">
        <ele>609.631</ele>
        <time>2020-10-18T11:10:25Z</time>
      </trkpt>
      <trkpt lat="38.770008" lon="-0.591636">
        <ele>609.424</ele>
        <time>2020-10-18T11:10:30Z</time>
      </trkpt>
      <trkpt lat="38.770146" lon="-0.591272">
        <ele>608.608</ele>
        <time>2020-10-18T11:10:35Z</time>
      </trkpt>
      <trkpt lat="38.770234" lon="-0.591071">
        <ele>608.234</ele>
        <time>2020-10-18T11:10:38Z</time>
      </trkpt>
      <trkpt lat="38.770397" lon="-0.590758">
        <ele>607.447</ele>
        <time>2020-10-18T11:10:43Z</time>
      </trkpt>
      <trkpt lat="38.770526" lon="-0.590496">
        <ele>607.227</ele>
        <time>2020-10-18T11:10:47Z</time>
      </trkpt>
      <trkpt lat="38.770696" lon="-0.590152">
        <ele>607.059</ele>
        <time>2020-10-18T11:10:52Z</time>
      </trkpt>
      <trkpt lat="38.770871" lon="-0.589813">
        <ele>606.251</ele>
        <time>2020-10-18T11:10:57Z</time>
      </trkpt>
      <trkpt lat="38.770907" lon="-0.589743">
        <ele>606.237</ele>
        <time>2020-10-18T11:10:58Z</time>
      </trkpt>
      <trkpt lat="38.771057" lon="-0.589462">
        <ele>606.075</ele>
        <time>2020-10-18T11:11:02Z</time>
      </trkpt>
      <trkpt lat="38.771199" lon="-0.589201">
        <ele>604.887</ele>
        <time>2020-10-18T11:11:06Z</time>
      </trkpt>
      <trkpt lat="38.771382" lon="-0.588858">
        <ele>604.025</ele>
        <time>2020-10-18T11:11:11Z</time>
      </trkpt>
      <trkpt lat="38.771452" lon="-0.588731">
        <ele>603.826</ele>
        <time>2020-10-18T11:11:13Z</time>
      </trkpt>
      <trkpt lat="38.771745" lon="-0.588159">
        <ele>603.608</ele>
        <time>2020-10-18T11:11:22Z</time>
      </trkpt>
      <trkpt lat="38.771949" lon="-0.587767">
        <ele>602.608</ele>
        <time>2020-10-18T11:11:28Z</time>
      </trkpt>
      <trkpt lat="38.772046" lon="-0.587583">
        <ele>602.637</ele>
        <time>2020-10-18T11:11:31Z</time>
      </trkpt>
      <trkpt lat="38.772105" lon="-0.587449">
        <ele>602.230</ele>
        <time>2020-10-18T11:11:33Z</time>
      </trkpt>
      <trkpt lat="38.772232" lon="-0.587168">
        <ele>602.030</ele>
        <time>2020-10-18T11:11:37Z</time>
      </trkpt>
      <trkpt lat="38.772319" lon="-0.586975">
        <ele>601.682</ele>
        <time>2020-10-18T11:11:40Z</time>
      </trkpt>
      <trkpt lat="38.772385" lon="-0.586838">
        <ele>601.484</ele>
        <time>2020-10-18T11:11:42Z</time>
      </trkpt>
      <trkpt lat="38.772445" lon="-0.586695">
        <ele>601.060</ele>
        <time>2020-10-18T11:11:44Z</time>
      </trkpt>
      <trkpt lat="38.772508" lon="-0.586556">
        <ele>600.878</ele>
        <time>2020-10-18T11:11:46Z</time>
      </trkpt>
      <trkpt lat="38.772579" lon="-0.586413">
        <ele>600.630</ele>
        <time>2020-10-18T11:11:48Z</time>
      </trkpt>
      <trkpt lat="38.772679" lon="-0.586198">
        <ele>600.676</ele>
        <time>2020-10-18T11:11:51Z</time>
      </trkpt>
      <trkpt lat="38.772898" lon="-0.585731">
        <ele>599.890</ele>
        <time>2020-10-18T11:11:58Z</time>
      </trkpt>
      <trkpt lat="38.773150" lon="-0.585174">
        <ele>599.419</ele>
        <time>2020-10-18T11:12:07Z</time>
      </trkpt>
      <trkpt lat="38.773179" lon="-0.585110">
        <ele>599.408</ele>
        <time>2020-10-18T11:12:08Z</time>
      </trkpt>
      <trkpt lat="38.773471" lon="-0.584445">
        <ele>598.622</ele>
        <time>2020-10-18T11:12:18Z</time>
      </trkpt>
      <trkpt lat="38.773533" lon="-0.584311">
        <ele>598.465</ele>
        <time>2020-10-18T11:12:20Z</time>
      </trkpt>
      <trkpt lat="38.773592" lon="-0.584178">
        <ele>598.255</ele>
        <time>2020-10-18T11:12:22Z</time>
      </trkpt>
      <trkpt lat="38.773746" lon="-0.583832">
        <ele>597.887</ele>
        <time>2020-10-18T11:12:27Z</time>
      </trkpt>
      <trkpt lat="38.773900" lon="-0.583496">
        <ele>597.899</ele>
        <time>2020-10-18T11:12:32Z</time>
      </trkpt>
      <trkpt lat="38.774082" lon="-0.583080">
        <ele>597.495</ele>
        <time>2020-10-18T11:12:38Z</time>
      </trkpt>
      <trkpt lat="38.774205" lon="-0.582792">
        <ele>596.493</ele>
        <time>2020-10-18T11:12:42Z</time>
      </trkpt>
      <trkpt lat="38.774236" lon="-0.582720">
        <ele>596.245</ele>
        <time>2020-10-18T11:12:43Z</time>
      </trkpt>
      <trkpt lat="38.774456" lon="-0.582238">
        <ele>595.472</ele>
        <time>2020-10-18T11:12:50Z</time>
      </trkpt>
      <trkpt lat="38.774574" lon="-0.581987">
        <ele>595.013</ele>
        <time>2020-10-18T11:12:54Z</time>
      </trkpt>
      <trkpt lat="38.774713" lon="-0.581670">
        <ele>594.614</ele>
        <time>2020-10-18T11:12:59Z</time>
      </trkpt>
      <trkpt lat="38.774876" lon="-0.581309">
        <ele>594.008</ele>
        <time>2020-10-18T11:13:05Z</time>
      </trkpt>
      <trkpt lat="38.774961" lon="-0.581126">
        <ele>593.652</ele>
        <time>2020-10-18T11:13:08Z</time>
      </trkpt>
      <trkpt lat="38.775178" lon="-0.580605">
        <ele>593.255</ele>
        <time>2020-10-18T11:13:16Z</time>
      </trkpt>
      <trkpt lat="38.775202" lon="-0.580537">
        <ele>593.215</ele>
        <time>2020-10-18T11:13:17Z</time>
      </trkpt>
      <trkpt lat="38.775246" lon="-0.580401">
        <ele>593.037</ele>
        <time>2020-10-18T11:13:19Z</time>
      </trkpt>
      <trkpt lat="38.775374" lon="-0.579905">
        <ele>592.689</ele>
        <time>2020-10-18T11:13:26Z</time>
      </trkpt>
      <trkpt lat="38.775401" lon="-0.579765">
        <ele>592.655</ele>
        <time>2020-10-18T11:13:28Z</time>
      </trkpt>
      <trkpt lat="38.775433" lon="-0.579500">
        <ele>592.263</ele>
        <time>2020-10-18T11:13:32Z</time>
      </trkpt>
      <trkpt lat="38.775456" lon="-0.579010">
        <ele>592.025</ele>
        <time>2020-10-18T11:13:39Z</time>
      </trkpt>
      <trkpt lat="38.775449" lon="-0.578941">
        <ele>592.077</ele>
        <time>2020-10-18T11:13:40Z</time>
      </trkpt>
      <trkpt lat="38.775445" lon="-0.578867">
        <ele>591.861</ele>
        <time>2020-10-18T11:13:41Z</time>
      </trkpt>
      <trkpt lat="38.775409" lon="-0.578441">
        <ele>591.227</ele>
        <time>2020-10-18T11:13:47Z</time>
      </trkpt>
      <trkpt lat="38.775360" lon="-0.578003">
        <ele>590.808</ele>
        <time>2020-10-18T11:13:53Z</time>
      </trkpt>
      <trkpt lat="38.775333" lon="-0.577859">
        <ele>590.652</ele>
        <time>2020-10-18T11:13:55Z</time>
      </trkpt>
      <trkpt lat="38.775197" lon="-0.577275">
        <ele>589.855</ele>
        <time>2020-10-18T11:14:03Z</time>
      </trkpt>
      <trkpt lat="38.775180" lon="-0.577200">
        <ele>589.865</ele>
        <time>2020-10-18T11:14:04Z</time>
      </trkpt>
      <trkpt lat="38.775059" lon="-0.576679">
        <ele>589.077</ele>
        <time>2020-10-18T11:14:11Z</time>
      </trkpt>
      <trkpt lat="38.774981" lon="-0.576381">
        <ele>588.679</ele>
        <time>2020-10-18T11:14:15Z</time>
      </trkpt>
      <trkpt lat="38.774929" lon="-0.576148">
        <ele>587.855</ele>
        <time>2020-10-18T11:14:18Z</time>
      </trkpt>
      <trkpt lat="38.774896" lon="-0.575995">
        <ele>587.483</ele>
        <time>2020-10-18T11:14:20Z</time>
      </trkpt>
      <trkpt lat="38.774742" lon="-0.575331">
        <ele>586.665</ele>
        <time>2020-10-18T11:14:29Z</time>
      </trkpt>
      <trkpt lat="38.774673" lon="-0.575034">
        <ele>586.456</ele>
        <time>2020-10-18T11:14:33Z</time>
      </trkpt>
      <trkpt lat="38.774618" lon="-0.574740">
        <ele>586.259</ele>
        <time>2020-10-18T11:14:37Z</time>
      </trkpt>
      <trkpt lat="38.774549" lon="-0.574149">
        <ele>586.014</ele>
        <time>2020-10-18T11:14:45Z</time>
      </trkpt>
      <trkpt lat="38.774527" lon="-0.573622">
        <ele>585.408</ele>
        <time>2020-10-18T11:14:52Z</time>
      </trkpt>
      <trkpt lat="38.774529" lon="-0.573474">
        <ele>585.470</ele>
        <time>2020-10-18T11:14:54Z</time>
      </trkpt>
      <trkpt lat="38.774524" lon="-0.573108">
        <ele>585.213</ele>
        <time>2020-10-18T11:14:59Z</time>
      </trkpt>
      <trkpt lat="38.774505" lon="-0.572557">
        <ele>584.243</ele>
        <time>2020-10-18T11:15:06Z</time>
      </trkpt>
      <trkpt lat="38.774501" lon="-0.572468">
        <ele>583.825</ele>
        <time>2020-10-18T11:15:07Z</time>
      </trkpt>
      <trkpt lat="38.774494" lon="-0.572203">
        <ele>583.227</ele>
        <time>2020-10-18T11:15:10Z</time>
      </trkpt>
      <trkpt lat="38.774480" lon="-0.571848">
        <ele>582.073</ele>
        <time>2020-10-18T11:15:14Z</time>
      </trkpt>
      <trkpt lat="38.774481" lon="-0.571764">
        <ele>581.891</ele>
        <time>2020-10-18T11:15:15Z</time>
      </trkpt>
      <trkpt lat="38.774453" lon="-0.571008">
        <ele>581.483</ele>
        <time>2020-10-18T11:15:24Z</time>
      </trkpt>
      <trkpt lat="38.774450" lon="-0.570926">
        <ele>581.421</ele>
        <time>2020-10-18T11:15:25Z</time>
      </trkpt>
      <trkpt lat="38.774437" lon="-0.570611">
        <ele>581.041</ele>
        <time>2020-10-18T11:15:29Z</time>
      </trkpt>
      <trkpt lat="38.774428" lon="-0.570383">
        <ele>581.005</ele>
        <time>2020-10-18T11:15:32Z</time>
      </trkpt>
      <trkpt lat="38.774430" lon="-0.570304">
        <ele>581.008</ele>
        <time>2020-10-18T11:15:33Z</time>
      </trkpt>
      <trkpt lat="38.774462" lon="-0.569560">
        <ele>581.097</ele>
        <time>2020-10-18T11:15:43Z</time>
      </trkpt>
      <trkpt lat="38.774502" lon="-0.569115">
        <ele>581.040</ele>
        <time>2020-10-18T11:15:49Z</time>
      </trkpt>
      <trkpt lat="38.774619" lon="-0.568417">
        <ele>580.260</ele>
        <time>2020-10-18T11:15:59Z</time>
      </trkpt>
      <trkpt lat="38.774686" lon="-0.568052">
        <ele>579.822</ele>
        <time>2020-10-18T11:16:04Z</time>
      </trkpt>
      <trkpt lat="38.774754" lon="-0.567690">
        <ele>579.224</ele>
        <time>2020-10-18T11:16:09Z</time>
      </trkpt>
      <trkpt lat="38.774879" lon="-0.567001">
        <ele>579.060</ele>
        <time>2020-10-18T11:16:19Z</time>
      </trkpt>
      <trkpt lat="38.774915" lon="-0.566865">
        <ele>579.098</ele>
        <time>2020-10-18T11:16:21Z</time>
      </trkpt>
      <trkpt lat="38.774954" lon="-0.566650">
        <ele>578.870</ele>
        <time>2020-10-18T11:16:24Z</time>
      </trkpt>
      <trkpt lat="38.774974" lon="-0.566512">
        <ele>578.692</ele>
        <time>2020-10-18T11:16:26Z</time>
      </trkpt>
      <trkpt lat="38.775064" lon="-0.565967">
        <ele>578.273</ele>
        <time>2020-10-18T11:16:34Z</time>
      </trkpt>
      <trkpt lat="38.775153" lon="-0.565429">
        <ele>578.020</ele>
        <time>2020-10-18T11:16:42Z</time>
      </trkpt>
      <trkpt lat="38.775185" lon="-0.565223">
        <ele>578.008</ele>
        <time>2020-10-18T11:16:45Z</time>
      </trkpt>
      <trkpt lat="38.775223" lon="-0.564898">
        <ele>577.894</ele>
        <time>2020-10-18T11:16:50Z</time>
      </trkpt>
      <trkpt lat="38.775264" lon="-0.564654">
        <ele>577.497</ele>
        <time>2020-10-18T11:16:54Z</time>
      </trkpt>
      <trkpt lat="38.775356" lon="-0.564193">
        <ele>577.687</ele>
        <time>2020-10-18T11:17:01Z</time>
      </trkpt>
      <trkpt lat="38.775356" lon="-0.564193">
        <ele>577.699</ele>
        <time>2020-10-18T11:17:02Z</time>
      </trkpt>
      <trkpt lat="38.775413" lon="-0.563869">
        <ele>576.841</ele>
        <time>2020-10-18T11:17:06Z</time>
      </trkpt>
      <trkpt lat="38.775431" lon="-0.563748">
        <ele>576.687</ele>
        <time>2020-10-18T11:17:08Z</time>
      </trkpt>
      <trkpt lat="38.775445" lon="-0.563672">
        <ele>576.685</ele>
        <time>2020-10-18T11:17:09Z</time>
      </trkpt>
      <trkpt lat="38.775476" lon="-0.563490">
        <ele>576.467</ele>
        <time>2020-10-18T11:17:12Z</time>
      </trkpt>
      <trkpt lat="38.775496" lon="-0.563367">
        <ele>576.458</ele>
        <time>2020-10-18T11:17:14Z</time>
      </trkpt>
      <trkpt lat="38.775519" lon="-0.563242">
        <ele>576.452</ele>
        <time>2020-10-18T11:17:16Z</time>
      </trkpt>
      <trkpt lat="38.775529" lon="-0.563180">
        <ele>576.417</ele>
        <time>2020-10-18T11:17:17Z</time>
      </trkpt>
      <trkpt lat="38.775562" lon="-0.562998">
        <ele>576.408</ele>
        <time>2020-10-18T11:17:20Z</time>
      </trkpt>
      <trkpt lat="38.775632" lon="-0.562616">
        <ele>576.210</ele>
        <time>2020-10-18T11:17:26Z</time>
      </trkpt>
      <trkpt lat="38.775712" lon="-0.562271">
        <ele>576.053</ele>
        <time>2020-10-18T11:17:32Z</time>
      </trkpt>
      <trkpt lat="38.775724" lon="-0.562219">
        <ele>575.873</ele>
        <time>2020-10-18T11:17:33Z</time>
      </trkpt>
      <trkpt lat="38.775759" lon="-0.562094">
        <ele>575.685</ele>
        <time>2020-10-18T11:17:35Z</time>
      </trkpt>
      <trkpt lat="38.775792" lon="-0.561956">
        <ele>575.627</ele>
        <time>2020-10-18T11:17:37Z</time>
      </trkpt>
      <trkpt lat="38.775815" lon="-0.561816">
        <ele>575.483</ele>
        <time>2020-10-18T11:17:39Z</time>
      </trkpt>
      <trkpt lat="38.775864" lon="-0.561442">
        <ele>575.411</ele>
        <time>2020-10-18T11:17:45Z</time>
      </trkpt>
      <trkpt lat="38.775940" lon="-0.560886">
        <ele>574.673</ele>
        <time>2020-10-18T11:17:53Z</time>
      </trkpt>
      <trkpt lat="38.775954" lon="-0.560816">
        <ele>574.442</ele>
        <time>2020-10-18T11:17:54Z</time>
      </trkpt>
      <trkpt lat="38.776025" lon="-0.560389">
        <ele>574.022</ele>
        <time>2020-10-18T11:18:00Z</time>
      </trkpt>
      <trkpt lat="38.776038" lon="-0.560321">
        <ele>574.014</ele>
        <time>2020-10-18T11:18:01Z</time>
      </trkpt>
      <trkpt lat="38.776072" lon="-0.560119">
        <ele>574.008</ele>
        <time>2020-10-18T11:18:04Z</time>
      </trkpt>
      <trkpt lat="38.776118" lon="-0.559871">
        <ele>574.019</ele>
        <time>2020-10-18T11:18:08Z</time>
      </trkpt>
      <trkpt lat="38.776182" lon="-0.559530">
        <ele>573.872</ele>
        <time>2020-10-18T11:18:13Z</time>
      </trkpt>
      <trkpt lat="38.776224" lon="-0.559199">
        <ele>573.832</ele>
        <time>2020-10-18T11:18:18Z</time>
      </trkpt>
      <trkpt lat="38.776282" lon="-0.558805">
        <ele>573.834</ele>
        <time>2020-10-18T11:18:24Z</time>
      </trkpt>
      <trkpt lat="38.776308" lon="-0.558611">
        <ele>574.046</ele>
        <time>2020-10-18T11:18:27Z</time>
      </trkpt>
      <trkpt lat="38.776365" lon="-0.558295">
        <ele>574.472</ele>
        <time>2020-10-18T11:18:32Z</time>
      </trkpt>
      <trkpt lat="38.776449" lon="-0.557925">
        <ele>574.690</ele>
        <time>2020-10-18T11:18:38Z</time>
      </trkpt>
      <trkpt lat="38.776615" lon="-0.557387">
        <ele>575.052</ele>
        <time>2020-10-18T11:18:47Z</time>
      </trkpt>
      <trkpt lat="38.776784" lon="-0.557055">
        <ele>575.043</ele>
        <time>2020-10-18T11:18:53Z</time>
      </trkpt>
      <trkpt lat="38.776964" lon="-0.556735">
        <ele>575.064</ele>
        <time>2020-10-18T11:18:59Z</time>
      </trkpt>
      <trkpt lat="38.777250" lon="-0.556361">
        <ele>575.010</ele>
        <time>2020-10-18T11:19:07Z</time>
      </trkpt>
      <trkpt lat="38.777412" lon="-0.556193">
        <ele>574.808</ele>
        <time>2020-10-18T11:19:11Z</time>
      </trkpt>
      <trkpt lat="38.777650" lon="-0.555994">
        <ele>574.429</ele>
        <time>2020-10-18T11:19:16Z</time>
      </trkpt>
      <trkpt lat="38.778071" lon="-0.555739">
        <ele>574.082</ele>
        <time>2020-10-18T11:19:24Z</time>
      </trkpt>
      <trkpt lat="38.778246" lon="-0.555664">
        <ele>573.482</ele>
        <time>2020-10-18T11:19:27Z</time>
      </trkpt>
      <trkpt lat="38.778361" lon="-0.555624">
        <ele>573.264</ele>
        <time>2020-10-18T11:19:29Z</time>
      </trkpt>
      <trkpt lat="38.778531" lon="-0.555574">
        <ele>572.896</ele>
        <time>2020-10-18T11:19:32Z</time>
      </trkpt>
      <trkpt lat="38.778589" lon="-0.555555">
        <ele>572.852</ele>
        <time>2020-10-18T11:19:33Z</time>
      </trkpt>
      <trkpt lat="38.778708" lon="-0.555514">
        <ele>572.480</ele>
        <time>2020-10-18T11:19:35Z</time>
      </trkpt>
      <trkpt lat="38.778967" lon="-0.555433">
        <ele>571.222</ele>
        <time>2020-10-18T11:19:39Z</time>
      </trkpt>
      <trkpt lat="38.779136" lon="-0.555383">
        <ele>570.824</ele>
        <time>2020-10-18T11:19:42Z</time>
      </trkpt>
      <trkpt lat="38.779376" lon="-0.555302">
        <ele>570.404</ele>
        <time>2020-10-18T11:19:46Z</time>
      </trkpt>
      <trkpt lat="38.779494" lon="-0.555265">
        <ele>570.214</ele>
        <time>2020-10-18T11:19:48Z</time>
      </trkpt>
      <trkpt lat="38.779676" lon="-0.555207">
        <ele>570.208</ele>
        <time>2020-10-18T11:19:51Z</time>
      </trkpt>
      <trkpt lat="38.779853" lon="-0.555137">
        <ele>569.867</ele>
        <time>2020-10-18T11:19:54Z</time>
      </trkpt>
      <trkpt lat="38.779908" lon="-0.555117">
        <ele>569.830</ele>
        <time>2020-10-18T11:19:55Z</time>
      </trkpt>
      <trkpt lat="38.780086" lon="-0.555079">
        <ele>569.250</ele>
        <time>2020-10-18T11:19:58Z</time>
      </trkpt>
      <trkpt lat="38.780150" lon="-0.555062">
        <ele>569.062</ele>
        <time>2020-10-18T11:19:59Z</time>
      </trkpt>
      <trkpt lat="38.780534" lon="-0.554920">
        <ele>568.844</ele>
        <time>2020-10-18T11:20:05Z</time>
      </trkpt>
      <trkpt lat="38.780779" lon="-0.554836">
        <ele>568.010</ele>
        <time>2020-10-18T11:20:09Z</time>
      </trkpt>
      <trkpt lat="38.781092" lon="-0.554724">
        <ele>567.498</ele>
        <time>2020-10-18T11:20:14Z</time>
      </trkpt>
      <trkpt lat="38.781216" lon="-0.554682">
        <ele>567.080</ele>
        <time>2020-10-18T11:20:16Z</time>
      </trkpt>
      <trkpt lat="38.781278" lon="-0.554661">
        <ele>566.852</ele>
        <time>2020-10-18T11:20:17Z</time>
      </trkpt>
      <trkpt lat="38.781750" lon="-0.554513">
        <ele>566.053</ele>
        <time>2020-10-18T11:20:24Z</time>
      </trkpt>
      <trkpt lat="38.781872" lon="-0.554457">
        <ele>565.808</ele>
        <time>2020-10-18T11:20:26Z</time>
      </trkpt>
      <trkpt lat="38.782305" lon="-0.554312">
        <ele>564.808</ele>
        <time>2020-10-18T11:20:32Z</time>
      </trkpt>
      <trkpt lat="38.782657" lon="-0.554187">
        <ele>563.840</ele>
        <time>2020-10-18T11:20:37Z</time>
      </trkpt>
      <trkpt lat="38.782786" lon="-0.554154">
        <ele>563.633</ele>
        <time>2020-10-18T11:20:39Z</time>
      </trkpt>
      <trkpt lat="38.783206" lon="-0.554020">
        <ele>563.283</ele>
        <time>2020-10-18T11:20:45Z</time>
      </trkpt>
      <trkpt lat="38.783259" lon="-0.554001">
        <ele>563.255</ele>
        <time>2020-10-18T11:20:46Z</time>
      </trkpt>
      <trkpt lat="38.783520" lon="-0.553934">
        <ele>562.627</ele>
        <time>2020-10-18T11:20:50Z</time>
      </trkpt>
      <trkpt lat="38.783585" lon="-0.553909">
        <ele>562.433</ele>
        <time>2020-10-18T11:20:51Z</time>
      </trkpt>
      <trkpt lat="38.783788" lon="-0.553829">
        <ele>561.691</ele>
        <time>2020-10-18T11:20:54Z</time>
      </trkpt>
      <trkpt lat="38.784192" lon="-0.553700">
        <ele>561.073</ele>
        <time>2020-10-18T11:21:00Z</time>
      </trkpt>
      <trkpt lat="38.784769" lon="-0.553509">
        <ele>560.898</ele>
        <time>2020-10-18T11:21:09Z</time>
      </trkpt>
      <trkpt lat="38.784890" lon="-0.553470">
        <ele>560.815</ele>
        <time>2020-10-18T11:21:11Z</time>
      </trkpt>
      <trkpt lat="38.785304" lon="-0.553330">
        <ele>560.626</ele>
        <time>2020-10-18T11:21:18Z</time>
      </trkpt>
      <trkpt lat="38.785482" lon="-0.553270">
        <ele>560.608</ele>
        <time>2020-10-18T11:21:21Z</time>
      </trkpt>
      <trkpt lat="38.786047" lon="-0.553067">
        <ele>561.494</ele>
        <time>2020-10-18T11:21:31Z</time>
      </trkpt>
      <trkpt lat="38.786253" lon="-0.553010">
        <ele>562.067</ele>
        <time>2020-10-18T11:21:35Z</time>
      </trkpt>
      <trkpt lat="38.786441" lon="-0.552953">
        <ele>562.447</ele>
        <time>2020-10-18T11:21:39Z</time>
      </trkpt>
      <trkpt lat="38.786635" lon="-0.552881">
        <ele>562.669</ele>
        <time>2020-10-18T11:21:43Z</time>
      </trkpt>
      <trkpt lat="38.786876" lon="-0.552799">
        <ele>563.831</ele>
        <time>2020-10-18T11:21:48Z</time>
      </trkpt>
      <trkpt lat="38.787308" lon="-0.552667">
        <ele>564.897</ele>
        <time>2020-10-18T11:21:58Z</time>
      </trkpt>
      <trkpt lat="38.787410" lon="-0.552630">
        <ele>565.065</ele>
        <time>2020-10-18T11:22:00Z</time>
      </trkpt>
      <trkpt lat="38.787809" lon="-0.552488">
        <ele>566.027</ele>
        <time>2020-10-18T11:22:09Z</time>
      </trkpt>
      <trkpt lat="38.787900" lon="-0.552459">
        <ele>566.299</ele>
        <time>2020-10-18T11:22:11Z</time>
      </trkpt>
      <trkpt lat="38.788240" lon="-0.552320">
        <ele>567.007</ele>
        <time>2020-10-18T11:22:19Z</time>
      </trkpt>
      <trkpt lat="38.788285" lon="-0.552294">
        <ele>567.027</ele>
        <time>2020-10-18T11:22:20Z</time>
      </trkpt>
      <trkpt lat="38.788319" lon="-0.552277">
        <ele>567.008</ele>
        <time>2020-10-18T11:22:21Z</time>
      </trkpt>
      <trkpt lat="38.788635" lon="-0.552037">
        <ele>567.674</ele>
        <time>2020-10-18T11:22:29Z</time>
      </trkpt>
      <trkpt lat="38.788890" lon="-0.551764">
        <ele>568.037</ele>
        <time>2020-10-18T11:22:36Z</time>
      </trkpt>
      <trkpt lat="38.788966" lon="-0.551688">
        <ele>568.077</ele>
        <time>2020-10-18T11:22:38Z</time>
      </trkpt>
      <trkpt lat="38.789189" lon="-0.551445">
        <ele>568.489</ele>
        <time>2020-10-18T11:22:44Z</time>
      </trkpt>
      <trkpt lat="38.789330" lon="-0.551284">
        <ele>569.231</ele>
        <time>2020-10-18T11:22:48Z</time>
      </trkpt>
      <trkpt lat="38.789400" lon="-0.551207">
        <ele>569.487</ele>
        <time>2020-10-18T11:22:50Z</time>
      </trkpt>
      <trkpt lat="38.789764" lon="-0.550793">
        <ele>570.025</ele>
        <time>2020-10-18T11:23:00Z</time>
      </trkpt>
      <trkpt lat="38.789799" lon="-0.550751">
        <ele>570.277</ele>
        <time>2020-10-18T11:23:01Z</time>
      </trkpt>
      <trkpt lat="38.790136" lon="-0.550365">
        <ele>571.075</ele>
        <time>2020-10-18T11:23:10Z</time>
      </trkpt>
      <trkpt lat="38.790206" lon="-0.550283">
        <ele>571.228</ele>
        <time>2020-10-18T11:23:12Z</time>
      </trkpt>
      <trkpt lat="38.790463" lon="-0.549983">
        <ele>571.820</ele>
        <time>2020-10-18T11:23:19Z</time>
      </trkpt>
      <trkpt lat="38.790663" lon="-0.549736">
        <ele>572.208</ele>
        <time>2020-10-18T11:23:25Z</time>
      </trkpt>
      <trkpt lat="38.790738" lon="-0.549654">
        <ele>572.422</ele>
        <time>2020-10-18T11:23:27Z</time>
      </trkpt>
      <trkpt lat="38.791001" lon="-0.549376">
        <ele>573.295</ele>
        <time>2020-10-18T11:23:34Z</time>
      </trkpt>
      <trkpt lat="38.791190" lon="-0.549176">
        <ele>573.675</ele>
        <time>2020-10-18T11:23:39Z</time>
      </trkpt>
      <trkpt lat="38.791447" lon="-0.548889">
        <ele>574.297</ele>
        <time>2020-10-18T11:23:46Z</time>
      </trkpt>
      <trkpt lat="38.791597" lon="-0.548730">
        <ele>574.439</ele>
        <time>2020-10-18T11:23:50Z</time>
      </trkpt>
      <trkpt lat="38.791673" lon="-0.548642">
        <ele>574.455</ele>
        <time>2020-10-18T11:23:52Z</time>
      </trkpt>
      <trkpt lat="38.791846" lon="-0.548441">
        <ele>574.633</ele>
        <time>2020-10-18T11:23:57Z</time>
      </trkpt>
      <trkpt lat="38.792069" lon="-0.548200">
        <ele>574.845</ele>
        <time>2020-10-18T11:24:03Z</time>
      </trkpt>
      <trkpt lat="38.792483" lon="-0.547738">
        <ele>574.815</ele>
        <time>2020-10-18T11:24:14Z</time>
      </trkpt>
      <trkpt lat="38.792717" lon="-0.547487">
        <ele>574.865</ele>
        <time>2020-10-18T11:24:20Z</time>
      </trkpt>
      <trkpt lat="38.792995" lon="-0.547172">
        <ele>575.011</ele>
        <time>2020-10-18T11:24:27Z</time>
      </trkpt>
      <trkpt lat="38.793294" lon="-0.546694">
        <ele>574.808</ele>
        <time>2020-10-18T11:24:36Z</time>
      </trkpt>
      <trkpt lat="38.793399" lon="-0.546459">
        <ele>574.636</ele>
        <time>2020-10-18T11:24:40Z</time>
      </trkpt>
      <trkpt lat="38.793466" lon="-0.546285">
        <ele>574.479</ele>
        <time>2020-10-18T11:24:43Z</time>
      </trkpt>
      <trkpt lat="38.793491" lon="-0.546205">
        <ele>574.679</ele>
        <time>2020-10-18T11:24:44Z</time>
      </trkpt>
      <trkpt lat="38.793570" lon="-0.545945">
        <ele>574.821</ele>
        <time>2020-10-18T11:24:48Z</time>
      </trkpt>
      <trkpt lat="38.793635" lon="-0.545652">
        <ele>574.853</ele>
        <time>2020-10-18T11:24:52Z</time>
      </trkpt>
      <trkpt lat="38.793716" lon="-0.545306">
        <ele>574.639</ele>
        <time>2020-10-18T11:24:57Z</time>
      </trkpt>
      <trkpt lat="38.793755" lon="-0.545104">
        <ele>574.677</ele>
        <time>2020-10-18T11:25:00Z</time>
      </trkpt>
      <trkpt lat="38.793891" lon="-0.544434">
        <ele>575.089</ele>
        <time>2020-10-18T11:25:10Z</time>
      </trkpt>
      <trkpt lat="38.793903" lon="-0.544369">
        <ele>575.039</ele>
        <time>2020-10-18T11:25:11Z</time>
      </trkpt>
      <trkpt lat="38.793991" lon="-0.543935">
        <ele>575.401</ele>
        <time>2020-10-18T11:25:18Z</time>
      </trkpt>
      <trkpt lat="38.794039" lon="-0.543703">
        <ele>576.021</ele>
        <time>2020-10-18T11:25:22Z</time>
      </trkpt>
      <trkpt lat="38.794072" lon="-0.543531">
        <ele>576.608</ele>
        <time>2020-10-18T11:25:25Z</time>
      </trkpt>
      <trkpt lat="38.794092" lon="-0.543419">
        <ele>576.648</ele>
        <time>2020-10-18T11:25:27Z</time>
      </trkpt>
      <trkpt lat="38.794128" lon="-0.543250">
        <ele>576.811</ele>
        <time>2020-10-18T11:25:30Z</time>
      </trkpt>
      <trkpt lat="38.794166" lon="-0.543077">
        <ele>577.021</ele>
        <time>2020-10-18T11:25:33Z</time>
      </trkpt>
      <trkpt lat="38.794208" lon="-0.542900">
        <ele>577.643</ele>
        <time>2020-10-18T11:25:36Z</time>
      </trkpt>
      <trkpt lat="38.794303" lon="-0.542483">
        <ele>578.695</ele>
        <time>2020-10-18T11:25:43Z</time>
      </trkpt>
      <trkpt lat="38.794314" lon="-0.542427">
        <ele>578.611</ele>
        <time>2020-10-18T11:25:44Z</time>
      </trkpt>
      <trkpt lat="38.794343" lon="-0.542260">
        <ele>579.269</ele>
        <time>2020-10-18T11:25:47Z</time>
      </trkpt>
      <trkpt lat="38.794408" lon="-0.541976">
        <ele>579.851</ele>
        <time>2020-10-18T11:25:52Z</time>
      </trkpt>
      <trkpt lat="38.794430" lon="-0.541868">
        <ele>580.051</ele>
        <time>2020-10-18T11:25:54Z</time>
      </trkpt>
      <trkpt lat="38.794484" lon="-0.541585">
        <ele>580.801</ele>
        <time>2020-10-18T11:25:59Z</time>
      </trkpt>
      <trkpt lat="38.794555" lon="-0.541234">
        <ele>581.411</ele>
        <time>2020-10-18T11:26:05Z</time>
      </trkpt>
      <trkpt lat="38.794646" lon="-0.540817">
        <ele>582.008</ele>
        <time>2020-10-18T11:26:12Z</time>
      </trkpt>
      <trkpt lat="38.794668" lon="-0.540713">
        <ele>582.270</ele>
        <time>2020-10-18T11:26:14Z</time>
      </trkpt>
      <trkpt lat="38.794783" lon="-0.540190">
        <ele>583.063</ele>
        <time>2020-10-18T11:26:23Z</time>
      </trkpt>
      <trkpt lat="38.794791" lon="-0.540139">
        <ele>583.243</ele>
        <time>2020-10-18T11:26:24Z</time>
      </trkpt>
      <trkpt lat="38.794900" lon="-0.539688">
        <ele>584.215</ele>
        <time>2020-10-18T11:26:32Z</time>
      </trkpt>
      <trkpt lat="38.794908" lon="-0.539643">
        <ele>584.217</ele>
        <time>2020-10-18T11:26:33Z</time>
      </trkpt>
      <trkpt lat="38.794995" lon="-0.539200">
        <ele>585.433</ele>
        <time>2020-10-18T11:26:41Z</time>
      </trkpt>
      <trkpt lat="38.795016" lon="-0.539089">
        <ele>585.661</ele>
        <time>2020-10-18T11:26:43Z</time>
      </trkpt>
      <trkpt lat="38.795138" lon="-0.538504">
        <ele>586.063</ele>
        <time>2020-10-18T11:26:54Z</time>
      </trkpt>
      <trkpt lat="38.795184" lon="-0.538244">
        <ele>586.426</ele>
        <time>2020-10-18T11:26:59Z</time>
      </trkpt>
      <trkpt lat="38.795217" lon="-0.538093">
        <ele>587.047</ele>
        <time>2020-10-18T11:27:02Z</time>
      </trkpt>
      <trkpt lat="38.795254" lon="-0.537937">
        <ele>587.411</ele>
        <time>2020-10-18T11:27:05Z</time>
      </trkpt>
      <trkpt lat="38.795303" lon="-0.537684">
        <ele>587.808</ele>
        <time>2020-10-18T11:27:10Z</time>
      </trkpt>
      <trkpt lat="38.795355" lon="-0.537426">
        <ele>588.447</ele>
        <time>2020-10-18T11:27:15Z</time>
      </trkpt>
      <trkpt lat="38.795429" lon="-0.537074">
        <ele>589.050</ele>
        <time>2020-10-18T11:27:22Z</time>
      </trkpt>
      <trkpt lat="38.795472" lon="-0.536860">
        <ele>589.490</ele>
        <time>2020-10-18T11:27:26Z</time>
      </trkpt>
      <trkpt lat="38.795541" lon="-0.536508">
        <ele>590.262</ele>
        <time>2020-10-18T11:27:33Z</time>
      </trkpt>
      <trkpt lat="38.795569" lon="-0.536371">
        <ele>590.664</ele>
        <time>2020-10-18T11:27:36Z</time>
      </trkpt>
      <trkpt lat="38.795627" lon="-0.536061">
        <ele>591.270</ele>
        <time>2020-10-18T11:27:42Z</time>
      </trkpt>
      <trkpt lat="38.795661" lon="-0.535904">
        <ele>591.638</ele>
        <time>2020-10-18T11:27:45Z</time>
      </trkpt>
      <trkpt lat="38.795735" lon="-0.535544">
        <ele>592.630</ele>
        <time>2020-10-18T11:27:52Z</time>
      </trkpt>
      <trkpt lat="38.795760" lon="-0.535426">
        <ele>592.839</ele>
        <time>2020-10-18T11:27:54Z</time>
      </trkpt>
      <trkpt lat="38.795827" lon="-0.535082">
        <ele>593.201</ele>
        <time>2020-10-18T11:28:01Z</time>
      </trkpt>
      <trkpt lat="38.795888" lon="-0.534795">
        <ele>593.821</ele>
        <time>2020-10-18T11:28:07Z</time>
      </trkpt>
      <trkpt lat="38.795924" lon="-0.534614">
        <ele>594.008</ele>
        <time>2020-10-18T11:28:11Z</time>
      </trkpt>
      <trkpt lat="38.795937" lon="-0.534307">
        <ele>594.868</ele>
        <time>2020-10-18T11:28:18Z</time>
      </trkpt>
      <trkpt lat="38.795916" lon="-0.534209">
        <ele>595.241</ele>
        <time>2020-10-18T11:28:21Z</time>
      </trkpt>
      <trkpt lat="38.795944" lon="-0.534126">
        <ele>595.221</ele>
        <time>2020-10-18T11:28:23Z</time>
      </trkpt>
      <trkpt lat="38.796034" lon="-0.533695">
        <ele>595.883</ele>
        <time>2020-10-18T11:28:32Z</time>
      </trkpt>
      <trkpt lat="38.796046" lon="-0.533600">
        <ele>596.065</ele>
        <time>2020-10-18T11:28:34Z</time>
      </trkpt>
      <trkpt lat="38.796049" lon="-0.533407">
        <ele>596.451</ele>
        <time>2020-10-18T11:28:38Z</time>
      </trkpt>
      <trkpt lat="38.796070" lon="-0.533081">
        <ele>596.869</ele>
        <time>2020-10-18T11:28:45Z</time>
      </trkpt>
      <trkpt lat="38.796115" lon="-0.532836">
        <ele>596.861</ele>
        <time>2020-10-18T11:28:50Z</time>
      </trkpt>
      <trkpt lat="38.796145" lon="-0.532545">
        <ele>597.097</ele>
        <time>2020-10-18T11:28:56Z</time>
      </trkpt>
      <trkpt lat="38.796151" lon="-0.532446">
        <ele>597.023</ele>
        <time>2020-10-18T11:28:58Z</time>
      </trkpt>
      <trkpt lat="38.796151" lon="-0.532282">
        <ele>597.025</ele>
        <time>2020-10-18T11:29:01Z</time>
      </trkpt>
      <trkpt lat="38.796157" lon="-0.532077">
        <ele>597.408</ele>
        <time>2020-10-18T11:29:05Z</time>
      </trkpt>
      <trkpt lat="38.796181" lon="-0.531857">
        <ele>598.024</ele>
        <time>2020-10-18T11:29:09Z</time>
      </trkpt>
      <trkpt lat="38.796205" lon="-0.531701">
        <ele>598.447</ele>
        <time>2020-10-18T11:29:12Z</time>
      </trkpt>
      <trkpt lat="38.796215" lon="-0.531652">
        <ele>598.627</ele>
        <time>2020-10-18T11:29:13Z</time>
      </trkpt>
      <trkpt lat="38.796277" lon="-0.531398">
        <ele>598.639</ele>
        <time>2020-10-18T11:29:18Z</time>
      </trkpt>
      <trkpt lat="38.796373" lon="-0.531096">
        <ele>599.061</ele>
        <time>2020-10-18T11:29:25Z</time>
      </trkpt>
      <trkpt lat="38.796397" lon="-0.531022">
        <ele>599.047</ele>
        <time>2020-10-18T11:29:27Z</time>
      </trkpt>
      <trkpt lat="38.796435" lon="-0.530829">
        <ele>599.635</ele>
        <time>2020-10-18T11:29:31Z</time>
      </trkpt>
      <trkpt lat="38.796446" lon="-0.530697">
        <ele>600.277</ele>
        <time>2020-10-18T11:29:34Z</time>
      </trkpt>
      <trkpt lat="38.796480" lon="-0.530493">
        <ele>601.436</ele>
        <time>2020-10-18T11:29:39Z</time>
      </trkpt>
      <trkpt lat="38.796489" lon="-0.530451">
        <ele>601.617</ele>
        <time>2020-10-18T11:29:40Z</time>
      </trkpt>
      <trkpt lat="38.796522" lon="-0.530232">
        <ele>602.018</ele>
        <time>2020-10-18T11:29:45Z</time>
      </trkpt>
      <trkpt lat="38.796546" lon="-0.530062">
        <ele>602.608</ele>
        <time>2020-10-18T11:29:49Z</time>
      </trkpt>
      <trkpt lat="38.796561" lon="-0.529959">
        <ele>602.888</ele>
        <time>2020-10-18T11:29:51Z</time>
      </trkpt>
      <trkpt lat="38.796649" lon="-0.529569">
        <ele>603.091</ele>
        <time>2020-10-18T11:29:59Z</time>
      </trkpt>
      <trkpt lat="38.796726" lon="-0.529276">
        <ele>603.691</ele>
        <time>2020-10-18T11:30:05Z</time>
      </trkpt>
      <trkpt lat="38.796742" lon="-0.529226">
        <ele>603.653</ele>
        <time>2020-10-18T11:30:06Z</time>
      </trkpt>
      <trkpt lat="38.796786" lon="-0.529075">
        <ele>603.635</ele>
        <time>2020-10-18T11:30:09Z</time>
      </trkpt>
      <trkpt lat="38.796816" lon="-0.528977">
        <ele>603.651</ele>
        <time>2020-10-18T11:30:11Z</time>
      </trkpt>
      <trkpt lat="38.796904" lon="-0.528675">
        <ele>604.269</ele>
        <time>2020-10-18T11:30:17Z</time>
      </trkpt>
      <trkpt lat="38.796921" lon="-0.528595">
        <ele>604.671</ele>
        <time>2020-10-18T11:30:19Z</time>
      </trkpt>
      <trkpt lat="38.796983" lon="-0.528294">
        <ele>605.656</ele>
        <time>2020-10-18T11:30:25Z</time>
      </trkpt>
      <trkpt lat="38.796991" lon="-0.528246">
        <ele>605.659</ele>
        <time>2020-10-18T11:30:26Z</time>
      </trkpt>
      <trkpt lat="38.797034" lon="-0.527721">
        <ele>606.414</ele>
        <time>2020-10-18T11:30:36Z</time>
      </trkpt>
      <trkpt lat="38.797024" lon="-0.527517">
        <ele>606.808</ele>
        <time>2020-10-18T11:30:40Z</time>
      </trkpt>
      <trkpt lat="38.797004" lon="-0.527276">
        <ele>607.230</ele>
        <time>2020-10-18T11:30:45Z</time>
      </trkpt>
      <trkpt lat="38.796993" lon="-0.527076">
        <ele>607.833</ele>
        <time>2020-10-18T11:30:49Z</time>
      </trkpt>
      <trkpt lat="38.796983" lon="-0.526918">
        <ele>608.453</ele>
        <time>2020-10-18T11:30:52Z</time>
      </trkpt>
      <trkpt lat="38.796973" lon="-0.526498">
        <ele>608.895</ele>
        <time>2020-10-18T11:31:00Z</time>
      </trkpt>
      <trkpt lat="38.796973" lon="-0.526446">
        <ele>609.087</ele>
        <time>2020-10-18T11:31:01Z</time>
      </trkpt>
      <trkpt lat="38.796958" lon="-0.525989">
        <ele>609.273</ele>
        <time>2020-10-18T11:31:10Z</time>
      </trkpt>
      <trkpt lat="38.796935" lon="-0.525573">
        <ele>609.851</ele>
        <time>2020-10-18T11:31:18Z</time>
      </trkpt>
      <trkpt lat="38.796936" lon="-0.525467">
        <ele>610.043</ele>
        <time>2020-10-18T11:31:20Z</time>
      </trkpt>
      <trkpt lat="38.796932" lon="-0.525196">
        <ele>610.689</ele>
        <time>2020-10-18T11:31:25Z</time>
      </trkpt>
      <trkpt lat="38.796932" lon="-0.524985">
        <ele>610.606</ele>
        <time>2020-10-18T11:31:29Z</time>
      </trkpt>
      <trkpt lat="38.796934" lon="-0.524836">
        <ele>611.026</ele>
        <time>2020-10-18T11:31:32Z</time>
      </trkpt>
      <trkpt lat="38.796913" lon="-0.524454">
        <ele>611.408</ele>
        <time>2020-10-18T11:31:40Z</time>
      </trkpt>
      <trkpt lat="38.796905" lon="-0.524336">
        <ele>611.843</ele>
        <time>2020-10-18T11:31:43Z</time>
      </trkpt>
      <trkpt lat="38.796921" lon="-0.524318">
        <ele>612.076</ele>
        <time>2020-10-18T11:31:44Z</time>
      </trkpt>
      <trkpt lat="38.797038" lon="-0.524309">
        <ele>612.646</ele>
        <time>2020-10-18T11:31:48Z</time>
      </trkpt>
      <trkpt lat="38.797267" lon="-0.524303">
        <ele>613.098</ele>
        <time>2020-10-18T11:31:54Z</time>
      </trkpt>
      <trkpt lat="38.797300" lon="-0.524294">
        <ele>612.860</ele>
        <time>2020-10-18T11:31:55Z</time>
      </trkpt>
      <trkpt lat="38.797428" lon="-0.524189">
        <ele>612.686</ele>
        <time>2020-10-18T11:31:59Z</time>
      </trkpt>
      <trkpt lat="38.797618" lon="-0.524053">
        <ele>612.414</ele>
        <time>2020-10-18T11:32:05Z</time>
      </trkpt>
      <trkpt lat="38.797852" lon="-0.524046">
        <ele>611.616</ele>
        <time>2020-10-18T11:32:10Z</time>
      </trkpt>
      <trkpt lat="38.797891" lon="-0.524051">
        <ele>611.631</ele>
        <time>2020-10-18T11:32:11Z</time>
      </trkpt>
      <trkpt lat="38.798019" lon="-0.524064">
        <ele>611.661</ele>
        <time>2020-10-18T11:32:14Z</time>
      </trkpt>
      <trkpt lat="38.798083" lon="-0.524069">
        <ele>612.007</ele>
        <time>2020-10-18T11:32:16Z</time>
      </trkpt>
      <trkpt lat="38.798212" lon="-0.524069">
        <ele>613.208</ele>
        <time>2020-10-18T11:32:20Z</time>
      </trkpt>
      <trkpt lat="38.798274" lon="-0.524074">
        <ele>613.828</ele>
        <time>2020-10-18T11:32:22Z</time>
      </trkpt>
      <trkpt lat="38.798367" lon="-0.524072">
        <ele>614.491</ele>
        <time>2020-10-18T11:32:25Z</time>
      </trkpt>
      <trkpt lat="38.798491" lon="-0.524070">
        <ele>615.441</ele>
        <time>2020-10-18T11:32:29Z</time>
      </trkpt>
      <trkpt lat="38.798527" lon="-0.524073">
        <ele>615.673</ele>
        <time>2020-10-18T11:32:30Z</time>
      </trkpt>
      <trkpt lat="38.798674" lon="-0.524076">
        <ele>617.055</ele>
        <time>2020-10-18T11:32:35Z</time>
      </trkpt>
      <trkpt lat="38.798724" lon="-0.524091">
        <ele>617.451</ele>
        <time>2020-10-18T11:32:37Z</time>
      </trkpt>
      <trkpt lat="38.798792" lon="-0.524124">
        <ele>618.099</ele>
        <time>2020-10-18T11:32:40Z</time>
      </trkpt>
      <trkpt lat="38.798927" lon="-0.524162">
        <ele>619.021</ele>
        <time>2020-10-18T11:32:45Z</time>
      </trkpt>
      <trkpt lat="38.798956" lon="-0.524168">
        <ele>619.037</ele>
        <time>2020-10-18T11:32:46Z</time>
      </trkpt>
      <trkpt lat="38.799067" lon="-0.524189">
        <ele>619.449</ele>
        <time>2020-10-18T11:32:50Z</time>
      </trkpt>
      <trkpt lat="38.799270" lon="-0.524196">
        <ele>620.013</ele>
        <time>2020-10-18T11:32:57Z</time>
      </trkpt>
      <trkpt lat="38.799298" lon="-0.524200">
        <ele>620.008</ele>
        <time>2020-10-18T11:32:58Z</time>
      </trkpt>
      <trkpt lat="38.799529" lon="-0.524250">
        <ele>620.688</ele>
        <time>2020-10-18T11:33:06Z</time>
      </trkpt>
      <trkpt lat="38.799674" lon="-0.524286">
        <ele>621.211</ele>
        <time>2020-10-18T11:33:11Z</time>
      </trkpt>
      <trkpt lat="38.799733" lon="-0.524305">
        <ele>621.441</ele>
        <time>2020-10-18T11:33:13Z</time>
      </trkpt>
      <trkpt lat="38.799950" lon="-0.524380">
        <ele>622.273</ele>
        <time>2020-10-18T11:33:20Z</time>
      </trkpt>
      <trkpt lat="38.800011" lon="-0.524402">
        <ele>622.425</ele>
        <time>2020-10-18T11:33:22Z</time>
      </trkpt>
      <trkpt lat="38.800125" lon="-0.524428">
        <ele>623.241</ele>
        <time>2020-10-18T11:33:26Z</time>
      </trkpt>
      <trkpt lat="38.800303" lon="-0.524459">
        <ele>624.429</ele>
        <time>2020-10-18T11:33:32Z</time>
      </trkpt>
      <trkpt lat="38.800419" lon="-0.524489">
        <ele>625.461</ele>
        <time>2020-10-18T11:33:36Z</time>
      </trkpt>
      <trkpt lat="38.800590" lon="-0.524528">
        <ele>626.492</ele>
        <time>2020-10-18T11:33:42Z</time>
      </trkpt>
      <trkpt lat="38.800616" lon="-0.524535">
        <ele>626.673</ele>
        <time>2020-10-18T11:33:43Z</time>
      </trkpt>
      <trkpt lat="38.800756" lon="-0.524573">
        <ele>627.620</ele>
        <time>2020-10-18T11:33:48Z</time>
      </trkpt>
      <trkpt lat="38.800885" lon="-0.524602">
        <ele>628.608</ele>
        <time>2020-10-18T11:33:53Z</time>
      </trkpt>
      <trkpt lat="38.800912" lon="-0.524609">
        <ele>628.874</ele>
        <time>2020-10-18T11:33:54Z</time>
      </trkpt>
      <trkpt lat="38.801059" lon="-0.524670">
        <ele>629.887</ele>
        <time>2020-10-18T11:34:00Z</time>
      </trkpt>
      <trkpt lat="38.801083" lon="-0.524681">
        <ele>630.087</ele>
        <time>2020-10-18T11:34:01Z</time>
      </trkpt>
      <trkpt lat="38.801185" lon="-0.524713">
        <ele>630.499</ele>
        <time>2020-10-18T11:34:05Z</time>
      </trkpt>
      <trkpt lat="38.801263" lon="-0.524729">
        <ele>630.861</ele>
        <time>2020-10-18T11:34:08Z</time>
      </trkpt>
      <trkpt lat="38.801388" lon="-0.524759">
        <ele>631.477</ele>
        <time>2020-10-18T11:34:13Z</time>
      </trkpt>
      <trkpt lat="38.801462" lon="-0.524775">
        <ele>631.865</ele>
        <time>2020-10-18T11:34:16Z</time>
      </trkpt>
      <trkpt lat="38.801659" lon="-0.524803">
        <ele>632.887</ele>
        <time>2020-10-18T11:34:24Z</time>
      </trkpt>
      <trkpt lat="38.801705" lon="-0.524804">
        <ele>633.076</ele>
        <time>2020-10-18T11:34:26Z</time>
      </trkpt>
      <trkpt lat="38.801846" lon="-0.524810">
        <ele>634.290</ele>
        <time>2020-10-18T11:34:32Z</time>
      </trkpt>
      <trkpt lat="38.801868" lon="-0.524815">
        <ele>634.419</ele>
        <time>2020-10-18T11:34:33Z</time>
      </trkpt>
      <trkpt lat="38.801989" lon="-0.524832">
        <ele>635.208</ele>
        <time>2020-10-18T11:34:38Z</time>
      </trkpt>
      <trkpt lat="38.802156" lon="-0.524847">
        <ele>636.452</ele>
        <time>2020-10-18T11:34:45Z</time>
      </trkpt>
      <trkpt lat="38.802203" lon="-0.524855">
        <ele>637.035</ele>
        <time>2020-10-18T11:34:47Z</time>
      </trkpt>
      <trkpt lat="38.802250" lon="-0.524863">
        <ele>637.415</ele>
        <time>2020-10-18T11:34:49Z</time>
      </trkpt>
      <trkpt lat="38.802396" lon="-0.524900">
        <ele>638.467</ele>
        <time>2020-10-18T11:34:56Z</time>
      </trkpt>
      <trkpt lat="38.802415" lon="-0.524906">
        <ele>638.639</ele>
        <time>2020-10-18T11:34:57Z</time>
      </trkpt>
      <trkpt lat="38.802517" lon="-0.524937">
        <ele>639.695</ele>
        <time>2020-10-18T11:35:02Z</time>
      </trkpt>
      <trkpt lat="38.802637" lon="-0.524959">
        <ele>640.483</ele>
        <time>2020-10-18T11:35:07Z</time>
      </trkpt>
      <trkpt lat="38.802685" lon="-0.524969">
        <ele>640.675</ele>
        <time>2020-10-18T11:35:09Z</time>
      </trkpt>
      <trkpt lat="38.802815" lon="-0.525008">
        <ele>641.664</ele>
        <time>2020-10-18T11:35:15Z</time>
      </trkpt>
      <trkpt lat="38.802839" lon="-0.525013">
        <ele>641.806</ele>
        <time>2020-10-18T11:35:16Z</time>
      </trkpt>
      <trkpt lat="38.802961" lon="-0.525038">
        <ele>642.816</ele>
        <time>2020-10-18T11:35:21Z</time>
      </trkpt>
      <trkpt lat="38.803078" lon="-0.525098">
        <ele>643.608</ele>
        <time>2020-10-18T11:35:26Z</time>
      </trkpt>
      <trkpt lat="38.803098" lon="-0.525117">
        <ele>643.871</ele>
        <time>2020-10-18T11:35:27Z</time>
      </trkpt>
      <trkpt lat="38.803214" lon="-0.525226">
        <ele>644.474</ele>
        <time>2020-10-18T11:35:33Z</time>
      </trkpt>
      <trkpt lat="38.803289" lon="-0.525346">
        <ele>644.824</ele>
        <time>2020-10-18T11:35:38Z</time>
      </trkpt>
      <trkpt lat="38.803335" lon="-0.525460">
        <ele>645.066</ele>
        <time>2020-10-18T11:35:42Z</time>
      </trkpt>
      <trkpt lat="38.803430" lon="-0.525727">
        <ele>645.478</ele>
        <time>2020-10-18T11:35:50Z</time>
      </trkpt>
      <trkpt lat="38.803451" lon="-0.525755">
        <ele>645.624</ele>
        <time>2020-10-18T11:35:51Z</time>
      </trkpt>
      <trkpt lat="38.803579" lon="-0.525845">
        <ele>646.072</ele>
        <time>2020-10-18T11:35:56Z</time>
      </trkpt>
      <trkpt lat="38.803609" lon="-0.525849">
        <ele>646.084</ele>
        <time>2020-10-18T11:35:57Z</time>
      </trkpt>
      <trkpt lat="38.803732" lon="-0.525826">
        <ele>646.231</ele>
        <time>2020-10-18T11:36:01Z</time>
      </trkpt>
      <trkpt lat="38.803794" lon="-0.525802">
        <ele>646.261</ele>
        <time>2020-10-18T11:36:03Z</time>
      </trkpt>
      <trkpt lat="38.803918" lon="-0.525786">
        <ele>646.207</ele>
        <time>2020-10-18T11:36:07Z</time>
      </trkpt>
      <trkpt lat="38.804082" lon="-0.525780">
        <ele>646.608</ele>
        <time>2020-10-18T11:36:12Z</time>
      </trkpt>
      <trkpt lat="38.804207" lon="-0.525811">
        <ele>646.868</ele>
        <time>2020-10-18T11:36:16Z</time>
      </trkpt>
      <trkpt lat="38.804283" lon="-0.525864">
        <ele>646.851</ele>
        <time>2020-10-18T11:36:19Z</time>
      </trkpt>
      <trkpt lat="38.804360" lon="-0.525954">
        <ele>646.641</ele>
        <time>2020-10-18T11:36:22Z</time>
      </trkpt>
      <trkpt lat="38.804427" lon="-0.526053">
        <ele>646.683</ele>
        <time>2020-10-18T11:36:25Z</time>
      </trkpt>
      <trkpt lat="38.804482" lon="-0.526143">
        <ele>647.095</ele>
        <time>2020-10-18T11:36:28Z</time>
      </trkpt>
      <trkpt lat="38.804565" lon="-0.526291">
        <ele>648.091</ele>
        <time>2020-10-18T11:36:33Z</time>
      </trkpt>
      <trkpt lat="38.804593" lon="-0.526346">
        <ele>648.249</ele>
        <time>2020-10-18T11:36:35Z</time>
      </trkpt>
      <trkpt lat="38.804642" lon="-0.526422">
        <ele>649.421</ele>
        <time>2020-10-18T11:36:38Z</time>
      </trkpt>
      <trkpt lat="38.804656" lon="-0.526446">
        <ele>649.857</ele>
        <time>2020-10-18T11:36:39Z</time>
      </trkpt>
      <trkpt lat="38.804712" lon="-0.526502">
        <ele>650.600</ele>
        <time>2020-10-18T11:36:42Z</time>
      </trkpt>
      <trkpt lat="38.804770" lon="-0.526550">
        <ele>651.420</ele>
        <time>2020-10-18T11:36:45Z</time>
      </trkpt>
      <trkpt lat="38.804791" lon="-0.526561">
        <ele>651.808</ele>
        <time>2020-10-18T11:36:46Z</time>
      </trkpt>
      <trkpt lat="38.804848" lon="-0.526602">
        <ele>652.620</ele>
        <time>2020-10-18T11:36:49Z</time>
      </trkpt>
      <trkpt lat="38.804868" lon="-0.526614">
        <ele>653.053</ele>
        <time>2020-10-18T11:36:50Z</time>
      </trkpt>
      <trkpt lat="38.804911" lon="-0.526634">
        <ele>653.623</ele>
        <time>2020-10-18T11:36:52Z</time>
      </trkpt>
      <trkpt lat="38.804953" lon="-0.526650">
        <ele>654.235</ele>
        <time>2020-10-18T11:36:54Z</time>
      </trkpt>
      <trkpt lat="38.804974" lon="-0.526661">
        <ele>654.477</ele>
        <time>2020-10-18T11:36:55Z</time>
      </trkpt>
      <trkpt lat="38.805041" lon="-0.526690">
        <ele>655.223</ele>
        <time>2020-10-18T11:36:58Z</time>
      </trkpt>
      <trkpt lat="38.805109" lon="-0.526706">
        <ele>656.281</ele>
        <time>2020-10-18T11:37:01Z</time>
      </trkpt>
      <trkpt lat="38.805132" lon="-0.526712">
        <ele>656.613</ele>
        <time>2020-10-18T11:37:02Z</time>
      </trkpt>
      <trkpt lat="38.805175" lon="-0.526721">
        <ele>657.296</ele>
        <time>2020-10-18T11:37:04Z</time>
      </trkpt>
      <trkpt lat="38.805195" lon="-0.526725">
        <ele>657.431</ele>
        <time>2020-10-18T11:37:05Z</time>
      </trkpt>
      <trkpt lat="38.805281" lon="-0.526754">
        <ele>658.424</ele>
        <time>2020-10-18T11:37:09Z</time>
      </trkpt>
      <trkpt lat="38.805302" lon="-0.526761">
        <ele>658.608</ele>
        <time>2020-10-18T11:37:10Z</time>
      </trkpt>
      <trkpt lat="38.805410" lon="-0.526774">
        <ele>659.494</ele>
        <time>2020-10-18T11:37:15Z</time>
      </trkpt>
      <trkpt lat="38.805430" lon="-0.526773">
        <ele>659.687</ele>
        <time>2020-10-18T11:37:16Z</time>
      </trkpt>
      <trkpt lat="38.805486" lon="-0.526771">
        <ele>660.077</ele>
        <time>2020-10-18T11:37:19Z</time>
      </trkpt>
      <trkpt lat="38.805563" lon="-0.526743">
        <ele>660.649</ele>
        <time>2020-10-18T11:37:23Z</time>
      </trkpt>
      <trkpt lat="38.805662" lon="-0.526707">
        <ele>661.411</ele>
        <time>2020-10-18T11:37:28Z</time>
      </trkpt>
      <trkpt lat="38.805683" lon="-0.526698">
        <ele>661.647</ele>
        <time>2020-10-18T11:37:29Z</time>
      </trkpt>
      <trkpt lat="38.805745" lon="-0.526667">
        <ele>662.885</ele>
        <time>2020-10-18T11:37:34Z</time>
      </trkpt>
      <trkpt lat="38.805828" lon="-0.526651">
        <ele>663.887</ele>
        <time>2020-10-18T11:37:39Z</time>
      </trkpt>
      <trkpt lat="38.805877" lon="-0.526652">
        <ele>664.233</ele>
        <time>2020-10-18T11:37:42Z</time>
      </trkpt>
      <trkpt lat="38.805930" lon="-0.526653">
        <ele>664.823</ele>
        <time>2020-10-18T11:37:45Z</time>
      </trkpt>
      <trkpt lat="38.806015" lon="-0.526649">
        <ele>665.815</ele>
        <time>2020-10-18T11:37:50Z</time>
      </trkpt>
      <trkpt lat="38.806052" lon="-0.526659">
        <ele>666.208</ele>
        <time>2020-10-18T11:37:52Z</time>
      </trkpt>
      <trkpt lat="38.806106" lon="-0.526665">
        <ele>667.018</ele>
        <time>2020-10-18T11:37:55Z</time>
      </trkpt>
      <trkpt lat="38.806178" lon="-0.526671">
        <ele>667.891</ele>
        <time>2020-10-18T11:37:59Z</time>
      </trkpt>
      <trkpt lat="38.806208" lon="-0.526683">
        <ele>668.221</ele>
        <time>2020-10-18T11:38:01Z</time>
      </trkpt>
      <trkpt lat="38.806272" lon="-0.526692">
        <ele>669.053</ele>
        <time>2020-10-18T11:38:05Z</time>
      </trkpt>
      <trkpt lat="38.806301" lon="-0.526700">
        <ele>669.485</ele>
        <time>2020-10-18T11:38:07Z</time>
      </trkpt>
      <trkpt lat="38.806373" lon="-0.526717">
        <ele>670.251</ele>
        <time>2020-10-18T11:38:11Z</time>
      </trkpt>
      <trkpt lat="38.806404" lon="-0.526731">
        <ele>670.499</ele>
        <time>2020-10-18T11:38:13Z</time>
      </trkpt>
      <trkpt lat="38.806490" lon="-0.526760">
        <ele>671.051</ele>
        <time>2020-10-18T11:38:18Z</time>
      </trkpt>
      <trkpt lat="38.806632" lon="-0.526828">
        <ele>671.482</ele>
        <time>2020-10-18T11:38:26Z</time>
      </trkpt>
      <trkpt lat="38.806643" lon="-0.526839">
        <ele>671.443</ele>
        <time>2020-10-18T11:38:27Z</time>
      </trkpt>
      <trkpt lat="38.806737" lon="-0.526914">
        <ele>672.417</ele>
        <time>2020-10-18T11:38:33Z</time>
      </trkpt>
      <trkpt lat="38.806812" lon="-0.526969">
        <ele>673.408</ele>
        <time>2020-10-18T11:38:38Z</time>
      </trkpt>
      <trkpt lat="38.806840" lon="-0.526994">
        <ele>673.623</ele>
        <time>2020-10-18T11:38:40Z</time>
      </trkpt>
      <trkpt lat="38.806898" lon="-0.527049">
        <ele>674.256</ele>
        <time>2020-10-18T11:38:44Z</time>
      </trkpt>
      <trkpt lat="38.806925" lon="-0.527091">
        <ele>674.616</ele>
        <time>2020-10-18T11:38:46Z</time>
      </trkpt>
      <trkpt lat="38.806977" lon="-0.527177">
        <ele>675.838</ele>
        <time>2020-10-18T11:38:51Z</time>
      </trkpt>
      <trkpt lat="38.806986" lon="-0.527195">
        <ele>676.270</ele>
        <time>2020-10-18T11:38:52Z</time>
      </trkpt>
      <trkpt lat="38.807025" lon="-0.527270">
        <ele>677.046</ele>
        <time>2020-10-18T11:38:56Z</time>
      </trkpt>
      <trkpt lat="38.807068" lon="-0.527323">
        <ele>678.094</ele>
        <time>2020-10-18T11:39:00Z</time>
      </trkpt>
      <trkpt lat="38.807114" lon="-0.527386">
        <ele>679.066</ele>
        <time>2020-10-18T11:39:04Z</time>
      </trkpt>
      <trkpt lat="38.807174" lon="-0.527472">
        <ele>680.227</ele>
        <time>2020-10-18T11:39:09Z</time>
      </trkpt>
      <trkpt lat="38.807230" lon="-0.527555">
        <ele>681.268</ele>
        <time>2020-10-18T11:39:14Z</time>
      </trkpt>
      <trkpt lat="38.807241" lon="-0.527572">
        <ele>681.414</ele>
        <time>2020-10-18T11:39:15Z</time>
      </trkpt>
      <trkpt lat="38.807269" lon="-0.527620">
        <ele>682.408</ele>
        <time>2020-10-18T11:39:18Z</time>
      </trkpt>
      <trkpt lat="38.807316" lon="-0.527696">
        <ele>683.057</ele>
        <time>2020-10-18T11:39:23Z</time>
      </trkpt>
      <trkpt lat="38.807329" lon="-0.527732">
        <ele>683.660</ele>
        <time>2020-10-18T11:39:25Z</time>
      </trkpt>
      <trkpt lat="38.807342" lon="-0.527771">
        <ele>684.050</ele>
        <time>2020-10-18T11:39:27Z</time>
      </trkpt>
      <trkpt lat="38.807360" lon="-0.527804">
        <ele>684.292</ele>
        <time>2020-10-18T11:39:29Z</time>
      </trkpt>
      <trkpt lat="38.807374" lon="-0.527846">
        <ele>684.864</ele>
        <time>2020-10-18T11:39:31Z</time>
      </trkpt>
      <trkpt lat="38.807405" lon="-0.527915">
        <ele>685.840</ele>
        <time>2020-10-18T11:39:35Z</time>
      </trkpt>
      <trkpt lat="38.807423" lon="-0.527955">
        <ele>686.238</ele>
        <time>2020-10-18T11:39:37Z</time>
      </trkpt>
      <trkpt lat="38.807475" lon="-0.528054">
        <ele>687.050</ele>
        <time>2020-10-18T11:39:42Z</time>
      </trkpt>
      <trkpt lat="38.807489" lon="-0.528070">
        <ele>687.288</ele>
        <time>2020-10-18T11:39:43Z</time>
      </trkpt>
      <trkpt lat="38.807549" lon="-0.528157">
        <ele>688.024</ele>
        <time>2020-10-18T11:39:48Z</time>
      </trkpt>
      <trkpt lat="38.807574" lon="-0.528186">
        <ele>688.426</ele>
        <time>2020-10-18T11:39:50Z</time>
      </trkpt>
      <trkpt lat="38.807628" lon="-0.528235">
        <ele>689.208</ele>
        <time>2020-10-18T11:39:54Z</time>
      </trkpt>
      <trkpt lat="38.807641" lon="-0.528249">
        <ele>689.443</ele>
        <time>2020-10-18T11:39:55Z</time>
      </trkpt>
      <trkpt lat="38.807732" lon="-0.528307">
        <ele>690.416</ele>
        <time>2020-10-18T11:40:00Z</time>
      </trkpt>
      <trkpt lat="38.807777" lon="-0.528337">
        <ele>691.236</ele>
        <time>2020-10-18T11:40:03Z</time>
      </trkpt>
      <trkpt lat="38.807786" lon="-0.528351">
        <ele>691.428</ele>
        <time>2020-10-18T11:40:04Z</time>
      </trkpt>
      <trkpt lat="38.807850" lon="-0.528422">
        <ele>692.480</ele>
        <time>2020-10-18T11:40:09Z</time>
      </trkpt>
      <trkpt lat="38.807871" lon="-0.528436">
        <ele>692.886</ele>
        <time>2020-10-18T11:40:10Z</time>
      </trkpt>
      <trkpt lat="38.807939" lon="-0.528453">
        <ele>693.694</ele>
        <time>2020-10-18T11:40:13Z</time>
      </trkpt>
      <trkpt lat="38.808004" lon="-0.528482">
        <ele>694.676</ele>
        <time>2020-10-18T11:40:17Z</time>
      </trkpt>
      <trkpt lat="38.808028" lon="-0.528491">
        <ele>694.677</ele>
        <time>2020-10-18T11:40:18Z</time>
      </trkpt>
      <trkpt lat="38.808096" lon="-0.528490">
        <ele>695.661</ele>
        <time>2020-10-18T11:40:21Z</time>
      </trkpt>
      <trkpt lat="38.808149" lon="-0.528491">
        <ele>696.227</ele>
        <time>2020-10-18T11:40:24Z</time>
      </trkpt>
      <trkpt lat="38.808217" lon="-0.528511">
        <ele>696.608</ele>
        <time>2020-10-18T11:40:27Z</time>
      </trkpt>
      <trkpt lat="38.808313" lon="-0.528526">
        <ele>697.042</ele>
        <time>2020-10-18T11:40:32Z</time>
      </trkpt>
      <trkpt lat="38.808496" lon="-0.528548">
        <ele>697.695</ele>
        <time>2020-10-18T11:40:41Z</time>
      </trkpt>
      <trkpt lat="38.808553" lon="-0.528571">
        <ele>698.445</ele>
        <time>2020-10-18T11:40:44Z</time>
      </trkpt>
      <trkpt lat="38.808583" lon="-0.528606">
        <ele>698.877</ele>
        <time>2020-10-18T11:40:46Z</time>
      </trkpt>
      <trkpt lat="38.808698" lon="-0.528739">
        <ele>698.659</ele>
        <time>2020-10-18T11:40:52Z</time>
      </trkpt>
      <trkpt lat="38.808862" lon="-0.528806">
        <ele>698.085</ele>
        <time>2020-10-18T11:40:57Z</time>
      </trkpt>
      <trkpt lat="38.808925" lon="-0.528804">
        <ele>697.693</ele>
        <time>2020-10-18T11:40:59Z</time>
      </trkpt>
      <trkpt lat="38.809000" lon="-0.528784">
        <ele>696.265</ele>
        <time>2020-10-18T11:41:02Z</time>
      </trkpt>
      <trkpt lat="38.809120" lon="-0.528803">
        <ele>696.077</ele>
        <time>2020-10-18T11:41:06Z</time>
      </trkpt>
      <trkpt lat="38.809179" lon="-0.528822">
        <ele>696.061</ele>
        <time>2020-10-18T11:41:08Z</time>
      </trkpt>
      <trkpt lat="38.809305" lon="-0.528854">
        <ele>696.027</ele>
        <time>2020-10-18T11:41:12Z</time>
      </trkpt>
      <trkpt lat="38.809471" lon="-0.528897">
        <ele>696.008</ele>
        <time>2020-10-18T11:41:18Z</time>
      </trkpt>
      <trkpt lat="38.809556" lon="-0.528936">
        <ele>696.012</ele>
        <time>2020-10-18T11:41:21Z</time>
      </trkpt>
      <trkpt lat="38.809664" lon="-0.528995">
        <ele>696.485</ele>
        <time>2020-10-18T11:41:25Z</time>
      </trkpt>
      <trkpt lat="38.809776" lon="-0.529050">
        <ele>696.655</ele>
        <time>2020-10-18T11:41:29Z</time>
      </trkpt>
      <trkpt lat="38.809876" lon="-0.529131">
        <ele>697.047</ele>
        <time>2020-10-18T11:41:33Z</time>
      </trkpt>
      <trkpt lat="38.809927" lon="-0.529167">
        <ele>697.269</ele>
        <time>2020-10-18T11:41:35Z</time>
      </trkpt>
      <trkpt lat="38.809982" lon="-0.529186">
        <ele>697.415</ele>
        <time>2020-10-18T11:41:37Z</time>
      </trkpt>
      <trkpt lat="38.810165" lon="-0.529258">
        <ele>698.653</ele>
        <time>2020-10-18T11:41:44Z</time>
      </trkpt>
      <trkpt lat="38.810316" lon="-0.529313">
        <ele>699.235</ele>
        <time>2020-10-18T11:41:50Z</time>
      </trkpt>
      <trkpt lat="38.810341" lon="-0.529328">
        <ele>699.252</ele>
        <time>2020-10-18T11:41:51Z</time>
      </trkpt>
      <trkpt lat="38.810381" lon="-0.529358">
        <ele>699.653</ele>
        <time>2020-10-18T11:41:53Z</time>
      </trkpt>
      <trkpt lat="38.810451" lon="-0.529429">
        <ele>699.808</ele>
        <time>2020-10-18T11:41:58Z</time>
      </trkpt>
      <trkpt lat="38.810520" lon="-0.529487">
        <ele>699.808</ele>
        <time>2020-10-18T11:42:04Z</time>
      </trkpt>
      <trkpt lat="38.810567" lon="-0.529504">
        <ele>699.620</ele>
        <time>2020-10-18T11:42:06Z</time>
      </trkpt>
      <trkpt lat="38.810608" lon="-0.529544">
        <ele>699.253</ele>
        <time>2020-10-18T11:42:08Z</time>
      </trkpt>
      <trkpt lat="38.810742" lon="-0.529648">
        <ele>698.633</ele>
        <time>2020-10-18T11:42:13Z</time>
      </trkpt>
      <trkpt lat="38.810767" lon="-0.529671">
        <ele>698.695</ele>
        <time>2020-10-18T11:42:14Z</time>
      </trkpt>
      <trkpt lat="38.810831" lon="-0.529770">
        <ele>698.057</ele>
        <time>2020-10-18T11:42:17Z</time>
      </trkpt>
      <trkpt lat="38.810854" lon="-0.529810">
        <ele>697.693</ele>
        <time>2020-10-18T11:42:18Z</time>
      </trkpt>
      <trkpt lat="38.810878" lon="-0.529845">
        <ele>697.241</ele>
        <time>2020-10-18T11:42:19Z</time>
      </trkpt>
      <trkpt lat="38.810942" lon="-0.529928">
        <ele>696.213</ele>
        <time>2020-10-18T11:42:22Z</time>
      </trkpt>
      <trkpt lat="38.811009" lon="-0.530019">
        <ele>695.421</ele>
        <time>2020-10-18T11:42:25Z</time>
      </trkpt>
      <trkpt lat="38.811044" lon="-0.530098">
        <ele>695.041</ele>
        <time>2020-10-18T11:42:27Z</time>
      </trkpt>
      <trkpt lat="38.811069" lon="-0.530186">
        <ele>694.605</ele>
        <time>2020-10-18T11:42:29Z</time>
      </trkpt>
      <trkpt lat="38.811085" lon="-0.530216">
        <ele>694.408</ele>
        <time>2020-10-18T11:42:30Z</time>
      </trkpt>
      <trkpt lat="38.811119" lon="-0.530206">
        <ele>694.087</ele>
        <time>2020-10-18T11:42:32Z</time>
      </trkpt>
      <trkpt lat="38.811125" lon="-0.530173">
        <ele>693.650</ele>
        <time>2020-10-18T11:42:33Z</time>
      </trkpt>
      <trkpt lat="38.811137" lon="-0.530008">
        <ele>692.610</ele>
        <time>2020-10-18T11:42:37Z</time>
      </trkpt>
      <trkpt lat="38.811140" lon="-0.529980">
        <ele>692.212</ele>
        <time>2020-10-18T11:42:38Z</time>
      </trkpt>
      <trkpt lat="38.811188" lon="-0.529896">
        <ele>691.634</ele>
        <time>2020-10-18T11:42:41Z</time>
      </trkpt>
      <trkpt lat="38.811211" lon="-0.529864">
        <ele>691.470</ele>
        <time>2020-10-18T11:42:42Z</time>
      </trkpt>
      <trkpt lat="38.811308" lon="-0.529729">
        <ele>690.878</ele>
        <time>2020-10-18T11:42:46Z</time>
      </trkpt>
      <trkpt lat="38.811330" lon="-0.529698">
        <ele>690.450</ele>
        <time>2020-10-18T11:42:47Z</time>
      </trkpt>
      <trkpt lat="38.811384" lon="-0.529603">
        <ele>689.258</ele>
        <time>2020-10-18T11:42:50Z</time>
      </trkpt>
      <trkpt lat="38.811423" lon="-0.529535">
        <ele>688.652</ele>
        <time>2020-10-18T11:42:52Z</time>
      </trkpt>
      <trkpt lat="38.811463" lon="-0.529449">
        <ele>688.017</ele>
        <time>2020-10-18T11:42:54Z</time>
      </trkpt>
      <trkpt lat="38.811495" lon="-0.529319">
        <ele>686.808</ele>
        <time>2020-10-18T11:42:57Z</time>
      </trkpt>
      <trkpt lat="38.811510" lon="-0.529238">
        <ele>686.060</ele>
        <time>2020-10-18T11:42:59Z</time>
      </trkpt>
      <trkpt lat="38.811520" lon="-0.529201">
        <ele>685.613</ele>
        <time>2020-10-18T11:43:00Z</time>
      </trkpt>
      <trkpt lat="38.811558" lon="-0.529086">
        <ele>684.433</ele>
        <time>2020-10-18T11:43:03Z</time>
      </trkpt>
      <trkpt lat="38.811579" lon="-0.529042">
        <ele>684.225</ele>
        <time>2020-10-18T11:43:04Z</time>
      </trkpt>
      <trkpt lat="38.811668" lon="-0.528853">
        <ele>683.047</ele>
        <time>2020-10-18T11:43:08Z</time>
      </trkpt>
      <trkpt lat="38.811731" lon="-0.528711">
        <ele>681.813</ele>
        <time>2020-10-18T11:43:11Z</time>
      </trkpt>
      <trkpt lat="38.811749" lon="-0.528667">
        <ele>681.461</ele>
        <time>2020-10-18T11:43:12Z</time>
      </trkpt>
      <trkpt lat="38.811775" lon="-0.528605">
        <ele>680.893</ele>
        <time>2020-10-18T11:43:14Z</time>
      </trkpt>
      <trkpt lat="38.811789" lon="-0.528602">
        <ele>680.441</ele>
        <time>2020-10-18T11:43:15Z</time>
      </trkpt>
      <trkpt lat="38.811802" lon="-0.528638">
        <ele>679.881</ele>
        <time>2020-10-18T11:43:17Z</time>
      </trkpt>
      <trkpt lat="38.811805" lon="-0.528672">
        <ele>679.609</ele>
        <time>2020-10-18T11:43:18Z</time>
      </trkpt>
      <trkpt lat="38.811806" lon="-0.528716">
        <ele>679.408</ele>
        <time>2020-10-18T11:43:19Z</time>
      </trkpt>
      <trkpt lat="38.811805" lon="-0.528939">
        <ele>678.849</ele>
        <time>2020-10-18T11:43:23Z</time>
      </trkpt>
      <trkpt lat="38.811814" lon="-0.528999">
        <ele>678.442</ele>
        <time>2020-10-18T11:43:24Z</time>
      </trkpt>
      <trkpt lat="38.811847" lon="-0.529108">
        <ele>677.672</ele>
        <time>2020-10-18T11:43:26Z</time>
      </trkpt>
      <trkpt lat="38.811869" lon="-0.529156">
        <ele>677.264</ele>
        <time>2020-10-18T11:43:27Z</time>
      </trkpt>
      <trkpt lat="38.811888" lon="-0.529210">
        <ele>676.866</ele>
        <time>2020-10-18T11:43:28Z</time>
      </trkpt>
      <trkpt lat="38.811899" lon="-0.529260">
        <ele>676.462</ele>
        <time>2020-10-18T11:43:29Z</time>
      </trkpt>
      <trkpt lat="38.811910" lon="-0.529303">
        <ele>676.230</ele>
        <time>2020-10-18T11:43:30Z</time>
      </trkpt>
      <trkpt lat="38.811920" lon="-0.529348">
        <ele>676.012</ele>
        <time>2020-10-18T11:43:31Z</time>
      </trkpt>
      <trkpt lat="38.811948" lon="-0.529521">
        <ele>674.649</ele>
        <time>2020-10-18T11:43:35Z</time>
      </trkpt>
      <trkpt lat="38.811973" lon="-0.529676">
        <ele>673.402</ele>
        <time>2020-10-18T11:43:39Z</time>
      </trkpt>
      <trkpt lat="38.812018" lon="-0.529781">
        <ele>672.622</ele>
        <time>2020-10-18T11:43:42Z</time>
      </trkpt>
      <trkpt lat="38.812037" lon="-0.529807">
        <ele>672.208</ele>
        <time>2020-10-18T11:43:43Z</time>
      </trkpt>
      <trkpt lat="38.812143" lon="-0.529888">
        <ele>671.669</ele>
        <time>2020-10-18T11:43:47Z</time>
      </trkpt>
      <trkpt lat="38.812179" lon="-0.529898">
        <ele>671.212</ele>
        <time>2020-10-18T11:43:48Z</time>
      </trkpt>
      <trkpt lat="38.812301" lon="-0.529932">
        <ele>670.222</ele>
        <time>2020-10-18T11:43:52Z</time>
      </trkpt>
      <trkpt lat="38.812388" lon="-0.529952">
        <ele>670.054</ele>
        <time>2020-10-18T11:43:53Z</time>
      </trkpt>
      <trkpt lat="38.812472" lon="-0.529926">
        <ele>669.446</ele>
        <time>2020-10-18T11:43:55Z</time>
      </trkpt>
      <trkpt lat="38.812511" lon="-0.529894">
        <ele>669.272</ele>
        <time>2020-10-18T11:43:56Z</time>
      </trkpt>
      <trkpt lat="38.812511" lon="-0.529894">
        <ele>668.820</ele>
        <time>2020-10-18T11:43:57Z</time>
      </trkpt>
      <trkpt lat="38.812581" lon="-0.529837">
        <ele>668.662</ele>
        <time>2020-10-18T11:43:58Z</time>
      </trkpt>
      <trkpt lat="38.812650" lon="-0.529847">
        <ele>668.092</ele>
        <time>2020-10-18T11:44:00Z</time>
      </trkpt>
      <trkpt lat="38.812683" lon="-0.529875">
        <ele>667.873</ele>
        <time>2020-10-18T11:44:01Z</time>
      </trkpt>
      <trkpt lat="38.812711" lon="-0.529916">
        <ele>667.620</ele>
        <time>2020-10-18T11:44:02Z</time>
      </trkpt>
      <trkpt lat="38.812751" lon="-0.530022">
        <ele>667.208</ele>
        <time>2020-10-18T11:44:04Z</time>
      </trkpt>
      <trkpt lat="38.812759" lon="-0.530081">
        <ele>666.814</ele>
        <time>2020-10-18T11:44:05Z</time>
      </trkpt>
      <trkpt lat="38.812758" lon="-0.530140">
        <ele>666.227</ele>
        <time>2020-10-18T11:44:06Z</time>
      </trkpt>
      <trkpt lat="38.812753" lon="-0.530200">
        <ele>665.637</ele>
        <time>2020-10-18T11:44:07Z</time>
      </trkpt>
      <trkpt lat="38.812748" lon="-0.530260">
        <ele>665.449</ele>
        <time>2020-10-18T11:44:08Z</time>
      </trkpt>
      <trkpt lat="38.812765" lon="-0.530364">
        <ele>665.061</ele>
        <time>2020-10-18T11:44:10Z</time>
      </trkpt>
      <trkpt lat="38.812802" lon="-0.530467">
        <ele>664.097</ele>
        <time>2020-10-18T11:44:12Z</time>
      </trkpt>
      <trkpt lat="38.812825" lon="-0.530516">
        <ele>663.495</ele>
        <time>2020-10-18T11:44:13Z</time>
      </trkpt>
      <trkpt lat="38.812825" lon="-0.530516">
        <ele>663.087</ele>
        <time>2020-10-18T11:44:14Z</time>
      </trkpt>
      <trkpt lat="38.812910" lon="-0.530688">
        <ele>661.865</ele>
        <time>2020-10-18T11:44:17Z</time>
      </trkpt>
      <trkpt lat="38.812934" lon="-0.530726">
        <ele>661.468</ele>
        <time>2020-10-18T11:44:18Z</time>
      </trkpt>
      <trkpt lat="38.812981" lon="-0.530810">
        <ele>660.814</ele>
        <time>2020-10-18T11:44:20Z</time>
      </trkpt>
      <trkpt lat="38.812999" lon="-0.530860">
        <ele>660.408</ele>
        <time>2020-10-18T11:44:21Z</time>
      </trkpt>
      <trkpt lat="38.813024" lon="-0.530973">
        <ele>659.831</ele>
        <time>2020-10-18T11:44:23Z</time>
      </trkpt>
      <trkpt lat="38.813035" lon="-0.531032">
        <ele>659.454</ele>
        <time>2020-10-18T11:44:24Z</time>
      </trkpt>
      <trkpt lat="38.813061" lon="-0.531217">
        <ele>658.414</ele>
        <time>2020-10-18T11:44:27Z</time>
      </trkpt>
      <trkpt lat="38.813066" lon="-0.531418">
        <ele>657.246</ele>
        <time>2020-10-18T11:44:30Z</time>
      </trkpt>
      <trkpt lat="38.813060" lon="-0.531689">
        <ele>655.668</ele>
        <time>2020-10-18T11:44:34Z</time>
      </trkpt>
      <trkpt lat="38.813058" lon="-0.531789">
        <ele>654.694</ele>
        <time>2020-10-18T11:44:36Z</time>
      </trkpt>
      <trkpt lat="38.813059" lon="-0.531834">
        <ele>654.252</ele>
        <time>2020-10-18T11:44:37Z</time>
      </trkpt>
      <trkpt lat="38.813058" lon="-0.531948">
        <ele>653.214</ele>
        <time>2020-10-18T11:44:40Z</time>
      </trkpt>
      <trkpt lat="38.813070" lon="-0.531954">
        <ele>653.017</ele>
        <time>2020-10-18T11:44:41Z</time>
      </trkpt>
      <trkpt lat="38.813122" lon="-0.531834">
        <ele>652.087</ele>
        <time>2020-10-18T11:44:45Z</time>
      </trkpt>
      <trkpt lat="38.813165" lon="-0.531727">
        <ele>651.015</ele>
        <time>2020-10-18T11:44:48Z</time>
      </trkpt>
      <trkpt lat="38.813222" lon="-0.531596">
        <ele>649.808</ele>
        <time>2020-10-18T11:44:51Z</time>
      </trkpt>
      <trkpt lat="38.813243" lon="-0.531549">
        <ele>649.466</ele>
        <time>2020-10-18T11:44:52Z</time>
      </trkpt>
      <trkpt lat="38.813280" lon="-0.531450">
        <ele>648.679</ele>
        <time>2020-10-18T11:44:54Z</time>
      </trkpt>
      <trkpt lat="38.813306" lon="-0.531282">
        <ele>647.279</ele>
        <time>2020-10-18T11:44:57Z</time>
      </trkpt>
      <trkpt lat="38.813323" lon="-0.531166">
        <ele>646.631</ele>
        <time>2020-10-18T11:44:59Z</time>
      </trkpt>
      <trkpt lat="38.813338" lon="-0.531106">
        <ele>646.063</ele>
        <time>2020-10-18T11:45:00Z</time>
      </trkpt>
      <trkpt lat="38.813349" lon="-0.531047">
        <ele>645.649</ele>
        <time>2020-10-18T11:45:01Z</time>
      </trkpt>
      <trkpt lat="38.813380" lon="-0.530928">
        <ele>644.837</ele>
        <time>2020-10-18T11:45:03Z</time>
      </trkpt>
      <trkpt lat="38.813416" lon="-0.530769">
        <ele>643.629</ele>
        <time>2020-10-18T11:45:06Z</time>
      </trkpt>
      <trkpt lat="38.813438" lon="-0.530594">
        <ele>642.445</ele>
        <time>2020-10-18T11:45:09Z</time>
      </trkpt>
      <trkpt lat="38.813446" lon="-0.530542">
        <ele>642.047</ele>
        <time>2020-10-18T11:45:10Z</time>
      </trkpt>
      <trkpt lat="38.813462" lon="-0.530463">
        <ele>641.011</ele>
        <time>2020-10-18T11:45:12Z</time>
      </trkpt>
      <trkpt lat="38.813481" lon="-0.530400">
        <ele>640.208</ele>
        <time>2020-10-18T11:45:15Z</time>
      </trkpt>
      <trkpt lat="38.813481" lon="-0.530407">
        <ele>640.069</ele>
        <time>2020-10-18T11:45:18Z</time>
      </trkpt>
      <trkpt lat="38.813481" lon="-0.530407">
        <ele>640.042</ele>
        <time>2020-10-18T11:45:19Z</time>
      </trkpt>
      <trkpt lat="38.813484" lon="-0.530404">
        <ele>639.822</ele>
        <time>2020-10-18T11:45:27Z</time>
      </trkpt>
      <trkpt lat="38.813481" lon="-0.530407">
        <ele>639.084</ele>
        <time>2020-10-18T11:45:46Z</time>
      </trkpt>
      <trkpt lat="38.813479" lon="-0.530407">
        <ele>639.246</ele>
        <time>2020-10-18T11:46:14Z</time>
      </trkpt>
      <trkpt lat="38.813479" lon="-0.530407">
        <ele>639.282</ele>
        <time>2020-10-18T11:46:20Z</time>
      </trkpt>
      <trkpt lat="38.813479" lon="-0.530407">
        <ele>639.040</ele>
        <time>2020-10-18T11:46:28Z</time>
      </trkpt>
      <trkpt lat="38.813479" lon="-0.530407">
        <ele>638.862</ele>
        <time>2020-10-18T11:46:36Z</time>
      </trkpt>
      <trkpt lat="38.813481" lon="-0.530407">
        <ele>639.048</ele>
        <time>2020-10-18T11:46:41Z</time>
      </trkpt>
      <trkpt lat="38.813484" lon="-0.530405">
        <ele>639.061</ele>
        <time>2020-10-18T11:46:46Z</time>
      </trkpt>
      <trkpt lat="38.813484" lon="-0.530405">
        <ele>639.017</ele>
        <time>2020-10-18T11:46:57Z</time>
      </trkpt>
      <trkpt lat="38.813484" lon="-0.530405">
        <ele>639.008</ele>
        <time>2020-10-18T11:47:16Z</time>
      </trkpt>
      <trkpt lat="38.813484" lon="-0.530405">
        <ele>639.029</ele>
        <time>2020-10-18T11:47:24Z</time>
      </trkpt>
      <trkpt lat="38.813484" lon="-0.530405">
        <ele>638.262</ele>
        <time>2020-10-18T11:48:16Z</time>
      </trkpt>
      <trkpt lat="38.813484" lon="-0.530405">
        <ele>638.462</ele>
        <time>2020-10-18T11:48:22Z</time>
      </trkpt>
      <trkpt lat="38.813484" lon="-0.530405">
        <ele>638.614</ele>
        <time>2020-10-18T11:48:25Z</time>
      </trkpt>
      <trkpt lat="38.813484" lon="-0.530405">
        <ele>638.626</ele>
        <time>2020-10-18T11:48:28Z</time>
      </trkpt>
      <trkpt lat="38.813484" lon="-0.530405">
        <ele>638.462</ele>
        <time>2020-10-18T11:48:31Z</time>
      </trkpt>
      <trkpt lat="38.813484" lon="-0.530404">
        <ele>638.680</ele>
        <time>2020-10-18T11:48:44Z</time>
      </trkpt>
      <trkpt lat="38.813484" lon="-0.530402">
        <ele>638.632</ele>
        <time>2020-10-18T11:48:48Z</time>
      </trkpt>
      <trkpt lat="38.813485" lon="-0.530397">
        <ele>638.429</ele>
        <time>2020-10-18T11:48:51Z</time>
      </trkpt>
      <trkpt lat="38.813485" lon="-0.530395">
        <ele>638.400</ele>
        <time>2020-10-18T11:48:57Z</time>
      </trkpt>
      <trkpt lat="38.813485" lon="-0.530395">
        <ele>638.220</ele>
        <time>2020-10-18T11:49:00Z</time>
      </trkpt>
      <trkpt lat="38.813485" lon="-0.530395">
        <ele>638.208</ele>
        <time>2020-10-18T11:49:04Z</time>
      </trkpt>
      <trkpt lat="38.813483" lon="-0.530403">
        <ele>638.017</ele>
        <time>2020-10-18T11:49:25Z</time>
      </trkpt>
      <trkpt lat="38.813483" lon="-0.530403">
        <ele>638.050</ele>
        <time>2020-10-18T11:49:26Z</time>
      </trkpt>
      <trkpt lat="38.813483" lon="-0.530403">
        <ele>639.060</ele>
        <time>2020-10-18T11:49:38Z</time>
      </trkpt>
      <trkpt lat="38.813483" lon="-0.530403">
        <ele>638.062</ele>
        <time>2020-10-18T11:50:04Z</time>
      </trkpt>
      <trkpt lat="38.813483" lon="-0.530403">
        <ele>637.884</ele>
        <time>2020-10-18T11:50:44Z</time>
      </trkpt>
      <trkpt lat="38.813486" lon="-0.530404">
        <ele>638.430</ele>
        <time>2020-10-18T11:51:02Z</time>
      </trkpt>
      <trkpt lat="38.813486" lon="-0.530405">
        <ele>638.238</ele>
        <time>2020-10-18T11:51:08Z</time>
      </trkpt>
      <trkpt lat="38.813486" lon="-0.530405">
        <ele>638.490</ele>
        <time>2020-10-18T11:51:13Z</time>
      </trkpt>
      <trkpt lat="38.813484" lon="-0.530408">
        <ele>638.473</ele>
        <time>2020-10-18T11:51:26Z</time>
      </trkpt>
      <trkpt lat="38.813484" lon="-0.530409">
        <ele>638.285</ele>
        <time>2020-10-18T11:51:30Z</time>
      </trkpt>
      <trkpt lat="38.813483" lon="-0.530409">
        <ele>637.813</ele>
        <time>2020-10-18T11:51:35Z</time>
      </trkpt>
      <trkpt lat="38.813483" lon="-0.530409">
        <ele>637.808</ele>
        <time>2020-10-18T11:51:42Z</time>
      </trkpt>
      <trkpt lat="38.813483" lon="-0.530409">
        <ele>638.092</ele>
        <time>2020-10-18T11:52:04Z</time>
      </trkpt>
      <trkpt lat="38.813483" lon="-0.530409">
        <ele>638.085</ele>
        <time>2020-10-18T11:52:11Z</time>
      </trkpt>
      <trkpt lat="38.813483" lon="-0.530409">
        <ele>637.835</ele>
        <time>2020-10-18T11:52:48Z</time>
      </trkpt>
      <trkpt lat="38.813483" lon="-0.530409">
        <ele>637.847</ele>
        <time>2020-10-18T11:52:49Z</time>
      </trkpt>
      <trkpt lat="38.813485" lon="-0.530404">
        <ele>637.859</ele>
        <time>2020-10-18T11:52:52Z</time>
      </trkpt>
      <trkpt lat="38.813490" lon="-0.530317">
        <ele>637.455</ele>
        <time>2020-10-18T11:52:55Z</time>
      </trkpt>
      <trkpt lat="38.813520" lon="-0.530191">
        <ele>636.853</ele>
        <time>2020-10-18T11:52:58Z</time>
      </trkpt>
      <trkpt lat="38.813544" lon="-0.530096">
        <ele>636.215</ele>
        <time>2020-10-18T11:53:00Z</time>
      </trkpt>
      <trkpt lat="38.813574" lon="-0.530004">
        <ele>635.642</ele>
        <time>2020-10-18T11:53:02Z</time>
      </trkpt>
      <trkpt lat="38.813643" lon="-0.529835">
        <ele>634.422</ele>
        <time>2020-10-18T11:53:06Z</time>
      </trkpt>
      <trkpt lat="38.813664" lon="-0.529789">
        <ele>634.014</ele>
        <time>2020-10-18T11:53:07Z</time>
      </trkpt>
      <trkpt lat="38.813705" lon="-0.529702">
        <ele>633.408</ele>
        <time>2020-10-18T11:53:09Z</time>
      </trkpt>
      <trkpt lat="38.813791" lon="-0.529523">
        <ele>632.079</ele>
        <time>2020-10-18T11:53:13Z</time>
      </trkpt>
      <trkpt lat="38.813835" lon="-0.529435">
        <ele>630.822</ele>
        <time>2020-10-18T11:53:15Z</time>
      </trkpt>
      <trkpt lat="38.813904" lon="-0.529312">
        <ele>629.482</ele>
        <time>2020-10-18T11:53:18Z</time>
      </trkpt>
      <trkpt lat="38.814027" lon="-0.529191">
        <ele>628.224</ele>
        <time>2020-10-18T11:53:22Z</time>
      </trkpt>
      <trkpt lat="38.814103" lon="-0.529120">
        <ele>627.466</ele>
        <time>2020-10-18T11:53:24Z</time>
      </trkpt>
      <trkpt lat="38.814124" lon="-0.529092">
        <ele>627.262</ele>
        <time>2020-10-18T11:53:25Z</time>
      </trkpt>
      <trkpt lat="38.814157" lon="-0.529047">
        <ele>626.010</ele>
        <time>2020-10-18T11:53:27Z</time>
      </trkpt>
      <trkpt lat="38.814169" lon="-0.529045">
        <ele>625.682</ele>
        <time>2020-10-18T11:53:28Z</time>
      </trkpt>
      <trkpt lat="38.814181" lon="-0.529069">
        <ele>625.421</ele>
        <time>2020-10-18T11:53:30Z</time>
      </trkpt>
      <trkpt lat="38.814178" lon="-0.529136">
        <ele>625.241</ele>
        <time>2020-10-18T11:53:32Z</time>
      </trkpt>
      <trkpt lat="38.814170" lon="-0.529183">
        <ele>625.005</ele>
        <time>2020-10-18T11:53:33Z</time>
      </trkpt>
      <trkpt lat="38.814128" lon="-0.529358">
        <ele>624.608</ele>
        <time>2020-10-18T11:53:36Z</time>
      </trkpt>
      <trkpt lat="38.814106" lon="-0.529487">
        <ele>624.017</ele>
        <time>2020-10-18T11:53:38Z</time>
      </trkpt>
      <trkpt lat="38.814073" lon="-0.529665">
        <ele>622.870</ele>
        <time>2020-10-18T11:53:41Z</time>
      </trkpt>
      <trkpt lat="38.814054" lon="-0.529785">
        <ele>622.450</ele>
        <time>2020-10-18T11:53:43Z</time>
      </trkpt>
      <trkpt lat="38.814042" lon="-0.529973">
        <ele>621.842</ele>
        <time>2020-10-18T11:53:46Z</time>
      </trkpt>
      <trkpt lat="38.814043" lon="-0.530140">
        <ele>620.634</ele>
        <time>2020-10-18T11:53:49Z</time>
      </trkpt>
      <trkpt lat="38.814063" lon="-0.530264">
        <ele>619.470</ele>
        <time>2020-10-18T11:53:52Z</time>
      </trkpt>
      <trkpt lat="38.814070" lon="-0.530296">
        <ele>619.268</ele>
        <time>2020-10-18T11:53:53Z</time>
      </trkpt>
      <trkpt lat="38.814110" lon="-0.530367">
        <ele>618.410</ele>
        <time>2020-10-18T11:53:56Z</time>
      </trkpt>
      <trkpt lat="38.814129" lon="-0.530436">
        <ele>618.025</ele>
        <time>2020-10-18T11:53:58Z</time>
      </trkpt>
      <trkpt lat="38.814140" lon="-0.530537">
        <ele>617.426</ele>
        <time>2020-10-18T11:54:01Z</time>
      </trkpt>
      <trkpt lat="38.814163" lon="-0.530577">
        <ele>617.008</ele>
        <time>2020-10-18T11:54:03Z</time>
      </trkpt>
      <trkpt lat="38.814183" lon="-0.530568">
        <ele>616.608</ele>
        <time>2020-10-18T11:54:06Z</time>
      </trkpt>
      <trkpt lat="38.814186" lon="-0.530542">
        <ele>616.437</ele>
        <time>2020-10-18T11:54:07Z</time>
      </trkpt>
      <trkpt lat="38.814187" lon="-0.530509">
        <ele>616.260</ele>
        <time>2020-10-18T11:54:08Z</time>
      </trkpt>
      <trkpt lat="38.814194" lon="-0.530428">
        <ele>616.090</ele>
        <time>2020-10-18T11:54:10Z</time>
      </trkpt>
      <trkpt lat="38.814191" lon="-0.530171">
        <ele>615.462</ele>
        <time>2020-10-18T11:54:16Z</time>
      </trkpt>
      <trkpt lat="38.814199" lon="-0.530134">
        <ele>615.434</ele>
        <time>2020-10-18T11:54:17Z</time>
      </trkpt>
      <trkpt lat="38.814223" lon="-0.530030">
        <ele>615.490</ele>
        <time>2020-10-18T11:54:20Z</time>
      </trkpt>
      <trkpt lat="38.814306" lon="-0.529907">
        <ele>615.038</ele>
        <time>2020-10-18T11:54:24Z</time>
      </trkpt>
      <trkpt lat="38.814398" lon="-0.529821">
        <ele>614.890</ele>
        <time>2020-10-18T11:54:28Z</time>
      </trkpt>
      <trkpt lat="38.814405" lon="-0.529837">
        <ele>614.653</ele>
        <time>2020-10-18T11:54:30Z</time>
      </trkpt>
      <trkpt lat="38.814347" lon="-0.529944">
        <ele>614.204</ele>
        <time>2020-10-18T11:54:34Z</time>
      </trkpt>
      <trkpt lat="38.814317" lon="-0.530023">
        <ele>614.014</ele>
        <time>2020-10-18T11:54:36Z</time>
      </trkpt>
      <trkpt lat="38.814295" lon="-0.530117">
        <ele>613.408</ele>
        <time>2020-10-18T11:54:38Z</time>
      </trkpt>
      <trkpt lat="38.814298" lon="-0.530162">
        <ele>613.280</ele>
        <time>2020-10-18T11:54:39Z</time>
      </trkpt>
      <trkpt lat="38.814307" lon="-0.530201">
        <ele>613.013</ele>
        <time>2020-10-18T11:54:40Z</time>
      </trkpt>
      <trkpt lat="38.814322" lon="-0.530286">
        <ele>612.623</ele>
        <time>2020-10-18T11:54:42Z</time>
      </trkpt>
      <trkpt lat="38.814347" lon="-0.530411">
        <ele>611.895</ele>
        <time>2020-10-18T11:54:45Z</time>
      </trkpt>
      <trkpt lat="38.814358" lon="-0.530451">
        <ele>611.237</ele>
        <time>2020-10-18T11:54:46Z</time>
      </trkpt>
      <trkpt lat="38.814366" lon="-0.530491">
        <ele>610.673</ele>
        <time>2020-10-18T11:54:47Z</time>
      </trkpt>
      <trkpt lat="38.814377" lon="-0.530565">
        <ele>609.441</ele>
        <time>2020-10-18T11:54:49Z</time>
      </trkpt>
      <trkpt lat="38.814412" lon="-0.530703">
        <ele>608.413</ele>
        <time>2020-10-18T11:54:53Z</time>
      </trkpt>
      <trkpt lat="38.814453" lon="-0.530835">
        <ele>607.837</ele>
        <time>2020-10-18T11:54:56Z</time>
      </trkpt>
      <trkpt lat="38.814466" lon="-0.530918">
        <ele>607.049</ele>
        <time>2020-10-18T11:54:58Z</time>
      </trkpt>
      <trkpt lat="38.814471" lon="-0.530957">
        <ele>606.613</ele>
        <time>2020-10-18T11:54:59Z</time>
      </trkpt>
      <trkpt lat="38.814480" lon="-0.531049">
        <ele>605.808</ele>
        <time>2020-10-18T11:55:01Z</time>
      </trkpt>
      <trkpt lat="38.814520" lon="-0.531290">
        <ele>604.428</ele>
        <time>2020-10-18T11:55:06Z</time>
      </trkpt>
      <trkpt lat="38.814527" lon="-0.531372">
        <ele>603.451</ele>
        <time>2020-10-18T11:55:08Z</time>
      </trkpt>
      <trkpt lat="38.814528" lon="-0.531401">
        <ele>603.021</ele>
        <time>2020-10-18T11:55:09Z</time>
      </trkpt>
      <trkpt lat="38.814529" lon="-0.531454">
        <ele>602.663</ele>
        <time>2020-10-18T11:55:12Z</time>
      </trkpt>
      <trkpt lat="38.814529" lon="-0.531454">
        <ele>602.465</ele>
        <time>2020-10-18T11:55:13Z</time>
      </trkpt>
      <trkpt lat="38.814534" lon="-0.531445">
        <ele>602.081</ele>
        <time>2020-10-18T11:55:16Z</time>
      </trkpt>
      <trkpt lat="38.814533" lon="-0.531433">
        <ele>602.019</ele>
        <time>2020-10-18T11:55:17Z</time>
      </trkpt>
      <trkpt lat="38.814533" lon="-0.531411">
        <ele>602.061</ele>
        <time>2020-10-18T11:55:19Z</time>
      </trkpt>
      <trkpt lat="38.814547" lon="-0.531421">
        <ele>602.032</ele>
        <time>2020-10-18T11:55:23Z</time>
      </trkpt>
      <trkpt lat="38.814561" lon="-0.531435">
        <ele>601.892</ele>
        <time>2020-10-18T11:55:24Z</time>
      </trkpt>
      <trkpt lat="38.814591" lon="-0.531469">
        <ele>601.011</ele>
        <time>2020-10-18T11:55:26Z</time>
      </trkpt>
      <trkpt lat="38.814638" lon="-0.531506">
        <ele>599.408</ele>
        <time>2020-10-18T11:55:29Z</time>
      </trkpt>
      <trkpt lat="38.814670" lon="-0.531509">
        <ele>598.468</ele>
        <time>2020-10-18T11:55:31Z</time>
      </trkpt>
      <trkpt lat="38.814683" lon="-0.531507">
        <ele>597.651</ele>
        <time>2020-10-18T11:55:32Z</time>
      </trkpt>
      <trkpt lat="38.814724" lon="-0.531508">
        <ele>596.291</ele>
        <time>2020-10-18T11:55:34Z</time>
      </trkpt>
      <trkpt lat="38.814751" lon="-0.531501">
        <ele>595.633</ele>
        <time>2020-10-18T11:55:35Z</time>
      </trkpt>
      <trkpt lat="38.814772" lon="-0.531482">
        <ele>595.045</ele>
        <time>2020-10-18T11:55:36Z</time>
      </trkpt>
      <trkpt lat="38.814782" lon="-0.531467">
        <ele>594.691</ele>
        <time>2020-10-18T11:55:37Z</time>
      </trkpt>
      <trkpt lat="38.814786" lon="-0.531462">
        <ele>594.229</ele>
        <time>2020-10-18T11:55:39Z</time>
      </trkpt>
      <trkpt lat="38.814786" lon="-0.531462">
        <ele>594.081</ele>
        <time>2020-10-18T11:55:40Z</time>
      </trkpt>
      <trkpt lat="38.814786" lon="-0.531462">
        <ele>593.895</ele>
        <time>2020-10-18T11:55:42Z</time>
      </trkpt>
      <trkpt lat="38.814786" lon="-0.531462">
        <ele>593.649</ele>
        <time>2020-10-18T11:55:50Z</time>
      </trkpt>
      <trkpt lat="38.814791" lon="-0.531436">
        <ele>593.823</ele>
        <time>2020-10-18T11:56:04Z</time>
      </trkpt>
      <trkpt lat="38.814796" lon="-0.531361">
        <ele>593.808</ele>
        <time>2020-10-18T11:56:06Z</time>
      </trkpt>
      <trkpt lat="38.814818" lon="-0.531129">
        <ele>592.874</ele>
        <time>2020-10-18T11:56:11Z</time>
      </trkpt>
      <trkpt lat="38.814822" lon="-0.531075">
        <ele>592.697</ele>
        <time>2020-10-18T11:56:12Z</time>
      </trkpt>
      <trkpt lat="38.814858" lon="-0.530930">
        <ele>591.687</ele>
        <time>2020-10-18T11:56:15Z</time>
      </trkpt>
      <trkpt lat="38.814911" lon="-0.530865">
        <ele>591.019</ele>
        <time>2020-10-18T11:56:17Z</time>
      </trkpt>
      <trkpt lat="38.814988" lon="-0.530849">
        <ele>590.431</ele>
        <time>2020-10-18T11:56:19Z</time>
      </trkpt>
      <trkpt lat="38.815016" lon="-0.530857">
        <ele>590.277</ele>
        <time>2020-10-18T11:56:20Z</time>
      </trkpt>
      <trkpt lat="38.815174" lon="-0.530914">
        <ele>589.485</ele>
        <time>2020-10-18T11:56:24Z</time>
      </trkpt>
      <trkpt lat="38.815308" lon="-0.530964">
        <ele>588.237</ele>
        <time>2020-10-18T11:56:27Z</time>
      </trkpt>
      <trkpt lat="38.815415" lon="-0.530957">
        <ele>587.089</ele>
        <time>2020-10-18T11:56:29Z</time>
      </trkpt>
      <trkpt lat="38.815511" lon="-0.530914">
        <ele>585.806</ele>
        <time>2020-10-18T11:56:31Z</time>
      </trkpt>
      <trkpt lat="38.815570" lon="-0.530878">
        <ele>585.026</ele>
        <time>2020-10-18T11:56:32Z</time>
      </trkpt>
      <trkpt lat="38.815617" lon="-0.530840">
        <ele>584.208</ele>
        <time>2020-10-18T11:56:33Z</time>
      </trkpt>
      <trkpt lat="38.815658" lon="-0.530802">
        <ele>583.283</ele>
        <time>2020-10-18T11:56:34Z</time>
      </trkpt>
      <trkpt lat="38.815681" lon="-0.530769">
        <ele>582.276</ele>
        <time>2020-10-18T11:56:35Z</time>
      </trkpt>
      <trkpt lat="38.815700" lon="-0.530722">
        <ele>581.416</ele>
        <time>2020-10-18T11:56:36Z</time>
      </trkpt>
      <trkpt lat="38.815706" lon="-0.530572">
        <ele>580.298</ele>
        <time>2020-10-18T11:56:38Z</time>
      </trkpt>
      <trkpt lat="38.815677" lon="-0.530392">
        <ele>578.820</ele>
        <time>2020-10-18T11:56:40Z</time>
      </trkpt>
      <trkpt lat="38.815660" lon="-0.530314">
        <ele>578.216</ele>
        <time>2020-10-18T11:56:41Z</time>
      </trkpt>
      <trkpt lat="38.815623" lon="-0.530116">
        <ele>577.434</ele>
        <time>2020-10-18T11:56:43Z</time>
      </trkpt>
      <trkpt lat="38.815596" lon="-0.529914">
        <ele>576.426</ele>
        <time>2020-10-18T11:56:45Z</time>
      </trkpt>
      <trkpt lat="38.815583" lon="-0.529811">
        <ele>576.043</ele>
        <time>2020-10-18T11:56:46Z</time>
      </trkpt>
      <trkpt lat="38.815565" lon="-0.529495">
        <ele>574.664</ele>
        <time>2020-10-18T11:56:49Z</time>
      </trkpt>
      <trkpt lat="38.815561" lon="-0.529388">
        <ele>573.610</ele>
        <time>2020-10-18T11:56:50Z</time>
      </trkpt>
      <trkpt lat="38.815547" lon="-0.529284">
        <ele>572.608</ele>
        <time>2020-10-18T11:56:51Z</time>
      </trkpt>
      <trkpt lat="38.815538" lon="-0.529178">
        <ele>572.249</ele>
        <time>2020-10-18T11:56:52Z</time>
      </trkpt>
      <trkpt lat="38.815477" lon="-0.528746">
        <ele>571.412</ele>
        <time>2020-10-18T11:56:56Z</time>
      </trkpt>
      <trkpt lat="38.815386" lon="-0.528544">
        <ele>570.862</ele>
        <time>2020-10-18T11:56:58Z</time>
      </trkpt>
      <trkpt lat="38.815296" lon="-0.528396">
        <ele>570.274</ele>
        <time>2020-10-18T11:57:00Z</time>
      </trkpt>
      <trkpt lat="38.815184" lon="-0.528252">
        <ele>569.676</ele>
        <time>2020-10-18T11:57:02Z</time>
      </trkpt>
      <trkpt lat="38.815065" lon="-0.528143">
        <ele>568.692</ele>
        <time>2020-10-18T11:57:04Z</time>
      </trkpt>
      <trkpt lat="38.815005" lon="-0.528098">
        <ele>568.250</ele>
        <time>2020-10-18T11:57:05Z</time>
      </trkpt>
      <trkpt lat="38.814792" lon="-0.527966">
        <ele>567.232</ele>
        <time>2020-10-18T11:57:09Z</time>
      </trkpt>
      <trkpt lat="38.814603" lon="-0.527860">
        <ele>567.055</ele>
        <time>2020-10-18T11:57:13Z</time>
      </trkpt>
      <trkpt lat="38.814493" lon="-0.527828">
        <ele>566.807</ele>
        <time>2020-10-18T11:57:15Z</time>
      </trkpt>
      <trkpt lat="38.814189" lon="-0.527710">
        <ele>566.817</ele>
        <time>2020-10-18T11:57:20Z</time>
      </trkpt>
      <trkpt lat="38.814140" lon="-0.527678">
        <ele>566.808</ele>
        <time>2020-10-18T11:57:21Z</time>
      </trkpt>
      <trkpt lat="38.814083" lon="-0.527586">
        <ele>566.850</ele>
        <time>2020-10-18T11:57:23Z</time>
      </trkpt>
      <trkpt lat="38.814110" lon="-0.527458">
        <ele>566.473</ele>
        <time>2020-10-18T11:57:25Z</time>
      </trkpt>
      <trkpt lat="38.814134" lon="-0.527383">
        <ele>566.293</ele>
        <time>2020-10-18T11:57:26Z</time>
      </trkpt>
      <trkpt lat="38.814160" lon="-0.527296">
        <ele>565.685</ele>
        <time>2020-10-18T11:57:27Z</time>
      </trkpt>
      <trkpt lat="38.814219" lon="-0.527089">
        <ele>564.467</ele>
        <time>2020-10-18T11:57:29Z</time>
      </trkpt>
      <trkpt lat="38.814250" lon="-0.526973">
        <ele>563.613</ele>
        <time>2020-10-18T11:57:30Z</time>
      </trkpt>
      <trkpt lat="38.814284" lon="-0.526853">
        <ele>562.611</ele>
        <time>2020-10-18T11:57:31Z</time>
      </trkpt>
      <trkpt lat="38.814323" lon="-0.526730">
        <ele>561.433</ele>
        <time>2020-10-18T11:57:32Z</time>
      </trkpt>
      <trkpt lat="38.814362" lon="-0.526624">
        <ele>560.221</ele>
        <time>2020-10-18T11:57:33Z</time>
      </trkpt>
      <trkpt lat="38.814427" lon="-0.526462">
        <ele>558.841</ele>
        <time>2020-10-18T11:57:34Z</time>
      </trkpt>
      <trkpt lat="38.814480" lon="-0.526334">
        <ele>557.005</ele>
        <time>2020-10-18T11:57:35Z</time>
      </trkpt>
      <trkpt lat="38.814530" lon="-0.526213">
        <ele>555.608</ele>
        <time>2020-10-18T11:57:36Z</time>
      </trkpt>
      <trkpt lat="38.814585" lon="-0.526101">
        <ele>554.657</ele>
        <time>2020-10-18T11:57:37Z</time>
      </trkpt>
      <trkpt lat="38.814644" lon="-0.525999">
        <ele>553.420</ele>
        <time>2020-10-18T11:57:38Z</time>
      </trkpt>
      <trkpt lat="38.814709" lon="-0.525906">
        <ele>552.260</ele>
        <time>2020-10-18T11:57:39Z</time>
      </trkpt>
      <trkpt lat="38.814780" lon="-0.525826">
        <ele>551.082</ele>
        <time>2020-10-18T11:57:40Z</time>
      </trkpt>
      <trkpt lat="38.814856" lon="-0.525757">
        <ele>549.614</ele>
        <time>2020-10-18T11:57:41Z</time>
      </trkpt>
      <trkpt lat="38.814932" lon="-0.525708">
        <ele>548.650</ele>
        <time>2020-10-18T11:57:42Z</time>
      </trkpt>
      <trkpt lat="38.815081" lon="-0.525626">
        <ele>546.848</ele>
        <time>2020-10-18T11:57:44Z</time>
      </trkpt>
      <trkpt lat="38.815177" lon="-0.525554">
        <ele>546.070</ele>
        <time>2020-10-18T11:57:45Z</time>
      </trkpt>
      <trkpt lat="38.815238" lon="-0.525507">
        <ele>545.289</ele>
        <time>2020-10-18T11:57:46Z</time>
      </trkpt>
      <trkpt lat="38.815303" lon="-0.525449">
        <ele>544.406</ele>
        <time>2020-10-18T11:57:47Z</time>
      </trkpt>
      <trkpt lat="38.815367" lon="-0.525383">
        <ele>543.626</ele>
        <time>2020-10-18T11:57:48Z</time>
      </trkpt>
      <trkpt lat="38.815415" lon="-0.525318">
        <ele>543.008</ele>
        <time>2020-10-18T11:57:49Z</time>
      </trkpt>
      <trkpt lat="38.815464" lon="-0.525222">
        <ele>542.423</ele>
        <time>2020-10-18T11:57:50Z</time>
      </trkpt>
      <trkpt lat="38.815487" lon="-0.525122">
        <ele>541.826</ele>
        <time>2020-10-18T11:57:51Z</time>
      </trkpt>
      <trkpt lat="38.815497" lon="-0.525018">
        <ele>541.016</ele>
        <time>2020-10-18T11:57:52Z</time>
      </trkpt>
      <trkpt lat="38.815490" lon="-0.524940">
        <ele>540.468</ele>
        <time>2020-10-18T11:57:53Z</time>
      </trkpt>
      <trkpt lat="38.815472" lon="-0.524820">
        <ele>539.840</ele>
        <time>2020-10-18T11:57:54Z</time>
      </trkpt>
      <trkpt lat="38.815439" lon="-0.524726">
        <ele>539.276</ele>
        <time>2020-10-18T11:57:55Z</time>
      </trkpt>
      <trkpt lat="38.815391" lon="-0.524640">
        <ele>538.864</ele>
        <time>2020-10-18T11:57:56Z</time>
      </trkpt>
      <trkpt lat="38.815336" lon="-0.524563">
        <ele>538.256</ele>
        <time>2020-10-18T11:57:57Z</time>
      </trkpt>
      <trkpt lat="38.815203" lon="-0.524453">
        <ele>537.034</ele>
        <time>2020-10-18T11:57:59Z</time>
      </trkpt>
      <trkpt lat="38.814989" lon="-0.524364">
        <ele>536.055</ele>
        <time>2020-10-18T11:58:02Z</time>
      </trkpt>
      <trkpt lat="38.814898" lon="-0.524335">
        <ele>535.810</ele>
        <time>2020-10-18T11:58:03Z</time>
      </trkpt>
      <trkpt lat="38.814598" lon="-0.524216">
        <ele>534.808</ele>
        <time>2020-10-18T11:58:07Z</time>
      </trkpt>
      <trkpt lat="38.814541" lon="-0.524169">
        <ele>534.458</ele>
        <time>2020-10-18T11:58:08Z</time>
      </trkpt>
      <trkpt lat="38.814503" lon="-0.524112">
        <ele>534.031</ele>
        <time>2020-10-18T11:58:09Z</time>
      </trkpt>
      <trkpt lat="38.814486" lon="-0.524047">
        <ele>533.861</ele>
        <time>2020-10-18T11:58:10Z</time>
      </trkpt>
      <trkpt lat="38.814492" lon="-0.523979">
        <ele>533.663</ele>
        <time>2020-10-18T11:58:11Z</time>
      </trkpt>
      <trkpt lat="38.814559" lon="-0.523862">
        <ele>533.435</ele>
        <time>2020-10-18T11:58:13Z</time>
      </trkpt>
      <trkpt lat="38.814659" lon="-0.523799">
        <ele>533.471</ele>
        <time>2020-10-18T11:58:15Z</time>
      </trkpt>
      <trkpt lat="38.814723" lon="-0.523774">
        <ele>533.469</ele>
        <time>2020-10-18T11:58:16Z</time>
      </trkpt>
      <trkpt lat="38.814856" lon="-0.523715">
        <ele>533.691</ele>
        <time>2020-10-18T11:58:18Z</time>
      </trkpt>
      <trkpt lat="38.815081" lon="-0.523632">
        <ele>533.271</ele>
        <time>2020-10-18T11:58:21Z</time>
      </trkpt>
      <trkpt lat="38.815243" lon="-0.523579">
        <ele>532.241</ele>
        <time>2020-10-18T11:58:23Z</time>
      </trkpt>
      <trkpt lat="38.815496" lon="-0.523511">
        <ele>531.215</ele>
        <time>2020-10-18T11:58:26Z</time>
      </trkpt>
      <trkpt lat="38.815562" lon="-0.523485">
        <ele>530.608</ele>
        <time>2020-10-18T11:58:27Z</time>
      </trkpt>
      <trkpt lat="38.815675" lon="-0.523397">
        <ele>529.452</ele>
        <time>2020-10-18T11:58:29Z</time>
      </trkpt>
      <trkpt lat="38.815735" lon="-0.523248">
        <ele>528.835</ele>
        <time>2020-10-18T11:58:31Z</time>
      </trkpt>
      <trkpt lat="38.815742" lon="-0.523179">
        <ele>528.435</ele>
        <time>2020-10-18T11:58:32Z</time>
      </trkpt>
      <trkpt lat="38.815748" lon="-0.523091">
        <ele>528.267</ele>
        <time>2020-10-18T11:58:33Z</time>
      </trkpt>
      <trkpt lat="38.815797" lon="-0.522655">
        <ele>528.869</ele>
        <time>2020-10-18T11:58:38Z</time>
      </trkpt>
      <trkpt lat="38.815811" lon="-0.522472">
        <ele>529.225</ele>
        <time>2020-10-18T11:58:40Z</time>
      </trkpt>
      <trkpt lat="38.815806" lon="-0.522298">
        <ele>529.273</ele>
        <time>2020-10-18T11:58:42Z</time>
      </trkpt>
      <trkpt lat="38.815801" lon="-0.522215">
        <ele>529.425</ele>
        <time>2020-10-18T11:58:43Z</time>
      </trkpt>
      <trkpt lat="38.815744" lon="-0.521845">
        <ele>529.642</ele>
        <time>2020-10-18T11:58:48Z</time>
      </trkpt>
      <trkpt lat="38.815658" lon="-0.521462">
        <ele>530.422</ele>
        <time>2020-10-18T11:58:54Z</time>
      </trkpt>
      <trkpt lat="38.815647" lon="-0.521402">
        <ele>530.614</ele>
        <time>2020-10-18T11:58:55Z</time>
      </trkpt>
      <trkpt lat="38.815521" lon="-0.521030">
        <ele>531.608</ele>
        <time>2020-10-18T11:59:02Z</time>
      </trkpt>
      <trkpt lat="38.815342" lon="-0.520738">
        <ele>532.689</ele>
        <time>2020-10-18T11:59:09Z</time>
      </trkpt>
      <trkpt lat="38.815316" lon="-0.520695">
        <ele>532.622</ele>
        <time>2020-10-18T11:59:10Z</time>
      </trkpt>
      <trkpt lat="38.815185" lon="-0.520514">
        <ele>532.032</ele>
        <time>2020-10-18T11:59:14Z</time>
      </trkpt>
      <trkpt lat="38.815140" lon="-0.520459">
        <ele>531.294</ele>
        <time>2020-10-18T11:59:15Z</time>
      </trkpt>
      <trkpt lat="38.815093" lon="-0.520397">
        <ele>530.686</ele>
        <time>2020-10-18T11:59:16Z</time>
      </trkpt>
      <trkpt lat="38.815049" lon="-0.520325">
        <ele>530.212</ele>
        <time>2020-10-18T11:59:17Z</time>
      </trkpt>
      <trkpt lat="38.815015" lon="-0.520162">
        <ele>529.820</ele>
        <time>2020-10-18T11:59:19Z</time>
      </trkpt>
      <trkpt lat="38.815066" lon="-0.519878">
        <ele>529.842</ele>
        <time>2020-10-18T11:59:23Z</time>
      </trkpt>
      <trkpt lat="38.815150" lon="-0.519558">
        <ele>530.841</ele>
        <time>2020-10-18T11:59:29Z</time>
      </trkpt>
      <trkpt lat="38.815193" lon="-0.519291">
        <ele>530.881</ele>
        <time>2020-10-18T11:59:33Z</time>
      </trkpt>
      <trkpt lat="38.815189" lon="-0.519158">
        <ele>530.809</ele>
        <time>2020-10-18T11:59:35Z</time>
      </trkpt>
      <trkpt lat="38.815188" lon="-0.519091">
        <ele>531.008</ele>
        <time>2020-10-18T11:59:36Z</time>
      </trkpt>
      <trkpt lat="38.815181" lon="-0.518969">
        <ele>531.439</ele>
        <time>2020-10-18T11:59:38Z</time>
      </trkpt>
      <trkpt lat="38.815176" lon="-0.518729">
        <ele>531.842</ele>
        <time>2020-10-18T11:59:42Z</time>
      </trkpt>
      <trkpt lat="38.815178" lon="-0.518668">
        <ele>532.052</ele>
        <time>2020-10-18T11:59:43Z</time>
      </trkpt>
      <trkpt lat="38.815174" lon="-0.518607">
        <ele>532.054</ele>
        <time>2020-10-18T11:59:44Z</time>
      </trkpt>
      <trkpt lat="38.815151" lon="-0.518491">
        <ele>532.026</ele>
        <time>2020-10-18T11:59:46Z</time>
      </trkpt>
      <trkpt lat="38.815130" lon="-0.518439">
        <ele>532.022</ele>
        <time>2020-10-18T11:59:47Z</time>
      </trkpt>
      <trkpt lat="38.815080" lon="-0.518348">
        <ele>532.020</ele>
        <time>2020-10-18T11:59:49Z</time>
      </trkpt>
      <trkpt lat="38.815058" lon="-0.518237">
        <ele>532.222</ele>
        <time>2020-10-18T11:59:51Z</time>
      </trkpt>
      <trkpt lat="38.815032" lon="-0.518130">
        <ele>532.669</ele>
        <time>2020-10-18T11:59:53Z</time>
      </trkpt>
      <trkpt lat="38.815009" lon="-0.517992">
        <ele>533.004</ele>
        <time>2020-10-18T11:59:56Z</time>
      </trkpt>
      <trkpt lat="38.814999" lon="-0.517959">
        <ele>533.424</ele>
        <time>2020-10-18T11:59:57Z</time>
      </trkpt>
      <trkpt lat="38.814991" lon="-0.517929">
        <ele>533.808</ele>
        <time>2020-10-18T11:59:58Z</time>
      </trkpt>
      <trkpt lat="38.814980" lon="-0.517843">
        <ele>535.051</ele>
        <time>2020-10-18T12:00:01Z</time>
      </trkpt>
      <trkpt lat="38.814971" lon="-0.517758">
        <ele>535.814</ele>
        <time>2020-10-18T12:00:04Z</time>
      </trkpt>
      <trkpt lat="38.814967" lon="-0.517659">
        <ele>536.074</ele>
        <time>2020-10-18T12:00:07Z</time>
      </trkpt>
      <trkpt lat="38.814919" lon="-0.517473">
        <ele>536.886</ele>
        <time>2020-10-18T12:00:13Z</time>
      </trkpt>
      <trkpt lat="38.814886" lon="-0.517380">
        <ele>536.828</ele>
        <time>2020-10-18T12:00:16Z</time>
      </trkpt>
      <trkpt lat="38.814842" lon="-0.517268">
        <ele>536.884</ele>
        <time>2020-10-18T12:00:19Z</time>
      </trkpt>
      <trkpt lat="38.814826" lon="-0.517225">
        <ele>536.812</ele>
        <time>2020-10-18T12:00:20Z</time>
      </trkpt>
      <trkpt lat="38.814771" lon="-0.517081">
        <ele>536.674</ele>
        <time>2020-10-18T12:00:23Z</time>
      </trkpt>
      <trkpt lat="38.814691" lon="-0.516887">
        <ele>536.466</ele>
        <time>2020-10-18T12:00:27Z</time>
      </trkpt>
      <trkpt lat="38.814567" lon="-0.516539">
        <ele>535.629</ele>
        <time>2020-10-18T12:00:33Z</time>
      </trkpt>
      <trkpt lat="38.814555" lon="-0.516487">
        <ele>535.621</ele>
        <time>2020-10-18T12:00:34Z</time>
      </trkpt>
      <trkpt lat="38.814537" lon="-0.516329">
        <ele>535.008</ele>
        <time>2020-10-18T12:00:36Z</time>
      </trkpt>
      <trkpt lat="38.814506" lon="-0.516196">
        <ele>534.611</ele>
        <time>2020-10-18T12:00:38Z</time>
      </trkpt>
      <trkpt lat="38.814476" lon="-0.516107">
        <ele>534.424</ele>
        <time>2020-10-18T12:00:39Z</time>
      </trkpt>
      <trkpt lat="38.814399" lon="-0.515977">
        <ele>533.814</ele>
        <time>2020-10-18T12:00:41Z</time>
      </trkpt>
      <trkpt lat="38.814304" lon="-0.515882">
        <ele>532.816</ele>
        <time>2020-10-18T12:00:43Z</time>
      </trkpt>
      <trkpt lat="38.814190" lon="-0.515823">
        <ele>532.278</ele>
        <time>2020-10-18T12:00:45Z</time>
      </trkpt>
      <trkpt lat="38.814073" lon="-0.515776">
        <ele>531.844</ele>
        <time>2020-10-18T12:00:47Z</time>
      </trkpt>
      <trkpt lat="38.814034" lon="-0.515749">
        <ele>531.412</ele>
        <time>2020-10-18T12:00:48Z</time>
      </trkpt>
      <trkpt lat="38.813994" lon="-0.515705">
        <ele>530.884</ele>
        <time>2020-10-18T12:00:49Z</time>
      </trkpt>
      <trkpt lat="38.813973" lon="-0.515642">
        <ele>530.467</ele>
        <time>2020-10-18T12:00:50Z</time>
      </trkpt>
      <trkpt lat="38.813984" lon="-0.515481">
        <ele>529.281</ele>
        <time>2020-10-18T12:00:52Z</time>
      </trkpt>
      <trkpt lat="38.814084" lon="-0.515189">
        <ele>528.419</ele>
        <time>2020-10-18T12:00:55Z</time>
      </trkpt>
      <trkpt lat="38.814109" lon="-0.515091">
        <ele>528.008</ele>
        <time>2020-10-18T12:00:56Z</time>
      </trkpt>
      <trkpt lat="38.814121" lon="-0.514994">
        <ele>527.431</ele>
        <time>2020-10-18T12:00:57Z</time>
      </trkpt>
      <trkpt lat="38.814119" lon="-0.514918">
        <ele>526.814</ele>
        <time>2020-10-18T12:00:58Z</time>
      </trkpt>
      <trkpt lat="38.814101" lon="-0.514830">
        <ele>526.244</ele>
        <time>2020-10-18T12:00:59Z</time>
      </trkpt>
      <trkpt lat="38.814064" lon="-0.514757">
        <ele>525.626</ele>
        <time>2020-10-18T12:01:00Z</time>
      </trkpt>
      <trkpt lat="38.813999" lon="-0.514690">
        <ele>524.898</ele>
        <time>2020-10-18T12:01:01Z</time>
      </trkpt>
      <trkpt lat="38.813940" lon="-0.514651">
        <ele>524.044</ele>
        <time>2020-10-18T12:01:02Z</time>
      </trkpt>
      <trkpt lat="38.813890" lon="-0.514611">
        <ele>523.492</ele>
        <time>2020-10-18T12:01:03Z</time>
      </trkpt>
      <trkpt lat="38.813860" lon="-0.514566">
        <ele>522.644</ele>
        <time>2020-10-18T12:01:04Z</time>
      </trkpt>
      <trkpt lat="38.813853" lon="-0.514526">
        <ele>522.087</ele>
        <time>2020-10-18T12:01:05Z</time>
      </trkpt>
      <trkpt lat="38.813870" lon="-0.514467">
        <ele>521.242</ele>
        <time>2020-10-18T12:01:06Z</time>
      </trkpt>
      <trkpt lat="38.813962" lon="-0.514394">
        <ele>520.026</ele>
        <time>2020-10-18T12:01:08Z</time>
      </trkpt>
      <trkpt lat="38.814007" lon="-0.514358">
        <ele>519.808</ele>
        <time>2020-10-18T12:01:09Z</time>
      </trkpt>
      <trkpt lat="38.814069" lon="-0.514300">
        <ele>519.693</ele>
        <time>2020-10-18T12:01:10Z</time>
      </trkpt>
      <trkpt lat="38.814155" lon="-0.514173">
        <ele>519.226</ele>
        <time>2020-10-18T12:01:12Z</time>
      </trkpt>
      <trkpt lat="38.814185" lon="-0.514113">
        <ele>519.096</ele>
        <time>2020-10-18T12:01:13Z</time>
      </trkpt>
      <trkpt lat="38.814263" lon="-0.513870">
        <ele>518.618</ele>
        <time>2020-10-18T12:01:16Z</time>
      </trkpt>
      <trkpt lat="38.814295" lon="-0.513702">
        <ele>518.090</ele>
        <time>2020-10-18T12:01:18Z</time>
      </trkpt>
      <trkpt lat="38.814306" lon="-0.513637">
        <ele>517.886</ele>
        <time>2020-10-18T12:01:19Z</time>
      </trkpt>
      <trkpt lat="38.814397" lon="-0.513137">
        <ele>516.684</ele>
        <time>2020-10-18T12:01:25Z</time>
      </trkpt>
      <trkpt lat="38.814483" lon="-0.512869">
        <ele>515.646</ele>
        <time>2020-10-18T12:01:28Z</time>
      </trkpt>
      <trkpt lat="38.814507" lon="-0.512784">
        <ele>515.251</ele>
        <time>2020-10-18T12:01:29Z</time>
      </trkpt>
      <trkpt lat="38.814541" lon="-0.512611">
        <ele>514.601</ele>
        <time>2020-10-18T12:01:31Z</time>
      </trkpt>
      <trkpt lat="38.814551" lon="-0.512521">
        <ele>514.411</ele>
        <time>2020-10-18T12:01:32Z</time>
      </trkpt>
      <trkpt lat="38.814546" lon="-0.512286">
        <ele>513.408</ele>
        <time>2020-10-18T12:01:35Z</time>
      </trkpt>
      <trkpt lat="38.814528" lon="-0.512208">
        <ele>513.250</ele>
        <time>2020-10-18T12:01:36Z</time>
      </trkpt>
      <trkpt lat="38.814483" lon="-0.511970">
        <ele>512.073</ele>
        <time>2020-10-18T12:01:39Z</time>
      </trkpt>
      <trkpt lat="38.814413" lon="-0.511628">
        <ele>510.823</ele>
        <time>2020-10-18T12:01:43Z</time>
      </trkpt>
      <trkpt lat="38.814386" lon="-0.511431">
        <ele>509.635</ele>
        <time>2020-10-18T12:01:45Z</time>
      </trkpt>
      <trkpt lat="38.814377" lon="-0.511331">
        <ele>509.257</ele>
        <time>2020-10-18T12:01:46Z</time>
      </trkpt>
      <trkpt lat="38.814376" lon="-0.511230">
        <ele>508.853</ele>
        <time>2020-10-18T12:01:47Z</time>
      </trkpt>
      <trkpt lat="38.814379" lon="-0.511129">
        <ele>508.481</ele>
        <time>2020-10-18T12:01:48Z</time>
      </trkpt>
      <trkpt lat="38.814388" lon="-0.511027">
        <ele>508.293</ele>
        <time>2020-10-18T12:01:49Z</time>
      </trkpt>
      <trkpt lat="38.814449" lon="-0.510724">
        <ele>507.677</ele>
        <time>2020-10-18T12:01:52Z</time>
      </trkpt>
      <trkpt lat="38.814463" lon="-0.510616">
        <ele>507.461</ele>
        <time>2020-10-18T12:01:53Z</time>
      </trkpt>
      <trkpt lat="38.814485" lon="-0.510287">
        <ele>505.627</ele>
        <time>2020-10-18T12:01:56Z</time>
      </trkpt>
      <trkpt lat="38.814485" lon="-0.510174">
        <ele>504.408</ele>
        <time>2020-10-18T12:01:57Z</time>
      </trkpt>
      <trkpt lat="38.814481" lon="-0.510061">
        <ele>502.862</ele>
        <time>2020-10-18T12:01:58Z</time>
      </trkpt>
      <trkpt lat="38.814481" lon="-0.510061">
        <ele>501.655</ele>
        <time>2020-10-18T12:01:59Z</time>
      </trkpt>
      <trkpt lat="38.814462" lon="-0.509717">
        <ele>500.645</ele>
        <time>2020-10-18T12:02:01Z</time>
      </trkpt>
      <trkpt lat="38.814447" lon="-0.509485">
        <ele>500.437</ele>
        <time>2020-10-18T12:02:03Z</time>
      </trkpt>
      <trkpt lat="38.814411" lon="-0.509133">
        <ele>499.869</ele>
        <time>2020-10-18T12:02:06Z</time>
      </trkpt>
      <trkpt lat="38.814385" lon="-0.509023">
        <ele>499.485</ele>
        <time>2020-10-18T12:02:07Z</time>
      </trkpt>
      <trkpt lat="38.814358" lon="-0.508916">
        <ele>498.653</ele>
        <time>2020-10-18T12:02:08Z</time>
      </trkpt>
      <trkpt lat="38.814328" lon="-0.508809">
        <ele>497.675</ele>
        <time>2020-10-18T12:02:09Z</time>
      </trkpt>
      <trkpt lat="38.814251" lon="-0.508493">
        <ele>496.621</ele>
        <time>2020-10-18T12:02:12Z</time>
      </trkpt>
      <trkpt lat="38.814191" lon="-0.508188">
        <ele>496.041</ele>
        <time>2020-10-18T12:02:15Z</time>
      </trkpt>
      <trkpt lat="38.814140" lon="-0.507695">
        <ele>495.405</ele>
        <time>2020-10-18T12:02:20Z</time>
      </trkpt>
      <trkpt lat="38.814127" lon="-0.507607">
        <ele>495.408</ele>
        <time>2020-10-18T12:02:21Z</time>
      </trkpt>
      <trkpt lat="38.814072" lon="-0.507431">
        <ele>495.457</ele>
        <time>2020-10-18T12:02:23Z</time>
      </trkpt>
      <trkpt lat="38.813991" lon="-0.507206">
        <ele>495.080</ele>
        <time>2020-10-18T12:02:26Z</time>
      </trkpt>
      <trkpt lat="38.813968" lon="-0.507014">
        <ele>494.850</ele>
        <time>2020-10-18T12:02:28Z</time>
      </trkpt>
      <trkpt lat="38.813953" lon="-0.506855">
        <ele>494.442</ele>
        <time>2020-10-18T12:02:30Z</time>
      </trkpt>
      <trkpt lat="38.813934" lon="-0.506752">
        <ele>494.214</ele>
        <time>2020-10-18T12:02:31Z</time>
      </trkpt>
      <trkpt lat="38.813888" lon="-0.506498">
        <ele>493.680</ele>
        <time>2020-10-18T12:02:34Z</time>
      </trkpt>
      <trkpt lat="38.813877" lon="-0.506434">
        <ele>493.428</ele>
        <time>2020-10-18T12:02:35Z</time>
      </trkpt>
      <trkpt lat="38.813862" lon="-0.506343">
        <ele>493.280</ele>
        <time>2020-10-18T12:02:36Z</time>
      </trkpt>
      <trkpt lat="38.813818" lon="-0.506043">
        <ele>492.868</ele>
        <time>2020-10-18T12:02:40Z</time>
      </trkpt>
      <trkpt lat="38.813795" lon="-0.505948">
        <ele>492.842</ele>
        <time>2020-10-18T12:02:41Z</time>
      </trkpt>
      <trkpt lat="38.813750" lon="-0.505801">
        <ele>492.426</ele>
        <time>2020-10-18T12:02:43Z</time>
      </trkpt>
      <trkpt lat="38.813744" lon="-0.505740">
        <ele>492.208</ele>
        <time>2020-10-18T12:02:44Z</time>
      </trkpt>
      <trkpt lat="38.813749" lon="-0.505651">
        <ele>492.011</ele>
        <time>2020-10-18T12:02:45Z</time>
      </trkpt>
      <trkpt lat="38.813823" lon="-0.505326">
        <ele>491.674</ele>
        <time>2020-10-18T12:02:49Z</time>
      </trkpt>
      <trkpt lat="38.813837" lon="-0.505234">
        <ele>491.494</ele>
        <time>2020-10-18T12:02:50Z</time>
      </trkpt>
      <trkpt lat="38.813848" lon="-0.505140">
        <ele>491.086</ele>
        <time>2020-10-18T12:02:51Z</time>
      </trkpt>
      <trkpt lat="38.813866" lon="-0.504951">
        <ele>490.068</ele>
        <time>2020-10-18T12:02:53Z</time>
      </trkpt>
      <trkpt lat="38.813872" lon="-0.504875">
        <ele>489.464</ele>
        <time>2020-10-18T12:02:54Z</time>
      </trkpt>
      <trkpt lat="38.813881" lon="-0.504701">
        <ele>488.662</ele>
        <time>2020-10-18T12:02:56Z</time>
      </trkpt>
      <trkpt lat="38.813888" lon="-0.504580">
        <ele>487.664</ele>
        <time>2020-10-18T12:02:58Z</time>
      </trkpt>
      <trkpt lat="38.813905" lon="-0.504551">
        <ele>487.241</ele>
        <time>2020-10-18T12:02:59Z</time>
      </trkpt>
      <trkpt lat="38.813960" lon="-0.504511">
        <ele>486.681</ele>
        <time>2020-10-18T12:03:01Z</time>
      </trkpt>
      <trkpt lat="38.813984" lon="-0.504488">
        <ele>486.009</ele>
        <time>2020-10-18T12:03:02Z</time>
      </trkpt>
      <trkpt lat="38.814002" lon="-0.504481">
        <ele>485.608</ele>
        <time>2020-10-18T12:03:03Z</time>
      </trkpt>
      <trkpt lat="38.814017" lon="-0.504490">
        <ele>485.039</ele>
        <time>2020-10-18T12:03:04Z</time>
      </trkpt>
      <trkpt lat="38.814031" lon="-0.504502">
        <ele>484.462</ele>
        <time>2020-10-18T12:03:05Z</time>
      </trkpt>
      <trkpt lat="38.814059" lon="-0.504522">
        <ele>483.892</ele>
        <time>2020-10-18T12:03:06Z</time>
      </trkpt>
      <trkpt lat="38.814121" lon="-0.504555">
        <ele>482.874</ele>
        <time>2020-10-18T12:03:08Z</time>
      </trkpt>
      <trkpt lat="38.814182" lon="-0.504590">
        <ele>482.456</ele>
        <time>2020-10-18T12:03:10Z</time>
      </trkpt>
      <trkpt lat="38.814228" lon="-0.504764">
        <ele>482.072</ele>
        <time>2020-10-18T12:03:14Z</time>
      </trkpt>
      <trkpt lat="38.814242" lon="-0.504852">
        <ele>481.860</ele>
        <time>2020-10-18T12:03:16Z</time>
      </trkpt>
      <trkpt lat="38.814311" lon="-0.505033">
        <ele>481.632</ele>
        <time>2020-10-18T12:03:20Z</time>
      </trkpt>
      <trkpt lat="38.814330" lon="-0.505087">
        <ele>481.687</ele>
        <time>2020-10-18T12:03:21Z</time>
      </trkpt>
      <trkpt lat="38.814376" lon="-0.505196">
        <ele>481.242</ele>
        <time>2020-10-18T12:03:23Z</time>
      </trkpt>
      <trkpt lat="38.814404" lon="-0.505242">
        <ele>481.226</ele>
        <time>2020-10-18T12:03:24Z</time>
      </trkpt>
      <trkpt lat="38.814479" lon="-0.505353">
        <ele>480.608</ele>
        <time>2020-10-18T12:03:26Z</time>
      </trkpt>
      <trkpt lat="38.814549" lon="-0.505462">
        <ele>479.623</ele>
        <time>2020-10-18T12:03:28Z</time>
      </trkpt>
      <trkpt lat="38.814582" lon="-0.505500">
        <ele>479.226</ele>
        <time>2020-10-18T12:03:29Z</time>
      </trkpt>
      <trkpt lat="38.814705" lon="-0.505668">
        <ele>478.496</ele>
        <time>2020-10-18T12:03:32Z</time>
      </trkpt>
      <trkpt lat="38.814842" lon="-0.505809">
        <ele>477.448</ele>
        <time>2020-10-18T12:03:35Z</time>
      </trkpt>
      <trkpt lat="38.814995" lon="-0.505959">
        <ele>476.250</ele>
        <time>2020-10-18T12:03:38Z</time>
      </trkpt>
      <trkpt lat="38.815156" lon="-0.506113">
        <ele>475.436</ele>
        <time>2020-10-18T12:03:41Z</time>
      </trkpt>
      <trkpt lat="38.815211" lon="-0.506167">
        <ele>475.054</ele>
        <time>2020-10-18T12:03:42Z</time>
      </trkpt>
      <trkpt lat="38.815502" lon="-0.506469">
        <ele>474.236</ele>
        <time>2020-10-18T12:03:47Z</time>
      </trkpt>
      <trkpt lat="38.815561" lon="-0.506530">
        <ele>474.046</ele>
        <time>2020-10-18T12:03:48Z</time>
      </trkpt>
      <trkpt lat="38.815734" lon="-0.506681">
        <ele>472.288</ele>
        <time>2020-10-18T12:03:51Z</time>
      </trkpt>
      <trkpt lat="38.815933" lon="-0.506813">
        <ele>471.416</ele>
        <time>2020-10-18T12:03:54Z</time>
      </trkpt>
      <trkpt lat="38.815998" lon="-0.506855">
        <ele>471.208</ele>
        <time>2020-10-18T12:03:55Z</time>
      </trkpt>
      <trkpt lat="38.816347" lon="-0.507004">
        <ele>470.689</ele>
        <time>2020-10-18T12:04:00Z</time>
      </trkpt>
      <trkpt lat="38.816491" lon="-0.507046">
        <ele>470.062</ele>
        <time>2020-10-18T12:04:02Z</time>
      </trkpt>
      <trkpt lat="38.816719" lon="-0.507070">
        <ele>469.862</ele>
        <time>2020-10-18T12:04:05Z</time>
      </trkpt>
      <trkpt lat="38.817110" lon="-0.507052">
        <ele>469.454</ele>
        <time>2020-10-18T12:04:10Z</time>
      </trkpt>
      <trkpt lat="38.817201" lon="-0.507038">
        <ele>469.016</ele>
        <time>2020-10-18T12:04:11Z</time>
      </trkpt>
      <trkpt lat="38.817275" lon="-0.507024">
        <ele>468.632</ele>
        <time>2020-10-18T12:04:12Z</time>
      </trkpt>
      <trkpt lat="38.817409" lon="-0.507003">
        <ele>468.030</ele>
        <time>2020-10-18T12:04:14Z</time>
      </trkpt>
      <trkpt lat="38.817499" lon="-0.506989">
        <ele>467.822</ele>
        <time>2020-10-18T12:04:15Z</time>
      </trkpt>
      <trkpt lat="38.817713" lon="-0.506951">
        <ele>466.886</ele>
        <time>2020-10-18T12:04:18Z</time>
      </trkpt>
      <trkpt lat="38.817786" lon="-0.506945">
        <ele>466.460</ele>
        <time>2020-10-18T12:04:19Z</time>
      </trkpt>
      <trkpt lat="38.817861" lon="-0.506939">
        <ele>466.226</ele>
        <time>2020-10-18T12:04:20Z</time>
      </trkpt>
      <trkpt lat="38.818065" lon="-0.506947">
        <ele>465.408</ele>
        <time>2020-10-18T12:04:23Z</time>
      </trkpt>
      <trkpt lat="38.818197" lon="-0.506994">
        <ele>465.093</ele>
        <time>2020-10-18T12:04:25Z</time>
      </trkpt>
      <trkpt lat="38.818408" lon="-0.507066">
        <ele>464.056</ele>
        <time>2020-10-18T12:04:28Z</time>
      </trkpt>
      <trkpt lat="38.818568" lon="-0.507114">
        <ele>462.886</ele>
        <time>2020-10-18T12:04:30Z</time>
      </trkpt>
      <trkpt lat="38.818796" lon="-0.507248">
        <ele>461.878</ele>
        <time>2020-10-18T12:04:33Z</time>
      </trkpt>
      <trkpt lat="38.818867" lon="-0.507300">
        <ele>461.690</ele>
        <time>2020-10-18T12:04:34Z</time>
      </trkpt>
      <trkpt lat="38.819048" lon="-0.507470">
        <ele>460.436</ele>
        <time>2020-10-18T12:04:37Z</time>
      </trkpt>
      <trkpt lat="38.819123" lon="-0.507551">
        <ele>460.094</ele>
        <time>2020-10-18T12:04:38Z</time>
      </trkpt>
      <trkpt lat="38.819242" lon="-0.507699">
        <ele>459.416</ele>
        <time>2020-10-18T12:04:40Z</time>
      </trkpt>
      <trkpt lat="38.819427" lon="-0.508022">
        <ele>458.678</ele>
        <time>2020-10-18T12:04:44Z</time>
      </trkpt>
      <trkpt lat="38.819501" lon="-0.508204">
        <ele>458.433</ele>
        <time>2020-10-18T12:04:46Z</time>
      </trkpt>
      <trkpt lat="38.819628" lon="-0.508577">
        <ele>457.026</ele>
        <time>2020-10-18T12:04:50Z</time>
      </trkpt>
      <trkpt lat="38.819761" lon="-0.508945">
        <ele>455.808</ele>
        <time>2020-10-18T12:04:54Z</time>
      </trkpt>
      <trkpt lat="38.819878" lon="-0.509222">
        <ele>454.432</ele>
        <time>2020-10-18T12:04:57Z</time>
      </trkpt>
      <trkpt lat="38.819923" lon="-0.509306">
        <ele>454.065</ele>
        <time>2020-10-18T12:04:58Z</time>
      </trkpt>
      <trkpt lat="38.819968" lon="-0.509389">
        <ele>453.435</ele>
        <time>2020-10-18T12:04:59Z</time>
      </trkpt>
      <trkpt lat="38.820074" lon="-0.509544">
        <ele>452.897</ele>
        <time>2020-10-18T12:05:01Z</time>
      </trkpt>
      <trkpt lat="38.820135" lon="-0.509614">
        <ele>452.239</ele>
        <time>2020-10-18T12:05:02Z</time>
      </trkpt>
      <trkpt lat="38.820203" lon="-0.509675">
        <ele>451.695</ele>
        <time>2020-10-18T12:05:03Z</time>
      </trkpt>
      <trkpt lat="38.820203" lon="-0.509675">
        <ele>451.073</ele>
        <time>2020-10-18T12:05:04Z</time>
      </trkpt>
      <trkpt lat="38.820363" lon="-0.509768">
        <ele>450.695</ele>
        <time>2020-10-18T12:05:05Z</time>
      </trkpt>
      <trkpt lat="38.820446" lon="-0.509800">
        <ele>450.088</ele>
        <time>2020-10-18T12:05:06Z</time>
      </trkpt>
      <trkpt lat="38.820536" lon="-0.509819">
        <ele>449.424</ele>
        <time>2020-10-18T12:05:07Z</time>
      </trkpt>
      <trkpt lat="38.820627" lon="-0.509829">
        <ele>448.826</ele>
        <time>2020-10-18T12:05:08Z</time>
      </trkpt>
      <trkpt lat="38.820903" lon="-0.509833">
        <ele>447.408</ele>
        <time>2020-10-18T12:05:11Z</time>
      </trkpt>
      <trkpt lat="38.821094" lon="-0.509843">
        <ele>446.473</ele>
        <time>2020-10-18T12:05:13Z</time>
      </trkpt>
      <trkpt lat="38.821350" lon="-0.509829">
        <ele>445.296</ele>
        <time>2020-10-18T12:05:16Z</time>
      </trkpt>
      <trkpt lat="38.821603" lon="-0.509770">
        <ele>444.286</ele>
        <time>2020-10-18T12:05:19Z</time>
      </trkpt>
      <trkpt lat="38.821667" lon="-0.509751">
        <ele>443.678</ele>
        <time>2020-10-18T12:05:20Z</time>
      </trkpt>
      <trkpt lat="38.821914" lon="-0.509633">
        <ele>442.840</ele>
        <time>2020-10-18T12:05:23Z</time>
      </trkpt>
      <trkpt lat="38.821987" lon="-0.509584">
        <ele>442.626</ele>
        <time>2020-10-18T12:05:24Z</time>
      </trkpt>
      <trkpt lat="38.822207" lon="-0.509423">
        <ele>442.094</ele>
        <time>2020-10-18T12:05:27Z</time>
      </trkpt>
      <trkpt lat="38.822280" lon="-0.509373">
        <ele>441.686</ele>
        <time>2020-10-18T12:05:28Z</time>
      </trkpt>
      <trkpt lat="38.822416" lon="-0.509305">
        <ele>440.246</ele>
        <time>2020-10-18T12:05:30Z</time>
      </trkpt>
      <trkpt lat="38.822516" lon="-0.509269">
        <ele>439.688</ele>
        <time>2020-10-18T12:05:31Z</time>
      </trkpt>
      <trkpt lat="38.822698" lon="-0.509228">
        <ele>439.016</ele>
        <time>2020-10-18T12:05:33Z</time>
      </trkpt>
      <trkpt lat="38.822866" lon="-0.509225">
        <ele>438.208</ele>
        <time>2020-10-18T12:05:35Z</time>
      </trkpt>
      <trkpt lat="38.822978" lon="-0.509236">
        <ele>438.019</ele>
        <time>2020-10-18T12:05:36Z</time>
      </trkpt>
      <trkpt lat="38.823166" lon="-0.509276">
        <ele>436.882</ele>
        <time>2020-10-18T12:05:38Z</time>
      </trkpt>
      <trkpt lat="38.823331" lon="-0.509328">
        <ele>435.612</ele>
        <time>2020-10-18T12:05:40Z</time>
      </trkpt>
      <trkpt lat="38.823520" lon="-0.509378">
        <ele>434.414</ele>
        <time>2020-10-18T12:05:42Z</time>
      </trkpt>
      <trkpt lat="38.823707" lon="-0.509410">
        <ele>433.446</ele>
        <time>2020-10-18T12:05:44Z</time>
      </trkpt>
      <trkpt lat="38.823893" lon="-0.509418">
        <ele>432.212</ele>
        <time>2020-10-18T12:05:46Z</time>
      </trkpt>
      <trkpt lat="38.824073" lon="-0.509420">
        <ele>431.250</ele>
        <time>2020-10-18T12:05:48Z</time>
      </trkpt>
      <trkpt lat="38.824508" lon="-0.509390">
        <ele>430.092</ele>
        <time>2020-10-18T12:05:53Z</time>
      </trkpt>
      <trkpt lat="38.824590" lon="-0.509378">
        <ele>429.637</ele>
        <time>2020-10-18T12:05:54Z</time>
      </trkpt>
      <trkpt lat="38.824757" lon="-0.509333">
        <ele>429.049</ele>
        <time>2020-10-18T12:05:56Z</time>
      </trkpt>
      <trkpt lat="38.824831" lon="-0.509301">
        <ele>428.813</ele>
        <time>2020-10-18T12:05:57Z</time>
      </trkpt>
      <trkpt lat="38.824957" lon="-0.509230">
        <ele>428.208</ele>
        <time>2020-10-18T12:05:59Z</time>
      </trkpt>
      <trkpt lat="38.825084" lon="-0.509128">
        <ele>427.488</ele>
        <time>2020-10-18T12:06:01Z</time>
      </trkpt>
      <trkpt lat="38.825200" lon="-0.508997">
        <ele>426.621</ele>
        <time>2020-10-18T12:06:03Z</time>
      </trkpt>
      <trkpt lat="38.825257" lon="-0.508923">
        <ele>426.071</ele>
        <time>2020-10-18T12:06:04Z</time>
      </trkpt>
      <trkpt lat="38.825364" lon="-0.508771">
        <ele>424.833</ele>
        <time>2020-10-18T12:06:06Z</time>
      </trkpt>
      <trkpt lat="38.825479" lon="-0.508619">
        <ele>423.455</ele>
        <time>2020-10-18T12:06:08Z</time>
      </trkpt>
      <trkpt lat="38.825546" lon="-0.508560">
        <ele>422.491</ele>
        <time>2020-10-18T12:06:09Z</time>
      </trkpt>
      <trkpt lat="38.825625" lon="-0.508516">
        <ele>421.679</ele>
        <time>2020-10-18T12:06:10Z</time>
      </trkpt>
      <trkpt lat="38.825730" lon="-0.508485">
        <ele>420.861</ele>
        <time>2020-10-18T12:06:11Z</time>
      </trkpt>
      <trkpt lat="38.825820" lon="-0.508486">
        <ele>419.879</ele>
        <time>2020-10-18T12:06:12Z</time>
      </trkpt>
      <trkpt lat="38.825893" lon="-0.508500">
        <ele>418.605</ele>
        <time>2020-10-18T12:06:13Z</time>
      </trkpt>
      <trkpt lat="38.825981" lon="-0.508529">
        <ele>417.625</ele>
        <time>2020-10-18T12:06:14Z</time>
      </trkpt>
      <trkpt lat="38.826061" lon="-0.508574">
        <ele>416.808</ele>
        <time>2020-10-18T12:06:15Z</time>
      </trkpt>
      <trkpt lat="38.826133" lon="-0.508630">
        <ele>416.482</ele>
        <time>2020-10-18T12:06:16Z</time>
      </trkpt>
      <trkpt lat="38.826267" lon="-0.508772">
        <ele>415.235</ele>
        <time>2020-10-18T12:06:18Z</time>
      </trkpt>
      <trkpt lat="38.826310" lon="-0.508821">
        <ele>414.475</ele>
        <time>2020-10-18T12:06:19Z</time>
      </trkpt>
      <trkpt lat="38.826367" lon="-0.508884">
        <ele>413.827</ele>
        <time>2020-10-18T12:06:20Z</time>
      </trkpt>
      <trkpt lat="38.826496" lon="-0.508998">
        <ele>412.669</ele>
        <time>2020-10-18T12:06:22Z</time>
      </trkpt>
      <trkpt lat="38.826599" lon="-0.509064">
        <ele>411.825</ele>
        <time>2020-10-18T12:06:24Z</time>
      </trkpt>
      <trkpt lat="38.826698" lon="-0.509131">
        <ele>411.463</ele>
        <time>2020-10-18T12:06:26Z</time>
      </trkpt>
      <trkpt lat="38.826741" lon="-0.509171">
        <ele>411.275</ele>
        <time>2020-10-18T12:06:27Z</time>
      </trkpt>
      <trkpt lat="38.826779" lon="-0.509218">
        <ele>410.872</ele>
        <time>2020-10-18T12:06:28Z</time>
      </trkpt>
      <trkpt lat="38.826812" lon="-0.509268">
        <ele>410.613</ele>
        <time>2020-10-18T12:06:29Z</time>
      </trkpt>
      <trkpt lat="38.826840" lon="-0.509320">
        <ele>410.414</ele>
        <time>2020-10-18T12:06:30Z</time>
      </trkpt>
      <trkpt lat="38.826863" lon="-0.509387">
        <ele>410.208</ele>
        <time>2020-10-18T12:06:31Z</time>
      </trkpt>
      <trkpt lat="38.826879" lon="-0.509441">
        <ele>410.052</ele>
        <time>2020-10-18T12:06:32Z</time>
      </trkpt>
      <trkpt lat="38.826920" lon="-0.509578">
        <ele>409.085</ele>
        <time>2020-10-18T12:06:35Z</time>
      </trkpt>
      <trkpt lat="38.826946" lon="-0.509602">
        <ele>408.875</ele>
        <time>2020-10-18T12:06:36Z</time>
      </trkpt>
      <trkpt lat="38.827089" lon="-0.509620">
        <ele>408.097</ele>
        <time>2020-10-18T12:06:40Z</time>
      </trkpt>
      <trkpt lat="38.827310" lon="-0.509607">
        <ele>407.459</ele>
        <time>2020-10-18T12:06:45Z</time>
      </trkpt>
      <trkpt lat="38.827356" lon="-0.509621">
        <ele>407.465</ele>
        <time>2020-10-18T12:06:46Z</time>
      </trkpt>
      <trkpt lat="38.827401" lon="-0.509640">
        <ele>407.213</ele>
        <time>2020-10-18T12:06:47Z</time>
      </trkpt>
      <trkpt lat="38.827474" lon="-0.509696">
        <ele>407.285</ele>
        <time>2020-10-18T12:06:49Z</time>
      </trkpt>
      <trkpt lat="38.827512" lon="-0.509735">
        <ele>407.218</ele>
        <time>2020-10-18T12:06:50Z</time>
      </trkpt>
      <trkpt lat="38.827549" lon="-0.509791">
        <ele>407.298</ele>
        <time>2020-10-18T12:06:51Z</time>
      </trkpt>
      <trkpt lat="38.827597" lon="-0.509877">
        <ele>407.417</ele>
        <time>2020-10-18T12:06:53Z</time>
      </trkpt>
      <trkpt lat="38.827633" lon="-0.509992">
        <ele>407.608</ele>
        <time>2020-10-18T12:06:55Z</time>
      </trkpt>
      <trkpt lat="38.827645" lon="-0.510052">
        <ele>407.656</ele>
        <time>2020-10-18T12:06:56Z</time>
      </trkpt>
      <trkpt lat="38.827655" lon="-0.510176">
        <ele>408.029</ele>
        <time>2020-10-18T12:06:58Z</time>
      </trkpt>
      <trkpt lat="38.827629" lon="-0.510366">
        <ele>408.019</ele>
        <time>2020-10-18T12:07:01Z</time>
      </trkpt>
      <trkpt lat="38.827605" lon="-0.510484">
        <ele>408.251</ele>
        <time>2020-10-18T12:07:03Z</time>
      </trkpt>
      <trkpt lat="38.827600" lon="-0.510611">
        <ele>408.483</ele>
        <time>2020-10-18T12:07:05Z</time>
      </trkpt>
      <trkpt lat="38.827611" lon="-0.510673">
        <ele>408.419</ele>
        <time>2020-10-18T12:07:06Z</time>
      </trkpt>
      <trkpt lat="38.827625" lon="-0.510736">
        <ele>408.437</ele>
        <time>2020-10-18T12:07:07Z</time>
      </trkpt>
      <trkpt lat="38.827671" lon="-0.510854">
        <ele>408.459</ele>
        <time>2020-10-18T12:07:09Z</time>
      </trkpt>
      <trkpt lat="38.827707" lon="-0.510902">
        <ele>408.428</ele>
        <time>2020-10-18T12:07:10Z</time>
      </trkpt>
      <trkpt lat="38.827750" lon="-0.510945">
        <ele>408.489</ele>
        <time>2020-10-18T12:07:11Z</time>
      </trkpt>
      <trkpt lat="38.827988" lon="-0.511135">
        <ele>407.817</ele>
        <time>2020-10-18T12:07:16Z</time>
      </trkpt>
      <trkpt lat="38.828201" lon="-0.511314">
        <ele>406.808</ele>
        <time>2020-10-18T12:07:20Z</time>
      </trkpt>
      <trkpt lat="38.828258" lon="-0.511364">
        <ele>406.617</ele>
        <time>2020-10-18T12:07:21Z</time>
      </trkpt>
      <trkpt lat="38.828441" lon="-0.511498">
        <ele>405.690</ele>
        <time>2020-10-18T12:07:24Z</time>
      </trkpt>
      <trkpt lat="38.828580" lon="-0.511563">
        <ele>405.450</ele>
        <time>2020-10-18T12:07:26Z</time>
      </trkpt>
      <trkpt lat="38.828806" lon="-0.511603">
        <ele>404.442</ele>
        <time>2020-10-18T12:07:29Z</time>
      </trkpt>
      <trkpt lat="38.828987" lon="-0.511634">
        <ele>403.084</ele>
        <time>2020-10-18T12:07:31Z</time>
      </trkpt>
      <trkpt lat="38.829072" lon="-0.511652">
        <ele>402.240</ele>
        <time>2020-10-18T12:07:32Z</time>
      </trkpt>
      <trkpt lat="38.829158" lon="-0.511676">
        <ele>401.468</ele>
        <time>2020-10-18T12:07:33Z</time>
      </trkpt>
      <trkpt lat="38.829332" lon="-0.511744">
        <ele>400.440</ele>
        <time>2020-10-18T12:07:35Z</time>
      </trkpt>
      <trkpt lat="38.829506" lon="-0.511832">
        <ele>399.219</ele>
        <time>2020-10-18T12:07:37Z</time>
      </trkpt>
      <trkpt lat="38.829685" lon="-0.511945">
        <ele>397.809</ele>
        <time>2020-10-18T12:07:39Z</time>
      </trkpt>
      <trkpt lat="38.829860" lon="-0.512070">
        <ele>396.419</ele>
        <time>2020-10-18T12:07:41Z</time>
      </trkpt>
      <trkpt lat="38.829949" lon="-0.512133">
        <ele>396.008</ele>
        <time>2020-10-18T12:07:42Z</time>
      </trkpt>
      <trkpt lat="38.830128" lon="-0.512260">
        <ele>395.056</ele>
        <time>2020-10-18T12:07:44Z</time>
      </trkpt>
      <trkpt lat="38.830223" lon="-0.512311">
        <ele>394.449</ele>
        <time>2020-10-18T12:07:45Z</time>
      </trkpt>
      <trkpt lat="38.830322" lon="-0.512344">
        <ele>393.859</ele>
        <time>2020-10-18T12:07:46Z</time>
      </trkpt>
      <trkpt lat="38.830422" lon="-0.512359">
        <ele>393.641</ele>
        <time>2020-10-18T12:07:47Z</time>
      </trkpt>
      <trkpt lat="38.830614" lon="-0.512321">
        <ele>393.053</ele>
        <time>2020-10-18T12:07:49Z</time>
      </trkpt>
      <trkpt lat="38.830684" lon="-0.512295">
        <ele>392.629</ele>
        <time>2020-10-18T12:07:50Z</time>
      </trkpt>
      <trkpt lat="38.830791" lon="-0.512262">
        <ele>392.297</ele>
        <time>2020-10-18T12:07:51Z</time>
      </trkpt>
      <trkpt lat="38.830878" lon="-0.512257">
        <ele>391.629</ele>
        <time>2020-10-18T12:07:52Z</time>
      </trkpt>
      <trkpt lat="38.830943" lon="-0.512280">
        <ele>391.061</ele>
        <time>2020-10-18T12:07:53Z</time>
      </trkpt>
      <trkpt lat="38.831015" lon="-0.512335">
        <ele>390.821</ele>
        <time>2020-10-18T12:07:54Z</time>
      </trkpt>
      <trkpt lat="38.831080" lon="-0.512430">
        <ele>390.813</ele>
        <time>2020-10-18T12:07:55Z</time>
      </trkpt>
      <trkpt lat="38.831183" lon="-0.512605">
        <ele>390.608</ele>
        <time>2020-10-18T12:07:57Z</time>
      </trkpt>
      <trkpt lat="38.831298" lon="-0.512768">
        <ele>390.481</ele>
        <time>2020-10-18T12:07:59Z</time>
      </trkpt>
      <trkpt lat="38.831432" lon="-0.512918">
        <ele>390.264</ele>
        <time>2020-10-18T12:08:01Z</time>
      </trkpt>
      <trkpt lat="38.831511" lon="-0.512977">
        <ele>389.874</ele>
        <time>2020-10-18T12:08:02Z</time>
      </trkpt>
      <trkpt lat="38.831688" lon="-0.513026">
        <ele>389.236</ele>
        <time>2020-10-18T12:08:04Z</time>
      </trkpt>
      <trkpt lat="38.831785" lon="-0.513030">
        <ele>388.648</ele>
        <time>2020-10-18T12:08:05Z</time>
      </trkpt>
      <trkpt lat="38.831885" lon="-0.513034">
        <ele>387.864</ele>
        <time>2020-10-18T12:08:06Z</time>
      </trkpt>
      <trkpt lat="38.832069" lon="-0.513037">
        <ele>386.632</ele>
        <time>2020-10-18T12:08:08Z</time>
      </trkpt>
      <trkpt lat="38.832285" lon="-0.513015">
        <ele>385.654</ele>
        <time>2020-10-18T12:08:10Z</time>
      </trkpt>
      <trkpt lat="38.832394" lon="-0.512980">
        <ele>385.242</ele>
        <time>2020-10-18T12:08:11Z</time>
      </trkpt>
      <trkpt lat="38.832497" lon="-0.512927">
        <ele>384.622</ele>
        <time>2020-10-18T12:08:12Z</time>
      </trkpt>
      <trkpt lat="38.832679" lon="-0.512779">
        <ele>383.814</ele>
        <time>2020-10-18T12:08:14Z</time>
      </trkpt>
      <trkpt lat="38.832983" lon="-0.512442">
        <ele>382.808</ele>
        <time>2020-10-18T12:08:18Z</time>
      </trkpt>
      <trkpt lat="38.833056" lon="-0.512360">
        <ele>382.689</ele>
        <time>2020-10-18T12:08:19Z</time>
      </trkpt>
      <trkpt lat="38.833264" lon="-0.512124">
        <ele>381.672</ele>
        <time>2020-10-18T12:08:22Z</time>
      </trkpt>
      <trkpt lat="38.833476" lon="-0.511900">
        <ele>380.652</ele>
        <time>2020-10-18T12:08:25Z</time>
      </trkpt>
      <trkpt lat="38.833550" lon="-0.511840">
        <ele>380.684</ele>
        <time>2020-10-18T12:08:26Z</time>
      </trkpt>
      <trkpt lat="38.833881" lon="-0.511646">
        <ele>379.616</ele>
        <time>2020-10-18T12:08:30Z</time>
      </trkpt>
      <trkpt lat="38.833972" lon="-0.511621">
        <ele>379.262</ele>
        <time>2020-10-18T12:08:31Z</time>
      </trkpt>
      <trkpt lat="38.834063" lon="-0.511609">
        <ele>379.040</ele>
        <time>2020-10-18T12:08:32Z</time>
      </trkpt>
      <trkpt lat="38.834253" lon="-0.511608">
        <ele>378.272</ele>
        <time>2020-10-18T12:08:34Z</time>
      </trkpt>
      <trkpt lat="38.834555" lon="-0.511600">
        <ele>376.625</ele>
        <time>2020-10-18T12:08:37Z</time>
      </trkpt>
      <trkpt lat="38.834655" lon="-0.511576">
        <ele>375.826</ele>
        <time>2020-10-18T12:08:38Z</time>
      </trkpt>
      <trkpt lat="38.834752" lon="-0.511547">
        <ele>375.408</ele>
        <time>2020-10-18T12:08:39Z</time>
      </trkpt>
      <trkpt lat="38.835037" lon="-0.511472">
        <ele>374.008</ele>
        <time>2020-10-18T12:08:42Z</time>
      </trkpt>
      <trkpt lat="38.835130" lon="-0.511474">
        <ele>373.267</ele>
        <time>2020-10-18T12:08:43Z</time>
      </trkpt>
      <trkpt lat="38.835220" lon="-0.511496">
        <ele>372.470</ele>
        <time>2020-10-18T12:08:44Z</time>
      </trkpt>
      <trkpt lat="38.835381" lon="-0.511610">
        <ele>371.210</ele>
        <time>2020-10-18T12:08:46Z</time>
      </trkpt>
      <trkpt lat="38.835493" lon="-0.511824">
        <ele>370.292</ele>
        <time>2020-10-18T12:08:48Z</time>
      </trkpt>
      <trkpt lat="38.835540" lon="-0.512158">
        <ele>369.254</ele>
        <time>2020-10-18T12:08:51Z</time>
      </trkpt>
      <trkpt lat="38.835550" lon="-0.512279">
        <ele>368.880</ele>
        <time>2020-10-18T12:08:52Z</time>
      </trkpt>
      <trkpt lat="38.835596" lon="-0.512634">
        <ele>368.018</ele>
        <time>2020-10-18T12:08:55Z</time>
      </trkpt>
      <trkpt lat="38.835682" lon="-0.513329">
        <ele>367.040</ele>
        <time>2020-10-18T12:09:01Z</time>
      </trkpt>
      <trkpt lat="38.835726" lon="-0.513666">
        <ele>366.084</ele>
        <time>2020-10-18T12:09:04Z</time>
      </trkpt>
      <trkpt lat="38.835747" lon="-0.514002">
        <ele>364.807</ele>
        <time>2020-10-18T12:09:07Z</time>
      </trkpt>
      <trkpt lat="38.835745" lon="-0.514119">
        <ele>364.417</ele>
        <time>2020-10-18T12:09:08Z</time>
      </trkpt>
      <trkpt lat="38.835745" lon="-0.514347">
        <ele>363.208</ele>
        <time>2020-10-18T12:09:10Z</time>
      </trkpt>
      <trkpt lat="38.835712" lon="-0.514705">
        <ele>361.853</ele>
        <time>2020-10-18T12:09:13Z</time>
      </trkpt>
      <trkpt lat="38.835681" lon="-0.514931">
        <ele>360.826</ele>
        <time>2020-10-18T12:09:15Z</time>
      </trkpt>
      <trkpt lat="38.835665" lon="-0.515047">
        <ele>360.236</ele>
        <time>2020-10-18T12:09:16Z</time>
      </trkpt>
      <trkpt lat="38.835642" lon="-0.515273">
        <ele>359.238</ele>
        <time>2020-10-18T12:09:18Z</time>
      </trkpt>
      <trkpt lat="38.835643" lon="-0.515379">
        <ele>359.040</ele>
        <time>2020-10-18T12:09:19Z</time>
      </trkpt>
      <trkpt lat="38.835660" lon="-0.515597">
        <ele>358.446</ele>
        <time>2020-10-18T12:09:21Z</time>
      </trkpt>
      <trkpt lat="38.835666" lon="-0.515708">
        <ele>358.044</ele>
        <time>2020-10-18T12:09:22Z</time>
      </trkpt>
      <trkpt lat="38.835669" lon="-0.516059">
        <ele>356.636</ele>
        <time>2020-10-18T12:09:25Z</time>
      </trkpt>
      <trkpt lat="38.835688" lon="-0.516301">
        <ele>355.639</ele>
        <time>2020-10-18T12:09:27Z</time>
      </trkpt>
      <trkpt lat="38.835709" lon="-0.516419">
        <ele>355.201</ele>
        <time>2020-10-18T12:09:28Z</time>
      </trkpt>
      <trkpt lat="38.835785" lon="-0.516772">
        <ele>354.021</ele>
        <time>2020-10-18T12:09:31Z</time>
      </trkpt>
      <trkpt lat="38.835817" lon="-0.516887">
        <ele>353.608</ele>
        <time>2020-10-18T12:09:32Z</time>
      </trkpt>
      <trkpt lat="38.835896" lon="-0.517106">
        <ele>353.088</ele>
        <time>2020-10-18T12:09:34Z</time>
      </trkpt>
      <trkpt lat="38.836041" lon="-0.517392">
        <ele>351.861</ele>
        <time>2020-10-18T12:09:37Z</time>
      </trkpt>
      <trkpt lat="38.836155" lon="-0.517589">
        <ele>350.621</ele>
        <time>2020-10-18T12:09:39Z</time>
      </trkpt>
      <trkpt lat="38.836343" lon="-0.517859">
        <ele>349.483</ele>
        <time>2020-10-18T12:09:42Z</time>
      </trkpt>
      <trkpt lat="38.836409" lon="-0.517953">
        <ele>348.885</ele>
        <time>2020-10-18T12:09:43Z</time>
      </trkpt>
      <trkpt lat="38.836563" lon="-0.518135">
        <ele>347.881</ele>
        <time>2020-10-18T12:09:45Z</time>
      </trkpt>
      <trkpt lat="38.836695" lon="-0.518263">
        <ele>346.669</ele>
        <time>2020-10-18T12:09:47Z</time>
      </trkpt>
      <trkpt lat="38.836769" lon="-0.518338">
        <ele>346.081</ele>
        <time>2020-10-18T12:09:48Z</time>
      </trkpt>
      <trkpt lat="38.836852" lon="-0.518423">
        <ele>345.452</ele>
        <time>2020-10-18T12:09:49Z</time>
      </trkpt>
      <trkpt lat="38.837053" lon="-0.518592">
        <ele>344.253</ele>
        <time>2020-10-18T12:09:52Z</time>
      </trkpt>
      <trkpt lat="38.837144" lon="-0.518640">
        <ele>344.008</ele>
        <time>2020-10-18T12:09:53Z</time>
      </trkpt>
      <trkpt lat="38.837356" lon="-0.518688">
        <ele>343.008</ele>
        <time>2020-10-18T12:09:56Z</time>
      </trkpt>
      <trkpt lat="38.837429" lon="-0.518691">
        <ele>342.480</ele>
        <time>2020-10-18T12:09:57Z</time>
      </trkpt>
      <trkpt lat="38.837501" lon="-0.518687">
        <ele>341.853</ele>
        <time>2020-10-18T12:09:58Z</time>
      </trkpt>
      <trkpt lat="38.837631" lon="-0.518634">
        <ele>340.863</ele>
        <time>2020-10-18T12:10:00Z</time>
      </trkpt>
      <trkpt lat="38.837685" lon="-0.518592">
        <ele>340.435</ele>
        <time>2020-10-18T12:10:01Z</time>
      </trkpt>
      <trkpt lat="38.837788" lon="-0.518514">
        <ele>339.867</ele>
        <time>2020-10-18T12:10:03Z</time>
      </trkpt>
      <trkpt lat="38.837856" lon="-0.518498">
        <ele>339.493</ele>
        <time>2020-10-18T12:10:04Z</time>
      </trkpt>
      <trkpt lat="38.837914" lon="-0.518506">
        <ele>339.291</ele>
        <time>2020-10-18T12:10:05Z</time>
      </trkpt>
      <trkpt lat="38.838016" lon="-0.518562">
        <ele>339.043</ele>
        <time>2020-10-18T12:10:07Z</time>
      </trkpt>
      <trkpt lat="38.838060" lon="-0.518600">
        <ele>339.043</ele>
        <time>2020-10-18T12:10:08Z</time>
      </trkpt>
      <trkpt lat="38.838293" lon="-0.518835">
        <ele>338.664</ele>
        <time>2020-10-18T12:10:14Z</time>
      </trkpt>
      <trkpt lat="38.838414" lon="-0.518931">
        <ele>338.410</ele>
        <time>2020-10-18T12:10:17Z</time>
      </trkpt>
      <trkpt lat="38.838516" lon="-0.519036">
        <ele>338.208</ele>
        <time>2020-10-18T12:10:20Z</time>
      </trkpt>
      <trkpt lat="38.838551" lon="-0.519079">
        <ele>338.279</ele>
        <time>2020-10-18T12:10:21Z</time>
      </trkpt>
      <trkpt lat="38.838631" lon="-0.519149">
        <ele>338.212</ele>
        <time>2020-10-18T12:10:23Z</time>
      </trkpt>
      <trkpt lat="38.838767" lon="-0.519226">
        <ele>337.612</ele>
        <time>2020-10-18T12:10:26Z</time>
      </trkpt>
      <trkpt lat="38.838867" lon="-0.519286">
        <ele>337.054</ele>
        <time>2020-10-18T12:10:28Z</time>
      </trkpt>
      <trkpt lat="38.838913" lon="-0.519323">
        <ele>336.696</ele>
        <time>2020-10-18T12:10:29Z</time>
      </trkpt>
      <trkpt lat="38.839011" lon="-0.519420">
        <ele>336.012</ele>
        <time>2020-10-18T12:10:31Z</time>
      </trkpt>
      <trkpt lat="38.839176" lon="-0.519585">
        <ele>334.890</ele>
        <time>2020-10-18T12:10:34Z</time>
      </trkpt>
      <trkpt lat="38.839231" lon="-0.519628">
        <ele>334.412</ele>
        <time>2020-10-18T12:10:35Z</time>
      </trkpt>
      <trkpt lat="38.839335" lon="-0.519730">
        <ele>333.812</ele>
        <time>2020-10-18T12:10:37Z</time>
      </trkpt>
      <trkpt lat="38.839385" lon="-0.519775">
        <ele>333.432</ele>
        <time>2020-10-18T12:10:38Z</time>
      </trkpt>
      <trkpt lat="38.839491" lon="-0.519846">
        <ele>332.805</ele>
        <time>2020-10-18T12:10:40Z</time>
      </trkpt>
      <trkpt lat="38.839535" lon="-0.519893">
        <ele>332.208</ele>
        <time>2020-10-18T12:10:41Z</time>
      </trkpt>
      <trkpt lat="38.839623" lon="-0.519981">
        <ele>331.416</ele>
        <time>2020-10-18T12:10:43Z</time>
      </trkpt>
      <trkpt lat="38.839668" lon="-0.520016">
        <ele>331.089</ele>
        <time>2020-10-18T12:10:44Z</time>
      </trkpt>
      <trkpt lat="38.839853" lon="-0.520192">
        <ele>330.039</ele>
        <time>2020-10-18T12:10:48Z</time>
      </trkpt>
      <trkpt lat="38.839916" lon="-0.520261">
        <ele>329.491</ele>
        <time>2020-10-18T12:10:50Z</time>
      </trkpt>
      <trkpt lat="38.839981" lon="-0.520311">
        <ele>329.223</ele>
        <time>2020-10-18T12:10:52Z</time>
      </trkpt>
      <trkpt lat="38.840049" lon="-0.520342">
        <ele>328.679</ele>
        <time>2020-10-18T12:10:54Z</time>
      </trkpt>
      <trkpt lat="38.840117" lon="-0.520357">
        <ele>328.267</ele>
        <time>2020-10-18T12:10:56Z</time>
      </trkpt>
      <trkpt lat="38.840205" lon="-0.520383">
        <ele>328.019</ele>
        <time>2020-10-18T12:10:59Z</time>
      </trkpt>
      <trkpt lat="38.840289" lon="-0.520432">
        <ele>327.692</ele>
        <time>2020-10-18T12:11:02Z</time>
      </trkpt>
      <trkpt lat="38.840316" lon="-0.520452">
        <ele>327.473</ele>
        <time>2020-10-18T12:11:03Z</time>
      </trkpt>
      <trkpt lat="38.840489" lon="-0.520570">
        <ele>327.020</ele>
        <time>2020-10-18T12:11:08Z</time>
      </trkpt>
      <trkpt lat="38.840570" lon="-0.520671">
        <ele>326.408</ele>
        <time>2020-10-18T12:11:11Z</time>
      </trkpt>
      <trkpt lat="38.840662" lon="-0.520765">
        <ele>326.064</ele>
        <time>2020-10-18T12:11:14Z</time>
      </trkpt>
      <trkpt lat="38.840748" lon="-0.520816">
        <ele>325.817</ele>
        <time>2020-10-18T12:11:16Z</time>
      </trkpt>
      <trkpt lat="38.840860" lon="-0.520838">
        <ele>325.247</ele>
        <time>2020-10-18T12:11:19Z</time>
      </trkpt>
      <trkpt lat="38.840934" lon="-0.520839">
        <ele>324.649</ele>
        <time>2020-10-18T12:11:21Z</time>
      </trkpt>
      <trkpt lat="38.840999" lon="-0.520846">
        <ele>324.271</ele>
        <time>2020-10-18T12:11:23Z</time>
      </trkpt>
      <trkpt lat="38.841046" lon="-0.520859">
        <ele>323.627</ele>
        <time>2020-10-18T12:11:25Z</time>
      </trkpt>
      <trkpt lat="38.841097" lon="-0.520861">
        <ele>323.235</ele>
        <time>2020-10-18T12:11:28Z</time>
      </trkpt>
      <trkpt lat="38.841097" lon="-0.520861">
        <ele>323.087</ele>
        <time>2020-10-18T12:11:30Z</time>
      </trkpt>
      <trkpt lat="38.841101" lon="-0.520863">
        <ele>322.856</ele>
        <time>2020-10-18T12:11:33Z</time>
      </trkpt>
      <trkpt lat="38.841155" lon="-0.520879">
        <ele>323.059</ele>
        <time>2020-10-18T12:11:36Z</time>
      </trkpt>
      <trkpt lat="38.841180" lon="-0.520889">
        <ele>323.014</ele>
        <time>2020-10-18T12:11:37Z</time>
      </trkpt>
      <trkpt lat="38.841340" lon="-0.520997">
        <ele>322.408</ele>
        <time>2020-10-18T12:11:42Z</time>
      </trkpt>
      <trkpt lat="38.841395" lon="-0.521098">
        <ele>322.230</ele>
        <time>2020-10-18T12:11:45Z</time>
      </trkpt>
      <trkpt lat="38.841372" lon="-0.521316">
        <ele>322.453</ele>
        <time>2020-10-18T12:11:50Z</time>
      </trkpt>
      <trkpt lat="38.841442" lon="-0.521584">
        <ele>323.253</ele>
        <time>2020-10-18T12:11:56Z</time>
      </trkpt>
      <trkpt lat="38.841454" lon="-0.521617">
        <ele>323.415</ele>
        <time>2020-10-18T12:11:57Z</time>
      </trkpt>
      <trkpt lat="38.841473" lon="-0.521689">
        <ele>323.897</ele>
        <time>2020-10-18T12:11:59Z</time>
      </trkpt>
      <trkpt lat="38.841494" lon="-0.521743">
        <ele>324.293</ele>
        <time>2020-10-18T12:12:01Z</time>
      </trkpt>
      <trkpt lat="38.841517" lon="-0.521799">
        <ele>324.471</ele>
        <time>2020-10-18T12:12:03Z</time>
      </trkpt>
      <trkpt lat="38.841541" lon="-0.521859">
        <ele>324.833</ele>
        <time>2020-10-18T12:12:05Z</time>
      </trkpt>
      <trkpt lat="38.841598" lon="-0.521911">
        <ele>325.215</ele>
        <time>2020-10-18T12:12:08Z</time>
      </trkpt>
      <trkpt lat="38.841620" lon="-0.521912">
        <ele>325.265</ele>
        <time>2020-10-18T12:12:09Z</time>
      </trkpt>
      <trkpt lat="38.841695" lon="-0.521883">
        <ele>325.011</ele>
        <time>2020-10-18T12:12:12Z</time>
      </trkpt>
      <trkpt lat="38.841803" lon="-0.521843">
        <ele>325.008</ele>
        <time>2020-10-18T12:12:16Z</time>
      </trkpt>
      <trkpt lat="38.842035" lon="-0.521776">
        <ele>325.016</ele>
        <time>2020-10-18T12:12:24Z</time>
      </trkpt>
      <trkpt lat="38.842065" lon="-0.521764">
        <ele>325.099</ele>
        <time>2020-10-18T12:12:25Z</time>
      </trkpt>
      <trkpt lat="38.842150" lon="-0.521736">
        <ele>324.829</ele>
        <time>2020-10-18T12:12:28Z</time>
      </trkpt>
      <trkpt lat="38.842384" lon="-0.521737">
        <ele>324.461</ele>
        <time>2020-10-18T12:12:35Z</time>
      </trkpt>
      <trkpt lat="38.842645" lon="-0.521732">
        <ele>324.083</ele>
        <time>2020-10-18T12:12:42Z</time>
      </trkpt>
      <trkpt lat="38.842794" lon="-0.521712">
        <ele>323.669</ele>
        <time>2020-10-18T12:12:47Z</time>
      </trkpt>
      <trkpt lat="38.842875" lon="-0.521833">
        <ele>323.627</ele>
        <time>2020-10-18T12:12:51Z</time>
      </trkpt>
      <trkpt lat="38.842876" lon="-0.522002">
        <ele>324.049</ele>
        <time>2020-10-18T12:12:57Z</time>
      </trkpt>
      <trkpt lat="38.842850" lon="-0.522102">
        <ele>324.446</ele>
        <time>2020-10-18T12:13:01Z</time>
      </trkpt>
      <trkpt lat="38.842832" lon="-0.522121">
        <ele>324.488</ele>
        <time>2020-10-18T12:13:02Z</time>
      </trkpt>
      <trkpt lat="38.842722" lon="-0.522164">
        <ele>324.816</ele>
        <time>2020-10-18T12:13:07Z</time>
      </trkpt>
      <trkpt lat="38.842640" lon="-0.522168">
        <ele>324.808</ele>
        <time>2020-10-18T12:13:11Z</time>
      </trkpt>
      <trkpt lat="38.842597" lon="-0.522175">
        <ele>324.879</ele>
        <time>2020-10-18T12:13:13Z</time>
      </trkpt>
      <trkpt lat="38.842498" lon="-0.522158">
        <ele>325.252</ele>
        <time>2020-10-18T12:13:18Z</time>
      </trkpt>
      <trkpt lat="38.842479" lon="-0.522150">
        <ele>325.292</ele>
        <time>2020-10-18T12:13:19Z</time>
      </trkpt>
      <trkpt lat="38.842447" lon="-0.522125">
        <ele>326.084</ele>
        <time>2020-10-18T12:13:25Z</time>
      </trkpt>
      <trkpt lat="38.842434" lon="-0.522124">
        <ele>325.696</ele>
        <time>2020-10-18T12:13:29Z</time>
      </trkpt>
      <trkpt lat="38.842434" lon="-0.522124">
        <ele>325.452</ele>
        <time>2020-10-18T12:13:30Z</time>
      </trkpt>
      <trkpt lat="38.842362" lon="-0.522136">
        <ele>325.470</ele>
        <time>2020-10-18T12:13:34Z</time>
      </trkpt>
    </trkseg>
  </trk>
</gpx>
